<?xml version="1.0" encoding="utf-8"?>
<gpx xmlns:xsi="http://www.w3.org/2001/XMLSchema-instance" xmlns:xsd="http://www.w3.org/2001/XMLSchema" version="1.1" creator="Shapelink.com" xmlns="http://www.topografix.com/GPX/1/1" xmlns:gpxtpx="http://www.garmin.com/xmlschemas/TrackPointExtension/v1">
  <metadata>
    <name>Løping 9.23 km, 2016-06-21</name>
    <desc></desc>
    <author><name>Stein Falk-Larssen</name></author> 
    <time>1970-01-01T01:00:00Z</time>
  </metadata>
  <trk>
    <name>Løping 9.23 km, 2016-06-21</name>
    <trkseg>
      <trkpt lat="63.41255167" lon="10.47216717">
        <ele>0</ele>
        <time>1970-01-01T01:00:00Z</time>
      </trkpt>
      <trkpt lat="63.41255167" lon="10.47216717">
        <ele>0</ele>
        <time>1970-01-01T01:00:00Z</time>
      </trkpt>
      <trkpt lat="63.41251067" lon="10.4720075">
        <ele>0</ele>
        <time>1970-01-01T01:00:00Z</time>
      </trkpt>
      <trkpt lat="63.41250483" lon="10.4719865">
        <ele>0</ele>
        <time>1970-01-01T01:00:00Z</time>
      </trkpt>
      <trkpt lat="63.412505" lon="10.47199233">
        <ele>0</ele>
        <time>1970-01-01T01:00:00Z</time>
      </trkpt>
      <trkpt lat="63.41250633" lon="10.47200833">
        <ele>0</ele>
        <time>1970-01-01T01:00:00Z</time>
      </trkpt>
      <trkpt lat="63.41251" lon="10.47203333">
        <ele>0</ele>
        <time>1970-01-01T01:00:00Z</time>
      </trkpt>
      <trkpt lat="63.41251233" lon="10.47205667">
        <ele>0</ele>
        <time>1970-01-01T01:00:00Z</time>
      </trkpt>
      <trkpt lat="63.412514" lon="10.47207283">
        <ele>0</ele>
        <time>1970-01-01T01:00:00Z</time>
      </trkpt>
      <trkpt lat="63.412514" lon="10.472078">
        <ele>0</ele>
        <time>1970-01-01T01:00:00Z</time>
      </trkpt>
      <trkpt lat="63.412511" lon="10.47206967">
        <ele>0</ele>
        <time>1970-01-01T01:00:00Z</time>
      </trkpt>
      <trkpt lat="63.4125085" lon="10.4720655">
        <ele>0</ele>
        <time>1970-01-01T01:00:00Z</time>
      </trkpt>
      <trkpt lat="63.4125035" lon="10.47205917">
        <ele>0</ele>
        <time>1970-01-01T01:00:00Z</time>
      </trkpt>
      <trkpt lat="63.41249767" lon="10.472057">
        <ele>0</ele>
        <time>1970-01-01T01:00:00Z</time>
      </trkpt>
      <trkpt lat="63.41248783" lon="10.4720505">
        <ele>0</ele>
        <time>1970-01-01T01:00:00Z</time>
      </trkpt>
      <trkpt lat="63.412473" lon="10.47203967">
        <ele>0</ele>
        <time>1970-01-01T01:00:00Z</time>
      </trkpt>
      <trkpt lat="63.41245517" lon="10.472029">
        <ele>0</ele>
        <time>1970-01-01T01:00:00Z</time>
      </trkpt>
      <trkpt lat="63.41243567" lon="10.47202033">
        <ele>0</ele>
        <time>1970-01-01T01:00:00Z</time>
      </trkpt>
      <trkpt lat="63.41241867" lon="10.47201683">
        <ele>0</ele>
        <time>1970-01-01T01:00:00Z</time>
      </trkpt>
      <trkpt lat="63.4124055" lon="10.47201767">
        <ele>0</ele>
        <time>1970-01-01T01:00:00Z</time>
      </trkpt>
      <trkpt lat="63.412394" lon="10.47201817">
        <ele>0</ele>
        <time>1970-01-01T01:00:00Z</time>
      </trkpt>
      <trkpt lat="63.412383" lon="10.47202083">
        <ele>0</ele>
        <time>1970-01-01T01:00:00Z</time>
      </trkpt>
      <trkpt lat="63.41237067" lon="10.47202133">
        <ele>0</ele>
        <time>1970-01-01T01:00:00Z</time>
      </trkpt>
      <trkpt lat="63.4123575" lon="10.47202217">
        <ele>0</ele>
        <time>1970-01-01T01:00:00Z</time>
      </trkpt>
      <trkpt lat="63.412344" lon="10.47201967">
        <ele>0</ele>
        <time>1970-01-01T01:00:00Z</time>
      </trkpt>
      <trkpt lat="63.41233" lon="10.47201633">
        <ele>0</ele>
        <time>1970-01-01T01:00:00Z</time>
      </trkpt>
      <trkpt lat="63.412317" lon="10.47201117">
        <ele>0</ele>
        <time>1970-01-01T01:00:00Z</time>
      </trkpt>
      <trkpt lat="63.41230467" lon="10.4720065">
        <ele>0</ele>
        <time>1970-01-01T01:00:00Z</time>
      </trkpt>
      <trkpt lat="63.4122935" lon="10.47200183">
        <ele>0</ele>
        <time>1970-01-01T01:00:00Z</time>
      </trkpt>
      <trkpt lat="63.41228283" lon="10.47199783">
        <ele>0</ele>
        <time>1970-01-01T01:00:00Z</time>
      </trkpt>
      <trkpt lat="63.41227217" lon="10.47199733">
        <ele>0</ele>
        <time>1970-01-01T01:00:00Z</time>
      </trkpt>
      <trkpt lat="63.41226017" lon="10.47200033">
        <ele>0</ele>
        <time>1970-01-01T01:00:00Z</time>
      </trkpt>
      <trkpt lat="63.41224533" lon="10.47200617">
        <ele>0</ele>
        <time>1970-01-01T01:00:00Z</time>
      </trkpt>
      <trkpt lat="63.412229" lon="10.47201117">
        <ele>0</ele>
        <time>1970-01-01T01:00:00Z</time>
      </trkpt>
      <trkpt lat="63.41221217" lon="10.4720145">
        <ele>0</ele>
        <time>1970-01-01T01:00:00Z</time>
      </trkpt>
      <trkpt lat="63.412194" lon="10.47201567">
        <ele>0</ele>
        <time>1970-01-01T01:00:00Z</time>
      </trkpt>
      <trkpt lat="63.41217467" lon="10.4720175">
        <ele>0</ele>
        <time>1970-01-01T01:00:00Z</time>
      </trkpt>
      <trkpt lat="63.41215567" lon="10.4720165">
        <ele>0</ele>
        <time>1970-01-01T01:00:00Z</time>
      </trkpt>
      <trkpt lat="63.41213783" lon="10.47201583">
        <ele>0</ele>
        <time>1970-01-01T01:00:00Z</time>
      </trkpt>
      <trkpt lat="63.412121" lon="10.47201183">
        <ele>0</ele>
        <time>1970-01-01T01:00:00Z</time>
      </trkpt>
      <trkpt lat="63.41210417" lon="10.47200883">
        <ele>0</ele>
        <time>1970-01-01T01:00:00Z</time>
      </trkpt>
      <trkpt lat="63.41208867" lon="10.47200483">
        <ele>0</ele>
        <time>1970-01-01T01:00:00Z</time>
      </trkpt>
      <trkpt lat="63.41207383" lon="10.47200117">
        <ele>0</ele>
        <time>1970-01-01T01:00:00Z</time>
      </trkpt>
      <trkpt lat="63.41205783" lon="10.47200183">
        <ele>0</ele>
        <time>1970-01-01T01:00:00Z</time>
      </trkpt>
      <trkpt lat="63.41204117" lon="10.47200617">
        <ele>0</ele>
        <time>1970-01-01T01:00:00Z</time>
      </trkpt>
      <trkpt lat="63.4120245" lon="10.4720115">
        <ele>0</ele>
        <time>1970-01-01T01:00:00Z</time>
      </trkpt>
      <trkpt lat="63.41200483" lon="10.47200617">
        <ele>0</ele>
        <time>1970-01-01T01:00:00Z</time>
      </trkpt>
      <trkpt lat="63.4119825" lon="10.47199417">
        <ele>0</ele>
        <time>1970-01-01T01:00:00Z</time>
      </trkpt>
      <trkpt lat="63.41195917" lon="10.47197833">
        <ele>0</ele>
        <time>1970-01-01T01:00:00Z</time>
      </trkpt>
      <trkpt lat="63.41193967" lon="10.47196483">
        <ele>0</ele>
        <time>1970-01-01T01:00:00Z</time>
      </trkpt>
      <trkpt lat="63.41192183" lon="10.47194633">
        <ele>0</ele>
        <time>1970-01-01T01:00:00Z</time>
      </trkpt>
      <trkpt lat="63.4119065" lon="10.47192667">
        <ele>0</ele>
        <time>1970-01-01T01:00:00Z</time>
      </trkpt>
      <trkpt lat="63.41189233" lon="10.47190483">
        <ele>0</ele>
        <time>1970-01-01T01:00:00Z</time>
      </trkpt>
      <trkpt lat="63.41188183" lon="10.471875">
        <ele>0</ele>
        <time>1970-01-01T01:00:00Z</time>
      </trkpt>
      <trkpt lat="63.41187067" lon="10.47183833">
        <ele>0</ele>
        <time>1970-01-01T01:00:00Z</time>
      </trkpt>
      <trkpt lat="63.41186067" lon="10.471801">
        <ele>0</ele>
        <time>1970-01-01T01:00:00Z</time>
      </trkpt>
      <trkpt lat="63.41185" lon="10.47177">
        <ele>0</ele>
        <time>1970-01-01T01:00:00Z</time>
      </trkpt>
      <trkpt lat="63.41183833" lon="10.47174017">
        <ele>0</ele>
        <time>1970-01-01T01:00:00Z</time>
      </trkpt>
      <trkpt lat="63.4118255" lon="10.47171033">
        <ele>156.059</ele>
        <time>1970-01-01T01:00:00Z</time>
      </trkpt>
      <trkpt lat="63.41181233" lon="10.47168233">
        <ele>156.059</ele>
        <time>1970-01-01T01:00:00Z</time>
      </trkpt>
      <trkpt lat="63.41179983" lon="10.47165567">
        <ele>156.059</ele>
        <time>1970-01-01T01:00:00Z</time>
      </trkpt>
      <trkpt lat="63.4117875" lon="10.47162883">
        <ele>156.059</ele>
        <time>1970-01-01T01:00:00Z</time>
      </trkpt>
      <trkpt lat="63.41177417" lon="10.47160317">
        <ele>155.907</ele>
        <time>1970-01-01T01:00:00Z</time>
      </trkpt>
      <trkpt lat="63.41176" lon="10.4715815">
        <ele>155.907</ele>
        <time>1970-01-01T01:00:00Z</time>
      </trkpt>
      <trkpt lat="63.41174583" lon="10.47156033">
        <ele>155.755</ele>
        <time>1970-01-01T01:00:00Z</time>
      </trkpt>
      <trkpt lat="63.41173217" lon="10.47154067">
        <ele>155.755</ele>
        <time>1970-01-01T01:00:00Z</time>
      </trkpt>
      <trkpt lat="63.41171833" lon="10.47152083">
        <ele>155.602</ele>
        <time>1970-01-01T01:00:00Z</time>
      </trkpt>
      <trkpt lat="63.41170433" lon="10.47150233">
        <ele>155.602</ele>
        <time>1970-01-01T01:00:00Z</time>
      </trkpt>
      <trkpt lat="63.411689" lon="10.4714845">
        <ele>155.45</ele>
        <time>1970-01-01T01:00:00Z</time>
      </trkpt>
      <trkpt lat="63.41167383" lon="10.47146783">
        <ele>155.45</ele>
        <time>1970-01-01T01:00:00Z</time>
      </trkpt>
      <trkpt lat="63.411658" lon="10.47144883">
        <ele>155.45</ele>
        <time>1970-01-01T01:00:00Z</time>
      </trkpt>
      <trkpt lat="63.41164217" lon="10.47143083">
        <ele>155.45</ele>
        <time>1970-01-01T01:00:00Z</time>
      </trkpt>
      <trkpt lat="63.411626" lon="10.471415">
        <ele>155.45</ele>
        <time>1970-01-01T01:00:00Z</time>
      </trkpt>
      <trkpt lat="63.41160883" lon="10.47140133">
        <ele>155.45</ele>
        <time>1970-01-01T01:00:00Z</time>
      </trkpt>
      <trkpt lat="63.41158983" lon="10.47138617">
        <ele>155.45</ele>
        <time>1970-01-01T01:00:00Z</time>
      </trkpt>
      <trkpt lat="63.41156917" lon="10.47136567">
        <ele>155.45</ele>
        <time>1970-01-01T01:00:00Z</time>
      </trkpt>
      <trkpt lat="63.41154733" lon="10.47134633">
        <ele>155.45</ele>
        <time>1970-01-01T01:00:00Z</time>
      </trkpt>
      <trkpt lat="63.4115255" lon="10.471325">
        <ele>155.45</ele>
        <time>1970-01-01T01:00:00Z</time>
      </trkpt>
      <trkpt lat="63.41150517" lon="10.47130183">
        <ele>155.602</ele>
        <time>1970-01-01T01:00:00Z</time>
      </trkpt>
      <trkpt lat="63.411488" lon="10.47127167">
        <ele>155.602</ele>
        <time>1970-01-01T01:00:00Z</time>
      </trkpt>
      <trkpt lat="63.4114735" lon="10.4712365">
        <ele>155.602</ele>
        <time>1970-01-01T01:00:00Z</time>
      </trkpt>
      <trkpt lat="63.41146" lon="10.471204">
        <ele>155.602</ele>
        <time>1970-01-01T01:00:00Z</time>
      </trkpt>
      <trkpt lat="63.41144617" lon="10.4711765">
        <ele>155.602</ele>
        <time>1970-01-01T01:00:00Z</time>
      </trkpt>
      <trkpt lat="63.41143233" lon="10.471154">
        <ele>155.602</ele>
        <time>1970-01-01T01:00:00Z</time>
      </trkpt>
      <trkpt lat="63.41141783" lon="10.47113233">
        <ele>155.755</ele>
        <time>1970-01-01T01:00:00Z</time>
      </trkpt>
      <trkpt lat="63.41140083" lon="10.47111217">
        <ele>155.755</ele>
        <time>1970-01-01T01:00:00Z</time>
      </trkpt>
      <trkpt lat="63.41138183" lon="10.4710915">
        <ele>155.755</ele>
        <time>1970-01-01T01:00:00Z</time>
      </trkpt>
      <trkpt lat="63.41136333" lon="10.47107083">
        <ele>155.755</ele>
        <time>1970-01-01T01:00:00Z</time>
      </trkpt>
      <trkpt lat="63.41134683" lon="10.47104833">
        <ele>155.755</ele>
        <time>1970-01-01T01:00:00Z</time>
      </trkpt>
      <trkpt lat="63.41133083" lon="10.4710255">
        <ele>155.755</ele>
        <time>1970-01-01T01:00:00Z</time>
      </trkpt>
      <trkpt lat="63.41131417" lon="10.4710015">
        <ele>155.755</ele>
        <time>1970-01-01T01:00:00Z</time>
      </trkpt>
      <trkpt lat="63.4112975" lon="10.47097933">
        <ele>155.755</ele>
        <time>1970-01-01T01:00:00Z</time>
      </trkpt>
      <trkpt lat="63.41128067" lon="10.47095867">
        <ele>155.755</ele>
        <time>1970-01-01T01:00:00Z</time>
      </trkpt>
      <trkpt lat="63.411263" lon="10.470937">
        <ele>155.755</ele>
        <time>1970-01-01T01:00:00Z</time>
      </trkpt>
      <trkpt lat="63.4112445" lon="10.47091283">
        <ele>155.755</ele>
        <time>1970-01-01T01:00:00Z</time>
      </trkpt>
      <trkpt lat="63.4112265" lon="10.4708905">
        <ele>155.755</ele>
        <time>1970-01-01T01:00:00Z</time>
      </trkpt>
      <trkpt lat="63.41120983" lon="10.47087117">
        <ele>155.907</ele>
        <time>1970-01-01T01:00:00Z</time>
      </trkpt>
      <trkpt lat="63.41119383" lon="10.47085483">
        <ele>155.907</ele>
        <time>1970-01-01T01:00:00Z</time>
      </trkpt>
      <trkpt lat="63.41117833" lon="10.47083483">
        <ele>155.907</ele>
        <time>1970-01-01T01:00:00Z</time>
      </trkpt>
      <trkpt lat="63.4111625" lon="10.470816">
        <ele>155.907</ele>
        <time>1970-01-01T01:00:00Z</time>
      </trkpt>
      <trkpt lat="63.41114667" lon="10.47079567">
        <ele>156.059</ele>
        <time>1970-01-01T01:00:00Z</time>
      </trkpt>
      <trkpt lat="63.41113017" lon="10.470775">
        <ele>156.059</ele>
        <time>1970-01-01T01:00:00Z</time>
      </trkpt>
      <trkpt lat="63.4111135" lon="10.47075367">
        <ele>156.364</ele>
        <time>1970-01-01T01:00:00Z</time>
      </trkpt>
      <trkpt lat="63.41109667" lon="10.47072533">
        <ele>156.364</ele>
        <time>1970-01-01T01:00:00Z</time>
      </trkpt>
      <trkpt lat="63.41108117" lon="10.47069717">
        <ele>156.517</ele>
        <time>1970-01-01T01:00:00Z</time>
      </trkpt>
      <trkpt lat="63.4110665" lon="10.4706705">
        <ele>156.517</ele>
        <time>1970-01-01T01:00:00Z</time>
      </trkpt>
      <trkpt lat="63.41105183" lon="10.47064717">
        <ele>156.669</ele>
        <time>1970-01-01T01:00:00Z</time>
      </trkpt>
      <trkpt lat="63.411036" lon="10.47062433">
        <ele>156.669</ele>
        <time>1970-01-01T01:00:00Z</time>
      </trkpt>
      <trkpt lat="63.411019" lon="10.4706">
        <ele>156.974</ele>
        <time>1970-01-01T01:00:00Z</time>
      </trkpt>
      <trkpt lat="63.41100317" lon="10.47057767">
        <ele>156.974</ele>
        <time>1970-01-01T01:00:00Z</time>
      </trkpt>
      <trkpt lat="63.41098917" lon="10.470561">
        <ele>157.279</ele>
        <time>1970-01-01T01:00:00Z</time>
      </trkpt>
      <trkpt lat="63.41097683" lon="10.4705465">
        <ele>157.279</ele>
        <time>1970-01-01T01:00:00Z</time>
      </trkpt>
      <trkpt lat="63.410964" lon="10.470534">
        <ele>157.736</ele>
        <time>1970-01-01T01:00:00Z</time>
      </trkpt>
      <trkpt lat="63.41094883" lon="10.4705235">
        <ele>157.736</ele>
        <time>1970-01-01T01:00:00Z</time>
      </trkpt>
      <trkpt lat="63.41093167" lon="10.47051433">
        <ele>158.193</ele>
        <time>1970-01-01T01:00:00Z</time>
      </trkpt>
      <trkpt lat="63.41091483" lon="10.47050667">
        <ele>158.193</ele>
        <time>1970-01-01T01:00:00Z</time>
      </trkpt>
      <trkpt lat="63.410898" lon="10.470496">
        <ele>158.955</ele>
        <time>1970-01-01T01:00:00Z</time>
      </trkpt>
      <trkpt lat="63.41087917" lon="10.4704825">
        <ele>158.955</ele>
        <time>1970-01-01T01:00:00Z</time>
      </trkpt>
      <trkpt lat="63.41085817" lon="10.47046783">
        <ele>159.565</ele>
        <time>1970-01-01T01:00:00Z</time>
      </trkpt>
      <trkpt lat="63.4108385" lon="10.47045433">
        <ele>159.565</ele>
        <time>1970-01-01T01:00:00Z</time>
      </trkpt>
      <trkpt lat="63.41082183" lon="10.4704445">
        <ele>160.174</ele>
        <time>1970-01-01T01:00:00Z</time>
      </trkpt>
      <trkpt lat="63.4108055" lon="10.4704365">
        <ele>160.174</ele>
        <time>1970-01-01T01:00:00Z</time>
      </trkpt>
      <trkpt lat="63.410789" lon="10.47042667">
        <ele>160.784</ele>
        <time>1970-01-01T01:00:00Z</time>
      </trkpt>
      <trkpt lat="63.41077017" lon="10.47041233">
        <ele>160.784</ele>
        <time>1970-01-01T01:00:00Z</time>
      </trkpt>
      <trkpt lat="63.41074883" lon="10.47040217">
        <ele>161.241</ele>
        <time>1970-01-01T01:00:00Z</time>
      </trkpt>
      <trkpt lat="63.4107235" lon="10.47039717">
        <ele>161.241</ele>
        <time>1970-01-01T01:00:00Z</time>
      </trkpt>
      <trkpt lat="63.41069933" lon="10.47039933">
        <ele>161.394</ele>
        <time>1970-01-01T01:00:00Z</time>
      </trkpt>
      <trkpt lat="63.41067983" lon="10.470404">
        <ele>161.394</ele>
        <time>1970-01-01T01:00:00Z</time>
      </trkpt>
      <trkpt lat="63.410667" lon="10.47041583">
        <ele>161.546</ele>
        <time>1970-01-01T01:00:00Z</time>
      </trkpt>
      <trkpt lat="63.41065933" lon="10.4704345">
        <ele>161.546</ele>
        <time>1970-01-01T01:00:00Z</time>
      </trkpt>
      <trkpt lat="63.41065467" lon="10.470456">
        <ele>161.698</ele>
        <time>1970-01-01T01:00:00Z</time>
      </trkpt>
      <trkpt lat="63.41065083" lon="10.47047783">
        <ele>161.698</ele>
        <time>1970-01-01T01:00:00Z</time>
      </trkpt>
      <trkpt lat="63.41064883" lon="10.470505">
        <ele>161.851</ele>
        <time>1970-01-01T01:00:00Z</time>
      </trkpt>
      <trkpt lat="63.41064683" lon="10.47054283">
        <ele>161.851</ele>
        <time>1970-01-01T01:00:00Z</time>
      </trkpt>
      <trkpt lat="63.41064617" lon="10.47058483">
        <ele>162.156</ele>
        <time>1970-01-01T01:00:00Z</time>
      </trkpt>
      <trkpt lat="63.410644" lon="10.47062867">
        <ele>162.156</ele>
        <time>1970-01-01T01:00:00Z</time>
      </trkpt>
      <trkpt lat="63.41064167" lon="10.47067583">
        <ele>162.613</ele>
        <time>1970-01-01T01:00:00Z</time>
      </trkpt>
      <trkpt lat="63.41063067" lon="10.47071633">
        <ele>162.613</ele>
        <time>1970-01-01T01:00:00Z</time>
      </trkpt>
      <trkpt lat="63.410616" lon="10.4707475">
        <ele>163.07</ele>
        <time>1970-01-01T01:00:00Z</time>
      </trkpt>
      <trkpt lat="63.41059817" lon="10.47076583">
        <ele>163.07</ele>
        <time>1970-01-01T01:00:00Z</time>
      </trkpt>
      <trkpt lat="63.41058317" lon="10.47079017">
        <ele>163.527</ele>
        <time>1970-01-01T01:00:00Z</time>
      </trkpt>
      <trkpt lat="63.4105685" lon="10.470818">
        <ele>163.527</ele>
        <time>1970-01-01T01:00:00Z</time>
      </trkpt>
      <trkpt lat="63.4105515" lon="10.47085017">
        <ele>164.137</ele>
        <time>1970-01-01T01:00:00Z</time>
      </trkpt>
      <trkpt lat="63.41053483" lon="10.4708865">
        <ele>164.137</ele>
        <time>1970-01-01T01:00:00Z</time>
      </trkpt>
      <trkpt lat="63.410518" lon="10.47092333">
        <ele>164.746</ele>
        <time>1970-01-01T01:00:00Z</time>
      </trkpt>
      <trkpt lat="63.41050267" lon="10.47096017">
        <ele>164.746</ele>
        <time>1970-01-01T01:00:00Z</time>
      </trkpt>
      <trkpt lat="63.4104885" lon="10.4709925">
        <ele>165.204</ele>
        <time>1970-01-01T01:00:00Z</time>
      </trkpt>
      <trkpt lat="63.4104755" lon="10.47102617">
        <ele>165.204</ele>
        <time>1970-01-01T01:00:00Z</time>
      </trkpt>
      <trkpt lat="63.41046517" lon="10.47105983">
        <ele>165.508</ele>
        <time>1970-01-01T01:00:00Z</time>
      </trkpt>
      <trkpt lat="63.41045783" lon="10.471097">
        <ele>165.508</ele>
        <time>1970-01-01T01:00:00Z</time>
      </trkpt>
      <trkpt lat="63.41045417" lon="10.47113683">
        <ele>166.118</ele>
        <time>1970-01-01T01:00:00Z</time>
      </trkpt>
      <trkpt lat="63.41045233" lon="10.47117867">
        <ele>166.118</ele>
        <time>1970-01-01T01:00:00Z</time>
      </trkpt>
      <trkpt lat="63.4104505" lon="10.47121983">
        <ele>166.728</ele>
        <time>1970-01-01T01:00:00Z</time>
      </trkpt>
      <trkpt lat="63.41044933" lon="10.47126467">
        <ele>166.728</ele>
        <time>1970-01-01T01:00:00Z</time>
      </trkpt>
      <trkpt lat="63.41044833" lon="10.47130733">
        <ele>167.642</ele>
        <time>1970-01-01T01:00:00Z</time>
      </trkpt>
      <trkpt lat="63.410449" lon="10.47134817">
        <ele>167.642</ele>
        <time>1970-01-01T01:00:00Z</time>
      </trkpt>
      <trkpt lat="63.41044733" lon="10.47138683">
        <ele>168.709</ele>
        <time>1970-01-01T01:00:00Z</time>
      </trkpt>
      <trkpt lat="63.41044583" lon="10.47142783">
        <ele>168.709</ele>
        <time>1970-01-01T01:00:00Z</time>
      </trkpt>
      <trkpt lat="63.410445" lon="10.47146833">
        <ele>169.928</ele>
        <time>1970-01-01T01:00:00Z</time>
      </trkpt>
      <trkpt lat="63.410446" lon="10.4715095">
        <ele>169.928</ele>
        <time>1970-01-01T01:00:00Z</time>
      </trkpt>
      <trkpt lat="63.410448" lon="10.4715535">
        <ele>171.147</ele>
        <time>1970-01-01T01:00:00Z</time>
      </trkpt>
      <trkpt lat="63.410449" lon="10.471602">
        <ele>171.147</ele>
        <time>1970-01-01T01:00:00Z</time>
      </trkpt>
      <trkpt lat="63.41044967" lon="10.4716515">
        <ele>172.671</ele>
        <time>1970-01-01T01:00:00Z</time>
      </trkpt>
      <trkpt lat="63.41045" lon="10.4717035">
        <ele>172.671</ele>
        <time>1970-01-01T01:00:00Z</time>
      </trkpt>
      <trkpt lat="63.41044983" lon="10.47175567">
        <ele>174.195</ele>
        <time>1970-01-01T01:00:00Z</time>
      </trkpt>
      <trkpt lat="63.41044967" lon="10.47180567">
        <ele>174.195</ele>
        <time>1970-01-01T01:00:00Z</time>
      </trkpt>
      <trkpt lat="63.410448" lon="10.47185283">
        <ele>175.567</ele>
        <time>1970-01-01T01:00:00Z</time>
      </trkpt>
      <trkpt lat="63.4104465" lon="10.47190133">
        <ele>175.567</ele>
        <time>1970-01-01T01:00:00Z</time>
      </trkpt>
      <trkpt lat="63.41044283" lon="10.47195267">
        <ele>177.091</ele>
        <time>1970-01-01T01:00:00Z</time>
      </trkpt>
      <trkpt lat="63.41043983" lon="10.472">
        <ele>177.091</ele>
        <time>1970-01-01T01:00:00Z</time>
      </trkpt>
      <trkpt lat="63.41043533" lon="10.472051">
        <ele>178.31</ele>
        <time>1970-01-01T01:00:00Z</time>
      </trkpt>
      <trkpt lat="63.41043033" lon="10.47210017">
        <ele>178.31</ele>
        <time>1970-01-01T01:00:00Z</time>
      </trkpt>
      <trkpt lat="63.41042417" lon="10.472152">
        <ele>179.682</ele>
        <time>1970-01-01T01:00:00Z</time>
      </trkpt>
      <trkpt lat="63.41041367" lon="10.47219883">
        <ele>179.682</ele>
        <time>1970-01-01T01:00:00Z</time>
      </trkpt>
      <trkpt lat="63.410399" lon="10.47224383">
        <ele>180.901</ele>
        <time>1970-01-01T01:00:00Z</time>
      </trkpt>
      <trkpt lat="63.4103795" lon="10.47228717">
        <ele>180.901</ele>
        <time>1970-01-01T01:00:00Z</time>
      </trkpt>
      <trkpt lat="63.41035417" lon="10.47232317">
        <ele>181.968</ele>
        <time>1970-01-01T01:00:00Z</time>
      </trkpt>
      <trkpt lat="63.41032233" lon="10.47235017">
        <ele>181.968</ele>
        <time>1970-01-01T01:00:00Z</time>
      </trkpt>
      <trkpt lat="63.410286" lon="10.47236333">
        <ele>182.577</ele>
        <time>1970-01-01T01:00:00Z</time>
      </trkpt>
      <trkpt lat="63.41025133" lon="10.472372">
        <ele>182.577</ele>
        <time>1970-01-01T01:00:00Z</time>
      </trkpt>
      <trkpt lat="63.41021667" lon="10.47237917">
        <ele>182.73</ele>
        <time>1970-01-01T01:00:00Z</time>
      </trkpt>
      <trkpt lat="63.41018183" lon="10.47238833">
        <ele>182.73</ele>
        <time>1970-01-01T01:00:00Z</time>
      </trkpt>
      <trkpt lat="63.410149" lon="10.4723965">
        <ele>182.425</ele>
        <time>1970-01-01T01:00:00Z</time>
      </trkpt>
      <trkpt lat="63.41012017" lon="10.4724015">
        <ele>182.425</ele>
        <time>1970-01-01T01:00:00Z</time>
      </trkpt>
      <trkpt lat="63.41009433" lon="10.47240983">
        <ele>181.968</ele>
        <time>1970-01-01T01:00:00Z</time>
      </trkpt>
      <trkpt lat="63.410069" lon="10.47241833">
        <ele>181.968</ele>
        <time>1970-01-01T01:00:00Z</time>
      </trkpt>
      <trkpt lat="63.41004467" lon="10.47242967">
        <ele>181.358</ele>
        <time>1970-01-01T01:00:00Z</time>
      </trkpt>
      <trkpt lat="63.41002117" lon="10.47244167">
        <ele>181.358</ele>
        <time>1970-01-01T01:00:00Z</time>
      </trkpt>
      <trkpt lat="63.40999717" lon="10.47245133">
        <ele>180.596</ele>
        <time>1970-01-01T01:00:00Z</time>
      </trkpt>
      <trkpt lat="63.40997533" lon="10.47246133">
        <ele>180.596</ele>
        <time>1970-01-01T01:00:00Z</time>
      </trkpt>
      <trkpt lat="63.4099535" lon="10.472471">
        <ele>179.987</ele>
        <time>1970-01-01T01:00:00Z</time>
      </trkpt>
      <trkpt lat="63.4099315" lon="10.47247967">
        <ele>179.987</ele>
        <time>1970-01-01T01:00:00Z</time>
      </trkpt>
      <trkpt lat="63.40990767" lon="10.472486">
        <ele>179.225</ele>
        <time>1970-01-01T01:00:00Z</time>
      </trkpt>
      <trkpt lat="63.409882" lon="10.4724875">
        <ele>179.225</ele>
        <time>1970-01-01T01:00:00Z</time>
      </trkpt>
      <trkpt lat="63.40985567" lon="10.4724905">
        <ele>178.463</ele>
        <time>1970-01-01T01:00:00Z</time>
      </trkpt>
      <trkpt lat="63.40983067" lon="10.47249">
        <ele>178.463</ele>
        <time>1970-01-01T01:00:00Z</time>
      </trkpt>
      <trkpt lat="63.4098055" lon="10.47248667">
        <ele>177.853</ele>
        <time>1970-01-01T01:00:00Z</time>
      </trkpt>
      <trkpt lat="63.409781" lon="10.47248067">
        <ele>177.853</ele>
        <time>1970-01-01T01:00:00Z</time>
      </trkpt>
      <trkpt lat="63.40975567" lon="10.47247767">
        <ele>177.091</ele>
        <time>1970-01-01T01:00:00Z</time>
      </trkpt>
      <trkpt lat="63.409731" lon="10.47247567">
        <ele>177.091</ele>
        <time>1970-01-01T01:00:00Z</time>
      </trkpt>
      <trkpt lat="63.40970517" lon="10.47247383">
        <ele>176.481</ele>
        <time>1970-01-01T01:00:00Z</time>
      </trkpt>
      <trkpt lat="63.40968" lon="10.47246883">
        <ele>176.481</ele>
        <time>1970-01-01T01:00:00Z</time>
      </trkpt>
      <trkpt lat="63.40965733" lon="10.47246167">
        <ele>175.872</ele>
        <time>1970-01-01T01:00:00Z</time>
      </trkpt>
      <trkpt lat="63.4096345" lon="10.47245483">
        <ele>175.872</ele>
        <time>1970-01-01T01:00:00Z</time>
      </trkpt>
      <trkpt lat="63.40961067" lon="10.47244867">
        <ele>175.11</ele>
        <time>1970-01-01T01:00:00Z</time>
      </trkpt>
      <trkpt lat="63.409587" lon="10.47244333">
        <ele>175.11</ele>
        <time>1970-01-01T01:00:00Z</time>
      </trkpt>
      <trkpt lat="63.4095645" lon="10.472436">
        <ele>174.5</ele>
        <time>1970-01-01T01:00:00Z</time>
      </trkpt>
      <trkpt lat="63.409544" lon="10.47242833">
        <ele>174.5</ele>
        <time>1970-01-01T01:00:00Z</time>
      </trkpt>
      <trkpt lat="63.40952417" lon="10.4724205">
        <ele>174.348</ele>
        <time>1970-01-01T01:00:00Z</time>
      </trkpt>
      <trkpt lat="63.40950417" lon="10.472412">
        <ele>174.348</ele>
        <time>1970-01-01T01:00:00Z</time>
      </trkpt>
      <trkpt lat="63.40948083" lon="10.47240133">
        <ele>174.195</ele>
        <time>1970-01-01T01:00:00Z</time>
      </trkpt>
      <trkpt lat="63.40945633" lon="10.47239333">
        <ele>174.195</ele>
        <time>1970-01-01T01:00:00Z</time>
      </trkpt>
      <trkpt lat="63.40943167" lon="10.47238667">
        <ele>174.043</ele>
        <time>1970-01-01T01:00:00Z</time>
      </trkpt>
      <trkpt lat="63.4094075" lon="10.47238033">
        <ele>174.043</ele>
        <time>1970-01-01T01:00:00Z</time>
      </trkpt>
      <trkpt lat="63.40938333" lon="10.47237067">
        <ele>173.891</ele>
        <time>1970-01-01T01:00:00Z</time>
      </trkpt>
      <trkpt lat="63.40936067" lon="10.4723575">
        <ele>173.891</ele>
        <time>1970-01-01T01:00:00Z</time>
      </trkpt>
      <trkpt lat="63.40933833" lon="10.472346">
        <ele>173.738</ele>
        <time>1970-01-01T01:00:00Z</time>
      </trkpt>
      <trkpt lat="63.40931567" lon="10.47233533">
        <ele>173.738</ele>
        <time>1970-01-01T01:00:00Z</time>
      </trkpt>
      <trkpt lat="63.40929217" lon="10.47232817">
        <ele>173.433</ele>
        <time>1970-01-01T01:00:00Z</time>
      </trkpt>
      <trkpt lat="63.4092695" lon="10.472319">
        <ele>173.433</ele>
        <time>1970-01-01T01:00:00Z</time>
      </trkpt>
      <trkpt lat="63.40924867" lon="10.47230783">
        <ele>173.281</ele>
        <time>1970-01-01T01:00:00Z</time>
      </trkpt>
      <trkpt lat="63.4092305" lon="10.47229683">
        <ele>173.281</ele>
        <time>1970-01-01T01:00:00Z</time>
      </trkpt>
      <trkpt lat="63.4092115" lon="10.47228433">
        <ele>173.128</ele>
        <time>1970-01-01T01:00:00Z</time>
      </trkpt>
      <trkpt lat="63.40919017" lon="10.47227167">
        <ele>173.128</ele>
        <time>1970-01-01T01:00:00Z</time>
      </trkpt>
      <trkpt lat="63.40916683" lon="10.47225583">
        <ele>172.976</ele>
        <time>1970-01-01T01:00:00Z</time>
      </trkpt>
      <trkpt lat="63.4091455" lon="10.47223767">
        <ele>172.976</ele>
        <time>1970-01-01T01:00:00Z</time>
      </trkpt>
      <trkpt lat="63.40912367" lon="10.47222117">
        <ele>172.824</ele>
        <time>1970-01-01T01:00:00Z</time>
      </trkpt>
      <trkpt lat="63.40910133" lon="10.47220367">
        <ele>172.824</ele>
        <time>1970-01-01T01:00:00Z</time>
      </trkpt>
      <trkpt lat="63.40907933" lon="10.47219017">
        <ele>172.671</ele>
        <time>1970-01-01T01:00:00Z</time>
      </trkpt>
      <trkpt lat="63.409058" lon="10.47217683">
        <ele>172.671</ele>
        <time>1970-01-01T01:00:00Z</time>
      </trkpt>
      <trkpt lat="63.40903483" lon="10.47216683">
        <ele>172.671</ele>
        <time>1970-01-01T01:00:00Z</time>
      </trkpt>
      <trkpt lat="63.409011" lon="10.47215817">
        <ele>172.671</ele>
        <time>1970-01-01T01:00:00Z</time>
      </trkpt>
      <trkpt lat="63.40898617" lon="10.47215483">
        <ele>172.519</ele>
        <time>1970-01-01T01:00:00Z</time>
      </trkpt>
      <trkpt lat="63.40896283" lon="10.47215">
        <ele>172.519</ele>
        <time>1970-01-01T01:00:00Z</time>
      </trkpt>
      <trkpt lat="63.40894" lon="10.472147">
        <ele>172.519</ele>
        <time>1970-01-01T01:00:00Z</time>
      </trkpt>
      <trkpt lat="63.408918" lon="10.47213733">
        <ele>172.519</ele>
        <time>1970-01-01T01:00:00Z</time>
      </trkpt>
      <trkpt lat="63.4088935" lon="10.47213267">
        <ele>172.366</ele>
        <time>1970-01-01T01:00:00Z</time>
      </trkpt>
      <trkpt lat="63.40886733" lon="10.47212833">
        <ele>172.366</ele>
        <time>1970-01-01T01:00:00Z</time>
      </trkpt>
      <trkpt lat="63.40884267" lon="10.47212183">
        <ele>172.366</ele>
        <time>1970-01-01T01:00:00Z</time>
      </trkpt>
      <trkpt lat="63.40881933" lon="10.47211183">
        <ele>172.366</ele>
        <time>1970-01-01T01:00:00Z</time>
      </trkpt>
      <trkpt lat="63.408797" lon="10.47209833">
        <ele>172.366</ele>
        <time>1970-01-01T01:00:00Z</time>
      </trkpt>
      <trkpt lat="63.40877517" lon="10.47208767">
        <ele>172.366</ele>
        <time>1970-01-01T01:00:00Z</time>
      </trkpt>
      <trkpt lat="63.40875433" lon="10.472077">
        <ele>172.214</ele>
        <time>1970-01-01T01:00:00Z</time>
      </trkpt>
      <trkpt lat="63.40873267" lon="10.4720665">
        <ele>172.214</ele>
        <time>1970-01-01T01:00:00Z</time>
      </trkpt>
      <trkpt lat="63.408711" lon="10.47205633">
        <ele>172.214</ele>
        <time>1970-01-01T01:00:00Z</time>
      </trkpt>
      <trkpt lat="63.40868983" lon="10.47204533">
        <ele>172.214</ele>
        <time>1970-01-01T01:00:00Z</time>
      </trkpt>
      <trkpt lat="63.40866733" lon="10.472039">
        <ele>172.214</ele>
        <time>1970-01-01T01:00:00Z</time>
      </trkpt>
      <trkpt lat="63.40864317" lon="10.4720365">
        <ele>172.214</ele>
        <time>1970-01-01T01:00:00Z</time>
      </trkpt>
      <trkpt lat="63.40861883" lon="10.47203617">
        <ele>172.062</ele>
        <time>1970-01-01T01:00:00Z</time>
      </trkpt>
      <trkpt lat="63.40859517" lon="10.47203383">
        <ele>172.062</ele>
        <time>1970-01-01T01:00:00Z</time>
      </trkpt>
      <trkpt lat="63.4085715" lon="10.47202933">
        <ele>172.062</ele>
        <time>1970-01-01T01:00:00Z</time>
      </trkpt>
      <trkpt lat="63.4085485" lon="10.47202317">
        <ele>172.062</ele>
        <time>1970-01-01T01:00:00Z</time>
      </trkpt>
      <trkpt lat="63.408524" lon="10.4720125">
        <ele>171.909</ele>
        <time>1970-01-01T01:00:00Z</time>
      </trkpt>
      <trkpt lat="63.40850017" lon="10.47199783">
        <ele>171.909</ele>
        <time>1970-01-01T01:00:00Z</time>
      </trkpt>
      <trkpt lat="63.4084755" lon="10.47198483">
        <ele>171.909</ele>
        <time>1970-01-01T01:00:00Z</time>
      </trkpt>
      <trkpt lat="63.408452" lon="10.47197367">
        <ele>171.909</ele>
        <time>1970-01-01T01:00:00Z</time>
      </trkpt>
      <trkpt lat="63.40842733" lon="10.471966">
        <ele>171.757</ele>
        <time>1970-01-01T01:00:00Z</time>
      </trkpt>
      <trkpt lat="63.40840217" lon="10.47195783">
        <ele>171.757</ele>
        <time>1970-01-01T01:00:00Z</time>
      </trkpt>
      <trkpt lat="63.40837633" lon="10.47195117">
        <ele>171.604</ele>
        <time>1970-01-01T01:00:00Z</time>
      </trkpt>
      <trkpt lat="63.4083515" lon="10.47194217">
        <ele>171.604</ele>
        <time>1970-01-01T01:00:00Z</time>
      </trkpt>
      <trkpt lat="63.40832817" lon="10.47193267">
        <ele>171.604</ele>
        <time>1970-01-01T01:00:00Z</time>
      </trkpt>
      <trkpt lat="63.4083065" lon="10.47191983">
        <ele>171.604</ele>
        <time>1970-01-01T01:00:00Z</time>
      </trkpt>
      <trkpt lat="63.408284" lon="10.47191017">
        <ele>171.452</ele>
        <time>1970-01-01T01:00:00Z</time>
      </trkpt>
      <trkpt lat="63.40826133" lon="10.47190117">
        <ele>171.452</ele>
        <time>1970-01-01T01:00:00Z</time>
      </trkpt>
      <trkpt lat="63.408238" lon="10.4718905">
        <ele>171.452</ele>
        <time>1970-01-01T01:00:00Z</time>
      </trkpt>
      <trkpt lat="63.40821533" lon="10.4718805">
        <ele>171.452</ele>
        <time>1970-01-01T01:00:00Z</time>
      </trkpt>
      <trkpt lat="63.40819217" lon="10.471874">
        <ele>171.452</ele>
        <time>1970-01-01T01:00:00Z</time>
      </trkpt>
      <trkpt lat="63.40816883" lon="10.47187467">
        <ele>171.452</ele>
        <time>1970-01-01T01:00:00Z</time>
      </trkpt>
      <trkpt lat="63.408145" lon="10.47187933">
        <ele>171.452</ele>
        <time>1970-01-01T01:00:00Z</time>
      </trkpt>
      <trkpt lat="63.40812217" lon="10.47188583">
        <ele>171.452</ele>
        <time>1970-01-01T01:00:00Z</time>
      </trkpt>
      <trkpt lat="63.40810067" lon="10.4718965">
        <ele>171.452</ele>
        <time>1970-01-01T01:00:00Z</time>
      </trkpt>
      <trkpt lat="63.40808" lon="10.4719065">
        <ele>171.452</ele>
        <time>1970-01-01T01:00:00Z</time>
      </trkpt>
      <trkpt lat="63.40806167" lon="10.471916">
        <ele>171.452</ele>
        <time>1970-01-01T01:00:00Z</time>
      </trkpt>
      <trkpt lat="63.40804417" lon="10.47192233">
        <ele>171.452</ele>
        <time>1970-01-01T01:00:00Z</time>
      </trkpt>
      <trkpt lat="63.40802883" lon="10.4719275">
        <ele>171.452</ele>
        <time>1970-01-01T01:00:00Z</time>
      </trkpt>
      <trkpt lat="63.40801333" lon="10.4719305">
        <ele>171.452</ele>
        <time>1970-01-01T01:00:00Z</time>
      </trkpt>
      <trkpt lat="63.40799933" lon="10.4719385">
        <ele>171.604</ele>
        <time>1970-01-01T01:00:00Z</time>
      </trkpt>
      <trkpt lat="63.40798733" lon="10.47195983">
        <ele>171.604</ele>
        <time>1970-01-01T01:00:00Z</time>
      </trkpt>
      <trkpt lat="63.40797883" lon="10.47199983">
        <ele>171.909</ele>
        <time>1970-01-01T01:00:00Z</time>
      </trkpt>
      <trkpt lat="63.40797383" lon="10.47204867">
        <ele>171.909</ele>
        <time>1970-01-01T01:00:00Z</time>
      </trkpt>
      <trkpt lat="63.40797" lon="10.4721015">
        <ele>172.214</ele>
        <time>1970-01-01T01:00:00Z</time>
      </trkpt>
      <trkpt lat="63.4079645" lon="10.47215183">
        <ele>172.214</ele>
        <time>1970-01-01T01:00:00Z</time>
      </trkpt>
      <trkpt lat="63.4079575" lon="10.47220417">
        <ele>172.519</ele>
        <time>1970-01-01T01:00:00Z</time>
      </trkpt>
      <trkpt lat="63.40795083" lon="10.472251">
        <ele>172.519</ele>
        <time>1970-01-01T01:00:00Z</time>
      </trkpt>
      <trkpt lat="63.40794633" lon="10.47229867">
        <ele>172.976</ele>
        <time>1970-01-01T01:00:00Z</time>
      </trkpt>
      <trkpt lat="63.40794333" lon="10.47234633">
        <ele>172.976</ele>
        <time>1970-01-01T01:00:00Z</time>
      </trkpt>
      <trkpt lat="63.40793967" lon="10.47239333">
        <ele>173.586</ele>
        <time>1970-01-01T01:00:00Z</time>
      </trkpt>
      <trkpt lat="63.40793383" lon="10.47243767">
        <ele>173.586</ele>
        <time>1970-01-01T01:00:00Z</time>
      </trkpt>
      <trkpt lat="63.407927" lon="10.472481">
        <ele>174.043</ele>
        <time>1970-01-01T01:00:00Z</time>
      </trkpt>
      <trkpt lat="63.40792183" lon="10.472521">
        <ele>174.043</ele>
        <time>1970-01-01T01:00:00Z</time>
      </trkpt>
      <trkpt lat="63.40791817" lon="10.47256467">
        <ele>174.653</ele>
        <time>1970-01-01T01:00:00Z</time>
      </trkpt>
      <trkpt lat="63.40791433" lon="10.47261117">
        <ele>174.653</ele>
        <time>1970-01-01T01:00:00Z</time>
      </trkpt>
      <trkpt lat="63.40791083" lon="10.47266133">
        <ele>175.262</ele>
        <time>1970-01-01T01:00:00Z</time>
      </trkpt>
      <trkpt lat="63.40790817" lon="10.472707">
        <ele>175.262</ele>
        <time>1970-01-01T01:00:00Z</time>
      </trkpt>
      <trkpt lat="63.40790833" lon="10.47275517">
        <ele>175.719</ele>
        <time>1970-01-01T01:00:00Z</time>
      </trkpt>
      <trkpt lat="63.40790983" lon="10.4728085">
        <ele>175.719</ele>
        <time>1970-01-01T01:00:00Z</time>
      </trkpt>
      <trkpt lat="63.40791217" lon="10.47286383">
        <ele>176.329</ele>
        <time>1970-01-01T01:00:00Z</time>
      </trkpt>
      <trkpt lat="63.407913" lon="10.47291883">
        <ele>176.329</ele>
        <time>1970-01-01T01:00:00Z</time>
      </trkpt>
      <trkpt lat="63.40791283" lon="10.47297667">
        <ele>176.786</ele>
        <time>1970-01-01T01:00:00Z</time>
      </trkpt>
      <trkpt lat="63.40791083" lon="10.47303483">
        <ele>176.786</ele>
        <time>1970-01-01T01:00:00Z</time>
      </trkpt>
      <trkpt lat="63.4079105" lon="10.47308783">
        <ele>177.243</ele>
        <time>1970-01-01T01:00:00Z</time>
      </trkpt>
      <trkpt lat="63.40791067" lon="10.47313667">
        <ele>177.243</ele>
        <time>1970-01-01T01:00:00Z</time>
      </trkpt>
      <trkpt lat="63.40791483" lon="10.473186">
        <ele>177.701</ele>
        <time>1970-01-01T01:00:00Z</time>
      </trkpt>
      <trkpt lat="63.40791633" lon="10.4732315">
        <ele>177.701</ele>
        <time>1970-01-01T01:00:00Z</time>
      </trkpt>
      <trkpt lat="63.40791783" lon="10.4732775">
        <ele>178.158</ele>
        <time>1970-01-01T01:00:00Z</time>
      </trkpt>
      <trkpt lat="63.40791717" lon="10.47332417">
        <ele>178.158</ele>
        <time>1970-01-01T01:00:00Z</time>
      </trkpt>
      <trkpt lat="63.40791817" lon="10.4733765">
        <ele>178.615</ele>
        <time>1970-01-01T01:00:00Z</time>
      </trkpt>
      <trkpt lat="63.40791933" lon="10.4734285">
        <ele>178.615</ele>
        <time>1970-01-01T01:00:00Z</time>
      </trkpt>
      <trkpt lat="63.40792117" lon="10.47347983">
        <ele>179.072</ele>
        <time>1970-01-01T01:00:00Z</time>
      </trkpt>
      <trkpt lat="63.40792283" lon="10.47353117">
        <ele>179.072</ele>
        <time>1970-01-01T01:00:00Z</time>
      </trkpt>
      <trkpt lat="63.40792183" lon="10.473584">
        <ele>179.377</ele>
        <time>1970-01-01T01:00:00Z</time>
      </trkpt>
      <trkpt lat="63.40791783" lon="10.47363667">
        <ele>179.377</ele>
        <time>1970-01-01T01:00:00Z</time>
      </trkpt>
      <trkpt lat="63.40791317" lon="10.47369167">
        <ele>179.834</ele>
        <time>1970-01-01T01:00:00Z</time>
      </trkpt>
      <trkpt lat="63.40790983" lon="10.47374233">
        <ele>179.834</ele>
        <time>1970-01-01T01:00:00Z</time>
      </trkpt>
      <trkpt lat="63.4079075" lon="10.473795">
        <ele>180.139</ele>
        <time>1970-01-01T01:00:00Z</time>
      </trkpt>
      <trkpt lat="63.40790417" lon="10.47384733">
        <ele>180.139</ele>
        <time>1970-01-01T01:00:00Z</time>
      </trkpt>
      <trkpt lat="63.40790217" lon="10.47389967">
        <ele>180.444</ele>
        <time>1970-01-01T01:00:00Z</time>
      </trkpt>
      <trkpt lat="63.40790017" lon="10.47395133">
        <ele>180.444</ele>
        <time>1970-01-01T01:00:00Z</time>
      </trkpt>
      <trkpt lat="63.40789867" lon="10.47400433">
        <ele>180.749</ele>
        <time>1970-01-01T01:00:00Z</time>
      </trkpt>
      <trkpt lat="63.40789417" lon="10.47406233">
        <ele>180.749</ele>
        <time>1970-01-01T01:00:00Z</time>
      </trkpt>
      <trkpt lat="63.40788883" lon="10.47411817">
        <ele>181.053</ele>
        <time>1970-01-01T01:00:00Z</time>
      </trkpt>
      <trkpt lat="63.40788433" lon="10.4741735">
        <ele>181.053</ele>
        <time>1970-01-01T01:00:00Z</time>
      </trkpt>
      <trkpt lat="63.40788067" lon="10.474226">
        <ele>181.206</ele>
        <time>1970-01-01T01:00:00Z</time>
      </trkpt>
      <trkpt lat="63.40787667" lon="10.47427833">
        <ele>181.206</ele>
        <time>1970-01-01T01:00:00Z</time>
      </trkpt>
      <trkpt lat="63.40787233" lon="10.47432767">
        <ele>181.358</ele>
        <time>1970-01-01T01:00:00Z</time>
      </trkpt>
      <trkpt lat="63.40786833" lon="10.47437567">
        <ele>181.358</ele>
        <time>1970-01-01T01:00:00Z</time>
      </trkpt>
      <trkpt lat="63.4078645" lon="10.47442167">
        <ele>181.358</ele>
        <time>1970-01-01T01:00:00Z</time>
      </trkpt>
      <trkpt lat="63.40786117" lon="10.47446783">
        <ele>181.358</ele>
        <time>1970-01-01T01:00:00Z</time>
      </trkpt>
      <trkpt lat="63.40785733" lon="10.4745165">
        <ele>181.511</ele>
        <time>1970-01-01T01:00:00Z</time>
      </trkpt>
      <trkpt lat="63.40785383" lon="10.47456167">
        <ele>181.511</ele>
        <time>1970-01-01T01:00:00Z</time>
      </trkpt>
      <trkpt lat="63.40785033" lon="10.47460483">
        <ele>181.511</ele>
        <time>1970-01-01T01:00:00Z</time>
      </trkpt>
      <trkpt lat="63.4078475" lon="10.474648">
        <ele>181.511</ele>
        <time>1970-01-01T01:00:00Z</time>
      </trkpt>
      <trkpt lat="63.4078445" lon="10.4746955">
        <ele>181.511</ele>
        <time>1970-01-01T01:00:00Z</time>
      </trkpt>
      <trkpt lat="63.40784183" lon="10.47474083">
        <ele>181.511</ele>
        <time>1970-01-01T01:00:00Z</time>
      </trkpt>
      <trkpt lat="63.40783817" lon="10.47478583">
        <ele>181.663</ele>
        <time>1970-01-01T01:00:00Z</time>
      </trkpt>
      <trkpt lat="63.4078345" lon="10.47482717">
        <ele>181.663</ele>
        <time>1970-01-01T01:00:00Z</time>
      </trkpt>
      <trkpt lat="63.40783083" lon="10.47486817">
        <ele>181.663</ele>
        <time>1970-01-01T01:00:00Z</time>
      </trkpt>
      <trkpt lat="63.40782817" lon="10.47490967">
        <ele>181.663</ele>
        <time>1970-01-01T01:00:00Z</time>
      </trkpt>
      <trkpt lat="63.40782533" lon="10.47495267">
        <ele>181.815</ele>
        <time>1970-01-01T01:00:00Z</time>
      </trkpt>
      <trkpt lat="63.40782217" lon="10.47499417">
        <ele>181.815</ele>
        <time>1970-01-01T01:00:00Z</time>
      </trkpt>
      <trkpt lat="63.40781867" lon="10.47503333">
        <ele>181.968</ele>
        <time>1970-01-01T01:00:00Z</time>
      </trkpt>
      <trkpt lat="63.407816" lon="10.4750755">
        <ele>181.968</ele>
        <time>1970-01-01T01:00:00Z</time>
      </trkpt>
      <trkpt lat="63.4078135" lon="10.4751195">
        <ele>182.273</ele>
        <time>1970-01-01T01:00:00Z</time>
      </trkpt>
      <trkpt lat="63.40781283" lon="10.475165">
        <ele>182.273</ele>
        <time>1970-01-01T01:00:00Z</time>
      </trkpt>
      <trkpt lat="63.407811" lon="10.47520967">
        <ele>182.425</ele>
        <time>1970-01-01T01:00:00Z</time>
      </trkpt>
      <trkpt lat="63.407809" lon="10.47525433">
        <ele>182.425</ele>
        <time>1970-01-01T01:00:00Z</time>
      </trkpt>
      <trkpt lat="63.40780467" lon="10.475299">
        <ele>182.577</ele>
        <time>1970-01-01T01:00:00Z</time>
      </trkpt>
      <trkpt lat="63.4078" lon="10.47534683">
        <ele>182.577</ele>
        <time>1970-01-01T01:00:00Z</time>
      </trkpt>
      <trkpt lat="63.40779583" lon="10.47539583">
        <ele>182.882</ele>
        <time>1970-01-01T01:00:00Z</time>
      </trkpt>
      <trkpt lat="63.40779267" lon="10.47544417">
        <ele>182.882</ele>
        <time>1970-01-01T01:00:00Z</time>
      </trkpt>
      <trkpt lat="63.4077905" lon="10.475493">
        <ele>183.035</ele>
        <time>1970-01-01T01:00:00Z</time>
      </trkpt>
      <trkpt lat="63.407788" lon="10.47554117">
        <ele>183.035</ele>
        <time>1970-01-01T01:00:00Z</time>
      </trkpt>
      <trkpt lat="63.4077855" lon="10.47558717">
        <ele>183.339</ele>
        <time>1970-01-01T01:00:00Z</time>
      </trkpt>
      <trkpt lat="63.40778367" lon="10.47563383">
        <ele>183.339</ele>
        <time>1970-01-01T01:00:00Z</time>
      </trkpt>
      <trkpt lat="63.40778167" lon="10.4756825">
        <ele>183.492</ele>
        <time>1970-01-01T01:00:00Z</time>
      </trkpt>
      <trkpt lat="63.4077805" lon="10.47573183">
        <ele>183.492</ele>
        <time>1970-01-01T01:00:00Z</time>
      </trkpt>
      <trkpt lat="63.40777883" lon="10.47578183">
        <ele>183.797</ele>
        <time>1970-01-01T01:00:00Z</time>
      </trkpt>
      <trkpt lat="63.40777717" lon="10.47583233">
        <ele>183.797</ele>
        <time>1970-01-01T01:00:00Z</time>
      </trkpt>
      <trkpt lat="63.4077755" lon="10.47588233">
        <ele>184.101</ele>
        <time>1970-01-01T01:00:00Z</time>
      </trkpt>
      <trkpt lat="63.4077705" lon="10.47592983">
        <ele>184.101</ele>
        <time>1970-01-01T01:00:00Z</time>
      </trkpt>
      <trkpt lat="63.40776567" lon="10.47597817">
        <ele>184.406</ele>
        <time>1970-01-01T01:00:00Z</time>
      </trkpt>
      <trkpt lat="63.40776017" lon="10.47602517">
        <ele>184.406</ele>
        <time>1970-01-01T01:00:00Z</time>
      </trkpt>
      <trkpt lat="63.407758" lon="10.47607083">
        <ele>184.711</ele>
        <time>1970-01-01T01:00:00Z</time>
      </trkpt>
      <trkpt lat="63.40775583" lon="10.476118">
        <ele>184.711</ele>
        <time>1970-01-01T01:00:00Z</time>
      </trkpt>
      <trkpt lat="63.40775233" lon="10.47616833">
        <ele>184.863</ele>
        <time>1970-01-01T01:00:00Z</time>
      </trkpt>
      <trkpt lat="63.407746" lon="10.47621683">
        <ele>184.863</ele>
        <time>1970-01-01T01:00:00Z</time>
      </trkpt>
      <trkpt lat="63.40773833" lon="10.47626417">
        <ele>185.016</ele>
        <time>1970-01-01T01:00:00Z</time>
      </trkpt>
      <trkpt lat="63.40773167" lon="10.47631133">
        <ele>185.016</ele>
        <time>1970-01-01T01:00:00Z</time>
      </trkpt>
      <trkpt lat="63.40772733" lon="10.47635983">
        <ele>185.016</ele>
        <time>1970-01-01T01:00:00Z</time>
      </trkpt>
      <trkpt lat="63.40772367" lon="10.4764095">
        <ele>185.016</ele>
        <time>1970-01-01T01:00:00Z</time>
      </trkpt>
      <trkpt lat="63.40771933" lon="10.47646167">
        <ele>185.168</ele>
        <time>1970-01-01T01:00:00Z</time>
      </trkpt>
      <trkpt lat="63.40771517" lon="10.47651433">
        <ele>185.168</ele>
        <time>1970-01-01T01:00:00Z</time>
      </trkpt>
      <trkpt lat="63.40771017" lon="10.47656617">
        <ele>185.168</ele>
        <time>1970-01-01T01:00:00Z</time>
      </trkpt>
      <trkpt lat="63.40770567" lon="10.47661717">
        <ele>185.168</ele>
        <time>1970-01-01T01:00:00Z</time>
      </trkpt>
      <trkpt lat="63.40770083" lon="10.4766685">
        <ele>185.168</ele>
        <time>1970-01-01T01:00:00Z</time>
      </trkpt>
      <trkpt lat="63.40769717" lon="10.47671833">
        <ele>185.168</ele>
        <time>1970-01-01T01:00:00Z</time>
      </trkpt>
      <trkpt lat="63.40769417" lon="10.476769">
        <ele>185.168</ele>
        <time>1970-01-01T01:00:00Z</time>
      </trkpt>
      <trkpt lat="63.40769117" lon="10.476821">
        <ele>185.168</ele>
        <time>1970-01-01T01:00:00Z</time>
      </trkpt>
      <trkpt lat="63.40768783" lon="10.4768705">
        <ele>185.168</ele>
        <time>1970-01-01T01:00:00Z</time>
      </trkpt>
      <trkpt lat="63.40768467" lon="10.4769205">
        <ele>185.168</ele>
        <time>1970-01-01T01:00:00Z</time>
      </trkpt>
      <trkpt lat="63.40768117" lon="10.4769695">
        <ele>185.168</ele>
        <time>1970-01-01T01:00:00Z</time>
      </trkpt>
      <trkpt lat="63.40767783" lon="10.47701933">
        <ele>185.168</ele>
        <time>1970-01-01T01:00:00Z</time>
      </trkpt>
      <trkpt lat="63.40767367" lon="10.47706767">
        <ele>185.168</ele>
        <time>1970-01-01T01:00:00Z</time>
      </trkpt>
      <trkpt lat="63.40766967" lon="10.47711817">
        <ele>185.168</ele>
        <time>1970-01-01T01:00:00Z</time>
      </trkpt>
      <trkpt lat="63.407666" lon="10.4771685">
        <ele>185.168</ele>
        <time>1970-01-01T01:00:00Z</time>
      </trkpt>
      <trkpt lat="63.40766267" lon="10.47721867">
        <ele>185.168</ele>
        <time>1970-01-01T01:00:00Z</time>
      </trkpt>
      <trkpt lat="63.40765917" lon="10.477268">
        <ele>185.016</ele>
        <time>1970-01-01T01:00:00Z</time>
      </trkpt>
      <trkpt lat="63.40765533" lon="10.47731833">
        <ele>185.016</ele>
        <time>1970-01-01T01:00:00Z</time>
      </trkpt>
      <trkpt lat="63.40765283" lon="10.47736867">
        <ele>185.016</ele>
        <time>1970-01-01T01:00:00Z</time>
      </trkpt>
      <trkpt lat="63.40765233" lon="10.47742017">
        <ele>185.016</ele>
        <time>1970-01-01T01:00:00Z</time>
      </trkpt>
      <trkpt lat="63.407653" lon="10.4774705">
        <ele>185.016</ele>
        <time>1970-01-01T01:00:00Z</time>
      </trkpt>
      <trkpt lat="63.4076535" lon="10.47751933">
        <ele>185.016</ele>
        <time>1970-01-01T01:00:00Z</time>
      </trkpt>
      <trkpt lat="63.40765333" lon="10.47756883">
        <ele>185.016</ele>
        <time>1970-01-01T01:00:00Z</time>
      </trkpt>
      <trkpt lat="63.407651" lon="10.47762">
        <ele>185.016</ele>
        <time>1970-01-01T01:00:00Z</time>
      </trkpt>
      <trkpt lat="63.40764783" lon="10.47767117">
        <ele>184.863</ele>
        <time>1970-01-01T01:00:00Z</time>
      </trkpt>
      <trkpt lat="63.40764417" lon="10.477721">
        <ele>184.863</ele>
        <time>1970-01-01T01:00:00Z</time>
      </trkpt>
      <trkpt lat="63.40764233" lon="10.47777167">
        <ele>184.863</ele>
        <time>1970-01-01T01:00:00Z</time>
      </trkpt>
      <trkpt lat="63.407639" lon="10.477823">
        <ele>184.863</ele>
        <time>1970-01-01T01:00:00Z</time>
      </trkpt>
      <trkpt lat="63.40763667" lon="10.477876">
        <ele>184.711</ele>
        <time>1970-01-01T01:00:00Z</time>
      </trkpt>
      <trkpt lat="63.4076345" lon="10.47793133">
        <ele>184.711</ele>
        <time>1970-01-01T01:00:00Z</time>
      </trkpt>
      <trkpt lat="63.40763367" lon="10.477981">
        <ele>184.559</ele>
        <time>1970-01-01T01:00:00Z</time>
      </trkpt>
      <trkpt lat="63.40763167" lon="10.47803133">
        <ele>184.559</ele>
        <time>1970-01-01T01:00:00Z</time>
      </trkpt>
      <trkpt lat="63.40762783" lon="10.47808133">
        <ele>184.254</ele>
        <time>1970-01-01T01:00:00Z</time>
      </trkpt>
      <trkpt lat="63.40762367" lon="10.47813567">
        <ele>184.254</ele>
        <time>1970-01-01T01:00:00Z</time>
      </trkpt>
      <trkpt lat="63.40761867" lon="10.4781875">
        <ele>184.101</ele>
        <time>1970-01-01T01:00:00Z</time>
      </trkpt>
      <trkpt lat="63.407613" lon="10.47823683">
        <ele>184.101</ele>
        <time>1970-01-01T01:00:00Z</time>
      </trkpt>
      <trkpt lat="63.40760633" lon="10.47828567">
        <ele>183.949</ele>
        <time>1970-01-01T01:00:00Z</time>
      </trkpt>
      <trkpt lat="63.40759817" lon="10.4783325">
        <ele>183.949</ele>
        <time>1970-01-01T01:00:00Z</time>
      </trkpt>
      <trkpt lat="63.40758717" lon="10.4783815">
        <ele>183.797</ele>
        <time>1970-01-01T01:00:00Z</time>
      </trkpt>
      <trkpt lat="63.407574" lon="10.47843083">
        <ele>183.797</ele>
        <time>1970-01-01T01:00:00Z</time>
      </trkpt>
      <trkpt lat="63.40756083" lon="10.47847867">
        <ele>183.644</ele>
        <time>1970-01-01T01:00:00Z</time>
      </trkpt>
      <trkpt lat="63.40755033" lon="10.4785235">
        <ele>183.644</ele>
        <time>1970-01-01T01:00:00Z</time>
      </trkpt>
      <trkpt lat="63.40753933" lon="10.47856683">
        <ele>183.339</ele>
        <time>1970-01-01T01:00:00Z</time>
      </trkpt>
      <trkpt lat="63.40752917" lon="10.47860833">
        <ele>183.339</ele>
        <time>1970-01-01T01:00:00Z</time>
      </trkpt>
      <trkpt lat="63.40751867" lon="10.47864717">
        <ele>183.187</ele>
        <time>1970-01-01T01:00:00Z</time>
      </trkpt>
      <trkpt lat="63.40750867" lon="10.4786875">
        <ele>183.187</ele>
        <time>1970-01-01T01:00:00Z</time>
      </trkpt>
      <trkpt lat="63.40749817" lon="10.478729">
        <ele>183.035</ele>
        <time>1970-01-01T01:00:00Z</time>
      </trkpt>
      <trkpt lat="63.40748733" lon="10.47876667">
        <ele>183.035</ele>
        <time>1970-01-01T01:00:00Z</time>
      </trkpt>
      <trkpt lat="63.40747617" lon="10.4788015">
        <ele>182.882</ele>
        <time>1970-01-01T01:00:00Z</time>
      </trkpt>
      <trkpt lat="63.4074635" lon="10.47883317">
        <ele>182.882</ele>
        <time>1970-01-01T01:00:00Z</time>
      </trkpt>
      <trkpt lat="63.40745017" lon="10.47886467">
        <ele>182.577</ele>
        <time>1970-01-01T01:00:00Z</time>
      </trkpt>
      <trkpt lat="63.40743733" lon="10.478899">
        <ele>182.577</ele>
        <time>1970-01-01T01:00:00Z</time>
      </trkpt>
      <trkpt lat="63.4074255" lon="10.47893233">
        <ele>182.425</ele>
        <time>1970-01-01T01:00:00Z</time>
      </trkpt>
      <trkpt lat="63.4074135" lon="10.47896317">
        <ele>182.425</ele>
        <time>1970-01-01T01:00:00Z</time>
      </trkpt>
      <trkpt lat="63.407402" lon="10.47899067">
        <ele>182.273</ele>
        <time>1970-01-01T01:00:00Z</time>
      </trkpt>
      <trkpt lat="63.40738767" lon="10.47901833">
        <ele>182.273</ele>
        <time>1970-01-01T01:00:00Z</time>
      </trkpt>
      <trkpt lat="63.40737317" lon="10.47904833">
        <ele>182.12</ele>
        <time>1970-01-01T01:00:00Z</time>
      </trkpt>
      <trkpt lat="63.40735617" lon="10.47907733">
        <ele>182.12</ele>
        <time>1970-01-01T01:00:00Z</time>
      </trkpt>
      <trkpt lat="63.40734117" lon="10.47910717">
        <ele>181.968</ele>
        <time>1970-01-01T01:00:00Z</time>
      </trkpt>
      <trkpt lat="63.40732567" lon="10.47914333">
        <ele>181.968</ele>
        <time>1970-01-01T01:00:00Z</time>
      </trkpt>
      <trkpt lat="63.40731267" lon="10.47918133">
        <ele>181.815</ele>
        <time>1970-01-01T01:00:00Z</time>
      </trkpt>
      <trkpt lat="63.407297" lon="10.47922033">
        <ele>181.815</ele>
        <time>1970-01-01T01:00:00Z</time>
      </trkpt>
      <trkpt lat="63.4072785" lon="10.47925283">
        <ele>181.663</ele>
        <time>1970-01-01T01:00:00Z</time>
      </trkpt>
      <trkpt lat="63.40725733" lon="10.47927733">
        <ele>181.663</ele>
        <time>1970-01-01T01:00:00Z</time>
      </trkpt>
      <trkpt lat="63.40723083" lon="10.47929167">
        <ele>181.663</ele>
        <time>1970-01-01T01:00:00Z</time>
      </trkpt>
      <trkpt lat="63.407203" lon="10.47930717">
        <ele>181.663</ele>
        <time>1970-01-01T01:00:00Z</time>
      </trkpt>
      <trkpt lat="63.40717367" lon="10.479325">
        <ele>181.511</ele>
        <time>1970-01-01T01:00:00Z</time>
      </trkpt>
      <trkpt lat="63.40714933" lon="10.47934833">
        <ele>181.511</ele>
        <time>1970-01-01T01:00:00Z</time>
      </trkpt>
      <trkpt lat="63.40712617" lon="10.47937267">
        <ele>181.511</ele>
        <time>1970-01-01T01:00:00Z</time>
      </trkpt>
      <trkpt lat="63.407104" lon="10.47939767">
        <ele>181.511</ele>
        <time>1970-01-01T01:00:00Z</time>
      </trkpt>
      <trkpt lat="63.40707933" lon="10.47942067">
        <ele>181.511</ele>
        <time>1970-01-01T01:00:00Z</time>
      </trkpt>
      <trkpt lat="63.40705333" lon="10.479441">
        <ele>181.511</ele>
        <time>1970-01-01T01:00:00Z</time>
      </trkpt>
      <trkpt lat="63.40702667" lon="10.47945883">
        <ele>181.358</ele>
        <time>1970-01-01T01:00:00Z</time>
      </trkpt>
      <trkpt lat="63.40700233" lon="10.47947733">
        <ele>181.358</ele>
        <time>1970-01-01T01:00:00Z</time>
      </trkpt>
      <trkpt lat="63.40697883" lon="10.47949417">
        <ele>181.358</ele>
        <time>1970-01-01T01:00:00Z</time>
      </trkpt>
      <trkpt lat="63.40695317" lon="10.47950767">
        <ele>181.358</ele>
        <time>1970-01-01T01:00:00Z</time>
      </trkpt>
      <trkpt lat="63.406927" lon="10.479521">
        <ele>181.358</ele>
        <time>1970-01-01T01:00:00Z</time>
      </trkpt>
      <trkpt lat="63.40690167" lon="10.47953217">
        <ele>181.358</ele>
        <time>1970-01-01T01:00:00Z</time>
      </trkpt>
      <trkpt lat="63.40687233" lon="10.479541">
        <ele>181.358</ele>
        <time>1970-01-01T01:00:00Z</time>
      </trkpt>
      <trkpt lat="63.40684417" lon="10.47954683">
        <ele>181.358</ele>
        <time>1970-01-01T01:00:00Z</time>
      </trkpt>
      <trkpt lat="63.4068155" lon="10.47954917">
        <ele>181.358</ele>
        <time>1970-01-01T01:00:00Z</time>
      </trkpt>
      <trkpt lat="63.406791" lon="10.4795525">
        <ele>181.358</ele>
        <time>1970-01-01T01:00:00Z</time>
      </trkpt>
      <trkpt lat="63.40676583" lon="10.4795525">
        <ele>181.206</ele>
        <time>1970-01-01T01:00:00Z</time>
      </trkpt>
      <trkpt lat="63.406739" lon="10.47955067">
        <ele>181.206</ele>
        <time>1970-01-01T01:00:00Z</time>
      </trkpt>
      <trkpt lat="63.40671183" lon="10.47955133">
        <ele>181.053</ele>
        <time>1970-01-01T01:00:00Z</time>
      </trkpt>
      <trkpt lat="63.406684" lon="10.47955133">
        <ele>181.053</ele>
        <time>1970-01-01T01:00:00Z</time>
      </trkpt>
      <trkpt lat="63.40665933" lon="10.479552">
        <ele>180.901</ele>
        <time>1970-01-01T01:00:00Z</time>
      </trkpt>
      <trkpt lat="63.40663583" lon="10.47954733">
        <ele>180.901</ele>
        <time>1970-01-01T01:00:00Z</time>
      </trkpt>
      <trkpt lat="63.40661233" lon="10.479544">
        <ele>180.749</ele>
        <time>1970-01-01T01:00:00Z</time>
      </trkpt>
      <trkpt lat="63.40658833" lon="10.47954167">
        <ele>180.749</ele>
        <time>1970-01-01T01:00:00Z</time>
      </trkpt>
      <trkpt lat="63.40656417" lon="10.4795405">
        <ele>180.444</ele>
        <time>1970-01-01T01:00:00Z</time>
      </trkpt>
      <trkpt lat="63.40654017" lon="10.4795385">
        <ele>180.444</ele>
        <time>1970-01-01T01:00:00Z</time>
      </trkpt>
      <trkpt lat="63.4065175" lon="10.47953267">
        <ele>180.291</ele>
        <time>1970-01-01T01:00:00Z</time>
      </trkpt>
      <trkpt lat="63.40649467" lon="10.47952217">
        <ele>180.291</ele>
        <time>1970-01-01T01:00:00Z</time>
      </trkpt>
      <trkpt lat="63.40647167" lon="10.47950983">
        <ele>179.987</ele>
        <time>1970-01-01T01:00:00Z</time>
      </trkpt>
      <trkpt lat="63.40644783" lon="10.47949783">
        <ele>179.987</ele>
        <time>1970-01-01T01:00:00Z</time>
      </trkpt>
      <trkpt lat="63.40642367" lon="10.47948967">
        <ele>179.834</ele>
        <time>1970-01-01T01:00:00Z</time>
      </trkpt>
      <trkpt lat="63.40639933" lon="10.47947917">
        <ele>179.834</ele>
        <time>1970-01-01T01:00:00Z</time>
      </trkpt>
      <trkpt lat="63.40637433" lon="10.47946783">
        <ele>179.682</ele>
        <time>1970-01-01T01:00:00Z</time>
      </trkpt>
      <trkpt lat="63.40635133" lon="10.4794565">
        <ele>179.682</ele>
        <time>1970-01-01T01:00:00Z</time>
      </trkpt>
      <trkpt lat="63.40632783" lon="10.47944733">
        <ele>179.377</ele>
        <time>1970-01-01T01:00:00Z</time>
      </trkpt>
      <trkpt lat="63.40630467" lon="10.47944017">
        <ele>179.377</ele>
        <time>1970-01-01T01:00:00Z</time>
      </trkpt>
      <trkpt lat="63.40628067" lon="10.479431">
        <ele>179.225</ele>
        <time>1970-01-01T01:00:00Z</time>
      </trkpt>
      <trkpt lat="63.40625783" lon="10.47942067">
        <ele>179.225</ele>
        <time>1970-01-01T01:00:00Z</time>
      </trkpt>
      <trkpt lat="63.4062345" lon="10.47941033">
        <ele>178.92</ele>
        <time>1970-01-01T01:00:00Z</time>
      </trkpt>
      <trkpt lat="63.40620983" lon="10.47939967">
        <ele>178.92</ele>
        <time>1970-01-01T01:00:00Z</time>
      </trkpt>
      <trkpt lat="63.40618483" lon="10.47939283">
        <ele>178.767</ele>
        <time>1970-01-01T01:00:00Z</time>
      </trkpt>
      <trkpt lat="63.4061595" lon="10.47938383">
        <ele>178.767</ele>
        <time>1970-01-01T01:00:00Z</time>
      </trkpt>
      <trkpt lat="63.4061355" lon="10.47937383">
        <ele>178.463</ele>
        <time>1970-01-01T01:00:00Z</time>
      </trkpt>
      <trkpt lat="63.4061125" lon="10.47936183">
        <ele>178.463</ele>
        <time>1970-01-01T01:00:00Z</time>
      </trkpt>
      <trkpt lat="63.40609017" lon="10.47935067">
        <ele>178.158</ele>
        <time>1970-01-01T01:00:00Z</time>
      </trkpt>
      <trkpt lat="63.40606583" lon="10.47934217">
        <ele>178.158</ele>
        <time>1970-01-01T01:00:00Z</time>
      </trkpt>
      <trkpt lat="63.40604183" lon="10.47933417">
        <ele>178.005</ele>
        <time>1970-01-01T01:00:00Z</time>
      </trkpt>
      <trkpt lat="63.40601817" lon="10.479326">
        <ele>178.005</ele>
        <time>1970-01-01T01:00:00Z</time>
      </trkpt>
      <trkpt lat="63.40599517" lon="10.47931533">
        <ele>177.701</ele>
        <time>1970-01-01T01:00:00Z</time>
      </trkpt>
      <trkpt lat="63.40597183" lon="10.47930567">
        <ele>177.701</ele>
        <time>1970-01-01T01:00:00Z</time>
      </trkpt>
      <trkpt lat="63.40594883" lon="10.47929717">
        <ele>177.548</ele>
        <time>1970-01-01T01:00:00Z</time>
      </trkpt>
      <trkpt lat="63.40592533" lon="10.479289">
        <ele>177.548</ele>
        <time>1970-01-01T01:00:00Z</time>
      </trkpt>
      <trkpt lat="63.40590017" lon="10.479281">
        <ele>177.243</ele>
        <time>1970-01-01T01:00:00Z</time>
      </trkpt>
      <trkpt lat="63.405876" lon="10.4792665">
        <ele>177.243</ele>
        <time>1970-01-01T01:00:00Z</time>
      </trkpt>
      <trkpt lat="63.405851" lon="10.4792515">
        <ele>177.091</ele>
        <time>1970-01-01T01:00:00Z</time>
      </trkpt>
      <trkpt lat="63.40582717" lon="10.479233">
        <ele>177.091</ele>
        <time>1970-01-01T01:00:00Z</time>
      </trkpt>
      <trkpt lat="63.40580217" lon="10.47922017">
        <ele>176.786</ele>
        <time>1970-01-01T01:00:00Z</time>
      </trkpt>
      <trkpt lat="63.40577733" lon="10.47920583">
        <ele>176.786</ele>
        <time>1970-01-01T01:00:00Z</time>
      </trkpt>
      <trkpt lat="63.40575267" lon="10.47919117">
        <ele>176.634</ele>
        <time>1970-01-01T01:00:00Z</time>
      </trkpt>
      <trkpt lat="63.40572783" lon="10.47917517">
        <ele>176.634</ele>
        <time>1970-01-01T01:00:00Z</time>
      </trkpt>
      <trkpt lat="63.40570367" lon="10.47916">
        <ele>176.329</ele>
        <time>1970-01-01T01:00:00Z</time>
      </trkpt>
      <trkpt lat="63.40567867" lon="10.47914717">
        <ele>176.329</ele>
        <time>1970-01-01T01:00:00Z</time>
      </trkpt>
      <trkpt lat="63.40565467" lon="10.47913483">
        <ele>176.024</ele>
        <time>1970-01-01T01:00:00Z</time>
      </trkpt>
      <trkpt lat="63.40563133" lon="10.4791205">
        <ele>176.024</ele>
        <time>1970-01-01T01:00:00Z</time>
      </trkpt>
      <trkpt lat="63.40560817" lon="10.479104">
        <ele>175.872</ele>
        <time>1970-01-01T01:00:00Z</time>
      </trkpt>
      <trkpt lat="63.40558483" lon="10.47908633">
        <ele>175.872</ele>
        <time>1970-01-01T01:00:00Z</time>
      </trkpt>
      <trkpt lat="63.40556133" lon="10.47907283">
        <ele>175.567</ele>
        <time>1970-01-01T01:00:00Z</time>
      </trkpt>
      <trkpt lat="63.4055375" lon="10.47905917">
        <ele>175.567</ele>
        <time>1970-01-01T01:00:00Z</time>
      </trkpt>
      <trkpt lat="63.40551317" lon="10.47904417">
        <ele>175.262</ele>
        <time>1970-01-01T01:00:00Z</time>
      </trkpt>
      <trkpt lat="63.405489" lon="10.47902917">
        <ele>175.262</ele>
        <time>1970-01-01T01:00:00Z</time>
      </trkpt>
      <trkpt lat="63.40546483" lon="10.47901533">
        <ele>175.11</ele>
        <time>1970-01-01T01:00:00Z</time>
      </trkpt>
      <trkpt lat="63.40544017" lon="10.47900083">
        <ele>175.11</ele>
        <time>1970-01-01T01:00:00Z</time>
      </trkpt>
      <trkpt lat="63.40541583" lon="10.47898733">
        <ele>174.805</ele>
        <time>1970-01-01T01:00:00Z</time>
      </trkpt>
      <trkpt lat="63.4053925" lon="10.47897367">
        <ele>174.805</ele>
        <time>1970-01-01T01:00:00Z</time>
      </trkpt>
      <trkpt lat="63.40536783" lon="10.47896217">
        <ele>174.5</ele>
        <time>1970-01-01T01:00:00Z</time>
      </trkpt>
      <trkpt lat="63.405343" lon="10.47895383">
        <ele>174.5</ele>
        <time>1970-01-01T01:00:00Z</time>
      </trkpt>
      <trkpt lat="63.4053185" lon="10.4789465">
        <ele>174.348</ele>
        <time>1970-01-01T01:00:00Z</time>
      </trkpt>
      <trkpt lat="63.405295" lon="10.4789395">
        <ele>174.348</ele>
        <time>1970-01-01T01:00:00Z</time>
      </trkpt>
      <trkpt lat="63.40527083" lon="10.4789295">
        <ele>174.043</ele>
        <time>1970-01-01T01:00:00Z</time>
      </trkpt>
      <trkpt lat="63.4052475" lon="10.47892233">
        <ele>174.043</ele>
        <time>1970-01-01T01:00:00Z</time>
      </trkpt>
      <trkpt lat="63.40522267" lon="10.4789145">
        <ele>173.891</ele>
        <time>1970-01-01T01:00:00Z</time>
      </trkpt>
      <trkpt lat="63.405198" lon="10.47890467">
        <ele>173.891</ele>
        <time>1970-01-01T01:00:00Z</time>
      </trkpt>
      <trkpt lat="63.40517317" lon="10.4788895">
        <ele>173.586</ele>
        <time>1970-01-01T01:00:00Z</time>
      </trkpt>
      <trkpt lat="63.4051495" lon="10.478872">
        <ele>173.586</ele>
        <time>1970-01-01T01:00:00Z</time>
      </trkpt>
      <trkpt lat="63.4051255" lon="10.47885067">
        <ele>173.281</ele>
        <time>1970-01-01T01:00:00Z</time>
      </trkpt>
      <trkpt lat="63.40510133" lon="10.478831">
        <ele>173.281</ele>
        <time>1970-01-01T01:00:00Z</time>
      </trkpt>
      <trkpt lat="63.40507717" lon="10.47881283">
        <ele>173.128</ele>
        <time>1970-01-01T01:00:00Z</time>
      </trkpt>
      <trkpt lat="63.40505283" lon="10.4787975">
        <ele>173.128</ele>
        <time>1970-01-01T01:00:00Z</time>
      </trkpt>
      <trkpt lat="63.40502833" lon="10.47878217">
        <ele>172.976</ele>
        <time>1970-01-01T01:00:00Z</time>
      </trkpt>
      <trkpt lat="63.40500333" lon="10.47876767">
        <ele>172.976</ele>
        <time>1970-01-01T01:00:00Z</time>
      </trkpt>
      <trkpt lat="63.404978" lon="10.47875233">
        <ele>172.824</ele>
        <time>1970-01-01T01:00:00Z</time>
      </trkpt>
      <trkpt lat="63.40495333" lon="10.47873733">
        <ele>172.824</ele>
        <time>1970-01-01T01:00:00Z</time>
      </trkpt>
      <trkpt lat="63.40493083" lon="10.478719">
        <ele>172.519</ele>
        <time>1970-01-01T01:00:00Z</time>
      </trkpt>
      <trkpt lat="63.40490783" lon="10.4787005">
        <ele>172.519</ele>
        <time>1970-01-01T01:00:00Z</time>
      </trkpt>
      <trkpt lat="63.40488517" lon="10.4786815">
        <ele>172.519</ele>
        <time>1970-01-01T01:00:00Z</time>
      </trkpt>
      <trkpt lat="63.40486183" lon="10.478664">
        <ele>172.519</ele>
        <time>1970-01-01T01:00:00Z</time>
      </trkpt>
      <trkpt lat="63.40483883" lon="10.47864733">
        <ele>172.366</ele>
        <time>1970-01-01T01:00:00Z</time>
      </trkpt>
      <trkpt lat="63.40481683" lon="10.47862783">
        <ele>172.366</ele>
        <time>1970-01-01T01:00:00Z</time>
      </trkpt>
      <trkpt lat="63.40479633" lon="10.478609">
        <ele>172.214</ele>
        <time>1970-01-01T01:00:00Z</time>
      </trkpt>
      <trkpt lat="63.40477683" lon="10.4785895">
        <ele>172.214</ele>
        <time>1970-01-01T01:00:00Z</time>
      </trkpt>
      <trkpt lat="63.40475583" lon="10.4785715">
        <ele>172.062</ele>
        <time>1970-01-01T01:00:00Z</time>
      </trkpt>
      <trkpt lat="63.40473367" lon="10.47855433">
        <ele>172.062</ele>
        <time>1970-01-01T01:00:00Z</time>
      </trkpt>
      <trkpt lat="63.40471033" lon="10.47854083">
        <ele>171.909</ele>
        <time>1970-01-01T01:00:00Z</time>
      </trkpt>
      <trkpt lat="63.404686" lon="10.47852867">
        <ele>171.909</ele>
        <time>1970-01-01T01:00:00Z</time>
      </trkpt>
      <trkpt lat="63.4046605" lon="10.47852217">
        <ele>171.757</ele>
        <time>1970-01-01T01:00:00Z</time>
      </trkpt>
      <trkpt lat="63.404636" lon="10.47851517">
        <ele>171.757</ele>
        <time>1970-01-01T01:00:00Z</time>
      </trkpt>
      <trkpt lat="63.40461083" lon="10.47851233">
        <ele>171.604</ele>
        <time>1970-01-01T01:00:00Z</time>
      </trkpt>
      <trkpt lat="63.40458733" lon="10.47851033">
        <ele>171.604</ele>
        <time>1970-01-01T01:00:00Z</time>
      </trkpt>
      <trkpt lat="63.4045645" lon="10.47850917">
        <ele>171.604</ele>
        <time>1970-01-01T01:00:00Z</time>
      </trkpt>
      <trkpt lat="63.404543" lon="10.4785105">
        <ele>171.604</ele>
        <time>1970-01-01T01:00:00Z</time>
      </trkpt>
      <trkpt lat="63.404522" lon="10.47851233">
        <ele>171.452</ele>
        <time>1970-01-01T01:00:00Z</time>
      </trkpt>
      <trkpt lat="63.40450167" lon="10.47851583">
        <ele>171.452</ele>
        <time>1970-01-01T01:00:00Z</time>
      </trkpt>
      <trkpt lat="63.404481" lon="10.478518">
        <ele>171.452</ele>
        <time>1970-01-01T01:00:00Z</time>
      </trkpt>
      <trkpt lat="63.40445983" lon="10.47852">
        <ele>171.452</ele>
        <time>1970-01-01T01:00:00Z</time>
      </trkpt>
      <trkpt lat="63.40444017" lon="10.478522">
        <ele>171.3</ele>
        <time>1970-01-01T01:00:00Z</time>
      </trkpt>
      <trkpt lat="63.40442133" lon="10.47852767">
        <ele>171.3</ele>
        <time>1970-01-01T01:00:00Z</time>
      </trkpt>
      <trkpt lat="63.40440283" lon="10.47853317">
        <ele>171.3</ele>
        <time>1970-01-01T01:00:00Z</time>
      </trkpt>
      <trkpt lat="63.40438317" lon="10.47854">
        <ele>171.3</ele>
        <time>1970-01-01T01:00:00Z</time>
      </trkpt>
      <trkpt lat="63.40436217" lon="10.47854133">
        <ele>171.3</ele>
        <time>1970-01-01T01:00:00Z</time>
      </trkpt>
      <trkpt lat="63.40434" lon="10.47854283">
        <ele>171.3</ele>
        <time>1970-01-01T01:00:00Z</time>
      </trkpt>
      <trkpt lat="63.40431767" lon="10.4785445">
        <ele>171.3</ele>
        <time>1970-01-01T01:00:00Z</time>
      </trkpt>
      <trkpt lat="63.40429617" lon="10.478549">
        <ele>171.3</ele>
        <time>1970-01-01T01:00:00Z</time>
      </trkpt>
      <trkpt lat="63.404275" lon="10.47855417">
        <ele>171.3</ele>
        <time>1970-01-01T01:00:00Z</time>
      </trkpt>
      <trkpt lat="63.404254" lon="10.47855983">
        <ele>171.3</ele>
        <time>1970-01-01T01:00:00Z</time>
      </trkpt>
      <trkpt lat="63.404234" lon="10.47856633">
        <ele>171.3</ele>
        <time>1970-01-01T01:00:00Z</time>
      </trkpt>
      <trkpt lat="63.40421367" lon="10.478575">
        <ele>171.3</ele>
        <time>1970-01-01T01:00:00Z</time>
      </trkpt>
      <trkpt lat="63.40419483" lon="10.47858583">
        <ele>171.452</ele>
        <time>1970-01-01T01:00:00Z</time>
      </trkpt>
      <trkpt lat="63.404176" lon="10.478599">
        <ele>171.452</ele>
        <time>1970-01-01T01:00:00Z</time>
      </trkpt>
      <trkpt lat="63.40415667" lon="10.4786145">
        <ele>171.604</ele>
        <time>1970-01-01T01:00:00Z</time>
      </trkpt>
      <trkpt lat="63.40413667" lon="10.47863117">
        <ele>171.604</ele>
        <time>1970-01-01T01:00:00Z</time>
      </trkpt>
      <trkpt lat="63.40411817" lon="10.478653">
        <ele>171.757</ele>
        <time>1970-01-01T01:00:00Z</time>
      </trkpt>
      <trkpt lat="63.4041015" lon="10.478682">
        <ele>171.757</ele>
        <time>1970-01-01T01:00:00Z</time>
      </trkpt>
      <trkpt lat="63.404087" lon="10.47871">
        <ele>171.909</ele>
        <time>1970-01-01T01:00:00Z</time>
      </trkpt>
      <trkpt lat="63.40407567" lon="10.4787385">
        <ele>171.909</ele>
        <time>1970-01-01T01:00:00Z</time>
      </trkpt>
      <trkpt lat="63.40406817" lon="10.47876533">
        <ele>172.062</ele>
        <time>1970-01-01T01:00:00Z</time>
      </trkpt>
      <trkpt lat="63.4040625" lon="10.4788025">
        <ele>172.062</ele>
        <time>1970-01-01T01:00:00Z</time>
      </trkpt>
      <trkpt lat="63.40405883" lon="10.47884133">
        <ele>172.214</ele>
        <time>1970-01-01T01:00:00Z</time>
      </trkpt>
      <trkpt lat="63.404059" lon="10.478885">
        <ele>172.214</ele>
        <time>1970-01-01T01:00:00Z</time>
      </trkpt>
      <trkpt lat="63.40406167" lon="10.47892583">
        <ele>172.519</ele>
        <time>1970-01-01T01:00:00Z</time>
      </trkpt>
      <trkpt lat="63.4040665" lon="10.47896667">
        <ele>172.519</ele>
        <time>1970-01-01T01:00:00Z</time>
      </trkpt>
      <trkpt lat="63.40407233" lon="10.4790045">
        <ele>172.671</ele>
        <time>1970-01-01T01:00:00Z</time>
      </trkpt>
      <trkpt lat="63.40408117" lon="10.47904383">
        <ele>172.671</ele>
        <time>1970-01-01T01:00:00Z</time>
      </trkpt>
      <trkpt lat="63.404092" lon="10.47908033">
        <ele>172.824</ele>
        <time>1970-01-01T01:00:00Z</time>
      </trkpt>
      <trkpt lat="63.40410517" lon="10.47911083">
        <ele>172.824</ele>
        <time>1970-01-01T01:00:00Z</time>
      </trkpt>
      <trkpt lat="63.40412367" lon="10.479132">
        <ele>172.976</ele>
        <time>1970-01-01T01:00:00Z</time>
      </trkpt>
      <trkpt lat="63.404142" lon="10.47914917">
        <ele>172.976</ele>
        <time>1970-01-01T01:00:00Z</time>
      </trkpt>
      <trkpt lat="63.40416" lon="10.479164">
        <ele>173.128</ele>
        <time>1970-01-01T01:00:00Z</time>
      </trkpt>
      <trkpt lat="63.404172" lon="10.4791865">
        <ele>173.128</ele>
        <time>1970-01-01T01:00:00Z</time>
      </trkpt>
      <trkpt lat="63.4041805" lon="10.47921617">
        <ele>173.433</ele>
        <time>1970-01-01T01:00:00Z</time>
      </trkpt>
      <trkpt lat="63.40418333" lon="10.47925033">
        <ele>173.433</ele>
        <time>1970-01-01T01:00:00Z</time>
      </trkpt>
      <trkpt lat="63.40418133" lon="10.47927833">
        <ele>173.586</ele>
        <time>1970-01-01T01:00:00Z</time>
      </trkpt>
      <trkpt lat="63.40417667" lon="10.4793015">
        <ele>173.586</ele>
        <time>1970-01-01T01:00:00Z</time>
      </trkpt>
      <trkpt lat="63.40417283" lon="10.47932">
        <ele>173.738</ele>
        <time>1970-01-01T01:00:00Z</time>
      </trkpt>
      <trkpt lat="63.40417133" lon="10.4793375">
        <ele>173.738</ele>
        <time>1970-01-01T01:00:00Z</time>
      </trkpt>
      <trkpt lat="63.40417617" lon="10.47935067">
        <ele>174.043</ele>
        <time>1970-01-01T01:00:00Z</time>
      </trkpt>
      <trkpt lat="63.404187" lon="10.4793585">
        <ele>174.043</ele>
        <time>1970-01-01T01:00:00Z</time>
      </trkpt>
      <trkpt lat="63.404203" lon="10.479363">
        <ele>174.195</ele>
        <time>1970-01-01T01:00:00Z</time>
      </trkpt>
      <trkpt lat="63.40421983" lon="10.47937017">
        <ele>174.195</ele>
        <time>1970-01-01T01:00:00Z</time>
      </trkpt>
      <trkpt lat="63.404235" lon="10.47938867">
        <ele>174.348</ele>
        <time>1970-01-01T01:00:00Z</time>
      </trkpt>
      <trkpt lat="63.40424583" lon="10.479419">
        <ele>174.348</ele>
        <time>1970-01-01T01:00:00Z</time>
      </trkpt>
      <trkpt lat="63.404252" lon="10.47945783">
        <ele>174.5</ele>
        <time>1970-01-01T01:00:00Z</time>
      </trkpt>
      <trkpt lat="63.4042555" lon="10.4794965">
        <ele>174.5</ele>
        <time>1970-01-01T01:00:00Z</time>
      </trkpt>
      <trkpt lat="63.4042575" lon="10.47953517">
        <ele>174.805</ele>
        <time>1970-01-01T01:00:00Z</time>
      </trkpt>
      <trkpt lat="63.4042575" lon="10.479576">
        <ele>174.805</ele>
        <time>1970-01-01T01:00:00Z</time>
      </trkpt>
      <trkpt lat="63.40425517" lon="10.47962517">
        <ele>174.957</ele>
        <time>1970-01-01T01:00:00Z</time>
      </trkpt>
      <trkpt lat="63.4042525" lon="10.47967333">
        <ele>174.957</ele>
        <time>1970-01-01T01:00:00Z</time>
      </trkpt>
      <trkpt lat="63.40425133" lon="10.47972083">
        <ele>175.11</ele>
        <time>1970-01-01T01:00:00Z</time>
      </trkpt>
      <trkpt lat="63.40424983" lon="10.4797655">
        <ele>175.11</ele>
        <time>1970-01-01T01:00:00Z</time>
      </trkpt>
      <trkpt lat="63.40424833" lon="10.47981283">
        <ele>175.415</ele>
        <time>1970-01-01T01:00:00Z</time>
      </trkpt>
      <trkpt lat="63.40424733" lon="10.47985917">
        <ele>175.415</ele>
        <time>1970-01-01T01:00:00Z</time>
      </trkpt>
      <trkpt lat="63.4042465" lon="10.47990317">
        <ele>175.719</ele>
        <time>1970-01-01T01:00:00Z</time>
      </trkpt>
      <trkpt lat="63.40424533" lon="10.47995033">
        <ele>175.719</ele>
        <time>1970-01-01T01:00:00Z</time>
      </trkpt>
      <trkpt lat="63.40424083" lon="10.4799995">
        <ele>176.024</ele>
        <time>1970-01-01T01:00:00Z</time>
      </trkpt>
      <trkpt lat="63.40423667" lon="10.480049">
        <ele>176.024</ele>
        <time>1970-01-01T01:00:00Z</time>
      </trkpt>
      <trkpt lat="63.404229" lon="10.48009933">
        <ele>176.329</ele>
        <time>1970-01-01T01:00:00Z</time>
      </trkpt>
      <trkpt lat="63.40422117" lon="10.48015133">
        <ele>176.329</ele>
        <time>1970-01-01T01:00:00Z</time>
      </trkpt>
      <trkpt lat="63.4042125" lon="10.48020117">
        <ele>176.786</ele>
        <time>1970-01-01T01:00:00Z</time>
      </trkpt>
      <trkpt lat="63.40420717" lon="10.48024833">
        <ele>176.786</ele>
        <time>1970-01-01T01:00:00Z</time>
      </trkpt>
      <trkpt lat="63.404204" lon="10.48029367">
        <ele>177.091</ele>
        <time>1970-01-01T01:00:00Z</time>
      </trkpt>
      <trkpt lat="63.4042005" lon="10.48033983">
        <ele>177.091</ele>
        <time>1970-01-01T01:00:00Z</time>
      </trkpt>
      <trkpt lat="63.40419617" lon="10.48038267">
        <ele>177.396</ele>
        <time>1970-01-01T01:00:00Z</time>
      </trkpt>
      <trkpt lat="63.40419117" lon="10.48042467">
        <ele>177.396</ele>
        <time>1970-01-01T01:00:00Z</time>
      </trkpt>
      <trkpt lat="63.40418883" lon="10.4804605">
        <ele>177.701</ele>
        <time>1970-01-01T01:00:00Z</time>
      </trkpt>
      <trkpt lat="63.40418633" lon="10.4805015">
        <ele>177.701</ele>
        <time>1970-01-01T01:00:00Z</time>
      </trkpt>
      <trkpt lat="63.40418317" lon="10.4805445">
        <ele>178.005</ele>
        <time>1970-01-01T01:00:00Z</time>
      </trkpt>
      <trkpt lat="63.404179" lon="10.48058983">
        <ele>178.005</ele>
        <time>1970-01-01T01:00:00Z</time>
      </trkpt>
      <trkpt lat="63.404176" lon="10.48063283">
        <ele>178.31</ele>
        <time>1970-01-01T01:00:00Z</time>
      </trkpt>
      <trkpt lat="63.404175" lon="10.48067517">
        <ele>178.31</ele>
        <time>1970-01-01T01:00:00Z</time>
      </trkpt>
      <trkpt lat="63.40417417" lon="10.48071833">
        <ele>178.767</ele>
        <time>1970-01-01T01:00:00Z</time>
      </trkpt>
      <trkpt lat="63.40417383" lon="10.4807585">
        <ele>178.767</ele>
        <time>1970-01-01T01:00:00Z</time>
      </trkpt>
      <trkpt lat="63.40417317" lon="10.4807995">
        <ele>179.072</ele>
        <time>1970-01-01T01:00:00Z</time>
      </trkpt>
      <trkpt lat="63.40417233" lon="10.4808445">
        <ele>179.072</ele>
        <time>1970-01-01T01:00:00Z</time>
      </trkpt>
      <trkpt lat="63.404171" lon="10.48088967">
        <ele>179.529</ele>
        <time>1970-01-01T01:00:00Z</time>
      </trkpt>
      <trkpt lat="63.40417017" lon="10.48093233">
        <ele>179.529</ele>
        <time>1970-01-01T01:00:00Z</time>
      </trkpt>
      <trkpt lat="63.40416967" lon="10.480975">
        <ele>179.987</ele>
        <time>1970-01-01T01:00:00Z</time>
      </trkpt>
      <trkpt lat="63.40417" lon="10.4810205">
        <ele>179.987</ele>
        <time>1970-01-01T01:00:00Z</time>
      </trkpt>
      <trkpt lat="63.40417067" lon="10.48106683">
        <ele>180.291</ele>
        <time>1970-01-01T01:00:00Z</time>
      </trkpt>
      <trkpt lat="63.40417167" lon="10.48111417">
        <ele>180.291</ele>
        <time>1970-01-01T01:00:00Z</time>
      </trkpt>
      <trkpt lat="63.404173" lon="10.48115983">
        <ele>180.749</ele>
        <time>1970-01-01T01:00:00Z</time>
      </trkpt>
      <trkpt lat="63.4041745" lon="10.48120367">
        <ele>180.749</ele>
        <time>1970-01-01T01:00:00Z</time>
      </trkpt>
      <trkpt lat="63.4041755" lon="10.48125017">
        <ele>181.206</ele>
        <time>1970-01-01T01:00:00Z</time>
      </trkpt>
      <trkpt lat="63.40417767" lon="10.48129617">
        <ele>181.206</ele>
        <time>1970-01-01T01:00:00Z</time>
      </trkpt>
      <trkpt lat="63.4041805" lon="10.48133917">
        <ele>181.511</ele>
        <time>1970-01-01T01:00:00Z</time>
      </trkpt>
      <trkpt lat="63.404186" lon="10.4813795">
        <ele>181.511</ele>
        <time>1970-01-01T01:00:00Z</time>
      </trkpt>
      <trkpt lat="63.40419217" lon="10.48142367">
        <ele>181.968</ele>
        <time>1970-01-01T01:00:00Z</time>
      </trkpt>
      <trkpt lat="63.404199" lon="10.48147083">
        <ele>181.968</ele>
        <time>1970-01-01T01:00:00Z</time>
      </trkpt>
      <trkpt lat="63.40420617" lon="10.48151517">
        <ele>182.273</ele>
        <time>1970-01-01T01:00:00Z</time>
      </trkpt>
      <trkpt lat="63.4042135" lon="10.48155633">
        <ele>182.273</ele>
        <time>1970-01-01T01:00:00Z</time>
      </trkpt>
      <trkpt lat="63.40422167" lon="10.48159833">
        <ele>182.73</ele>
        <time>1970-01-01T01:00:00Z</time>
      </trkpt>
      <trkpt lat="63.40422917" lon="10.481641">
        <ele>182.73</ele>
        <time>1970-01-01T01:00:00Z</time>
      </trkpt>
      <trkpt lat="63.404236" lon="10.48168483">
        <ele>183.187</ele>
        <time>1970-01-01T01:00:00Z</time>
      </trkpt>
      <trkpt lat="63.404241" lon="10.481728">
        <ele>183.187</ele>
        <time>1970-01-01T01:00:00Z</time>
      </trkpt>
      <trkpt lat="63.40424667" lon="10.4817715">
        <ele>183.644</ele>
        <time>1970-01-01T01:00:00Z</time>
      </trkpt>
      <trkpt lat="63.404253" lon="10.48181567">
        <ele>183.644</ele>
        <time>1970-01-01T01:00:00Z</time>
      </trkpt>
      <trkpt lat="63.40425967" lon="10.48185683">
        <ele>184.101</ele>
        <time>1970-01-01T01:00:00Z</time>
      </trkpt>
      <trkpt lat="63.40426717" lon="10.481897">
        <ele>184.101</ele>
        <time>1970-01-01T01:00:00Z</time>
      </trkpt>
      <trkpt lat="63.404274" lon="10.481936">
        <ele>184.559</ele>
        <time>1970-01-01T01:00:00Z</time>
      </trkpt>
      <trkpt lat="63.4042815" lon="10.481978">
        <ele>184.559</ele>
        <time>1970-01-01T01:00:00Z</time>
      </trkpt>
      <trkpt lat="63.40428667" lon="10.48201983">
        <ele>184.863</ele>
        <time>1970-01-01T01:00:00Z</time>
      </trkpt>
      <trkpt lat="63.40429267" lon="10.482063">
        <ele>184.863</ele>
        <time>1970-01-01T01:00:00Z</time>
      </trkpt>
      <trkpt lat="63.40429983" lon="10.48210783">
        <ele>185.321</ele>
        <time>1970-01-01T01:00:00Z</time>
      </trkpt>
      <trkpt lat="63.404307" lon="10.48215183">
        <ele>185.321</ele>
        <time>1970-01-01T01:00:00Z</time>
      </trkpt>
      <trkpt lat="63.40431533" lon="10.48219567">
        <ele>185.778</ele>
        <time>1970-01-01T01:00:00Z</time>
      </trkpt>
      <trkpt lat="63.40432183" lon="10.4822395">
        <ele>185.778</ele>
        <time>1970-01-01T01:00:00Z</time>
      </trkpt>
      <trkpt lat="63.40432917" lon="10.48228633">
        <ele>186.083</ele>
        <time>1970-01-01T01:00:00Z</time>
      </trkpt>
      <trkpt lat="63.40433283" lon="10.48232733">
        <ele>186.083</ele>
        <time>1970-01-01T01:00:00Z</time>
      </trkpt>
      <trkpt lat="63.40433867" lon="10.482367">
        <ele>186.54</ele>
        <time>1970-01-01T01:00:00Z</time>
      </trkpt>
      <trkpt lat="63.40434633" lon="10.48240167">
        <ele>186.54</ele>
        <time>1970-01-01T01:00:00Z</time>
      </trkpt>
      <trkpt lat="63.40435783" lon="10.482441">
        <ele>186.845</ele>
        <time>1970-01-01T01:00:00Z</time>
      </trkpt>
      <trkpt lat="63.40436983" lon="10.482478">
        <ele>186.845</ele>
        <time>1970-01-01T01:00:00Z</time>
      </trkpt>
      <trkpt lat="63.40438167" lon="10.48251583">
        <ele>187.149</ele>
        <time>1970-01-01T01:00:00Z</time>
      </trkpt>
      <trkpt lat="63.40439217" lon="10.48255167">
        <ele>187.149</ele>
        <time>1970-01-01T01:00:00Z</time>
      </trkpt>
      <trkpt lat="63.40440017" lon="10.48258917">
        <ele>187.302</ele>
        <time>1970-01-01T01:00:00Z</time>
      </trkpt>
      <trkpt lat="63.40440833" lon="10.48262667">
        <ele>187.302</ele>
        <time>1970-01-01T01:00:00Z</time>
      </trkpt>
      <trkpt lat="63.40441667" lon="10.4826635">
        <ele>187.607</ele>
        <time>1970-01-01T01:00:00Z</time>
      </trkpt>
      <trkpt lat="63.404427" lon="10.48270367">
        <ele>187.607</ele>
        <time>1970-01-01T01:00:00Z</time>
      </trkpt>
      <trkpt lat="63.40443667" lon="10.4827405">
        <ele>187.911</ele>
        <time>1970-01-01T01:00:00Z</time>
      </trkpt>
      <trkpt lat="63.40444767" lon="10.482774">
        <ele>187.911</ele>
        <time>1970-01-01T01:00:00Z</time>
      </trkpt>
      <trkpt lat="63.40446017" lon="10.4828055">
        <ele>188.216</ele>
        <time>1970-01-01T01:00:00Z</time>
      </trkpt>
      <trkpt lat="63.40447483" lon="10.48283617">
        <ele>188.216</ele>
        <time>1970-01-01T01:00:00Z</time>
      </trkpt>
      <trkpt lat="63.404491" lon="10.4828675">
        <ele>188.369</ele>
        <time>1970-01-01T01:00:00Z</time>
      </trkpt>
      <trkpt lat="63.4045075" lon="10.48290017">
        <ele>188.369</ele>
        <time>1970-01-01T01:00:00Z</time>
      </trkpt>
      <trkpt lat="63.40452267" lon="10.482938">
        <ele>188.673</ele>
        <time>1970-01-01T01:00:00Z</time>
      </trkpt>
      <trkpt lat="63.40453883" lon="10.48298017">
        <ele>188.673</ele>
        <time>1970-01-01T01:00:00Z</time>
      </trkpt>
      <trkpt lat="63.4045545" lon="10.483019">
        <ele>188.978</ele>
        <time>1970-01-01T01:00:00Z</time>
      </trkpt>
      <trkpt lat="63.40457067" lon="10.48305267">
        <ele>188.978</ele>
        <time>1970-01-01T01:00:00Z</time>
      </trkpt>
      <trkpt lat="63.40458567" lon="10.48308">
        <ele>189.131</ele>
        <time>1970-01-01T01:00:00Z</time>
      </trkpt>
      <trkpt lat="63.404601" lon="10.48310783">
        <ele>189.131</ele>
        <time>1970-01-01T01:00:00Z</time>
      </trkpt>
      <trkpt lat="63.40461667" lon="10.48313933">
        <ele>189.436</ele>
        <time>1970-01-01T01:00:00Z</time>
      </trkpt>
      <trkpt lat="63.40463217" lon="10.483174">
        <ele>189.436</ele>
        <time>1970-01-01T01:00:00Z</time>
      </trkpt>
      <trkpt lat="63.404649" lon="10.483209">
        <ele>189.74</ele>
        <time>1970-01-01T01:00:00Z</time>
      </trkpt>
      <trkpt lat="63.4046665" lon="10.48324433">
        <ele>189.74</ele>
        <time>1970-01-01T01:00:00Z</time>
      </trkpt>
      <trkpt lat="63.404684" lon="10.4832795">
        <ele>190.045</ele>
        <time>1970-01-01T01:00:00Z</time>
      </trkpt>
      <trkpt lat="63.40470133" lon="10.48331433">
        <ele>190.045</ele>
        <time>1970-01-01T01:00:00Z</time>
      </trkpt>
      <trkpt lat="63.40471733" lon="10.48334983">
        <ele>190.35</ele>
        <time>1970-01-01T01:00:00Z</time>
      </trkpt>
      <trkpt lat="63.40473283" lon="10.48338667">
        <ele>190.35</ele>
        <time>1970-01-01T01:00:00Z</time>
      </trkpt>
      <trkpt lat="63.40474733" lon="10.48342417">
        <ele>190.655</ele>
        <time>1970-01-01T01:00:00Z</time>
      </trkpt>
      <trkpt lat="63.40475417" lon="10.48346017">
        <ele>190.655</ele>
        <time>1970-01-01T01:00:00Z</time>
      </trkpt>
      <trkpt lat="63.40476033" lon="10.48349517">
        <ele>190.96</ele>
        <time>1970-01-01T01:00:00Z</time>
      </trkpt>
      <trkpt lat="63.40476383" lon="10.48352967">
        <ele>190.96</ele>
        <time>1970-01-01T01:00:00Z</time>
      </trkpt>
      <trkpt lat="63.40477517" lon="10.48356433">
        <ele>191.112</ele>
        <time>1970-01-01T01:00:00Z</time>
      </trkpt>
      <trkpt lat="63.40478683" lon="10.48359967">
        <ele>191.112</ele>
        <time>1970-01-01T01:00:00Z</time>
      </trkpt>
      <trkpt lat="63.4048005" lon="10.48363583">
        <ele>191.264</ele>
        <time>1970-01-01T01:00:00Z</time>
      </trkpt>
      <trkpt lat="63.40481317" lon="10.483674">
        <ele>191.264</ele>
        <time>1970-01-01T01:00:00Z</time>
      </trkpt>
      <trkpt lat="63.40482383" lon="10.48371533">
        <ele>191.417</ele>
        <time>1970-01-01T01:00:00Z</time>
      </trkpt>
      <trkpt lat="63.40483167" lon="10.4837625">
        <ele>191.417</ele>
        <time>1970-01-01T01:00:00Z</time>
      </trkpt>
      <trkpt lat="63.40483633" lon="10.48381417">
        <ele>191.569</ele>
        <time>1970-01-01T01:00:00Z</time>
      </trkpt>
      <trkpt lat="63.4048405" lon="10.483866">
        <ele>191.569</ele>
        <time>1970-01-01T01:00:00Z</time>
      </trkpt>
      <trkpt lat="63.40484467" lon="10.48391467">
        <ele>191.874</ele>
        <time>1970-01-01T01:00:00Z</time>
      </trkpt>
      <trkpt lat="63.40485033" lon="10.48396283">
        <ele>191.874</ele>
        <time>1970-01-01T01:00:00Z</time>
      </trkpt>
      <trkpt lat="63.40485667" lon="10.48401083">
        <ele>192.026</ele>
        <time>1970-01-01T01:00:00Z</time>
      </trkpt>
      <trkpt lat="63.40486467" lon="10.48405817">
        <ele>192.026</ele>
        <time>1970-01-01T01:00:00Z</time>
      </trkpt>
      <trkpt lat="63.404872" lon="10.484106">
        <ele>192.331</ele>
        <time>1970-01-01T01:00:00Z</time>
      </trkpt>
      <trkpt lat="63.40487683" lon="10.484153">
        <ele>192.331</ele>
        <time>1970-01-01T01:00:00Z</time>
      </trkpt>
      <trkpt lat="63.40487933" lon="10.48420067">
        <ele>192.484</ele>
        <time>1970-01-01T01:00:00Z</time>
      </trkpt>
      <trkpt lat="63.4048855" lon="10.48424917">
        <ele>192.484</ele>
        <time>1970-01-01T01:00:00Z</time>
      </trkpt>
      <trkpt lat="63.404895" lon="10.48429767">
        <ele>192.788</ele>
        <time>1970-01-01T01:00:00Z</time>
      </trkpt>
      <trkpt lat="63.40490683" lon="10.48434417">
        <ele>192.788</ele>
        <time>1970-01-01T01:00:00Z</time>
      </trkpt>
      <trkpt lat="63.404917" lon="10.48438483">
        <ele>193.093</ele>
        <time>1970-01-01T01:00:00Z</time>
      </trkpt>
      <trkpt lat="63.40492417" lon="10.48441633">
        <ele>193.093</ele>
        <time>1970-01-01T01:00:00Z</time>
      </trkpt>
      <trkpt lat="63.40493" lon="10.484447">
        <ele>193.246</ele>
        <time>1970-01-01T01:00:00Z</time>
      </trkpt>
      <trkpt lat="63.404935" lon="10.48447733">
        <ele>193.246</ele>
        <time>1970-01-01T01:00:00Z</time>
      </trkpt>
      <trkpt lat="63.40493917" lon="10.48451217">
        <ele>193.398</ele>
        <time>1970-01-01T01:00:00Z</time>
      </trkpt>
      <trkpt lat="63.40494333" lon="10.484543">
        <ele>193.398</ele>
        <time>1970-01-01T01:00:00Z</time>
      </trkpt>
      <trkpt lat="63.4049455" lon="10.48457517">
        <ele>193.55</ele>
        <time>1970-01-01T01:00:00Z</time>
      </trkpt>
      <trkpt lat="63.40494833" lon="10.4846085">
        <ele>193.55</ele>
        <time>1970-01-01T01:00:00Z</time>
      </trkpt>
      <trkpt lat="63.404949" lon="10.48464617">
        <ele>193.703</ele>
        <time>1970-01-01T01:00:00Z</time>
      </trkpt>
      <trkpt lat="63.40494883" lon="10.48468417">
        <ele>193.703</ele>
        <time>1970-01-01T01:00:00Z</time>
      </trkpt>
      <trkpt lat="63.40495017" lon="10.484722">
        <ele>194.008</ele>
        <time>1970-01-01T01:00:00Z</time>
      </trkpt>
      <trkpt lat="63.40495017" lon="10.484763">
        <ele>194.008</ele>
        <time>1970-01-01T01:00:00Z</time>
      </trkpt>
      <trkpt lat="63.404949" lon="10.484806">
        <ele>194.16</ele>
        <time>1970-01-01T01:00:00Z</time>
      </trkpt>
      <trkpt lat="63.404946" lon="10.48485167">
        <ele>194.16</ele>
        <time>1970-01-01T01:00:00Z</time>
      </trkpt>
      <trkpt lat="63.40494433" lon="10.48489367">
        <ele>194.465</ele>
        <time>1970-01-01T01:00:00Z</time>
      </trkpt>
      <trkpt lat="63.40494417" lon="10.484934">
        <ele>194.465</ele>
        <time>1970-01-01T01:00:00Z</time>
      </trkpt>
      <trkpt lat="63.40494333" lon="10.48497383">
        <ele>194.77</ele>
        <time>1970-01-01T01:00:00Z</time>
      </trkpt>
      <trkpt lat="63.4049425" lon="10.48500933">
        <ele>194.77</ele>
        <time>1970-01-01T01:00:00Z</time>
      </trkpt>
      <trkpt lat="63.4049425" lon="10.485044">
        <ele>195.074</ele>
        <time>1970-01-01T01:00:00Z</time>
      </trkpt>
      <trkpt lat="63.40494267" lon="10.48507433">
        <ele>195.074</ele>
        <time>1970-01-01T01:00:00Z</time>
      </trkpt>
      <trkpt lat="63.40494367" lon="10.48510467">
        <ele>195.227</ele>
        <time>1970-01-01T01:00:00Z</time>
      </trkpt>
      <trkpt lat="63.40494417" lon="10.48512967">
        <ele>195.227</ele>
        <time>1970-01-01T01:00:00Z</time>
      </trkpt>
      <trkpt lat="63.40494617" lon="10.48515417">
        <ele>195.532</ele>
        <time>1970-01-01T01:00:00Z</time>
      </trkpt>
      <trkpt lat="63.40494967" lon="10.48517417">
        <ele>195.532</ele>
        <time>1970-01-01T01:00:00Z</time>
      </trkpt>
      <trkpt lat="63.40494933" lon="10.48518967">
        <ele>195.836</ele>
        <time>1970-01-01T01:00:00Z</time>
      </trkpt>
      <trkpt lat="63.40494667" lon="10.48519917">
        <ele>195.836</ele>
        <time>1970-01-01T01:00:00Z</time>
      </trkpt>
      <trkpt lat="63.40494233" lon="10.48520583">
        <ele>195.989</ele>
        <time>1970-01-01T01:00:00Z</time>
      </trkpt>
      <trkpt lat="63.404941" lon="10.48521183">
        <ele>195.989</ele>
        <time>1970-01-01T01:00:00Z</time>
      </trkpt>
      <trkpt lat="63.40494033" lon="10.485217">
        <ele>196.294</ele>
        <time>1970-01-01T01:00:00Z</time>
      </trkpt>
      <trkpt lat="63.404938" lon="10.485222">
        <ele>196.294</ele>
        <time>1970-01-01T01:00:00Z</time>
      </trkpt>
      <trkpt lat="63.40493267" lon="10.48522167">
        <ele>196.598</ele>
        <time>1970-01-01T01:00:00Z</time>
      </trkpt>
      <trkpt lat="63.40492633" lon="10.48522083">
        <ele>196.598</ele>
        <time>1970-01-01T01:00:00Z</time>
      </trkpt>
      <trkpt lat="63.40491933" lon="10.48522033">
        <ele>196.903</ele>
        <time>1970-01-01T01:00:00Z</time>
      </trkpt>
      <trkpt lat="63.404916" lon="10.48522433">
        <ele>196.903</ele>
        <time>1970-01-01T01:00:00Z</time>
      </trkpt>
      <trkpt lat="63.404911" lon="10.48522983">
        <ele>197.208</ele>
        <time>1970-01-01T01:00:00Z</time>
      </trkpt>
      <trkpt lat="63.40490467" lon="10.485233">
        <ele>197.208</ele>
        <time>1970-01-01T01:00:00Z</time>
      </trkpt>
      <trkpt lat="63.40489767" lon="10.48523333">
        <ele>197.513</ele>
        <time>1970-01-01T01:00:00Z</time>
      </trkpt>
      <trkpt lat="63.40489283" lon="10.4852315">
        <ele>197.513</ele>
        <time>1970-01-01T01:00:00Z</time>
      </trkpt>
      <trkpt lat="63.404891" lon="10.48522867">
        <ele>197.818</ele>
        <time>1970-01-01T01:00:00Z</time>
      </trkpt>
      <trkpt lat="63.40488767" lon="10.485225">
        <ele>197.818</ele>
        <time>1970-01-01T01:00:00Z</time>
      </trkpt>
      <trkpt lat="63.40488383" lon="10.48522033">
        <ele>198.275</ele>
        <time>1970-01-01T01:00:00Z</time>
      </trkpt>
      <trkpt lat="63.4048785" lon="10.4852155">
        <ele>198.275</ele>
        <time>1970-01-01T01:00:00Z</time>
      </trkpt>
      <trkpt lat="63.40487117" lon="10.48521283">
        <ele>198.58</ele>
        <time>1970-01-01T01:00:00Z</time>
      </trkpt>
      <trkpt lat="63.40486233" lon="10.48520867">
        <ele>198.58</ele>
        <time>1970-01-01T01:00:00Z</time>
      </trkpt>
      <trkpt lat="63.40485267" lon="10.48520433">
        <ele>199.037</ele>
        <time>1970-01-01T01:00:00Z</time>
      </trkpt>
      <trkpt lat="63.40484367" lon="10.48519767">
        <ele>199.037</ele>
        <time>1970-01-01T01:00:00Z</time>
      </trkpt>
      <trkpt lat="63.40483533" lon="10.48519283">
        <ele>199.494</ele>
        <time>1970-01-01T01:00:00Z</time>
      </trkpt>
      <trkpt lat="63.4048275" lon="10.48519033">
        <ele>199.494</ele>
        <time>1970-01-01T01:00:00Z</time>
      </trkpt>
      <trkpt lat="63.40481867" lon="10.48519">
        <ele>199.951</ele>
        <time>1970-01-01T01:00:00Z</time>
      </trkpt>
      <trkpt lat="63.40481117" lon="10.48518867">
        <ele>199.951</ele>
        <time>1970-01-01T01:00:00Z</time>
      </trkpt>
      <trkpt lat="63.40480467" lon="10.48518817">
        <ele>200.408</ele>
        <time>1970-01-01T01:00:00Z</time>
      </trkpt>
      <trkpt lat="63.40479967" lon="10.48518867">
        <ele>200.408</ele>
        <time>1970-01-01T01:00:00Z</time>
      </trkpt>
      <trkpt lat="63.40479267" lon="10.485193">
        <ele>200.866</ele>
        <time>1970-01-01T01:00:00Z</time>
      </trkpt>
      <trkpt lat="63.40478517" lon="10.48519433">
        <ele>200.866</ele>
        <time>1970-01-01T01:00:00Z</time>
      </trkpt>
      <trkpt lat="63.40477833" lon="10.48519383">
        <ele>201.323</ele>
        <time>1970-01-01T01:00:00Z</time>
      </trkpt>
      <trkpt lat="63.40477183" lon="10.48519167">
        <ele>201.323</ele>
        <time>1970-01-01T01:00:00Z</time>
      </trkpt>
      <trkpt lat="63.404766" lon="10.48519033">
        <ele>201.932</ele>
        <time>1970-01-01T01:00:00Z</time>
      </trkpt>
      <trkpt lat="63.4047585" lon="10.48519383">
        <ele>201.932</ele>
        <time>1970-01-01T01:00:00Z</time>
      </trkpt>
      <trkpt lat="63.40475067" lon="10.48519767">
        <ele>202.39</ele>
        <time>1970-01-01T01:00:00Z</time>
      </trkpt>
      <trkpt lat="63.40473717" lon="10.485203">
        <ele>202.39</ele>
        <time>1970-01-01T01:00:00Z</time>
      </trkpt>
      <trkpt lat="63.40472483" lon="10.485205">
        <ele>202.847</ele>
        <time>1970-01-01T01:00:00Z</time>
      </trkpt>
      <trkpt lat="63.40471167" lon="10.48520533">
        <ele>202.847</ele>
        <time>1970-01-01T01:00:00Z</time>
      </trkpt>
      <trkpt lat="63.40470267" lon="10.48520483">
        <ele>203.456</ele>
        <time>1970-01-01T01:00:00Z</time>
      </trkpt>
      <trkpt lat="63.40469217" lon="10.485203">
        <ele>203.456</ele>
        <time>1970-01-01T01:00:00Z</time>
      </trkpt>
      <trkpt lat="63.4046815" lon="10.48520317">
        <ele>203.914</ele>
        <time>1970-01-01T01:00:00Z</time>
      </trkpt>
      <trkpt lat="63.4046705" lon="10.48520717">
        <ele>203.914</ele>
        <time>1970-01-01T01:00:00Z</time>
      </trkpt>
      <trkpt lat="63.40466017" lon="10.48521133">
        <ele>204.371</ele>
        <time>1970-01-01T01:00:00Z</time>
      </trkpt>
      <trkpt lat="63.40464667" lon="10.48520983">
        <ele>204.371</ele>
        <time>1970-01-01T01:00:00Z</time>
      </trkpt>
      <trkpt lat="63.404634" lon="10.48520467">
        <ele>204.828</ele>
        <time>1970-01-01T01:00:00Z</time>
      </trkpt>
      <trkpt lat="63.40462183" lon="10.48519917">
        <ele>204.828</ele>
        <time>1970-01-01T01:00:00Z</time>
      </trkpt>
      <trkpt lat="63.404616" lon="10.48519867">
        <ele>205.285</ele>
        <time>1970-01-01T01:00:00Z</time>
      </trkpt>
      <trkpt lat="63.404611" lon="10.48520017">
        <ele>205.285</ele>
        <time>1970-01-01T01:00:00Z</time>
      </trkpt>
      <trkpt lat="63.40460533" lon="10.48520233">
        <ele>205.59</ele>
        <time>1970-01-01T01:00:00Z</time>
      </trkpt>
      <trkpt lat="63.40459633" lon="10.48520533">
        <ele>205.59</ele>
        <time>1970-01-01T01:00:00Z</time>
      </trkpt>
      <trkpt lat="63.40458467" lon="10.48520633">
        <ele>206.047</ele>
        <time>1970-01-01T01:00:00Z</time>
      </trkpt>
      <trkpt lat="63.4045745" lon="10.485209">
        <ele>206.047</ele>
        <time>1970-01-01T01:00:00Z</time>
      </trkpt>
      <trkpt lat="63.40456633" lon="10.48521317">
        <ele>206.505</ele>
        <time>1970-01-01T01:00:00Z</time>
      </trkpt>
      <trkpt lat="63.4045595" lon="10.485216">
        <ele>206.505</ele>
        <time>1970-01-01T01:00:00Z</time>
      </trkpt>
      <trkpt lat="63.40455183" lon="10.485216">
        <ele>206.962</ele>
        <time>1970-01-01T01:00:00Z</time>
      </trkpt>
      <trkpt lat="63.40454383" lon="10.4852125">
        <ele>206.962</ele>
        <time>1970-01-01T01:00:00Z</time>
      </trkpt>
      <trkpt lat="63.40453667" lon="10.48520983">
        <ele>207.419</ele>
        <time>1970-01-01T01:00:00Z</time>
      </trkpt>
      <trkpt lat="63.404529" lon="10.48520633">
        <ele>207.419</ele>
        <time>1970-01-01T01:00:00Z</time>
      </trkpt>
      <trkpt lat="63.40452183" lon="10.48520583">
        <ele>207.876</ele>
        <time>1970-01-01T01:00:00Z</time>
      </trkpt>
      <trkpt lat="63.40451333" lon="10.48520917">
        <ele>207.876</ele>
        <time>1970-01-01T01:00:00Z</time>
      </trkpt>
      <trkpt lat="63.40450617" lon="10.48521367">
        <ele>208.486</ele>
        <time>1970-01-01T01:00:00Z</time>
      </trkpt>
      <trkpt lat="63.40449817" lon="10.48521967">
        <ele>208.486</ele>
        <time>1970-01-01T01:00:00Z</time>
      </trkpt>
      <trkpt lat="63.40449217" lon="10.485227">
        <ele>208.943</ele>
        <time>1970-01-01T01:00:00Z</time>
      </trkpt>
      <trkpt lat="63.40448083" lon="10.48523767">
        <ele>208.943</ele>
        <time>1970-01-01T01:00:00Z</time>
      </trkpt>
      <trkpt lat="63.40446417" lon="10.48524867">
        <ele>209.553</ele>
        <time>1970-01-01T01:00:00Z</time>
      </trkpt>
      <trkpt lat="63.40444267" lon="10.48525733">
        <ele>209.553</ele>
        <time>1970-01-01T01:00:00Z</time>
      </trkpt>
      <trkpt lat="63.40442267" lon="10.48526217">
        <ele>210.01</ele>
        <time>1970-01-01T01:00:00Z</time>
      </trkpt>
      <trkpt lat="63.4044075" lon="10.48526133">
        <ele>210.01</ele>
        <time>1970-01-01T01:00:00Z</time>
      </trkpt>
      <trkpt lat="63.4043925" lon="10.48525717">
        <ele>210.467</ele>
        <time>1970-01-01T01:00:00Z</time>
      </trkpt>
      <trkpt lat="63.404379" lon="10.48525383">
        <ele>210.467</ele>
        <time>1970-01-01T01:00:00Z</time>
      </trkpt>
      <trkpt lat="63.404365" lon="10.4852535">
        <ele>210.772</ele>
        <time>1970-01-01T01:00:00Z</time>
      </trkpt>
      <trkpt lat="63.404349" lon="10.48525083">
        <ele>210.772</ele>
        <time>1970-01-01T01:00:00Z</time>
      </trkpt>
      <trkpt lat="63.40433183" lon="10.48524483">
        <ele>211.077</ele>
        <time>1970-01-01T01:00:00Z</time>
      </trkpt>
      <trkpt lat="63.40431417" lon="10.485236">
        <ele>211.077</ele>
        <time>1970-01-01T01:00:00Z</time>
      </trkpt>
      <trkpt lat="63.40429967" lon="10.48523133">
        <ele>211.534</ele>
        <time>1970-01-01T01:00:00Z</time>
      </trkpt>
      <trkpt lat="63.404287" lon="10.4852285">
        <ele>211.534</ele>
        <time>1970-01-01T01:00:00Z</time>
      </trkpt>
      <trkpt lat="63.404275" lon="10.4852285">
        <ele>211.686</ele>
        <time>1970-01-01T01:00:00Z</time>
      </trkpt>
      <trkpt lat="63.40426267" lon="10.48523267">
        <ele>211.686</ele>
        <time>1970-01-01T01:00:00Z</time>
      </trkpt>
      <trkpt lat="63.40424783" lon="10.48523867">
        <ele>211.991</ele>
        <time>1970-01-01T01:00:00Z</time>
      </trkpt>
      <trkpt lat="63.4042325" lon="10.485244">
        <ele>211.991</ele>
        <time>1970-01-01T01:00:00Z</time>
      </trkpt>
      <trkpt lat="63.40421917" lon="10.4852445">
        <ele>212.296</ele>
        <time>1970-01-01T01:00:00Z</time>
      </trkpt>
      <trkpt lat="63.40420767" lon="10.48524533">
        <ele>212.296</ele>
        <time>1970-01-01T01:00:00Z</time>
      </trkpt>
      <trkpt lat="63.404194" lon="10.4852445">
        <ele>212.448</ele>
        <time>1970-01-01T01:00:00Z</time>
      </trkpt>
      <trkpt lat="63.40417417" lon="10.4852485">
        <ele>212.448</ele>
        <time>1970-01-01T01:00:00Z</time>
      </trkpt>
      <trkpt lat="63.40415233" lon="10.4852545">
        <ele>212.753</ele>
        <time>1970-01-01T01:00:00Z</time>
      </trkpt>
      <trkpt lat="63.40413017" lon="10.48526383">
        <ele>212.753</ele>
        <time>1970-01-01T01:00:00Z</time>
      </trkpt>
      <trkpt lat="63.40411133" lon="10.48526833">
        <ele>213.21</ele>
        <time>1970-01-01T01:00:00Z</time>
      </trkpt>
      <trkpt lat="63.40409533" lon="10.48527417">
        <ele>213.21</ele>
        <time>1970-01-01T01:00:00Z</time>
      </trkpt>
      <trkpt lat="63.40408283" lon="10.4852825">
        <ele>213.515</ele>
        <time>1970-01-01T01:00:00Z</time>
      </trkpt>
      <trkpt lat="63.40407317" lon="10.485295">
        <ele>213.515</ele>
        <time>1970-01-01T01:00:00Z</time>
      </trkpt>
      <trkpt lat="63.40406467" lon="10.485308">
        <ele>213.82</ele>
        <time>1970-01-01T01:00:00Z</time>
      </trkpt>
      <trkpt lat="63.40405817" lon="10.48532">
        <ele>213.82</ele>
        <time>1970-01-01T01:00:00Z</time>
      </trkpt>
      <trkpt lat="63.40405383" lon="10.48533533">
        <ele>214.125</ele>
        <time>1970-01-01T01:00:00Z</time>
      </trkpt>
      <trkpt lat="63.40405233" lon="10.485353">
        <ele>214.125</ele>
        <time>1970-01-01T01:00:00Z</time>
      </trkpt>
      <trkpt lat="63.40405133" lon="10.485375">
        <ele>214.582</ele>
        <time>1970-01-01T01:00:00Z</time>
      </trkpt>
      <trkpt lat="63.404051" lon="10.48539583">
        <ele>214.582</ele>
        <time>1970-01-01T01:00:00Z</time>
      </trkpt>
      <trkpt lat="63.40405" lon="10.48541167">
        <ele>214.887</ele>
        <time>1970-01-01T01:00:00Z</time>
      </trkpt>
      <trkpt lat="63.40405083" lon="10.48542067">
        <ele>214.887</ele>
        <time>1970-01-01T01:00:00Z</time>
      </trkpt>
      <trkpt lat="63.40405133" lon="10.4854275">
        <ele>215.344</ele>
        <time>1970-01-01T01:00:00Z</time>
      </trkpt>
      <trkpt lat="63.40405267" lon="10.48543417">
        <ele>215.344</ele>
        <time>1970-01-01T01:00:00Z</time>
      </trkpt>
      <trkpt lat="63.40405433" lon="10.48543733">
        <ele>215.649</ele>
        <time>1970-01-01T01:00:00Z</time>
      </trkpt>
      <trkpt lat="63.4040575" lon="10.48544">
        <ele>215.649</ele>
        <time>1970-01-01T01:00:00Z</time>
      </trkpt>
      <trkpt lat="63.4040625" lon="10.48544783">
        <ele>215.953</ele>
        <time>1970-01-01T01:00:00Z</time>
      </trkpt>
      <trkpt lat="63.4040665" lon="10.48546217">
        <ele>215.953</ele>
        <time>1970-01-01T01:00:00Z</time>
      </trkpt>
      <trkpt lat="63.40407117" lon="10.48548067">
        <ele>216.258</ele>
        <time>1970-01-01T01:00:00Z</time>
      </trkpt>
      <trkpt lat="63.404074" lon="10.48549833">
        <ele>216.258</ele>
        <time>1970-01-01T01:00:00Z</time>
      </trkpt>
      <trkpt lat="63.40407667" lon="10.48552017">
        <ele>216.563</ele>
        <time>1970-01-01T01:00:00Z</time>
      </trkpt>
      <trkpt lat="63.4040785" lon="10.48554617">
        <ele>216.563</ele>
        <time>1970-01-01T01:00:00Z</time>
      </trkpt>
      <trkpt lat="63.40408233" lon="10.48557267">
        <ele>216.868</ele>
        <time>1970-01-01T01:00:00Z</time>
      </trkpt>
      <trkpt lat="63.4040885" lon="10.48559617">
        <ele>216.868</ele>
        <time>1970-01-01T01:00:00Z</time>
      </trkpt>
      <trkpt lat="63.40409467" lon="10.485612">
        <ele>217.173</ele>
        <time>1970-01-01T01:00:00Z</time>
      </trkpt>
      <trkpt lat="63.4040995" lon="10.48562683">
        <ele>217.173</ele>
        <time>1970-01-01T01:00:00Z</time>
      </trkpt>
      <trkpt lat="63.40410333" lon="10.48564267">
        <ele>217.477</ele>
        <time>1970-01-01T01:00:00Z</time>
      </trkpt>
      <trkpt lat="63.40410617" lon="10.485659">
        <ele>217.477</ele>
        <time>1970-01-01T01:00:00Z</time>
      </trkpt>
      <trkpt lat="63.40411117" lon="10.48567417">
        <ele>217.782</ele>
        <time>1970-01-01T01:00:00Z</time>
      </trkpt>
      <trkpt lat="63.40411717" lon="10.48569733">
        <ele>217.782</ele>
        <time>1970-01-01T01:00:00Z</time>
      </trkpt>
      <trkpt lat="63.40412667" lon="10.485733">
        <ele>218.087</ele>
        <time>1970-01-01T01:00:00Z</time>
      </trkpt>
      <trkpt lat="63.40413683" lon="10.48576967">
        <ele>218.087</ele>
        <time>1970-01-01T01:00:00Z</time>
      </trkpt>
      <trkpt lat="63.40414683" lon="10.485797">
        <ele>218.544</ele>
        <time>1970-01-01T01:00:00Z</time>
      </trkpt>
      <trkpt lat="63.4041555" lon="10.48581033">
        <ele>218.544</ele>
        <time>1970-01-01T01:00:00Z</time>
      </trkpt>
      <trkpt lat="63.40416033" lon="10.485824">
        <ele>218.849</ele>
        <time>1970-01-01T01:00:00Z</time>
      </trkpt>
      <trkpt lat="63.40416317" lon="10.48583517">
        <ele>218.849</ele>
        <time>1970-01-01T01:00:00Z</time>
      </trkpt>
      <trkpt lat="63.40416467" lon="10.4858445">
        <ele>219.306</ele>
        <time>1970-01-01T01:00:00Z</time>
      </trkpt>
      <trkpt lat="63.40416783" lon="10.48585383">
        <ele>219.306</ele>
        <time>1970-01-01T01:00:00Z</time>
      </trkpt>
      <trkpt lat="63.4041705" lon="10.48586583">
        <ele>219.611</ele>
        <time>1970-01-01T01:00:00Z</time>
      </trkpt>
      <trkpt lat="63.40417133" lon="10.485889">
        <ele>219.611</ele>
        <time>1970-01-01T01:00:00Z</time>
      </trkpt>
      <trkpt lat="63.4041705" lon="10.485914">
        <ele>220.068</ele>
        <time>1970-01-01T01:00:00Z</time>
      </trkpt>
      <trkpt lat="63.40417283" lon="10.48594333">
        <ele>220.068</ele>
        <time>1970-01-01T01:00:00Z</time>
      </trkpt>
      <trkpt lat="63.404177" lon="10.48596467">
        <ele>220.373</ele>
        <time>1970-01-01T01:00:00Z</time>
      </trkpt>
      <trkpt lat="63.404182" lon="10.48598383">
        <ele>220.373</ele>
        <time>1970-01-01T01:00:00Z</time>
      </trkpt>
      <trkpt lat="63.4041845" lon="10.48599633">
        <ele>220.678</ele>
        <time>1970-01-01T01:00:00Z</time>
      </trkpt>
      <trkpt lat="63.40418783" lon="10.48600983">
        <ele>220.678</ele>
        <time>1970-01-01T01:00:00Z</time>
      </trkpt>
      <trkpt lat="63.4041945" lon="10.486025">
        <ele>221.135</ele>
        <time>1970-01-01T01:00:00Z</time>
      </trkpt>
      <trkpt lat="63.40420267" lon="10.486046">
        <ele>221.135</ele>
        <time>1970-01-01T01:00:00Z</time>
      </trkpt>
      <trkpt lat="63.4042095" lon="10.48606367">
        <ele>221.592</ele>
        <time>1970-01-01T01:00:00Z</time>
      </trkpt>
      <trkpt lat="63.4042135" lon="10.48608333">
        <ele>221.592</ele>
        <time>1970-01-01T01:00:00Z</time>
      </trkpt>
      <trkpt lat="63.4042155" lon="10.486104">
        <ele>222.049</ele>
        <time>1970-01-01T01:00:00Z</time>
      </trkpt>
      <trkpt lat="63.40421733" lon="10.48613117">
        <ele>222.049</ele>
        <time>1970-01-01T01:00:00Z</time>
      </trkpt>
      <trkpt lat="63.40421767" lon="10.48615933">
        <ele>222.507</ele>
        <time>1970-01-01T01:00:00Z</time>
      </trkpt>
      <trkpt lat="63.40421583" lon="10.48618417">
        <ele>222.507</ele>
        <time>1970-01-01T01:00:00Z</time>
      </trkpt>
      <trkpt lat="63.40421317" lon="10.4862115">
        <ele>222.964</ele>
        <time>1970-01-01T01:00:00Z</time>
      </trkpt>
      <trkpt lat="63.4042105" lon="10.48623933">
        <ele>222.964</ele>
        <time>1970-01-01T01:00:00Z</time>
      </trkpt>
      <trkpt lat="63.40420783" lon="10.48626917">
        <ele>223.574</ele>
        <time>1970-01-01T01:00:00Z</time>
      </trkpt>
      <trkpt lat="63.40420433" lon="10.4862955">
        <ele>223.574</ele>
        <time>1970-01-01T01:00:00Z</time>
      </trkpt>
      <trkpt lat="63.404201" lon="10.486321">
        <ele>224.031</ele>
        <time>1970-01-01T01:00:00Z</time>
      </trkpt>
      <trkpt lat="63.4041995" lon="10.48634633">
        <ele>224.031</ele>
        <time>1970-01-01T01:00:00Z</time>
      </trkpt>
      <trkpt lat="63.4041995" lon="10.486372">
        <ele>224.488</ele>
        <time>1970-01-01T01:00:00Z</time>
      </trkpt>
      <trkpt lat="63.40419883" lon="10.486395">
        <ele>224.488</ele>
        <time>1970-01-01T01:00:00Z</time>
      </trkpt>
      <trkpt lat="63.40419817" lon="10.48641483">
        <ele>225.098</ele>
        <time>1970-01-01T01:00:00Z</time>
      </trkpt>
      <trkpt lat="63.40419533" lon="10.486436">
        <ele>225.098</ele>
        <time>1970-01-01T01:00:00Z</time>
      </trkpt>
      <trkpt lat="63.404192" lon="10.486457">
        <ele>225.555</ele>
        <time>1970-01-01T01:00:00Z</time>
      </trkpt>
      <trkpt lat="63.40418817" lon="10.48647917">
        <ele>225.555</ele>
        <time>1970-01-01T01:00:00Z</time>
      </trkpt>
      <trkpt lat="63.40418567" lon="10.48649817">
        <ele>226.164</ele>
        <time>1970-01-01T01:00:00Z</time>
      </trkpt>
      <trkpt lat="63.40418267" lon="10.48651633">
        <ele>226.164</ele>
        <time>1970-01-01T01:00:00Z</time>
      </trkpt>
      <trkpt lat="63.4041795" lon="10.48653167">
        <ele>226.774</ele>
        <time>1970-01-01T01:00:00Z</time>
      </trkpt>
      <trkpt lat="63.40417683" lon="10.486548">
        <ele>226.774</ele>
        <time>1970-01-01T01:00:00Z</time>
      </trkpt>
      <trkpt lat="63.40417283" lon="10.48656683">
        <ele>227.384</ele>
        <time>1970-01-01T01:00:00Z</time>
      </trkpt>
      <trkpt lat="63.4041685" lon="10.48659133">
        <ele>227.384</ele>
        <time>1970-01-01T01:00:00Z</time>
      </trkpt>
      <trkpt lat="63.40416333" lon="10.48661783">
        <ele>227.993</ele>
        <time>1970-01-01T01:00:00Z</time>
      </trkpt>
      <trkpt lat="63.40415917" lon="10.486644">
        <ele>227.993</ele>
        <time>1970-01-01T01:00:00Z</time>
      </trkpt>
      <trkpt lat="63.40415617" lon="10.48666983">
        <ele>228.603</ele>
        <time>1970-01-01T01:00:00Z</time>
      </trkpt>
      <trkpt lat="63.404153" lon="10.486692">
        <ele>228.603</ele>
        <time>1970-01-01T01:00:00Z</time>
      </trkpt>
      <trkpt lat="63.40415067" lon="10.4867115">
        <ele>229.06</ele>
        <time>1970-01-01T01:00:00Z</time>
      </trkpt>
      <trkpt lat="63.40414633" lon="10.48673133">
        <ele>229.06</ele>
        <time>1970-01-01T01:00:00Z</time>
      </trkpt>
      <trkpt lat="63.4041415" lon="10.4867515">
        <ele>229.67</ele>
        <time>1970-01-01T01:00:00Z</time>
      </trkpt>
      <trkpt lat="63.40413583" lon="10.4867715">
        <ele>229.67</ele>
        <time>1970-01-01T01:00:00Z</time>
      </trkpt>
      <trkpt lat="63.40413033" lon="10.48678883">
        <ele>230.279</ele>
        <time>1970-01-01T01:00:00Z</time>
      </trkpt>
      <trkpt lat="63.40412717" lon="10.48680583">
        <ele>230.279</ele>
        <time>1970-01-01T01:00:00Z</time>
      </trkpt>
      <trkpt lat="63.4041235" lon="10.48682333">
        <ele>230.889</ele>
        <time>1970-01-01T01:00:00Z</time>
      </trkpt>
      <trkpt lat="63.40411883" lon="10.48684233">
        <ele>230.889</ele>
        <time>1970-01-01T01:00:00Z</time>
      </trkpt>
      <trkpt lat="63.40411133" lon="10.48686617">
        <ele>231.498</ele>
        <time>1970-01-01T01:00:00Z</time>
      </trkpt>
      <trkpt lat="63.40410117" lon="10.486893">
        <ele>231.498</ele>
        <time>1970-01-01T01:00:00Z</time>
      </trkpt>
      <trkpt lat="63.40409033" lon="10.486915">
        <ele>231.956</ele>
        <time>1970-01-01T01:00:00Z</time>
      </trkpt>
      <trkpt lat="63.40407933" lon="10.486928">
        <ele>231.956</ele>
        <time>1970-01-01T01:00:00Z</time>
      </trkpt>
      <trkpt lat="63.404071" lon="10.48693067">
        <ele>232.565</ele>
        <time>1970-01-01T01:00:00Z</time>
      </trkpt>
      <trkpt lat="63.404063" lon="10.486935">
        <ele>232.565</ele>
        <time>1970-01-01T01:00:00Z</time>
      </trkpt>
      <trkpt lat="63.40405167" lon="10.48694">
        <ele>233.175</ele>
        <time>1970-01-01T01:00:00Z</time>
      </trkpt>
      <trkpt lat="63.4040385" lon="10.48694917">
        <ele>233.175</ele>
        <time>1970-01-01T01:00:00Z</time>
      </trkpt>
      <trkpt lat="63.40402317" lon="10.48696083">
        <ele>233.632</ele>
        <time>1970-01-01T01:00:00Z</time>
      </trkpt>
      <trkpt lat="63.40401033" lon="10.48697333">
        <ele>233.632</ele>
        <time>1970-01-01T01:00:00Z</time>
      </trkpt>
      <trkpt lat="63.4039995" lon="10.48698617">
        <ele>234.089</ele>
        <time>1970-01-01T01:00:00Z</time>
      </trkpt>
      <trkpt lat="63.40398783" lon="10.48699917">
        <ele>234.089</ele>
        <time>1970-01-01T01:00:00Z</time>
      </trkpt>
      <trkpt lat="63.40397383" lon="10.487017">
        <ele>234.546</ele>
        <time>1970-01-01T01:00:00Z</time>
      </trkpt>
      <trkpt lat="63.403959" lon="10.487039">
        <ele>234.546</ele>
        <time>1970-01-01T01:00:00Z</time>
      </trkpt>
      <trkpt lat="63.40394733" lon="10.487057">
        <ele>235.004</ele>
        <time>1970-01-01T01:00:00Z</time>
      </trkpt>
      <trkpt lat="63.4039385" lon="10.48707383">
        <ele>235.004</ele>
        <time>1970-01-01T01:00:00Z</time>
      </trkpt>
      <trkpt lat="63.40392983" lon="10.48708683">
        <ele>235.461</ele>
        <time>1970-01-01T01:00:00Z</time>
      </trkpt>
      <trkpt lat="63.40392033" lon="10.48710817">
        <ele>235.461</ele>
        <time>1970-01-01T01:00:00Z</time>
      </trkpt>
      <trkpt lat="63.4039105" lon="10.48712733">
        <ele>235.918</ele>
        <time>1970-01-01T01:00:00Z</time>
      </trkpt>
      <trkpt lat="63.40390233" lon="10.4871475">
        <ele>235.918</ele>
        <time>1970-01-01T01:00:00Z</time>
      </trkpt>
      <trkpt lat="63.40389467" lon="10.48715983">
        <ele>236.375</ele>
        <time>1970-01-01T01:00:00Z</time>
      </trkpt>
      <trkpt lat="63.40388883" lon="10.487174">
        <ele>236.375</ele>
        <time>1970-01-01T01:00:00Z</time>
      </trkpt>
      <trkpt lat="63.40387983" lon="10.48718717">
        <ele>236.832</ele>
        <time>1970-01-01T01:00:00Z</time>
      </trkpt>
      <trkpt lat="63.40387133" lon="10.4872055">
        <ele>236.832</ele>
        <time>1970-01-01T01:00:00Z</time>
      </trkpt>
      <trkpt lat="63.403863" lon="10.4872275">
        <ele>237.442</ele>
        <time>1970-01-01T01:00:00Z</time>
      </trkpt>
      <trkpt lat="63.40385683" lon="10.487255">
        <ele>237.442</ele>
        <time>1970-01-01T01:00:00Z</time>
      </trkpt>
      <trkpt lat="63.40385267" lon="10.48727783">
        <ele>237.899</ele>
        <time>1970-01-01T01:00:00Z</time>
      </trkpt>
      <trkpt lat="63.40384833" lon="10.4872925">
        <ele>237.899</ele>
        <time>1970-01-01T01:00:00Z</time>
      </trkpt>
      <trkpt lat="63.40384417" lon="10.48730117">
        <ele>238.509</ele>
        <time>1970-01-01T01:00:00Z</time>
      </trkpt>
      <trkpt lat="63.403837" lon="10.48731067">
        <ele>238.509</ele>
        <time>1970-01-01T01:00:00Z</time>
      </trkpt>
      <trkpt lat="63.40383033" lon="10.48731917">
        <ele>238.966</ele>
        <time>1970-01-01T01:00:00Z</time>
      </trkpt>
      <trkpt lat="63.4038235" lon="10.487328">
        <ele>238.966</ele>
        <time>1970-01-01T01:00:00Z</time>
      </trkpt>
      <trkpt lat="63.4038185" lon="10.48734033">
        <ele>239.576</ele>
        <time>1970-01-01T01:00:00Z</time>
      </trkpt>
      <trkpt lat="63.403813" lon="10.48735967">
        <ele>239.576</ele>
        <time>1970-01-01T01:00:00Z</time>
      </trkpt>
      <trkpt lat="63.40380833" lon="10.48738233">
        <ele>240.033</ele>
        <time>1970-01-01T01:00:00Z</time>
      </trkpt>
      <trkpt lat="63.403803" lon="10.48740467">
        <ele>240.033</ele>
        <time>1970-01-01T01:00:00Z</time>
      </trkpt>
      <trkpt lat="63.4037975" lon="10.487422">
        <ele>240.643</ele>
        <time>1970-01-01T01:00:00Z</time>
      </trkpt>
      <trkpt lat="63.40378783" lon="10.487434">
        <ele>240.643</ele>
        <time>1970-01-01T01:00:00Z</time>
      </trkpt>
      <trkpt lat="63.4037775" lon="10.48743883">
        <ele>241.252</ele>
        <time>1970-01-01T01:00:00Z</time>
      </trkpt>
      <trkpt lat="63.40376783" lon="10.48744217">
        <ele>241.252</ele>
        <time>1970-01-01T01:00:00Z</time>
      </trkpt>
      <trkpt lat="63.403759" lon="10.487445">
        <ele>241.709</ele>
        <time>1970-01-01T01:00:00Z</time>
      </trkpt>
      <trkpt lat="63.40374883" lon="10.4874475">
        <ele>241.709</ele>
        <time>1970-01-01T01:00:00Z</time>
      </trkpt>
      <trkpt lat="63.40373217" lon="10.487446">
        <ele>242.319</ele>
        <time>1970-01-01T01:00:00Z</time>
      </trkpt>
      <trkpt lat="63.403717" lon="10.48744467">
        <ele>242.319</ele>
        <time>1970-01-01T01:00:00Z</time>
      </trkpt>
      <trkpt lat="63.40369983" lon="10.48744633">
        <ele>242.776</ele>
        <time>1970-01-01T01:00:00Z</time>
      </trkpt>
      <trkpt lat="63.40368667" lon="10.48745">
        <ele>242.776</ele>
        <time>1970-01-01T01:00:00Z</time>
      </trkpt>
      <trkpt lat="63.4036735" lon="10.487456">
        <ele>243.233</ele>
        <time>1970-01-01T01:00:00Z</time>
      </trkpt>
      <trkpt lat="63.403662" lon="10.4874635">
        <ele>243.233</ele>
        <time>1970-01-01T01:00:00Z</time>
      </trkpt>
      <trkpt lat="63.4036505" lon="10.48747817">
        <ele>243.843</ele>
        <time>1970-01-01T01:00:00Z</time>
      </trkpt>
      <trkpt lat="63.40363933" lon="10.48749317">
        <ele>243.843</ele>
        <time>1970-01-01T01:00:00Z</time>
      </trkpt>
      <trkpt lat="63.40362867" lon="10.487506">
        <ele>244.3</ele>
        <time>1970-01-01T01:00:00Z</time>
      </trkpt>
      <trkpt lat="63.40361883" lon="10.487513">
        <ele>244.3</ele>
        <time>1970-01-01T01:00:00Z</time>
      </trkpt>
      <trkpt lat="63.40360833" lon="10.4875165">
        <ele>244.757</ele>
        <time>1970-01-01T01:00:00Z</time>
      </trkpt>
      <trkpt lat="63.40359833" lon="10.48751567">
        <ele>244.757</ele>
        <time>1970-01-01T01:00:00Z</time>
      </trkpt>
      <trkpt lat="63.40358767" lon="10.48751617">
        <ele>245.215</ele>
        <time>1970-01-01T01:00:00Z</time>
      </trkpt>
      <trkpt lat="63.403576" lon="10.4875205">
        <ele>245.215</ele>
        <time>1970-01-01T01:00:00Z</time>
      </trkpt>
      <trkpt lat="63.40356533" lon="10.48753033">
        <ele>245.824</ele>
        <time>1970-01-01T01:00:00Z</time>
      </trkpt>
      <trkpt lat="63.4035565" lon="10.48754517">
        <ele>245.824</ele>
        <time>1970-01-01T01:00:00Z</time>
      </trkpt>
      <trkpt lat="63.40354883" lon="10.48756283">
        <ele>246.281</ele>
        <time>1970-01-01T01:00:00Z</time>
      </trkpt>
      <trkpt lat="63.40354217" lon="10.487585">
        <ele>246.281</ele>
        <time>1970-01-01T01:00:00Z</time>
      </trkpt>
      <trkpt lat="63.40353517" lon="10.48760833">
        <ele>246.739</ele>
        <time>1970-01-01T01:00:00Z</time>
      </trkpt>
      <trkpt lat="63.4035275" lon="10.48763433">
        <ele>246.739</ele>
        <time>1970-01-01T01:00:00Z</time>
      </trkpt>
      <trkpt lat="63.40351833" lon="10.48766567">
        <ele>247.348</ele>
        <time>1970-01-01T01:00:00Z</time>
      </trkpt>
      <trkpt lat="63.4035095" lon="10.48770083">
        <ele>247.348</ele>
        <time>1970-01-01T01:00:00Z</time>
      </trkpt>
      <trkpt lat="63.40350283" lon="10.48773633">
        <ele>247.958</ele>
        <time>1970-01-01T01:00:00Z</time>
      </trkpt>
      <trkpt lat="63.40349767" lon="10.487767">
        <ele>247.958</ele>
        <time>1970-01-01T01:00:00Z</time>
      </trkpt>
      <trkpt lat="63.403491" lon="10.4877945">
        <ele>248.567</ele>
        <time>1970-01-01T01:00:00Z</time>
      </trkpt>
      <trkpt lat="63.40348383" lon="10.4878235">
        <ele>248.567</ele>
        <time>1970-01-01T01:00:00Z</time>
      </trkpt>
      <trkpt lat="63.4034755" lon="10.48784783">
        <ele>249.177</ele>
        <time>1970-01-01T01:00:00Z</time>
      </trkpt>
      <trkpt lat="63.40346867" lon="10.48786467">
        <ele>249.177</ele>
        <time>1970-01-01T01:00:00Z</time>
      </trkpt>
      <trkpt lat="63.40346117" lon="10.4878815">
        <ele>249.634</ele>
        <time>1970-01-01T01:00:00Z</time>
      </trkpt>
      <trkpt lat="63.40345467" lon="10.4879">
        <ele>249.634</ele>
        <time>1970-01-01T01:00:00Z</time>
      </trkpt>
      <trkpt lat="63.40344883" lon="10.48792933">
        <ele>250.244</ele>
        <time>1970-01-01T01:00:00Z</time>
      </trkpt>
      <trkpt lat="63.40344317" lon="10.487957">
        <ele>250.244</ele>
        <time>1970-01-01T01:00:00Z</time>
      </trkpt>
      <trkpt lat="63.40343817" lon="10.4879885">
        <ele>250.701</ele>
        <time>1970-01-01T01:00:00Z</time>
      </trkpt>
      <trkpt lat="63.403432" lon="10.48801533">
        <ele>250.701</ele>
        <time>1970-01-01T01:00:00Z</time>
      </trkpt>
      <trkpt lat="63.40342633" lon="10.4880395">
        <ele>251.311</ele>
        <time>1970-01-01T01:00:00Z</time>
      </trkpt>
      <trkpt lat="63.40342083" lon="10.48806417">
        <ele>251.311</ele>
        <time>1970-01-01T01:00:00Z</time>
      </trkpt>
      <trkpt lat="63.40341617" lon="10.48809033">
        <ele>251.768</ele>
        <time>1970-01-01T01:00:00Z</time>
      </trkpt>
      <trkpt lat="63.40341083" lon="10.48811833">
        <ele>251.768</ele>
        <time>1970-01-01T01:00:00Z</time>
      </trkpt>
      <trkpt lat="63.4034035" lon="10.488143">
        <ele>252.377</ele>
        <time>1970-01-01T01:00:00Z</time>
      </trkpt>
      <trkpt lat="63.403396" lon="10.488168">
        <ele>252.377</ele>
        <time>1970-01-01T01:00:00Z</time>
      </trkpt>
      <trkpt lat="63.40338867" lon="10.48819417">
        <ele>252.835</ele>
        <time>1970-01-01T01:00:00Z</time>
      </trkpt>
      <trkpt lat="63.40338117" lon="10.48822167">
        <ele>252.835</ele>
        <time>1970-01-01T01:00:00Z</time>
      </trkpt>
      <trkpt lat="63.40337283" lon="10.488254">
        <ele>253.292</ele>
        <time>1970-01-01T01:00:00Z</time>
      </trkpt>
      <trkpt lat="63.403366" lon="10.4882835">
        <ele>253.292</ele>
        <time>1970-01-01T01:00:00Z</time>
      </trkpt>
      <trkpt lat="63.40336033" lon="10.48831617">
        <ele>253.597</ele>
        <time>1970-01-01T01:00:00Z</time>
      </trkpt>
      <trkpt lat="63.4033565" lon="10.48834217">
        <ele>253.597</ele>
        <time>1970-01-01T01:00:00Z</time>
      </trkpt>
      <trkpt lat="63.40335367" lon="10.4883755">
        <ele>254.054</ele>
        <time>1970-01-01T01:00:00Z</time>
      </trkpt>
      <trkpt lat="63.40335067" lon="10.4884165">
        <ele>254.054</ele>
        <time>1970-01-01T01:00:00Z</time>
      </trkpt>
      <trkpt lat="63.4033455" lon="10.48846617">
        <ele>254.511</ele>
        <time>1970-01-01T01:00:00Z</time>
      </trkpt>
      <trkpt lat="63.40333817" lon="10.48851967">
        <ele>254.511</ele>
        <time>1970-01-01T01:00:00Z</time>
      </trkpt>
      <trkpt lat="63.40332967" lon="10.488574">
        <ele>254.816</ele>
        <time>1970-01-01T01:00:00Z</time>
      </trkpt>
      <trkpt lat="63.40332317" lon="10.48862217">
        <ele>254.816</ele>
        <time>1970-01-01T01:00:00Z</time>
      </trkpt>
      <trkpt lat="63.40331717" lon="10.488663">
        <ele>255.121</ele>
        <time>1970-01-01T01:00:00Z</time>
      </trkpt>
      <trkpt lat="63.4033115" lon="10.48869817">
        <ele>255.121</ele>
        <time>1970-01-01T01:00:00Z</time>
      </trkpt>
      <trkpt lat="63.40330167" lon="10.4887385">
        <ele>255.578</ele>
        <time>1970-01-01T01:00:00Z</time>
      </trkpt>
      <trkpt lat="63.40328883" lon="10.48878533">
        <ele>255.578</ele>
        <time>1970-01-01T01:00:00Z</time>
      </trkpt>
      <trkpt lat="63.40327467" lon="10.48883217">
        <ele>255.883</ele>
        <time>1970-01-01T01:00:00Z</time>
      </trkpt>
      <trkpt lat="63.403262" lon="10.48888117">
        <ele>255.883</ele>
        <time>1970-01-01T01:00:00Z</time>
      </trkpt>
      <trkpt lat="63.403247" lon="10.48892867">
        <ele>256.188</ele>
        <time>1970-01-01T01:00:00Z</time>
      </trkpt>
      <trkpt lat="63.40323033" lon="10.48897383">
        <ele>256.188</ele>
        <time>1970-01-01T01:00:00Z</time>
      </trkpt>
      <trkpt lat="63.40321017" lon="10.48901333">
        <ele>256.492</ele>
        <time>1970-01-01T01:00:00Z</time>
      </trkpt>
      <trkpt lat="63.40318983" lon="10.48904767">
        <ele>256.492</ele>
        <time>1970-01-01T01:00:00Z</time>
      </trkpt>
      <trkpt lat="63.403168" lon="10.4890765">
        <ele>256.95</ele>
        <time>1970-01-01T01:00:00Z</time>
      </trkpt>
      <trkpt lat="63.40314517" lon="10.48910633">
        <ele>256.95</ele>
        <time>1970-01-01T01:00:00Z</time>
      </trkpt>
      <trkpt lat="63.40312167" lon="10.48913817">
        <ele>257.254</ele>
        <time>1970-01-01T01:00:00Z</time>
      </trkpt>
      <trkpt lat="63.40309867" lon="10.48917383">
        <ele>257.254</ele>
        <time>1970-01-01T01:00:00Z</time>
      </trkpt>
      <trkpt lat="63.403075" lon="10.4892105">
        <ele>257.559</ele>
        <time>1970-01-01T01:00:00Z</time>
      </trkpt>
      <trkpt lat="63.40305317" lon="10.4892445">
        <ele>257.559</ele>
        <time>1970-01-01T01:00:00Z</time>
      </trkpt>
      <trkpt lat="63.40303117" lon="10.48927867">
        <ele>257.864</ele>
        <time>1970-01-01T01:00:00Z</time>
      </trkpt>
      <trkpt lat="63.40300867" lon="10.48931167">
        <ele>257.864</ele>
        <time>1970-01-01T01:00:00Z</time>
      </trkpt>
      <trkpt lat="63.40298617" lon="10.489346">
        <ele>258.169</ele>
        <time>1970-01-01T01:00:00Z</time>
      </trkpt>
      <trkpt lat="63.40296383" lon="10.4893795">
        <ele>258.169</ele>
        <time>1970-01-01T01:00:00Z</time>
      </trkpt>
      <trkpt lat="63.402942" lon="10.48941217">
        <ele>258.474</ele>
        <time>1970-01-01T01:00:00Z</time>
      </trkpt>
      <trkpt lat="63.40291983" lon="10.48944283">
        <ele>258.474</ele>
        <time>1970-01-01T01:00:00Z</time>
      </trkpt>
      <trkpt lat="63.40289733" lon="10.48947433">
        <ele>258.778</ele>
        <time>1970-01-01T01:00:00Z</time>
      </trkpt>
      <trkpt lat="63.402875" lon="10.48950617">
        <ele>258.778</ele>
        <time>1970-01-01T01:00:00Z</time>
      </trkpt>
      <trkpt lat="63.4028535" lon="10.48953833">
        <ele>258.931</ele>
        <time>1970-01-01T01:00:00Z</time>
      </trkpt>
      <trkpt lat="63.402832" lon="10.489572">
        <ele>258.931</ele>
        <time>1970-01-01T01:00:00Z</time>
      </trkpt>
      <trkpt lat="63.40281033" lon="10.48960483">
        <ele>259.236</ele>
        <time>1970-01-01T01:00:00Z</time>
      </trkpt>
      <trkpt lat="63.4027875" lon="10.48963867">
        <ele>259.236</ele>
        <time>1970-01-01T01:00:00Z</time>
      </trkpt>
      <trkpt lat="63.40276633" lon="10.48967183">
        <ele>259.388</ele>
        <time>1970-01-01T01:00:00Z</time>
      </trkpt>
      <trkpt lat="63.40274367" lon="10.4897065">
        <ele>259.388</ele>
        <time>1970-01-01T01:00:00Z</time>
      </trkpt>
      <trkpt lat="63.4027205" lon="10.489735">
        <ele>259.693</ele>
        <time>1970-01-01T01:00:00Z</time>
      </trkpt>
      <trkpt lat="63.40269333" lon="10.4897645">
        <ele>259.693</ele>
        <time>1970-01-01T01:00:00Z</time>
      </trkpt>
      <trkpt lat="63.4026675" lon="10.48979217">
        <ele>259.845</ele>
        <time>1970-01-01T01:00:00Z</time>
      </trkpt>
      <trkpt lat="63.40264183" lon="10.489824">
        <ele>259.845</ele>
        <time>1970-01-01T01:00:00Z</time>
      </trkpt>
      <trkpt lat="63.4026165" lon="10.4898515">
        <ele>259.998</ele>
        <time>1970-01-01T01:00:00Z</time>
      </trkpt>
      <trkpt lat="63.40259217" lon="10.48987483">
        <ele>259.998</ele>
        <time>1970-01-01T01:00:00Z</time>
      </trkpt>
      <trkpt lat="63.40256667" lon="10.489895">
        <ele>260.15</ele>
        <time>1970-01-01T01:00:00Z</time>
      </trkpt>
      <trkpt lat="63.40254183" lon="10.48991517">
        <ele>260.15</ele>
        <time>1970-01-01T01:00:00Z</time>
      </trkpt>
      <trkpt lat="63.40251583" lon="10.48993367">
        <ele>260.302</ele>
        <time>1970-01-01T01:00:00Z</time>
      </trkpt>
      <trkpt lat="63.40249067" lon="10.4899535">
        <ele>260.302</ele>
        <time>1970-01-01T01:00:00Z</time>
      </trkpt>
      <trkpt lat="63.40246533" lon="10.48997383">
        <ele>260.455</ele>
        <time>1970-01-01T01:00:00Z</time>
      </trkpt>
      <trkpt lat="63.40244067" lon="10.489994">
        <ele>260.455</ele>
        <time>1970-01-01T01:00:00Z</time>
      </trkpt>
      <trkpt lat="63.4024145" lon="10.49001083">
        <ele>260.607</ele>
        <time>1970-01-01T01:00:00Z</time>
      </trkpt>
      <trkpt lat="63.402389" lon="10.49002533">
        <ele>260.607</ele>
        <time>1970-01-01T01:00:00Z</time>
      </trkpt>
      <trkpt lat="63.40236383" lon="10.49003867">
        <ele>260.76</ele>
        <time>1970-01-01T01:00:00Z</time>
      </trkpt>
      <trkpt lat="63.40233867" lon="10.49005067">
        <ele>260.76</ele>
        <time>1970-01-01T01:00:00Z</time>
      </trkpt>
      <trkpt lat="63.4023145" lon="10.49006267">
        <ele>260.76</ele>
        <time>1970-01-01T01:00:00Z</time>
      </trkpt>
      <trkpt lat="63.4022905" lon="10.4900745">
        <ele>260.76</ele>
        <time>1970-01-01T01:00:00Z</time>
      </trkpt>
      <trkpt lat="63.40226667" lon="10.49008817">
        <ele>260.76</ele>
        <time>1970-01-01T01:00:00Z</time>
      </trkpt>
      <trkpt lat="63.40224167" lon="10.4900975">
        <ele>260.76</ele>
        <time>1970-01-01T01:00:00Z</time>
      </trkpt>
      <trkpt lat="63.40221783" lon="10.49010533">
        <ele>260.912</ele>
        <time>1970-01-01T01:00:00Z</time>
      </trkpt>
      <trkpt lat="63.4021955" lon="10.49011017">
        <ele>260.912</ele>
        <time>1970-01-01T01:00:00Z</time>
      </trkpt>
      <trkpt lat="63.40217433" lon="10.49011683">
        <ele>260.912</ele>
        <time>1970-01-01T01:00:00Z</time>
      </trkpt>
      <trkpt lat="63.4021525" lon="10.49012433">
        <ele>260.912</ele>
        <time>1970-01-01T01:00:00Z</time>
      </trkpt>
      <trkpt lat="63.40212983" lon="10.49012733">
        <ele>261.064</ele>
        <time>1970-01-01T01:00:00Z</time>
      </trkpt>
      <trkpt lat="63.40210783" lon="10.4901265">
        <ele>261.064</ele>
        <time>1970-01-01T01:00:00Z</time>
      </trkpt>
      <trkpt lat="63.402087" lon="10.4901235">
        <ele>261.064</ele>
        <time>1970-01-01T01:00:00Z</time>
      </trkpt>
      <trkpt lat="63.40206667" lon="10.4901225">
        <ele>261.064</ele>
        <time>1970-01-01T01:00:00Z</time>
      </trkpt>
      <trkpt lat="63.4020475" lon="10.490122">
        <ele>261.217</ele>
        <time>1970-01-01T01:00:00Z</time>
      </trkpt>
      <trkpt lat="63.40202983" lon="10.49011867">
        <ele>261.217</ele>
        <time>1970-01-01T01:00:00Z</time>
      </trkpt>
      <trkpt lat="63.402013" lon="10.49011467">
        <ele>261.369</ele>
        <time>1970-01-01T01:00:00Z</time>
      </trkpt>
      <trkpt lat="63.40199483" lon="10.490112">
        <ele>261.369</ele>
        <time>1970-01-01T01:00:00Z</time>
      </trkpt>
      <trkpt lat="63.40197717" lon="10.49011033">
        <ele>261.522</ele>
        <time>1970-01-01T01:00:00Z</time>
      </trkpt>
      <trkpt lat="63.40195983" lon="10.4901135">
        <ele>261.522</ele>
        <time>1970-01-01T01:00:00Z</time>
      </trkpt>
      <trkpt lat="63.401944" lon="10.49011417">
        <ele>261.674</ele>
        <time>1970-01-01T01:00:00Z</time>
      </trkpt>
      <trkpt lat="63.40192683" lon="10.49011833">
        <ele>261.674</ele>
        <time>1970-01-01T01:00:00Z</time>
      </trkpt>
      <trkpt lat="63.4019105" lon="10.49012283">
        <ele>261.826</ele>
        <time>1970-01-01T01:00:00Z</time>
      </trkpt>
      <trkpt lat="63.40189483" lon="10.49013467">
        <ele>261.826</ele>
        <time>1970-01-01T01:00:00Z</time>
      </trkpt>
      <trkpt lat="63.40188183" lon="10.49015233">
        <ele>262.131</ele>
        <time>1970-01-01T01:00:00Z</time>
      </trkpt>
      <trkpt lat="63.401871" lon="10.49017017">
        <ele>262.131</ele>
        <time>1970-01-01T01:00:00Z</time>
      </trkpt>
      <trkpt lat="63.4018605" lon="10.49018133">
        <ele>262.284</ele>
        <time>1970-01-01T01:00:00Z</time>
      </trkpt>
      <trkpt lat="63.40185017" lon="10.49018633">
        <ele>262.284</ele>
        <time>1970-01-01T01:00:00Z</time>
      </trkpt>
      <trkpt lat="63.40183733" lon="10.49018633">
        <ele>262.588</ele>
        <time>1970-01-01T01:00:00Z</time>
      </trkpt>
      <trkpt lat="63.40182483" lon="10.490189">
        <ele>262.588</ele>
        <time>1970-01-01T01:00:00Z</time>
      </trkpt>
      <trkpt lat="63.40181067" lon="10.49019">
        <ele>262.893</ele>
        <time>1970-01-01T01:00:00Z</time>
      </trkpt>
      <trkpt lat="63.40179467" lon="10.49019483">
        <ele>262.893</ele>
        <time>1970-01-01T01:00:00Z</time>
      </trkpt>
      <trkpt lat="63.40177733" lon="10.49019683">
        <ele>263.198</ele>
        <time>1970-01-01T01:00:00Z</time>
      </trkpt>
      <trkpt lat="63.4017575" lon="10.49019667">
        <ele>263.198</ele>
        <time>1970-01-01T01:00:00Z</time>
      </trkpt>
      <trkpt lat="63.40173733" lon="10.49019317">
        <ele>263.503</ele>
        <time>1970-01-01T01:00:00Z</time>
      </trkpt>
      <trkpt lat="63.4017175" lon="10.49018683">
        <ele>263.503</ele>
        <time>1970-01-01T01:00:00Z</time>
      </trkpt>
      <trkpt lat="63.40169833" lon="10.49017633">
        <ele>263.808</ele>
        <time>1970-01-01T01:00:00Z</time>
      </trkpt>
      <trkpt lat="63.4016805" lon="10.49016017">
        <ele>263.808</ele>
        <time>1970-01-01T01:00:00Z</time>
      </trkpt>
      <trkpt lat="63.40166033" lon="10.490143">
        <ele>263.96</ele>
        <time>1970-01-01T01:00:00Z</time>
      </trkpt>
      <trkpt lat="63.40163967" lon="10.4901295">
        <ele>263.96</ele>
        <time>1970-01-01T01:00:00Z</time>
      </trkpt>
      <trkpt lat="63.401619" lon="10.49011783">
        <ele>264.265</ele>
        <time>1970-01-01T01:00:00Z</time>
      </trkpt>
      <trkpt lat="63.40159883" lon="10.49010917">
        <ele>264.265</ele>
        <time>1970-01-01T01:00:00Z</time>
      </trkpt>
      <trkpt lat="63.40157783" lon="10.49010267">
        <ele>264.57</ele>
        <time>1970-01-01T01:00:00Z</time>
      </trkpt>
      <trkpt lat="63.40155683" lon="10.49009783">
        <ele>264.57</ele>
        <time>1970-01-01T01:00:00Z</time>
      </trkpt>
      <trkpt lat="63.4015345" lon="10.49009383">
        <ele>264.874</ele>
        <time>1970-01-01T01:00:00Z</time>
      </trkpt>
      <trkpt lat="63.401513" lon="10.49009067">
        <ele>264.874</ele>
        <time>1970-01-01T01:00:00Z</time>
      </trkpt>
      <trkpt lat="63.4014905" lon="10.49008633">
        <ele>265.027</ele>
        <time>1970-01-01T01:00:00Z</time>
      </trkpt>
      <trkpt lat="63.4014685" lon="10.49008083">
        <ele>265.027</ele>
        <time>1970-01-01T01:00:00Z</time>
      </trkpt>
      <trkpt lat="63.40144633" lon="10.4900695">
        <ele>265.332</ele>
        <time>1970-01-01T01:00:00Z</time>
      </trkpt>
      <trkpt lat="63.40142633" lon="10.49006133">
        <ele>265.332</ele>
        <time>1970-01-01T01:00:00Z</time>
      </trkpt>
      <trkpt lat="63.40140567" lon="10.49005217">
        <ele>265.484</ele>
        <time>1970-01-01T01:00:00Z</time>
      </trkpt>
      <trkpt lat="63.401384" lon="10.49004717">
        <ele>265.484</ele>
        <time>1970-01-01T01:00:00Z</time>
      </trkpt>
      <trkpt lat="63.40136283" lon="10.4900365">
        <ele>265.636</ele>
        <time>1970-01-01T01:00:00Z</time>
      </trkpt>
      <trkpt lat="63.40134" lon="10.4900205">
        <ele>265.636</ele>
        <time>1970-01-01T01:00:00Z</time>
      </trkpt>
      <trkpt lat="63.40131883" lon="10.490001">
        <ele>265.941</ele>
        <time>1970-01-01T01:00:00Z</time>
      </trkpt>
      <trkpt lat="63.401297" lon="10.489985">
        <ele>265.941</ele>
        <time>1970-01-01T01:00:00Z</time>
      </trkpt>
      <trkpt lat="63.4012775" lon="10.48997583">
        <ele>266.094</ele>
        <time>1970-01-01T01:00:00Z</time>
      </trkpt>
      <trkpt lat="63.40125783" lon="10.4899665">
        <ele>266.094</ele>
        <time>1970-01-01T01:00:00Z</time>
      </trkpt>
      <trkpt lat="63.401237" lon="10.489957">
        <ele>266.246</ele>
        <time>1970-01-01T01:00:00Z</time>
      </trkpt>
      <trkpt lat="63.4012145" lon="10.48994833">
        <ele>266.246</ele>
        <time>1970-01-01T01:00:00Z</time>
      </trkpt>
      <trkpt lat="63.40119267" lon="10.48994083">
        <ele>266.398</ele>
        <time>1970-01-01T01:00:00Z</time>
      </trkpt>
      <trkpt lat="63.40117117" lon="10.48993683">
        <ele>266.398</ele>
        <time>1970-01-01T01:00:00Z</time>
      </trkpt>
      <trkpt lat="63.40115017" lon="10.48993617">
        <ele>266.551</ele>
        <time>1970-01-01T01:00:00Z</time>
      </trkpt>
      <trkpt lat="63.40112633" lon="10.48993433">
        <ele>266.551</ele>
        <time>1970-01-01T01:00:00Z</time>
      </trkpt>
      <trkpt lat="63.40110283" lon="10.48992917">
        <ele>266.703</ele>
        <time>1970-01-01T01:00:00Z</time>
      </trkpt>
      <trkpt lat="63.40108183" lon="10.48992167">
        <ele>266.703</ele>
        <time>1970-01-01T01:00:00Z</time>
      </trkpt>
      <trkpt lat="63.40106183" lon="10.489919">
        <ele>266.856</ele>
        <time>1970-01-01T01:00:00Z</time>
      </trkpt>
      <trkpt lat="63.40104267" lon="10.48991517">
        <ele>266.856</ele>
        <time>1970-01-01T01:00:00Z</time>
      </trkpt>
      <trkpt lat="63.40102383" lon="10.4899105">
        <ele>267.008</ele>
        <time>1970-01-01T01:00:00Z</time>
      </trkpt>
      <trkpt lat="63.40100683" lon="10.48990767">
        <ele>267.008</ele>
        <time>1970-01-01T01:00:00Z</time>
      </trkpt>
      <trkpt lat="63.40098983" lon="10.48991017">
        <ele>267.16</ele>
        <time>1970-01-01T01:00:00Z</time>
      </trkpt>
      <trkpt lat="63.4009715" lon="10.489906">
        <ele>267.16</ele>
        <time>1970-01-01T01:00:00Z</time>
      </trkpt>
      <trkpt lat="63.40095333" lon="10.48989717">
        <ele>267.313</ele>
        <time>1970-01-01T01:00:00Z</time>
      </trkpt>
      <trkpt lat="63.40093483" lon="10.489886">
        <ele>267.313</ele>
        <time>1970-01-01T01:00:00Z</time>
      </trkpt>
      <trkpt lat="63.40091533" lon="10.48987983">
        <ele>267.465</ele>
        <time>1970-01-01T01:00:00Z</time>
      </trkpt>
      <trkpt lat="63.4008955" lon="10.48987067">
        <ele>267.465</ele>
        <time>1970-01-01T01:00:00Z</time>
      </trkpt>
      <trkpt lat="63.40087483" lon="10.48986433">
        <ele>267.618</ele>
        <time>1970-01-01T01:00:00Z</time>
      </trkpt>
      <trkpt lat="63.40085517" lon="10.48986067">
        <ele>267.618</ele>
        <time>1970-01-01T01:00:00Z</time>
      </trkpt>
      <trkpt lat="63.40083433" lon="10.48986233">
        <ele>267.922</ele>
        <time>1970-01-01T01:00:00Z</time>
      </trkpt>
      <trkpt lat="63.40081233" lon="10.4898625">
        <ele>267.922</ele>
        <time>1970-01-01T01:00:00Z</time>
      </trkpt>
      <trkpt lat="63.400788" lon="10.489861">
        <ele>268.075</ele>
        <time>1970-01-01T01:00:00Z</time>
      </trkpt>
      <trkpt lat="63.400761" lon="10.48985833">
        <ele>268.075</ele>
        <time>1970-01-01T01:00:00Z</time>
      </trkpt>
      <trkpt lat="63.40073417" lon="10.48985117">
        <ele>268.38</ele>
        <time>1970-01-01T01:00:00Z</time>
      </trkpt>
      <trkpt lat="63.40070967" lon="10.489835">
        <ele>268.38</ele>
        <time>1970-01-01T01:00:00Z</time>
      </trkpt>
      <trkpt lat="63.4006865" lon="10.48981267">
        <ele>268.684</ele>
        <time>1970-01-01T01:00:00Z</time>
      </trkpt>
      <trkpt lat="63.400663" lon="10.48978467">
        <ele>268.684</ele>
        <time>1970-01-01T01:00:00Z</time>
      </trkpt>
      <trkpt lat="63.40064117" lon="10.48976017">
        <ele>268.989</ele>
        <time>1970-01-01T01:00:00Z</time>
      </trkpt>
      <trkpt lat="63.40062033" lon="10.48973283">
        <ele>268.989</ele>
        <time>1970-01-01T01:00:00Z</time>
      </trkpt>
      <trkpt lat="63.40060133" lon="10.48970667">
        <ele>269.446</ele>
        <time>1970-01-01T01:00:00Z</time>
      </trkpt>
      <trkpt lat="63.400582" lon="10.489679">
        <ele>269.446</ele>
        <time>1970-01-01T01:00:00Z</time>
      </trkpt>
      <trkpt lat="63.4005625" lon="10.489654">
        <ele>269.751</ele>
        <time>1970-01-01T01:00:00Z</time>
      </trkpt>
      <trkpt lat="63.4005435" lon="10.48963183">
        <ele>269.751</ele>
        <time>1970-01-01T01:00:00Z</time>
      </trkpt>
      <trkpt lat="63.40052233" lon="10.4896115">
        <ele>270.208</ele>
        <time>1970-01-01T01:00:00Z</time>
      </trkpt>
      <trkpt lat="63.4005005" lon="10.489588">
        <ele>270.208</ele>
        <time>1970-01-01T01:00:00Z</time>
      </trkpt>
      <trkpt lat="63.400479" lon="10.48956133">
        <ele>270.513</ele>
        <time>1970-01-01T01:00:00Z</time>
      </trkpt>
      <trkpt lat="63.4004595" lon="10.48953467">
        <ele>270.513</ele>
        <time>1970-01-01T01:00:00Z</time>
      </trkpt>
      <trkpt lat="63.40044117" lon="10.48950933">
        <ele>270.97</ele>
        <time>1970-01-01T01:00:00Z</time>
      </trkpt>
      <trkpt lat="63.40042367" lon="10.4894855">
        <ele>270.97</ele>
        <time>1970-01-01T01:00:00Z</time>
      </trkpt>
      <trkpt lat="63.40040333" lon="10.48946283">
        <ele>271.275</ele>
        <time>1970-01-01T01:00:00Z</time>
      </trkpt>
      <trkpt lat="63.40038283" lon="10.48944283">
        <ele>271.275</ele>
        <time>1970-01-01T01:00:00Z</time>
      </trkpt>
      <trkpt lat="63.400361" lon="10.48942133">
        <ele>271.732</ele>
        <time>1970-01-01T01:00:00Z</time>
      </trkpt>
      <trkpt lat="63.400343" lon="10.4893985">
        <ele>271.732</ele>
        <time>1970-01-01T01:00:00Z</time>
      </trkpt>
      <trkpt lat="63.40032433" lon="10.489375">
        <ele>272.037</ele>
        <time>1970-01-01T01:00:00Z</time>
      </trkpt>
      <trkpt lat="63.4003045" lon="10.4893585">
        <ele>272.037</ele>
        <time>1970-01-01T01:00:00Z</time>
      </trkpt>
      <trkpt lat="63.40028283" lon="10.4893435">
        <ele>272.342</ele>
        <time>1970-01-01T01:00:00Z</time>
      </trkpt>
      <trkpt lat="63.4002605" lon="10.48933083">
        <ele>272.342</ele>
        <time>1970-01-01T01:00:00Z</time>
      </trkpt>
      <trkpt lat="63.400239" lon="10.48931417">
        <ele>272.799</ele>
        <time>1970-01-01T01:00:00Z</time>
      </trkpt>
      <trkpt lat="63.40021733" lon="10.48929867">
        <ele>272.799</ele>
        <time>1970-01-01T01:00:00Z</time>
      </trkpt>
      <trkpt lat="63.40019467" lon="10.48928317">
        <ele>272.952</ele>
        <time>1970-01-01T01:00:00Z</time>
      </trkpt>
      <trkpt lat="63.40017217" lon="10.489271">
        <ele>272.952</ele>
        <time>1970-01-01T01:00:00Z</time>
      </trkpt>
      <trkpt lat="63.4001515" lon="10.48925683">
        <ele>273.257</ele>
        <time>1970-01-01T01:00:00Z</time>
      </trkpt>
      <trkpt lat="63.40013133" lon="10.48924167">
        <ele>273.257</ele>
        <time>1970-01-01T01:00:00Z</time>
      </trkpt>
      <trkpt lat="63.40011067" lon="10.4892225">
        <ele>273.561</ele>
        <time>1970-01-01T01:00:00Z</time>
      </trkpt>
      <trkpt lat="63.40008933" lon="10.4892015">
        <ele>273.561</ele>
        <time>1970-01-01T01:00:00Z</time>
      </trkpt>
      <trkpt lat="63.40006883" lon="10.48917633">
        <ele>273.714</ele>
        <time>1970-01-01T01:00:00Z</time>
      </trkpt>
      <trkpt lat="63.4000495" lon="10.48914817">
        <ele>273.714</ele>
        <time>1970-01-01T01:00:00Z</time>
      </trkpt>
      <trkpt lat="63.400027" lon="10.48912267">
        <ele>274.019</ele>
        <time>1970-01-01T01:00:00Z</time>
      </trkpt>
      <trkpt lat="63.40000233" lon="10.48910517">
        <ele>274.019</ele>
        <time>1970-01-01T01:00:00Z</time>
      </trkpt>
      <trkpt lat="63.399976" lon="10.48909033">
        <ele>274.171</ele>
        <time>1970-01-01T01:00:00Z</time>
      </trkpt>
      <trkpt lat="63.3999505" lon="10.48907433">
        <ele>274.171</ele>
        <time>1970-01-01T01:00:00Z</time>
      </trkpt>
      <trkpt lat="63.399924" lon="10.4890515">
        <ele>274.323</ele>
        <time>1970-01-01T01:00:00Z</time>
      </trkpt>
      <trkpt lat="63.3998985" lon="10.48902733">
        <ele>274.323</ele>
        <time>1970-01-01T01:00:00Z</time>
      </trkpt>
      <trkpt lat="63.39987217" lon="10.48900333">
        <ele>274.628</ele>
        <time>1970-01-01T01:00:00Z</time>
      </trkpt>
      <trkpt lat="63.39984733" lon="10.48898267">
        <ele>274.628</ele>
        <time>1970-01-01T01:00:00Z</time>
      </trkpt>
      <trkpt lat="63.399822" lon="10.48895967">
        <ele>274.781</ele>
        <time>1970-01-01T01:00:00Z</time>
      </trkpt>
      <trkpt lat="63.39979967" lon="10.4889335">
        <ele>274.781</ele>
        <time>1970-01-01T01:00:00Z</time>
      </trkpt>
      <trkpt lat="63.39977967" lon="10.488905">
        <ele>274.933</ele>
        <time>1970-01-01T01:00:00Z</time>
      </trkpt>
      <trkpt lat="63.39976033" lon="10.48887717">
        <ele>274.933</ele>
        <time>1970-01-01T01:00:00Z</time>
      </trkpt>
      <trkpt lat="63.39974083" lon="10.48884917">
        <ele>275.085</ele>
        <time>1970-01-01T01:00:00Z</time>
      </trkpt>
      <trkpt lat="63.39972133" lon="10.48882433">
        <ele>275.085</ele>
        <time>1970-01-01T01:00:00Z</time>
      </trkpt>
      <trkpt lat="63.399703" lon="10.48880183">
        <ele>275.085</ele>
        <time>1970-01-01T01:00:00Z</time>
      </trkpt>
      <trkpt lat="63.39968533" lon="10.48878033">
        <ele>275.085</ele>
        <time>1970-01-01T01:00:00Z</time>
      </trkpt>
      <trkpt lat="63.3996675" lon="10.4887555">
        <ele>275.238</ele>
        <time>1970-01-01T01:00:00Z</time>
      </trkpt>
      <trkpt lat="63.399648" lon="10.48873167">
        <ele>275.238</ele>
        <time>1970-01-01T01:00:00Z</time>
      </trkpt>
      <trkpt lat="63.39962767" lon="10.48871217">
        <ele>275.39</ele>
        <time>1970-01-01T01:00:00Z</time>
      </trkpt>
      <trkpt lat="63.39960733" lon="10.48869717">
        <ele>275.39</ele>
        <time>1970-01-01T01:00:00Z</time>
      </trkpt>
      <trkpt lat="63.3995865" lon="10.48868167">
        <ele>275.39</ele>
        <time>1970-01-01T01:00:00Z</time>
      </trkpt>
      <trkpt lat="63.39956683" lon="10.48866667">
        <ele>275.39</ele>
        <time>1970-01-01T01:00:00Z</time>
      </trkpt>
      <trkpt lat="63.399547" lon="10.48864617">
        <ele>275.543</ele>
        <time>1970-01-01T01:00:00Z</time>
      </trkpt>
      <trkpt lat="63.399528" lon="10.48862167">
        <ele>275.543</ele>
        <time>1970-01-01T01:00:00Z</time>
      </trkpt>
      <trkpt lat="63.3995075" lon="10.488595">
        <ele>275.543</ele>
        <time>1970-01-01T01:00:00Z</time>
      </trkpt>
      <trkpt lat="63.399487" lon="10.48856683">
        <ele>275.543</ele>
        <time>1970-01-01T01:00:00Z</time>
      </trkpt>
      <trkpt lat="63.39946867" lon="10.48853267">
        <ele>275.695</ele>
        <time>1970-01-01T01:00:00Z</time>
      </trkpt>
      <trkpt lat="63.3994545" lon="10.48849383">
        <ele>275.695</ele>
        <time>1970-01-01T01:00:00Z</time>
      </trkpt>
      <trkpt lat="63.39944083" lon="10.488461">
        <ele>275.847</ele>
        <time>1970-01-01T01:00:00Z</time>
      </trkpt>
      <trkpt lat="63.39942433" lon="10.48843917">
        <ele>275.847</ele>
        <time>1970-01-01T01:00:00Z</time>
      </trkpt>
      <trkpt lat="63.39940467" lon="10.48842233">
        <ele>276</ele>
        <time>1970-01-01T01:00:00Z</time>
      </trkpt>
      <trkpt lat="63.39938433" lon="10.4884025">
        <ele>276</ele>
        <time>1970-01-01T01:00:00Z</time>
      </trkpt>
      <trkpt lat="63.39936417" lon="10.48838233">
        <ele>276.152</ele>
        <time>1970-01-01T01:00:00Z</time>
      </trkpt>
      <trkpt lat="63.3993435" lon="10.48836133">
        <ele>276.152</ele>
        <time>1970-01-01T01:00:00Z</time>
      </trkpt>
      <trkpt lat="63.3993215" lon="10.48834133">
        <ele>276.152</ele>
        <time>1970-01-01T01:00:00Z</time>
      </trkpt>
      <trkpt lat="63.39929933" lon="10.488321">
        <ele>276.152</ele>
        <time>1970-01-01T01:00:00Z</time>
      </trkpt>
      <trkpt lat="63.39927417" lon="10.48830117">
        <ele>276.305</ele>
        <time>1970-01-01T01:00:00Z</time>
      </trkpt>
      <trkpt lat="63.39924983" lon="10.48828033">
        <ele>276.305</ele>
        <time>1970-01-01T01:00:00Z</time>
      </trkpt>
      <trkpt lat="63.399225" lon="10.48825817">
        <ele>276.457</ele>
        <time>1970-01-01T01:00:00Z</time>
      </trkpt>
      <trkpt lat="63.39920317" lon="10.48823717">
        <ele>276.457</ele>
        <time>1970-01-01T01:00:00Z</time>
      </trkpt>
      <trkpt lat="63.39918267" lon="10.48821567">
        <ele>276.609</ele>
        <time>1970-01-01T01:00:00Z</time>
      </trkpt>
      <trkpt lat="63.39916483" lon="10.48819383">
        <ele>276.609</ele>
        <time>1970-01-01T01:00:00Z</time>
      </trkpt>
      <trkpt lat="63.39914833" lon="10.48816783">
        <ele>276.609</ele>
        <time>1970-01-01T01:00:00Z</time>
      </trkpt>
      <trkpt lat="63.39913683" lon="10.488142">
        <ele>276.609</ele>
        <time>1970-01-01T01:00:00Z</time>
      </trkpt>
      <trkpt lat="63.39912733" lon="10.48811367">
        <ele>276.762</ele>
        <time>1970-01-01T01:00:00Z</time>
      </trkpt>
      <trkpt lat="63.39912067" lon="10.48808667">
        <ele>276.762</ele>
        <time>1970-01-01T01:00:00Z</time>
      </trkpt>
      <trkpt lat="63.39911367" lon="10.48806117">
        <ele>276.914</ele>
        <time>1970-01-01T01:00:00Z</time>
      </trkpt>
      <trkpt lat="63.399107" lon="10.48803617">
        <ele>276.914</ele>
        <time>1970-01-01T01:00:00Z</time>
      </trkpt>
      <trkpt lat="63.399101" lon="10.48801167">
        <ele>277.219</ele>
        <time>1970-01-01T01:00:00Z</time>
      </trkpt>
      <trkpt lat="63.39909267" lon="10.48798233">
        <ele>277.219</ele>
        <time>1970-01-01T01:00:00Z</time>
      </trkpt>
      <trkpt lat="63.39908333" lon="10.48795217">
        <ele>277.371</ele>
        <time>1970-01-01T01:00:00Z</time>
      </trkpt>
      <trkpt lat="63.39907233" lon="10.48792533">
        <ele>277.371</ele>
        <time>1970-01-01T01:00:00Z</time>
      </trkpt>
      <trkpt lat="63.39906083" lon="10.48789933">
        <ele>277.524</ele>
        <time>1970-01-01T01:00:00Z</time>
      </trkpt>
      <trkpt lat="63.39904833" lon="10.48787383">
        <ele>277.524</ele>
        <time>1970-01-01T01:00:00Z</time>
      </trkpt>
      <trkpt lat="63.39903517" lon="10.48784233">
        <ele>277.829</ele>
        <time>1970-01-01T01:00:00Z</time>
      </trkpt>
      <trkpt lat="63.39902033" lon="10.48781633">
        <ele>277.829</ele>
        <time>1970-01-01T01:00:00Z</time>
      </trkpt>
      <trkpt lat="63.39900417" lon="10.48779183">
        <ele>277.981</ele>
        <time>1970-01-01T01:00:00Z</time>
      </trkpt>
      <trkpt lat="63.398987" lon="10.48777017">
        <ele>277.981</ele>
        <time>1970-01-01T01:00:00Z</time>
      </trkpt>
      <trkpt lat="63.39896967" lon="10.487747">
        <ele>278.286</ele>
        <time>1970-01-01T01:00:00Z</time>
      </trkpt>
      <trkpt lat="63.39895317" lon="10.48772617">
        <ele>278.286</ele>
        <time>1970-01-01T01:00:00Z</time>
      </trkpt>
      <trkpt lat="63.39893717" lon="10.487707">
        <ele>278.591</ele>
        <time>1970-01-01T01:00:00Z</time>
      </trkpt>
      <trkpt lat="63.3989195" lon="10.4876895">
        <ele>278.591</ele>
        <time>1970-01-01T01:00:00Z</time>
      </trkpt>
      <trkpt lat="63.398901" lon="10.48767367">
        <ele>278.743</ele>
        <time>1970-01-01T01:00:00Z</time>
      </trkpt>
      <trkpt lat="63.39887917" lon="10.4876615">
        <ele>278.743</ele>
        <time>1970-01-01T01:00:00Z</time>
      </trkpt>
      <trkpt lat="63.39885733" lon="10.4876525">
        <ele>279.048</ele>
        <time>1970-01-01T01:00:00Z</time>
      </trkpt>
      <trkpt lat="63.39883417" lon="10.48764717">
        <ele>279.048</ele>
        <time>1970-01-01T01:00:00Z</time>
      </trkpt>
      <trkpt lat="63.39881167" lon="10.4876405">
        <ele>279.2</ele>
        <time>1970-01-01T01:00:00Z</time>
      </trkpt>
      <trkpt lat="63.3987905" lon="10.48763267">
        <ele>279.2</ele>
        <time>1970-01-01T01:00:00Z</time>
      </trkpt>
      <trkpt lat="63.39876983" lon="10.48762183">
        <ele>279.505</ele>
        <time>1970-01-01T01:00:00Z</time>
      </trkpt>
      <trkpt lat="63.39875067" lon="10.48760867">
        <ele>279.505</ele>
        <time>1970-01-01T01:00:00Z</time>
      </trkpt>
      <trkpt lat="63.39873" lon="10.4875945">
        <ele>279.81</ele>
        <time>1970-01-01T01:00:00Z</time>
      </trkpt>
      <trkpt lat="63.39870833" lon="10.487583">
        <ele>279.81</ele>
        <time>1970-01-01T01:00:00Z</time>
      </trkpt>
      <trkpt lat="63.39868583" lon="10.4875775">
        <ele>280.115</ele>
        <time>1970-01-01T01:00:00Z</time>
      </trkpt>
      <trkpt lat="63.3986635" lon="10.4875755">
        <ele>280.115</ele>
        <time>1970-01-01T01:00:00Z</time>
      </trkpt>
      <trkpt lat="63.39864033" lon="10.48757467">
        <ele>280.419</ele>
        <time>1970-01-01T01:00:00Z</time>
      </trkpt>
      <trkpt lat="63.39861833" lon="10.487569">
        <ele>280.419</ele>
        <time>1970-01-01T01:00:00Z</time>
      </trkpt>
      <trkpt lat="63.39859583" lon="10.4875635">
        <ele>280.572</ele>
        <time>1970-01-01T01:00:00Z</time>
      </trkpt>
      <trkpt lat="63.39857217" lon="10.48755933">
        <ele>280.572</ele>
        <time>1970-01-01T01:00:00Z</time>
      </trkpt>
      <trkpt lat="63.39854817" lon="10.48756167">
        <ele>280.877</ele>
        <time>1970-01-01T01:00:00Z</time>
      </trkpt>
      <trkpt lat="63.39852417" lon="10.48757083">
        <ele>280.877</ele>
        <time>1970-01-01T01:00:00Z</time>
      </trkpt>
      <trkpt lat="63.39850367" lon="10.4875865">
        <ele>281.029</ele>
        <time>1970-01-01T01:00:00Z</time>
      </trkpt>
      <trkpt lat="63.39848617" lon="10.48760917">
        <ele>281.029</ele>
        <time>1970-01-01T01:00:00Z</time>
      </trkpt>
      <trkpt lat="63.39847483" lon="10.48763717">
        <ele>281.181</ele>
        <time>1970-01-01T01:00:00Z</time>
      </trkpt>
      <trkpt lat="63.3984675" lon="10.4876745">
        <ele>281.181</ele>
        <time>1970-01-01T01:00:00Z</time>
      </trkpt>
      <trkpt lat="63.39846383" lon="10.48771183">
        <ele>281.334</ele>
        <time>1970-01-01T01:00:00Z</time>
      </trkpt>
      <trkpt lat="63.39846267" lon="10.48775133">
        <ele>281.334</ele>
        <time>1970-01-01T01:00:00Z</time>
      </trkpt>
      <trkpt lat="63.3984605" lon="10.48778833">
        <ele>281.486</ele>
        <time>1970-01-01T01:00:00Z</time>
      </trkpt>
      <trkpt lat="63.3984545" lon="10.48782267">
        <ele>281.486</ele>
        <time>1970-01-01T01:00:00Z</time>
      </trkpt>
      <trkpt lat="63.39844667" lon="10.48785083">
        <ele>281.486</ele>
        <time>1970-01-01T01:00:00Z</time>
      </trkpt>
      <trkpt lat="63.39843833" lon="10.48786983">
        <ele>281.486</ele>
        <time>1970-01-01T01:00:00Z</time>
      </trkpt>
      <trkpt lat="63.39842983" lon="10.4878865">
        <ele>281.486</ele>
        <time>1970-01-01T01:00:00Z</time>
      </trkpt>
      <trkpt lat="63.39841967" lon="10.487897">
        <ele>281.486</ele>
        <time>1970-01-01T01:00:00Z</time>
      </trkpt>
      <trkpt lat="63.39841017" lon="10.48790683">
        <ele>281.486</ele>
        <time>1970-01-01T01:00:00Z</time>
      </trkpt>
      <trkpt lat="63.398401" lon="10.487916">
        <ele>281.486</ele>
        <time>1970-01-01T01:00:00Z</time>
      </trkpt>
      <trkpt lat="63.3983925" lon="10.4879265">
        <ele>281.486</ele>
        <time>1970-01-01T01:00:00Z</time>
      </trkpt>
      <trkpt lat="63.39838267" lon="10.4879345">
        <ele>281.486</ele>
        <time>1970-01-01T01:00:00Z</time>
      </trkpt>
      <trkpt lat="63.39836933" lon="10.48793783">
        <ele>281.486</ele>
        <time>1970-01-01T01:00:00Z</time>
      </trkpt>
      <trkpt lat="63.398356" lon="10.48793967">
        <ele>281.486</ele>
        <time>1970-01-01T01:00:00Z</time>
      </trkpt>
      <trkpt lat="63.398341" lon="10.4879345">
        <ele>281.486</ele>
        <time>1970-01-01T01:00:00Z</time>
      </trkpt>
      <trkpt lat="63.398329" lon="10.48792167">
        <ele>281.486</ele>
        <time>1970-01-01T01:00:00Z</time>
      </trkpt>
      <trkpt lat="63.39831467" lon="10.4879015">
        <ele>281.639</ele>
        <time>1970-01-01T01:00:00Z</time>
      </trkpt>
      <trkpt lat="63.3982995" lon="10.48788367">
        <ele>281.639</ele>
        <time>1970-01-01T01:00:00Z</time>
      </trkpt>
      <trkpt lat="63.39828117" lon="10.48786783">
        <ele>281.639</ele>
        <time>1970-01-01T01:00:00Z</time>
      </trkpt>
      <trkpt lat="63.39826133" lon="10.48785167">
        <ele>281.639</ele>
        <time>1970-01-01T01:00:00Z</time>
      </trkpt>
      <trkpt lat="63.398246" lon="10.48783667">
        <ele>281.639</ele>
        <time>1970-01-01T01:00:00Z</time>
      </trkpt>
      <trkpt lat="63.39823117" lon="10.48782617">
        <ele>281.639</ele>
        <time>1970-01-01T01:00:00Z</time>
      </trkpt>
      <trkpt lat="63.39821867" lon="10.4878195">
        <ele>281.639</ele>
        <time>1970-01-01T01:00:00Z</time>
      </trkpt>
      <trkpt lat="63.39820167" lon="10.487811">
        <ele>281.639</ele>
        <time>1970-01-01T01:00:00Z</time>
      </trkpt>
      <trkpt lat="63.39818617" lon="10.48779967">
        <ele>281.639</ele>
        <time>1970-01-01T01:00:00Z</time>
      </trkpt>
      <trkpt lat="63.398172" lon="10.48778517">
        <ele>281.639</ele>
        <time>1970-01-01T01:00:00Z</time>
      </trkpt>
      <trkpt lat="63.39815983" lon="10.48777217">
        <ele>281.791</ele>
        <time>1970-01-01T01:00:00Z</time>
      </trkpt>
      <trkpt lat="63.39814833" lon="10.4877645">
        <ele>281.791</ele>
        <time>1970-01-01T01:00:00Z</time>
      </trkpt>
      <trkpt lat="63.39813583" lon="10.48776">
        <ele>281.943</ele>
        <time>1970-01-01T01:00:00Z</time>
      </trkpt>
      <trkpt lat="63.39812433" lon="10.4877585">
        <ele>281.943</ele>
        <time>1970-01-01T01:00:00Z</time>
      </trkpt>
      <trkpt lat="63.398113" lon="10.48775683">
        <ele>281.943</ele>
        <time>1970-01-01T01:00:00Z</time>
      </trkpt>
      <trkpt lat="63.3981015" lon="10.4877555">
        <ele>281.943</ele>
        <time>1970-01-01T01:00:00Z</time>
      </trkpt>
      <trkpt lat="63.398089" lon="10.4877495">
        <ele>282.096</ele>
        <time>1970-01-01T01:00:00Z</time>
      </trkpt>
      <trkpt lat="63.39807517" lon="10.4877395">
        <ele>282.096</ele>
        <time>1970-01-01T01:00:00Z</time>
      </trkpt>
      <trkpt lat="63.39806067" lon="10.48772533">
        <ele>282.248</ele>
        <time>1970-01-01T01:00:00Z</time>
      </trkpt>
      <trkpt lat="63.398045" lon="10.48771133">
        <ele>282.248</ele>
        <time>1970-01-01T01:00:00Z</time>
      </trkpt>
      <trkpt lat="63.39803" lon="10.48770183">
        <ele>282.401</ele>
        <time>1970-01-01T01:00:00Z</time>
      </trkpt>
      <trkpt lat="63.39801533" lon="10.487699">
        <ele>282.401</ele>
        <time>1970-01-01T01:00:00Z</time>
      </trkpt>
      <trkpt lat="63.39800283" lon="10.4876975">
        <ele>282.705</ele>
        <time>1970-01-01T01:00:00Z</time>
      </trkpt>
      <trkpt lat="63.3979885" lon="10.48769583">
        <ele>282.705</ele>
        <time>1970-01-01T01:00:00Z</time>
      </trkpt>
      <trkpt lat="63.39797733" lon="10.48769067">
        <ele>282.858</ele>
        <time>1970-01-01T01:00:00Z</time>
      </trkpt>
      <trkpt lat="63.39796583" lon="10.48768567">
        <ele>282.858</ele>
        <time>1970-01-01T01:00:00Z</time>
      </trkpt>
      <trkpt lat="63.39795683" lon="10.48767983">
        <ele>283.01</ele>
        <time>1970-01-01T01:00:00Z</time>
      </trkpt>
      <trkpt lat="63.39794467" lon="10.48767233">
        <ele>283.01</ele>
        <time>1970-01-01T01:00:00Z</time>
      </trkpt>
      <trkpt lat="63.397933" lon="10.48766417">
        <ele>283.315</ele>
        <time>1970-01-01T01:00:00Z</time>
      </trkpt>
      <trkpt lat="63.39792083" lon="10.48765467">
        <ele>283.315</ele>
        <time>1970-01-01T01:00:00Z</time>
      </trkpt>
      <trkpt lat="63.39790767" lon="10.48764683">
        <ele>283.467</ele>
        <time>1970-01-01T01:00:00Z</time>
      </trkpt>
      <trkpt lat="63.397893" lon="10.48764183">
        <ele>283.467</ele>
        <time>1970-01-01T01:00:00Z</time>
      </trkpt>
      <trkpt lat="63.39787817" lon="10.48763617">
        <ele>283.772</ele>
        <time>1970-01-01T01:00:00Z</time>
      </trkpt>
      <trkpt lat="63.39786567" lon="10.48763117">
        <ele>283.772</ele>
        <time>1970-01-01T01:00:00Z</time>
      </trkpt>
      <trkpt lat="63.39785317" lon="10.48762367">
        <ele>284.077</ele>
        <time>1970-01-01T01:00:00Z</time>
      </trkpt>
      <trkpt lat="63.39784133" lon="10.48761617">
        <ele>284.077</ele>
        <time>1970-01-01T01:00:00Z</time>
      </trkpt>
      <trkpt lat="63.39782783" lon="10.48761183">
        <ele>284.382</ele>
        <time>1970-01-01T01:00:00Z</time>
      </trkpt>
      <trkpt lat="63.39781417" lon="10.48761233">
        <ele>284.382</ele>
        <time>1970-01-01T01:00:00Z</time>
      </trkpt>
      <trkpt lat="63.39779967" lon="10.48761383">
        <ele>284.687</ele>
        <time>1970-01-01T01:00:00Z</time>
      </trkpt>
      <trkpt lat="63.397787" lon="10.487612">
        <ele>284.687</ele>
        <time>1970-01-01T01:00:00Z</time>
      </trkpt>
      <trkpt lat="63.39777483" lon="10.487605">
        <ele>284.839</ele>
        <time>1970-01-01T01:00:00Z</time>
      </trkpt>
      <trkpt lat="63.39776333" lon="10.48760067">
        <ele>284.839</ele>
        <time>1970-01-01T01:00:00Z</time>
      </trkpt>
      <trkpt lat="63.39775217" lon="10.4875985">
        <ele>285.144</ele>
        <time>1970-01-01T01:00:00Z</time>
      </trkpt>
      <trkpt lat="63.397743" lon="10.48759767">
        <ele>285.144</ele>
        <time>1970-01-01T01:00:00Z</time>
      </trkpt>
      <trkpt lat="63.39773517" lon="10.48759783">
        <ele>285.449</ele>
        <time>1970-01-01T01:00:00Z</time>
      </trkpt>
      <trkpt lat="63.39772733" lon="10.4875955">
        <ele>285.449</ele>
        <time>1970-01-01T01:00:00Z</time>
      </trkpt>
      <trkpt lat="63.3977175" lon="10.48759733">
        <ele>285.753</ele>
        <time>1970-01-01T01:00:00Z</time>
      </trkpt>
      <trkpt lat="63.39770617" lon="10.48759717">
        <ele>285.753</ele>
        <time>1970-01-01T01:00:00Z</time>
      </trkpt>
      <trkpt lat="63.39769467" lon="10.487596">
        <ele>286.058</ele>
        <time>1970-01-01T01:00:00Z</time>
      </trkpt>
      <trkpt lat="63.39768467" lon="10.48759217">
        <ele>286.058</ele>
        <time>1970-01-01T01:00:00Z</time>
      </trkpt>
      <trkpt lat="63.39767617" lon="10.48758883">
        <ele>286.363</ele>
        <time>1970-01-01T01:00:00Z</time>
      </trkpt>
      <trkpt lat="63.39766917" lon="10.48759083">
        <ele>286.363</ele>
        <time>1970-01-01T01:00:00Z</time>
      </trkpt>
      <trkpt lat="63.39766217" lon="10.48759517">
        <ele>286.668</ele>
        <time>1970-01-01T01:00:00Z</time>
      </trkpt>
      <trkpt lat="63.39765433" lon="10.48760033">
        <ele>286.668</ele>
        <time>1970-01-01T01:00:00Z</time>
      </trkpt>
      <trkpt lat="63.39764517" lon="10.48760117">
        <ele>286.973</ele>
        <time>1970-01-01T01:00:00Z</time>
      </trkpt>
      <trkpt lat="63.3976335" lon="10.48759983">
        <ele>286.973</ele>
        <time>1970-01-01T01:00:00Z</time>
      </trkpt>
      <trkpt lat="63.39762233" lon="10.48759783">
        <ele>287.277</ele>
        <time>1970-01-01T01:00:00Z</time>
      </trkpt>
      <trkpt lat="63.39761133" lon="10.487596">
        <ele>287.277</ele>
        <time>1970-01-01T01:00:00Z</time>
      </trkpt>
      <trkpt lat="63.39760433" lon="10.48759767">
        <ele>287.735</ele>
        <time>1970-01-01T01:00:00Z</time>
      </trkpt>
      <trkpt lat="63.3975905" lon="10.4875965">
        <ele>287.735</ele>
        <time>1970-01-01T01:00:00Z</time>
      </trkpt>
      <trkpt lat="63.39757633" lon="10.48759833">
        <ele>288.039</ele>
        <time>1970-01-01T01:00:00Z</time>
      </trkpt>
      <trkpt lat="63.39755817" lon="10.487604">
        <ele>288.039</ele>
        <time>1970-01-01T01:00:00Z</time>
      </trkpt>
      <trkpt lat="63.39755" lon="10.48761883">
        <ele>288.497</ele>
        <time>1970-01-01T01:00:00Z</time>
      </trkpt>
      <trkpt lat="63.39754117" lon="10.48763483">
        <ele>288.497</ele>
        <time>1970-01-01T01:00:00Z</time>
      </trkpt>
      <trkpt lat="63.39753433" lon="10.48764467">
        <ele>288.802</ele>
        <time>1970-01-01T01:00:00Z</time>
      </trkpt>
      <trkpt lat="63.39752383" lon="10.48765083">
        <ele>288.802</ele>
        <time>1970-01-01T01:00:00Z</time>
      </trkpt>
      <trkpt lat="63.3975145" lon="10.48765667">
        <ele>289.259</ele>
        <time>1970-01-01T01:00:00Z</time>
      </trkpt>
      <trkpt lat="63.397506" lon="10.48766433">
        <ele>289.259</ele>
        <time>1970-01-01T01:00:00Z</time>
      </trkpt>
      <trkpt lat="63.39749717" lon="10.4876695">
        <ele>289.564</ele>
        <time>1970-01-01T01:00:00Z</time>
      </trkpt>
      <trkpt lat="63.39748683" lon="10.487678">
        <ele>289.564</ele>
        <time>1970-01-01T01:00:00Z</time>
      </trkpt>
      <trkpt lat="63.3974755" lon="10.48768783">
        <ele>290.021</ele>
        <time>1970-01-01T01:00:00Z</time>
      </trkpt>
      <trkpt lat="63.397462" lon="10.48770333">
        <ele>290.021</ele>
        <time>1970-01-01T01:00:00Z</time>
      </trkpt>
      <trkpt lat="63.39744917" lon="10.4877175">
        <ele>290.326</ele>
        <time>1970-01-01T01:00:00Z</time>
      </trkpt>
      <trkpt lat="63.3974375" lon="10.48773217">
        <ele>290.326</ele>
        <time>1970-01-01T01:00:00Z</time>
      </trkpt>
      <trkpt lat="63.39742867" lon="10.48774783">
        <ele>290.783</ele>
        <time>1970-01-01T01:00:00Z</time>
      </trkpt>
      <trkpt lat="63.3974215" lon="10.48776633">
        <ele>290.783</ele>
        <time>1970-01-01T01:00:00Z</time>
      </trkpt>
      <trkpt lat="63.39741283" lon="10.487785">
        <ele>291.088</ele>
        <time>1970-01-01T01:00:00Z</time>
      </trkpt>
      <trkpt lat="63.39740333" lon="10.48780233">
        <ele>291.088</ele>
        <time>1970-01-01T01:00:00Z</time>
      </trkpt>
      <trkpt lat="63.39739167" lon="10.487818">
        <ele>291.392</ele>
        <time>1970-01-01T01:00:00Z</time>
      </trkpt>
      <trkpt lat="63.39738017" lon="10.48783167">
        <ele>291.392</ele>
        <time>1970-01-01T01:00:00Z</time>
      </trkpt>
      <trkpt lat="63.39736917" lon="10.48784067">
        <ele>291.697</ele>
        <time>1970-01-01T01:00:00Z</time>
      </trkpt>
      <trkpt lat="63.397359" lon="10.4878485">
        <ele>291.697</ele>
        <time>1970-01-01T01:00:00Z</time>
      </trkpt>
      <trkpt lat="63.39734917" lon="10.48785633">
        <ele>292.002</ele>
        <time>1970-01-01T01:00:00Z</time>
      </trkpt>
      <trkpt lat="63.397337" lon="10.487864">
        <ele>292.002</ele>
        <time>1970-01-01T01:00:00Z</time>
      </trkpt>
      <trkpt lat="63.39732417" lon="10.48786883">
        <ele>292.307</ele>
        <time>1970-01-01T01:00:00Z</time>
      </trkpt>
      <trkpt lat="63.39731" lon="10.4878715">
        <ele>292.307</ele>
        <time>1970-01-01T01:00:00Z</time>
      </trkpt>
      <trkpt lat="63.397297" lon="10.4878765">
        <ele>292.612</ele>
        <time>1970-01-01T01:00:00Z</time>
      </trkpt>
      <trkpt lat="63.397284" lon="10.4878815">
        <ele>292.612</ele>
        <time>1970-01-01T01:00:00Z</time>
      </trkpt>
      <trkpt lat="63.397271" lon="10.48789">
        <ele>292.764</ele>
        <time>1970-01-01T01:00:00Z</time>
      </trkpt>
      <trkpt lat="63.39725833" lon="10.48789683">
        <ele>292.764</ele>
        <time>1970-01-01T01:00:00Z</time>
      </trkpt>
      <trkpt lat="63.39724517" lon="10.48791117">
        <ele>292.916</ele>
        <time>1970-01-01T01:00:00Z</time>
      </trkpt>
      <trkpt lat="63.3972325" lon="10.48792717">
        <ele>292.916</ele>
        <time>1970-01-01T01:00:00Z</time>
      </trkpt>
      <trkpt lat="63.39721883" lon="10.48794833">
        <ele>293.221</ele>
        <time>1970-01-01T01:00:00Z</time>
      </trkpt>
      <trkpt lat="63.397204" lon="10.487968">
        <ele>293.221</ele>
        <time>1970-01-01T01:00:00Z</time>
      </trkpt>
      <trkpt lat="63.39718867" lon="10.48798833">
        <ele>293.374</ele>
        <time>1970-01-01T01:00:00Z</time>
      </trkpt>
      <trkpt lat="63.397174" lon="10.48800583">
        <ele>293.374</ele>
        <time>1970-01-01T01:00:00Z</time>
      </trkpt>
      <trkpt lat="63.3971605" lon="10.488022">
        <ele>293.526</ele>
        <time>1970-01-01T01:00:00Z</time>
      </trkpt>
      <trkpt lat="63.397148" lon="10.48803483">
        <ele>293.526</ele>
        <time>1970-01-01T01:00:00Z</time>
      </trkpt>
      <trkpt lat="63.397135" lon="10.4880495">
        <ele>293.831</ele>
        <time>1970-01-01T01:00:00Z</time>
      </trkpt>
      <trkpt lat="63.39712133" lon="10.48806633">
        <ele>293.831</ele>
        <time>1970-01-01T01:00:00Z</time>
      </trkpt>
      <trkpt lat="63.39710667" lon="10.488084">
        <ele>293.983</ele>
        <time>1970-01-01T01:00:00Z</time>
      </trkpt>
      <trkpt lat="63.39709233" lon="10.48809817">
        <ele>293.983</ele>
        <time>1970-01-01T01:00:00Z</time>
      </trkpt>
      <trkpt lat="63.39707733" lon="10.48811333">
        <ele>294.288</ele>
        <time>1970-01-01T01:00:00Z</time>
      </trkpt>
      <trkpt lat="63.39706117" lon="10.4881325">
        <ele>294.288</ele>
        <time>1970-01-01T01:00:00Z</time>
      </trkpt>
      <trkpt lat="63.39704383" lon="10.488158">
        <ele>294.44</ele>
        <time>1970-01-01T01:00:00Z</time>
      </trkpt>
      <trkpt lat="63.39702383" lon="10.48818383">
        <ele>294.44</ele>
        <time>1970-01-01T01:00:00Z</time>
      </trkpt>
      <trkpt lat="63.3970055" lon="10.48821183">
        <ele>294.593</ele>
        <time>1970-01-01T01:00:00Z</time>
      </trkpt>
      <trkpt lat="63.39698883" lon="10.48824017">
        <ele>294.593</ele>
        <time>1970-01-01T01:00:00Z</time>
      </trkpt>
      <trkpt lat="63.396975" lon="10.488263">
        <ele>294.898</ele>
        <time>1970-01-01T01:00:00Z</time>
      </trkpt>
      <trkpt lat="63.39696033" lon="10.48828417">
        <ele>294.898</ele>
        <time>1970-01-01T01:00:00Z</time>
      </trkpt>
      <trkpt lat="63.39694433" lon="10.488313">
        <ele>295.05</ele>
        <time>1970-01-01T01:00:00Z</time>
      </trkpt>
      <trkpt lat="63.396929" lon="10.4883555">
        <ele>295.05</ele>
        <time>1970-01-01T01:00:00Z</time>
      </trkpt>
      <trkpt lat="63.3969115" lon="10.48839917">
        <ele>295.202</ele>
        <time>1970-01-01T01:00:00Z</time>
      </trkpt>
      <trkpt lat="63.3968915" lon="10.48843133">
        <ele>295.202</ele>
        <time>1970-01-01T01:00:00Z</time>
      </trkpt>
      <trkpt lat="63.3968685" lon="10.48845267">
        <ele>295.355</ele>
        <time>1970-01-01T01:00:00Z</time>
      </trkpt>
      <trkpt lat="63.3968445" lon="10.48847">
        <ele>295.355</ele>
        <time>1970-01-01T01:00:00Z</time>
      </trkpt>
      <trkpt lat="63.39681867" lon="10.48849017">
        <ele>295.507</ele>
        <time>1970-01-01T01:00:00Z</time>
      </trkpt>
      <trkpt lat="63.3967935" lon="10.48850683">
        <ele>295.507</ele>
        <time>1970-01-01T01:00:00Z</time>
      </trkpt>
      <trkpt lat="63.3967695" lon="10.488519">
        <ele>295.66</ele>
        <time>1970-01-01T01:00:00Z</time>
      </trkpt>
      <trkpt lat="63.39674833" lon="10.488524">
        <ele>295.66</ele>
        <time>1970-01-01T01:00:00Z</time>
      </trkpt>
      <trkpt lat="63.39672867" lon="10.48852233">
        <ele>295.964</ele>
        <time>1970-01-01T01:00:00Z</time>
      </trkpt>
      <trkpt lat="63.39670917" lon="10.488522">
        <ele>295.964</ele>
        <time>1970-01-01T01:00:00Z</time>
      </trkpt>
      <trkpt lat="63.39668817" lon="10.48852167">
        <ele>296.117</ele>
        <time>1970-01-01T01:00:00Z</time>
      </trkpt>
      <trkpt lat="63.39666417" lon="10.48852967">
        <ele>296.117</ele>
        <time>1970-01-01T01:00:00Z</time>
      </trkpt>
      <trkpt lat="63.39664067" lon="10.48853883">
        <ele>296.422</ele>
        <time>1970-01-01T01:00:00Z</time>
      </trkpt>
      <trkpt lat="63.39661833" lon="10.48855167">
        <ele>296.422</ele>
        <time>1970-01-01T01:00:00Z</time>
      </trkpt>
      <trkpt lat="63.39659867" lon="10.4885645">
        <ele>296.726</ele>
        <time>1970-01-01T01:00:00Z</time>
      </trkpt>
      <trkpt lat="63.39657767" lon="10.4885805">
        <ele>296.726</ele>
        <time>1970-01-01T01:00:00Z</time>
      </trkpt>
      <trkpt lat="63.39655533" lon="10.48859633">
        <ele>297.031</ele>
        <time>1970-01-01T01:00:00Z</time>
      </trkpt>
      <trkpt lat="63.39653167" lon="10.488615">
        <ele>297.031</ele>
        <time>1970-01-01T01:00:00Z</time>
      </trkpt>
      <trkpt lat="63.396508" lon="10.48863133">
        <ele>297.336</ele>
        <time>1970-01-01T01:00:00Z</time>
      </trkpt>
      <trkpt lat="63.3964875" lon="10.488653">
        <ele>297.336</ele>
        <time>1970-01-01T01:00:00Z</time>
      </trkpt>
      <trkpt lat="63.3964685" lon="10.48867733">
        <ele>297.641</ele>
        <time>1970-01-01T01:00:00Z</time>
      </trkpt>
      <trkpt lat="63.396451" lon="10.48870583">
        <ele>297.641</ele>
        <time>1970-01-01T01:00:00Z</time>
      </trkpt>
      <trkpt lat="63.39643217" lon="10.48873633">
        <ele>297.793</ele>
        <time>1970-01-01T01:00:00Z</time>
      </trkpt>
      <trkpt lat="63.39641333" lon="10.4887675">
        <ele>297.793</ele>
        <time>1970-01-01T01:00:00Z</time>
      </trkpt>
      <trkpt lat="63.39639383" lon="10.48880617">
        <ele>297.946</ele>
        <time>1970-01-01T01:00:00Z</time>
      </trkpt>
      <trkpt lat="63.39637517" lon="10.48884317">
        <ele>297.946</ele>
        <time>1970-01-01T01:00:00Z</time>
      </trkpt>
      <trkpt lat="63.3963595" lon="10.48888">
        <ele>298.098</ele>
        <time>1970-01-01T01:00:00Z</time>
      </trkpt>
      <trkpt lat="63.396346" lon="10.48891283">
        <ele>298.098</ele>
        <time>1970-01-01T01:00:00Z</time>
      </trkpt>
      <trkpt lat="63.39633517" lon="10.48895067">
        <ele>298.25</ele>
        <time>1970-01-01T01:00:00Z</time>
      </trkpt>
      <trkpt lat="63.39632233" lon="10.48899083">
        <ele>298.25</ele>
        <time>1970-01-01T01:00:00Z</time>
      </trkpt>
      <trkpt lat="63.39630917" lon="10.48903967">
        <ele>298.403</ele>
        <time>1970-01-01T01:00:00Z</time>
      </trkpt>
      <trkpt lat="63.39629567" lon="10.4890975">
        <ele>298.403</ele>
        <time>1970-01-01T01:00:00Z</time>
      </trkpt>
      <trkpt lat="63.39628533" lon="10.489155">
        <ele>298.555</ele>
        <time>1970-01-01T01:00:00Z</time>
      </trkpt>
      <trkpt lat="63.396277" lon="10.48920617">
        <ele>298.555</ele>
        <time>1970-01-01T01:00:00Z</time>
      </trkpt>
      <trkpt lat="63.39626933" lon="10.4892495">
        <ele>298.708</ele>
        <time>1970-01-01T01:00:00Z</time>
      </trkpt>
      <trkpt lat="63.3962595" lon="10.48929483">
        <ele>298.708</ele>
        <time>1970-01-01T01:00:00Z</time>
      </trkpt>
      <trkpt lat="63.39624733" lon="10.48934317">
        <ele>298.86</ele>
        <time>1970-01-01T01:00:00Z</time>
      </trkpt>
      <trkpt lat="63.39623433" lon="10.4893915">
        <ele>298.86</ele>
        <time>1970-01-01T01:00:00Z</time>
      </trkpt>
      <trkpt lat="63.39622283" lon="10.48944017">
        <ele>298.86</ele>
        <time>1970-01-01T01:00:00Z</time>
      </trkpt>
      <trkpt lat="63.3962135" lon="10.48948983">
        <ele>298.86</ele>
        <time>1970-01-01T01:00:00Z</time>
      </trkpt>
      <trkpt lat="63.39620117" lon="10.48953767">
        <ele>299.012</ele>
        <time>1970-01-01T01:00:00Z</time>
      </trkpt>
      <trkpt lat="63.3961855" lon="10.48958267">
        <ele>299.012</ele>
        <time>1970-01-01T01:00:00Z</time>
      </trkpt>
      <trkpt lat="63.39616733" lon="10.48962633">
        <ele>299.012</ele>
        <time>1970-01-01T01:00:00Z</time>
      </trkpt>
      <trkpt lat="63.39614667" lon="10.4896685">
        <ele>299.012</ele>
        <time>1970-01-01T01:00:00Z</time>
      </trkpt>
      <trkpt lat="63.39612667" lon="10.48971017">
        <ele>299.165</ele>
        <time>1970-01-01T01:00:00Z</time>
      </trkpt>
      <trkpt lat="63.39610833" lon="10.48974733">
        <ele>299.165</ele>
        <time>1970-01-01T01:00:00Z</time>
      </trkpt>
      <trkpt lat="63.39609583" lon="10.48978183">
        <ele>299.165</ele>
        <time>1970-01-01T01:00:00Z</time>
      </trkpt>
      <trkpt lat="63.39608333" lon="10.48982517">
        <ele>299.165</ele>
        <time>1970-01-01T01:00:00Z</time>
      </trkpt>
      <trkpt lat="63.396069" lon="10.48987333">
        <ele>299.165</ele>
        <time>1970-01-01T01:00:00Z</time>
      </trkpt>
      <trkpt lat="63.39605333" lon="10.489926">
        <ele>299.165</ele>
        <time>1970-01-01T01:00:00Z</time>
      </trkpt>
      <trkpt lat="63.39603933" lon="10.48997533">
        <ele>299.165</ele>
        <time>1970-01-01T01:00:00Z</time>
      </trkpt>
      <trkpt lat="63.396027" lon="10.49002133">
        <ele>299.165</ele>
        <time>1970-01-01T01:00:00Z</time>
      </trkpt>
      <trkpt lat="63.39601683" lon="10.4900675">
        <ele>299.165</ele>
        <time>1970-01-01T01:00:00Z</time>
      </trkpt>
      <trkpt lat="63.39600617" lon="10.49010933">
        <ele>299.165</ele>
        <time>1970-01-01T01:00:00Z</time>
      </trkpt>
      <trkpt lat="63.3959955" lon="10.49014633">
        <ele>299.317</ele>
        <time>1970-01-01T01:00:00Z</time>
      </trkpt>
      <trkpt lat="63.3959845" lon="10.4901775">
        <ele>299.317</ele>
        <time>1970-01-01T01:00:00Z</time>
      </trkpt>
      <trkpt lat="63.39597517" lon="10.490209">
        <ele>299.317</ele>
        <time>1970-01-01T01:00:00Z</time>
      </trkpt>
      <trkpt lat="63.39596667" lon="10.49024633">
        <ele>299.317</ele>
        <time>1970-01-01T01:00:00Z</time>
      </trkpt>
      <trkpt lat="63.39596" lon="10.490292">
        <ele>299.317</ele>
        <time>1970-01-01T01:00:00Z</time>
      </trkpt>
      <trkpt lat="63.395955" lon="10.49034117">
        <ele>299.317</ele>
        <time>1970-01-01T01:00:00Z</time>
      </trkpt>
      <trkpt lat="63.39595117" lon="10.49039117">
        <ele>299.47</ele>
        <time>1970-01-01T01:00:00Z</time>
      </trkpt>
      <trkpt lat="63.39594867" lon="10.4904475">
        <ele>299.47</ele>
        <time>1970-01-01T01:00:00Z</time>
      </trkpt>
      <trkpt lat="63.395947" lon="10.49051067">
        <ele>299.47</ele>
        <time>1970-01-01T01:00:00Z</time>
      </trkpt>
      <trkpt lat="63.39594433" lon="10.49057833">
        <ele>299.47</ele>
        <time>1970-01-01T01:00:00Z</time>
      </trkpt>
      <trkpt lat="63.39593983" lon="10.490643">
        <ele>299.47</ele>
        <time>1970-01-01T01:00:00Z</time>
      </trkpt>
      <trkpt lat="63.39593583" lon="10.49070617">
        <ele>299.47</ele>
        <time>1970-01-01T01:00:00Z</time>
      </trkpt>
      <trkpt lat="63.395932" lon="10.490769">
        <ele>299.317</ele>
        <time>1970-01-01T01:00:00Z</time>
      </trkpt>
      <trkpt lat="63.39592683" lon="10.4908345">
        <ele>299.317</ele>
        <time>1970-01-01T01:00:00Z</time>
      </trkpt>
      <trkpt lat="63.39591867" lon="10.490894">
        <ele>299.165</ele>
        <time>1970-01-01T01:00:00Z</time>
      </trkpt>
      <trkpt lat="63.3959105" lon="10.490952">
        <ele>299.165</ele>
        <time>1970-01-01T01:00:00Z</time>
      </trkpt>
      <trkpt lat="63.39590167" lon="10.49100567">
        <ele>299.012</ele>
        <time>1970-01-01T01:00:00Z</time>
      </trkpt>
      <trkpt lat="63.39588933" lon="10.49106017">
        <ele>299.012</ele>
        <time>1970-01-01T01:00:00Z</time>
      </trkpt>
      <trkpt lat="63.39587167" lon="10.49111183">
        <ele>298.708</ele>
        <time>1970-01-01T01:00:00Z</time>
      </trkpt>
      <trkpt lat="63.39585367" lon="10.49116467">
        <ele>298.708</ele>
        <time>1970-01-01T01:00:00Z</time>
      </trkpt>
      <trkpt lat="63.39583933" lon="10.49122017">
        <ele>298.555</ele>
        <time>1970-01-01T01:00:00Z</time>
      </trkpt>
      <trkpt lat="63.39582983" lon="10.49127583">
        <ele>298.555</ele>
        <time>1970-01-01T01:00:00Z</time>
      </trkpt>
      <trkpt lat="63.395818" lon="10.49132833">
        <ele>298.25</ele>
        <time>1970-01-01T01:00:00Z</time>
      </trkpt>
      <trkpt lat="63.39579983" lon="10.49137333">
        <ele>298.25</ele>
        <time>1970-01-01T01:00:00Z</time>
      </trkpt>
      <trkpt lat="63.39577383" lon="10.49140967">
        <ele>297.946</ele>
        <time>1970-01-01T01:00:00Z</time>
      </trkpt>
      <trkpt lat="63.39574567" lon="10.49144333">
        <ele>297.946</ele>
        <time>1970-01-01T01:00:00Z</time>
      </trkpt>
      <trkpt lat="63.39571483" lon="10.49147583">
        <ele>297.793</ele>
        <time>1970-01-01T01:00:00Z</time>
      </trkpt>
      <trkpt lat="63.39568883" lon="10.49151367">
        <ele>297.793</ele>
        <time>1970-01-01T01:00:00Z</time>
      </trkpt>
      <trkpt lat="63.39566233" lon="10.491554">
        <ele>297.641</ele>
        <time>1970-01-01T01:00:00Z</time>
      </trkpt>
      <trkpt lat="63.3956405" lon="10.491597">
        <ele>297.641</ele>
        <time>1970-01-01T01:00:00Z</time>
      </trkpt>
      <trkpt lat="63.39561733" lon="10.49163967">
        <ele>297.488</ele>
        <time>1970-01-01T01:00:00Z</time>
      </trkpt>
      <trkpt lat="63.395593" lon="10.491679">
        <ele>297.488</ele>
        <time>1970-01-01T01:00:00Z</time>
      </trkpt>
      <trkpt lat="63.3955685" lon="10.49171383">
        <ele>297.336</ele>
        <time>1970-01-01T01:00:00Z</time>
      </trkpt>
      <trkpt lat="63.39554567" lon="10.49174283">
        <ele>297.336</ele>
        <time>1970-01-01T01:00:00Z</time>
      </trkpt>
      <trkpt lat="63.39552483" lon="10.49176533">
        <ele>297.184</ele>
        <time>1970-01-01T01:00:00Z</time>
      </trkpt>
      <trkpt lat="63.39550283" lon="10.49178083">
        <ele>297.184</ele>
        <time>1970-01-01T01:00:00Z</time>
      </trkpt>
      <trkpt lat="63.39548017" lon="10.49179017">
        <ele>297.184</ele>
        <time>1970-01-01T01:00:00Z</time>
      </trkpt>
      <trkpt lat="63.39545767" lon="10.491797">
        <ele>297.184</ele>
        <time>1970-01-01T01:00:00Z</time>
      </trkpt>
      <trkpt lat="63.3954375" lon="10.49180317">
        <ele>297.031</ele>
        <time>1970-01-01T01:00:00Z</time>
      </trkpt>
      <trkpt lat="63.3954165" lon="10.49180917">
        <ele>297.031</ele>
        <time>1970-01-01T01:00:00Z</time>
      </trkpt>
      <trkpt lat="63.39539417" lon="10.49181383">
        <ele>297.031</ele>
        <time>1970-01-01T01:00:00Z</time>
      </trkpt>
      <trkpt lat="63.39537083" lon="10.4918155">
        <ele>297.031</ele>
        <time>1970-01-01T01:00:00Z</time>
      </trkpt>
      <trkpt lat="63.3953485" lon="10.49181617">
        <ele>297.031</ele>
        <time>1970-01-01T01:00:00Z</time>
      </trkpt>
      <trkpt lat="63.3953295" lon="10.49181117">
        <ele>297.031</ele>
        <time>1970-01-01T01:00:00Z</time>
      </trkpt>
      <trkpt lat="63.39531233" lon="10.49180533">
        <ele>297.031</ele>
        <time>1970-01-01T01:00:00Z</time>
      </trkpt>
      <trkpt lat="63.39529483" lon="10.49179583">
        <ele>297.031</ele>
        <time>1970-01-01T01:00:00Z</time>
      </trkpt>
      <trkpt lat="63.3952775" lon="10.49178733">
        <ele>297.184</ele>
        <time>1970-01-01T01:00:00Z</time>
      </trkpt>
      <trkpt lat="63.39525933" lon="10.49178017">
        <ele>297.184</ele>
        <time>1970-01-01T01:00:00Z</time>
      </trkpt>
      <trkpt lat="63.39524033" lon="10.49177867">
        <ele>297.336</ele>
        <time>1970-01-01T01:00:00Z</time>
      </trkpt>
      <trkpt lat="63.39521883" lon="10.49177833">
        <ele>297.336</ele>
        <time>1970-01-01T01:00:00Z</time>
      </trkpt>
      <trkpt lat="63.39519683" lon="10.49178">
        <ele>297.488</ele>
        <time>1970-01-01T01:00:00Z</time>
      </trkpt>
      <trkpt lat="63.39517617" lon="10.49177967">
        <ele>297.488</ele>
        <time>1970-01-01T01:00:00Z</time>
      </trkpt>
      <trkpt lat="63.39515783" lon="10.49177983">
        <ele>297.641</ele>
        <time>1970-01-01T01:00:00Z</time>
      </trkpt>
      <trkpt lat="63.39513917" lon="10.49177933">
        <ele>297.641</ele>
        <time>1970-01-01T01:00:00Z</time>
      </trkpt>
      <trkpt lat="63.395118" lon="10.49178067">
        <ele>297.946</ele>
        <time>1970-01-01T01:00:00Z</time>
      </trkpt>
      <trkpt lat="63.395095" lon="10.49178">
        <ele>297.946</ele>
        <time>1970-01-01T01:00:00Z</time>
      </trkpt>
      <trkpt lat="63.39507133" lon="10.49177817">
        <ele>298.098</ele>
        <time>1970-01-01T01:00:00Z</time>
      </trkpt>
      <trkpt lat="63.39504867" lon="10.49177067">
        <ele>298.098</ele>
        <time>1970-01-01T01:00:00Z</time>
      </trkpt>
      <trkpt lat="63.39502683" lon="10.4917615">
        <ele>298.403</ele>
        <time>1970-01-01T01:00:00Z</time>
      </trkpt>
      <trkpt lat="63.395006" lon="10.4917495">
        <ele>298.403</ele>
        <time>1970-01-01T01:00:00Z</time>
      </trkpt>
      <trkpt lat="63.39498317" lon="10.49174183">
        <ele>298.555</ele>
        <time>1970-01-01T01:00:00Z</time>
      </trkpt>
      <trkpt lat="63.39495767" lon="10.49173117">
        <ele>298.555</ele>
        <time>1970-01-01T01:00:00Z</time>
      </trkpt>
      <trkpt lat="63.394933" lon="10.491716">
        <ele>298.708</ele>
        <time>1970-01-01T01:00:00Z</time>
      </trkpt>
      <trkpt lat="63.39491017" lon="10.49169783">
        <ele>298.708</ele>
        <time>1970-01-01T01:00:00Z</time>
      </trkpt>
      <trkpt lat="63.39488733" lon="10.49168167">
        <ele>299.012</ele>
        <time>1970-01-01T01:00:00Z</time>
      </trkpt>
      <trkpt lat="63.394863" lon="10.491662">
        <ele>299.012</ele>
        <time>1970-01-01T01:00:00Z</time>
      </trkpt>
      <trkpt lat="63.39483683" lon="10.49164233">
        <ele>299.165</ele>
        <time>1970-01-01T01:00:00Z</time>
      </trkpt>
      <trkpt lat="63.39481267" lon="10.491615">
        <ele>299.165</ele>
        <time>1970-01-01T01:00:00Z</time>
      </trkpt>
      <trkpt lat="63.394788" lon="10.49159917">
        <ele>299.317</ele>
        <time>1970-01-01T01:00:00Z</time>
      </trkpt>
      <trkpt lat="63.394764" lon="10.4915845">
        <ele>299.317</ele>
        <time>1970-01-01T01:00:00Z</time>
      </trkpt>
      <trkpt lat="63.394739" lon="10.49157917">
        <ele>299.47</ele>
        <time>1970-01-01T01:00:00Z</time>
      </trkpt>
      <trkpt lat="63.39471467" lon="10.4915715">
        <ele>299.47</ele>
        <time>1970-01-01T01:00:00Z</time>
      </trkpt>
      <trkpt lat="63.39469083" lon="10.49156267">
        <ele>299.622</ele>
        <time>1970-01-01T01:00:00Z</time>
      </trkpt>
      <trkpt lat="63.39466567" lon="10.49155567">
        <ele>299.622</ele>
        <time>1970-01-01T01:00:00Z</time>
      </trkpt>
      <trkpt lat="63.39464083" lon="10.49154917">
        <ele>299.774</ele>
        <time>1970-01-01T01:00:00Z</time>
      </trkpt>
      <trkpt lat="63.39461633" lon="10.49154367">
        <ele>299.774</ele>
        <time>1970-01-01T01:00:00Z</time>
      </trkpt>
      <trkpt lat="63.394592" lon="10.491547">
        <ele>299.927</ele>
        <time>1970-01-01T01:00:00Z</time>
      </trkpt>
      <trkpt lat="63.39456833" lon="10.49155567">
        <ele>299.927</ele>
        <time>1970-01-01T01:00:00Z</time>
      </trkpt>
      <trkpt lat="63.39454467" lon="10.49157583">
        <ele>300.079</ele>
        <time>1970-01-01T01:00:00Z</time>
      </trkpt>
      <trkpt lat="63.39452233" lon="10.49160067">
        <ele>300.079</ele>
        <time>1970-01-01T01:00:00Z</time>
      </trkpt>
      <trkpt lat="63.3945" lon="10.49163133">
        <ele>300.232</ele>
        <time>1970-01-01T01:00:00Z</time>
      </trkpt>
      <trkpt lat="63.39448117" lon="10.4916575">
        <ele>300.232</ele>
        <time>1970-01-01T01:00:00Z</time>
      </trkpt>
      <trkpt lat="63.39446633" lon="10.49168217">
        <ele>300.384</ele>
        <time>1970-01-01T01:00:00Z</time>
      </trkpt>
      <trkpt lat="63.39445583" lon="10.49170383">
        <ele>300.384</ele>
        <time>1970-01-01T01:00:00Z</time>
      </trkpt>
      <trkpt lat="63.39444667" lon="10.4917315">
        <ele>300.384</ele>
        <time>1970-01-01T01:00:00Z</time>
      </trkpt>
      <trkpt lat="63.39444033" lon="10.49175933">
        <ele>300.384</ele>
        <time>1970-01-01T01:00:00Z</time>
      </trkpt>
      <trkpt lat="63.3944325" lon="10.49179583">
        <ele>300.536</ele>
        <time>1970-01-01T01:00:00Z</time>
      </trkpt>
      <trkpt lat="63.39442467" lon="10.49183083">
        <ele>300.536</ele>
        <time>1970-01-01T01:00:00Z</time>
      </trkpt>
      <trkpt lat="63.39441433" lon="10.49186533">
        <ele>300.536</ele>
        <time>1970-01-01T01:00:00Z</time>
      </trkpt>
      <trkpt lat="63.3944035" lon="10.4919015">
        <ele>300.536</ele>
        <time>1970-01-01T01:00:00Z</time>
      </trkpt>
      <trkpt lat="63.394392" lon="10.49194267">
        <ele>300.536</ele>
        <time>1970-01-01T01:00:00Z</time>
      </trkpt>
      <trkpt lat="63.394381" lon="10.49198233">
        <ele>300.536</ele>
        <time>1970-01-01T01:00:00Z</time>
      </trkpt>
      <trkpt lat="63.39436817" lon="10.492015">
        <ele>300.536</ele>
        <time>1970-01-01T01:00:00Z</time>
      </trkpt>
      <trkpt lat="63.39435533" lon="10.49203983">
        <ele>300.536</ele>
        <time>1970-01-01T01:00:00Z</time>
      </trkpt>
      <trkpt lat="63.39434233" lon="10.49206767">
        <ele>300.384</ele>
        <time>1970-01-01T01:00:00Z</time>
      </trkpt>
      <trkpt lat="63.39433" lon="10.492094">
        <ele>300.384</ele>
        <time>1970-01-01T01:00:00Z</time>
      </trkpt>
      <trkpt lat="63.3943175" lon="10.49212267">
        <ele>300.232</ele>
        <time>1970-01-01T01:00:00Z</time>
      </trkpt>
      <trkpt lat="63.39430517" lon="10.49215583">
        <ele>300.232</ele>
        <time>1970-01-01T01:00:00Z</time>
      </trkpt>
      <trkpt lat="63.394293" lon="10.49219483">
        <ele>300.079</ele>
        <time>1970-01-01T01:00:00Z</time>
      </trkpt>
      <trkpt lat="63.39428217" lon="10.49223533">
        <ele>300.079</ele>
        <time>1970-01-01T01:00:00Z</time>
      </trkpt>
      <trkpt lat="63.39427083" lon="10.49227233">
        <ele>299.774</ele>
        <time>1970-01-01T01:00:00Z</time>
      </trkpt>
      <trkpt lat="63.39425883" lon="10.4923055">
        <ele>299.774</ele>
        <time>1970-01-01T01:00:00Z</time>
      </trkpt>
      <trkpt lat="63.39424733" lon="10.4923335">
        <ele>299.622</ele>
        <time>1970-01-01T01:00:00Z</time>
      </trkpt>
      <trkpt lat="63.39423783" lon="10.49236067">
        <ele>299.622</ele>
        <time>1970-01-01T01:00:00Z</time>
      </trkpt>
      <trkpt lat="63.39423167" lon="10.49238533">
        <ele>299.317</ele>
        <time>1970-01-01T01:00:00Z</time>
      </trkpt>
      <trkpt lat="63.39422667" lon="10.49241617">
        <ele>299.317</ele>
        <time>1970-01-01T01:00:00Z</time>
      </trkpt>
      <trkpt lat="63.39422083" lon="10.49244633">
        <ele>299.012</ele>
        <time>1970-01-01T01:00:00Z</time>
      </trkpt>
      <trkpt lat="63.39421267" lon="10.492475">
        <ele>299.012</ele>
        <time>1970-01-01T01:00:00Z</time>
      </trkpt>
      <trkpt lat="63.39420167" lon="10.49250467">
        <ele>298.86</ele>
        <time>1970-01-01T01:00:00Z</time>
      </trkpt>
      <trkpt lat="63.3941915" lon="10.49253033">
        <ele>298.86</ele>
        <time>1970-01-01T01:00:00Z</time>
      </trkpt>
      <trkpt lat="63.394183" lon="10.49255467">
        <ele>298.708</ele>
        <time>1970-01-01T01:00:00Z</time>
      </trkpt>
      <trkpt lat="63.394174" lon="10.49258133">
        <ele>298.708</ele>
        <time>1970-01-01T01:00:00Z</time>
      </trkpt>
      <trkpt lat="63.39416533" lon="10.49260717">
        <ele>298.403</ele>
        <time>1970-01-01T01:00:00Z</time>
      </trkpt>
      <trkpt lat="63.39415267" lon="10.49263733">
        <ele>298.403</ele>
        <time>1970-01-01T01:00:00Z</time>
      </trkpt>
      <trkpt lat="63.39413967" lon="10.49266033">
        <ele>298.25</ele>
        <time>1970-01-01T01:00:00Z</time>
      </trkpt>
      <trkpt lat="63.39412517" lon="10.492686">
        <ele>298.25</ele>
        <time>1970-01-01T01:00:00Z</time>
      </trkpt>
      <trkpt lat="63.39411217" lon="10.49271017">
        <ele>298.098</ele>
        <time>1970-01-01T01:00:00Z</time>
      </trkpt>
      <trkpt lat="63.3940995" lon="10.492734">
        <ele>298.098</ele>
        <time>1970-01-01T01:00:00Z</time>
      </trkpt>
      <trkpt lat="63.39408517" lon="10.49275233">
        <ele>297.793</ele>
        <time>1970-01-01T01:00:00Z</time>
      </trkpt>
      <trkpt lat="63.39406783" lon="10.49276167">
        <ele>297.793</ele>
        <time>1970-01-01T01:00:00Z</time>
      </trkpt>
      <trkpt lat="63.39404867" lon="10.49276367">
        <ele>297.641</ele>
        <time>1970-01-01T01:00:00Z</time>
      </trkpt>
      <trkpt lat="63.3940265" lon="10.49276367">
        <ele>297.641</ele>
        <time>1970-01-01T01:00:00Z</time>
      </trkpt>
      <trkpt lat="63.3940045" lon="10.49276767">
        <ele>297.488</ele>
        <time>1970-01-01T01:00:00Z</time>
      </trkpt>
      <trkpt lat="63.39398117" lon="10.492764">
        <ele>297.488</ele>
        <time>1970-01-01T01:00:00Z</time>
      </trkpt>
      <trkpt lat="63.39395983" lon="10.492753">
        <ele>297.184</ele>
        <time>1970-01-01T01:00:00Z</time>
      </trkpt>
      <trkpt lat="63.39394083" lon="10.492731">
        <ele>297.184</ele>
        <time>1970-01-01T01:00:00Z</time>
      </trkpt>
      <trkpt lat="63.39392233" lon="10.49271867">
        <ele>296.879</ele>
        <time>1970-01-01T01:00:00Z</time>
      </trkpt>
      <trkpt lat="63.39390583" lon="10.4927075">
        <ele>296.879</ele>
        <time>1970-01-01T01:00:00Z</time>
      </trkpt>
      <trkpt lat="63.39388867" lon="10.49270267">
        <ele>296.726</ele>
        <time>1970-01-01T01:00:00Z</time>
      </trkpt>
      <trkpt lat="63.39387233" lon="10.49269983">
        <ele>296.726</ele>
        <time>1970-01-01T01:00:00Z</time>
      </trkpt>
      <trkpt lat="63.39385683" lon="10.49270483">
        <ele>296.422</ele>
        <time>1970-01-01T01:00:00Z</time>
      </trkpt>
      <trkpt lat="63.3938445" lon="10.4927185">
        <ele>296.422</ele>
        <time>1970-01-01T01:00:00Z</time>
      </trkpt>
      <trkpt lat="63.39383367" lon="10.49273617">
        <ele>296.117</ele>
        <time>1970-01-01T01:00:00Z</time>
      </trkpt>
      <trkpt lat="63.39382383" lon="10.49275717">
        <ele>296.117</ele>
        <time>1970-01-01T01:00:00Z</time>
      </trkpt>
      <trkpt lat="63.39381533" lon="10.492779">
        <ele>295.964</ele>
        <time>1970-01-01T01:00:00Z</time>
      </trkpt>
      <trkpt lat="63.393811" lon="10.4928">
        <ele>295.964</ele>
        <time>1970-01-01T01:00:00Z</time>
      </trkpt>
      <trkpt lat="63.39380833" lon="10.492822">
        <ele>295.812</ele>
        <time>1970-01-01T01:00:00Z</time>
      </trkpt>
      <trkpt lat="63.39380767" lon="10.49284017">
        <ele>295.812</ele>
        <time>1970-01-01T01:00:00Z</time>
      </trkpt>
      <trkpt lat="63.39380867" lon="10.49286">
        <ele>295.507</ele>
        <time>1970-01-01T01:00:00Z</time>
      </trkpt>
      <trkpt lat="63.39381233" lon="10.49287933">
        <ele>295.507</ele>
        <time>1970-01-01T01:00:00Z</time>
      </trkpt>
      <trkpt lat="63.39381667" lon="10.492906">
        <ele>295.355</ele>
        <time>1970-01-01T01:00:00Z</time>
      </trkpt>
      <trkpt lat="63.3938215" lon="10.4929345">
        <ele>295.355</ele>
        <time>1970-01-01T01:00:00Z</time>
      </trkpt>
      <trkpt lat="63.39382533" lon="10.4929635">
        <ele>295.202</ele>
        <time>1970-01-01T01:00:00Z</time>
      </trkpt>
      <trkpt lat="63.39382867" lon="10.49299417">
        <ele>295.202</ele>
        <time>1970-01-01T01:00:00Z</time>
      </trkpt>
      <trkpt lat="63.393832" lon="10.49302367">
        <ele>295.05</ele>
        <time>1970-01-01T01:00:00Z</time>
      </trkpt>
      <trkpt lat="63.3938355" lon="10.49305167">
        <ele>295.05</ele>
        <time>1970-01-01T01:00:00Z</time>
      </trkpt>
      <trkpt lat="63.39383933" lon="10.4930765">
        <ele>294.898</ele>
        <time>1970-01-01T01:00:00Z</time>
      </trkpt>
      <trkpt lat="63.39384267" lon="10.49310283">
        <ele>294.898</ele>
        <time>1970-01-01T01:00:00Z</time>
      </trkpt>
      <trkpt lat="63.39384633" lon="10.49313">
        <ele>294.745</ele>
        <time>1970-01-01T01:00:00Z</time>
      </trkpt>
      <trkpt lat="63.39384617" lon="10.49316117">
        <ele>294.745</ele>
        <time>1970-01-01T01:00:00Z</time>
      </trkpt>
      <trkpt lat="63.39384417" lon="10.4931955">
        <ele>294.593</ele>
        <time>1970-01-01T01:00:00Z</time>
      </trkpt>
      <trkpt lat="63.39384083" lon="10.49323483">
        <ele>294.593</ele>
        <time>1970-01-01T01:00:00Z</time>
      </trkpt>
      <trkpt lat="63.39383783" lon="10.4932785">
        <ele>294.288</ele>
        <time>1970-01-01T01:00:00Z</time>
      </trkpt>
      <trkpt lat="63.39383567" lon="10.4933225">
        <ele>294.288</ele>
        <time>1970-01-01T01:00:00Z</time>
      </trkpt>
      <trkpt lat="63.39383367" lon="10.49336667">
        <ele>294.136</ele>
        <time>1970-01-01T01:00:00Z</time>
      </trkpt>
      <trkpt lat="63.39383517" lon="10.493402">
        <ele>294.136</ele>
        <time>1970-01-01T01:00:00Z</time>
      </trkpt>
      <trkpt lat="63.39383767" lon="10.49343767">
        <ele>293.831</ele>
        <time>1970-01-01T01:00:00Z</time>
      </trkpt>
      <trkpt lat="63.39384067" lon="10.49346767">
        <ele>293.831</ele>
        <time>1970-01-01T01:00:00Z</time>
      </trkpt>
      <trkpt lat="63.3938425" lon="10.49349817">
        <ele>293.526</ele>
        <time>1970-01-01T01:00:00Z</time>
      </trkpt>
      <trkpt lat="63.39384417" lon="10.49352283">
        <ele>293.526</ele>
        <time>1970-01-01T01:00:00Z</time>
      </trkpt>
      <trkpt lat="63.39384567" lon="10.49354733">
        <ele>293.221</ele>
        <time>1970-01-01T01:00:00Z</time>
      </trkpt>
      <trkpt lat="63.39384783" lon="10.49356983">
        <ele>293.221</ele>
        <time>1970-01-01T01:00:00Z</time>
      </trkpt>
      <trkpt lat="63.39384783" lon="10.4935925">
        <ele>292.916</ele>
        <time>1970-01-01T01:00:00Z</time>
      </trkpt>
      <trkpt lat="63.393845" lon="10.49362217">
        <ele>292.916</ele>
        <time>1970-01-01T01:00:00Z</time>
      </trkpt>
      <trkpt lat="63.39384183" lon="10.49365383">
        <ele>292.612</ele>
        <time>1970-01-01T01:00:00Z</time>
      </trkpt>
      <trkpt lat="63.39383883" lon="10.493683">
        <ele>292.612</ele>
        <time>1970-01-01T01:00:00Z</time>
      </trkpt>
      <trkpt lat="63.39383683" lon="10.49370767">
        <ele>292.307</ele>
        <time>1970-01-01T01:00:00Z</time>
      </trkpt>
      <trkpt lat="63.39383467" lon="10.49373267">
        <ele>292.307</ele>
        <time>1970-01-01T01:00:00Z</time>
      </trkpt>
      <trkpt lat="63.39383383" lon="10.493753">
        <ele>292.002</ele>
        <time>1970-01-01T01:00:00Z</time>
      </trkpt>
      <trkpt lat="63.39383117" lon="10.49377117">
        <ele>292.002</ele>
        <time>1970-01-01T01:00:00Z</time>
      </trkpt>
      <trkpt lat="63.39382467" lon="10.49379083">
        <ele>291.697</ele>
        <time>1970-01-01T01:00:00Z</time>
      </trkpt>
      <trkpt lat="63.39381817" lon="10.4938195">
        <ele>291.697</ele>
        <time>1970-01-01T01:00:00Z</time>
      </trkpt>
      <trkpt lat="63.393814" lon="10.49385283">
        <ele>291.392</ele>
        <time>1970-01-01T01:00:00Z</time>
      </trkpt>
      <trkpt lat="63.393813" lon="10.49388933">
        <ele>291.392</ele>
        <time>1970-01-01T01:00:00Z</time>
      </trkpt>
      <trkpt lat="63.3938105" lon="10.49392533">
        <ele>291.24</ele>
        <time>1970-01-01T01:00:00Z</time>
      </trkpt>
      <trkpt lat="63.3938075" lon="10.493959">
        <ele>291.24</ele>
        <time>1970-01-01T01:00:00Z</time>
      </trkpt>
      <trkpt lat="63.39380383" lon="10.49399317">
        <ele>291.088</ele>
        <time>1970-01-01T01:00:00Z</time>
      </trkpt>
      <trkpt lat="63.39380017" lon="10.494024">
        <ele>291.088</ele>
        <time>1970-01-01T01:00:00Z</time>
      </trkpt>
      <trkpt lat="63.3937955" lon="10.494059">
        <ele>290.783</ele>
        <time>1970-01-01T01:00:00Z</time>
      </trkpt>
      <trkpt lat="63.3937865" lon="10.49409033">
        <ele>290.783</ele>
        <time>1970-01-01T01:00:00Z</time>
      </trkpt>
      <trkpt lat="63.39377483" lon="10.49412633">
        <ele>290.63</ele>
        <time>1970-01-01T01:00:00Z</time>
      </trkpt>
      <trkpt lat="63.39376067" lon="10.49415933">
        <ele>290.63</ele>
        <time>1970-01-01T01:00:00Z</time>
      </trkpt>
      <trkpt lat="63.39374783" lon="10.49419333">
        <ele>290.326</ele>
        <time>1970-01-01T01:00:00Z</time>
      </trkpt>
      <trkpt lat="63.39373467" lon="10.494236">
        <ele>290.326</ele>
        <time>1970-01-01T01:00:00Z</time>
      </trkpt>
      <trkpt lat="63.393721" lon="10.49428333">
        <ele>290.021</ele>
        <time>1970-01-01T01:00:00Z</time>
      </trkpt>
      <trkpt lat="63.39370633" lon="10.49433">
        <ele>290.021</ele>
        <time>1970-01-01T01:00:00Z</time>
      </trkpt>
      <trkpt lat="63.39369167" lon="10.49437167">
        <ele>289.564</ele>
        <time>1970-01-01T01:00:00Z</time>
      </trkpt>
      <trkpt lat="63.39367983" lon="10.4944135">
        <ele>289.564</ele>
        <time>1970-01-01T01:00:00Z</time>
      </trkpt>
      <trkpt lat="63.3936715" lon="10.49445733">
        <ele>289.259</ele>
        <time>1970-01-01T01:00:00Z</time>
      </trkpt>
      <trkpt lat="63.3936665" lon="10.4945035">
        <ele>289.259</ele>
        <time>1970-01-01T01:00:00Z</time>
      </trkpt>
      <trkpt lat="63.39366367" lon="10.4945515">
        <ele>288.954</ele>
        <time>1970-01-01T01:00:00Z</time>
      </trkpt>
      <trkpt lat="63.39366117" lon="10.49459467">
        <ele>288.954</ele>
        <time>1970-01-01T01:00:00Z</time>
      </trkpt>
      <trkpt lat="63.3936565" lon="10.49463567">
        <ele>288.497</ele>
        <time>1970-01-01T01:00:00Z</time>
      </trkpt>
      <trkpt lat="63.393652" lon="10.49467233">
        <ele>288.497</ele>
        <time>1970-01-01T01:00:00Z</time>
      </trkpt>
      <trkpt lat="63.39364533" lon="10.49471033">
        <ele>288.192</ele>
        <time>1970-01-01T01:00:00Z</time>
      </trkpt>
      <trkpt lat="63.3936405" lon="10.49474567">
        <ele>288.192</ele>
        <time>1970-01-01T01:00:00Z</time>
      </trkpt>
      <trkpt lat="63.39363283" lon="10.4947815">
        <ele>288.039</ele>
        <time>1970-01-01T01:00:00Z</time>
      </trkpt>
      <trkpt lat="63.39362767" lon="10.49481483">
        <ele>288.039</ele>
        <time>1970-01-01T01:00:00Z</time>
      </trkpt>
      <trkpt lat="63.39362617" lon="10.49484783">
        <ele>287.735</ele>
        <time>1970-01-01T01:00:00Z</time>
      </trkpt>
      <trkpt lat="63.39362733" lon="10.49487967">
        <ele>287.735</ele>
        <time>1970-01-01T01:00:00Z</time>
      </trkpt>
      <trkpt lat="63.39362833" lon="10.49491633">
        <ele>287.43</ele>
        <time>1970-01-01T01:00:00Z</time>
      </trkpt>
      <trkpt lat="63.39362717" lon="10.4949525">
        <ele>287.43</ele>
        <time>1970-01-01T01:00:00Z</time>
      </trkpt>
      <trkpt lat="63.39362667" lon="10.49499083">
        <ele>287.277</ele>
        <time>1970-01-01T01:00:00Z</time>
      </trkpt>
      <trkpt lat="63.39362683" lon="10.49502517">
        <ele>287.277</ele>
        <time>1970-01-01T01:00:00Z</time>
      </trkpt>
      <trkpt lat="63.3936275" lon="10.49505917">
        <ele>287.125</ele>
        <time>1970-01-01T01:00:00Z</time>
      </trkpt>
      <trkpt lat="63.39362617" lon="10.49509317">
        <ele>287.125</ele>
        <time>1970-01-01T01:00:00Z</time>
      </trkpt>
      <trkpt lat="63.39362333" lon="10.49513367">
        <ele>287.125</ele>
        <time>1970-01-01T01:00:00Z</time>
      </trkpt>
      <trkpt lat="63.39361983" lon="10.49517567">
        <ele>287.125</ele>
        <time>1970-01-01T01:00:00Z</time>
      </trkpt>
      <trkpt lat="63.39361717" lon="10.49521283">
        <ele>287.125</ele>
        <time>1970-01-01T01:00:00Z</time>
      </trkpt>
      <trkpt lat="63.39361467" lon="10.49524433">
        <ele>287.125</ele>
        <time>1970-01-01T01:00:00Z</time>
      </trkpt>
      <trkpt lat="63.39361083" lon="10.495276">
        <ele>287.277</ele>
        <time>1970-01-01T01:00:00Z</time>
      </trkpt>
      <trkpt lat="63.39360267" lon="10.49530883">
        <ele>287.277</ele>
        <time>1970-01-01T01:00:00Z</time>
      </trkpt>
      <trkpt lat="63.39359567" lon="10.4953455">
        <ele>287.43</ele>
        <time>1970-01-01T01:00:00Z</time>
      </trkpt>
      <trkpt lat="63.39358833" lon="10.49538317">
        <ele>287.43</ele>
        <time>1970-01-01T01:00:00Z</time>
      </trkpt>
      <trkpt lat="63.39358583" lon="10.49542317">
        <ele>287.582</ele>
        <time>1970-01-01T01:00:00Z</time>
      </trkpt>
      <trkpt lat="63.39358033" lon="10.49546133">
        <ele>287.582</ele>
        <time>1970-01-01T01:00:00Z</time>
      </trkpt>
      <trkpt lat="63.39357217" lon="10.49550117">
        <ele>287.887</ele>
        <time>1970-01-01T01:00:00Z</time>
      </trkpt>
      <trkpt lat="63.39356283" lon="10.49553483">
        <ele>287.887</ele>
        <time>1970-01-01T01:00:00Z</time>
      </trkpt>
      <trkpt lat="63.39355383" lon="10.49556467">
        <ele>288.192</ele>
        <time>1970-01-01T01:00:00Z</time>
      </trkpt>
      <trkpt lat="63.393546" lon="10.49558933">
        <ele>288.192</ele>
        <time>1970-01-01T01:00:00Z</time>
      </trkpt>
      <trkpt lat="63.39353667" lon="10.49561617">
        <ele>288.497</ele>
        <time>1970-01-01T01:00:00Z</time>
      </trkpt>
      <trkpt lat="63.39352933" lon="10.4956455">
        <ele>288.497</ele>
        <time>1970-01-01T01:00:00Z</time>
      </trkpt>
      <trkpt lat="63.39352267" lon="10.49567583">
        <ele>288.954</ele>
        <time>1970-01-01T01:00:00Z</time>
      </trkpt>
      <trkpt lat="63.39351533" lon="10.49570533">
        <ele>288.954</ele>
        <time>1970-01-01T01:00:00Z</time>
      </trkpt>
      <trkpt lat="63.39350583" lon="10.49573067">
        <ele>289.411</ele>
        <time>1970-01-01T01:00:00Z</time>
      </trkpt>
      <trkpt lat="63.393497" lon="10.49575383">
        <ele>289.411</ele>
        <time>1970-01-01T01:00:00Z</time>
      </trkpt>
      <trkpt lat="63.393486" lon="10.49577683">
        <ele>290.021</ele>
        <time>1970-01-01T01:00:00Z</time>
      </trkpt>
      <trkpt lat="63.39347367" lon="10.49579733">
        <ele>290.021</ele>
        <time>1970-01-01T01:00:00Z</time>
      </trkpt>
      <trkpt lat="63.393457" lon="10.49581417">
        <ele>290.63</ele>
        <time>1970-01-01T01:00:00Z</time>
      </trkpt>
      <trkpt lat="63.39343933" lon="10.495826">
        <ele>290.63</ele>
        <time>1970-01-01T01:00:00Z</time>
      </trkpt>
      <trkpt lat="63.3934235" lon="10.49583633">
        <ele>291.24</ele>
        <time>1970-01-01T01:00:00Z</time>
      </trkpt>
      <trkpt lat="63.39341183" lon="10.4958465">
        <ele>291.24</ele>
        <time>1970-01-01T01:00:00Z</time>
      </trkpt>
      <trkpt lat="63.393404" lon="10.49585333">
        <ele>291.85</ele>
        <time>1970-01-01T01:00:00Z</time>
      </trkpt>
      <trkpt lat="63.39339517" lon="10.49586">
        <ele>291.85</ele>
        <time>1970-01-01T01:00:00Z</time>
      </trkpt>
      <trkpt lat="63.3933835" lon="10.495862">
        <ele>292.612</ele>
        <time>1970-01-01T01:00:00Z</time>
      </trkpt>
      <trkpt lat="63.3933705" lon="10.49586533">
        <ele>292.612</ele>
        <time>1970-01-01T01:00:00Z</time>
      </trkpt>
      <trkpt lat="63.39335717" lon="10.4958665">
        <ele>293.374</ele>
        <time>1970-01-01T01:00:00Z</time>
      </trkpt>
      <trkpt lat="63.39334583" lon="10.49587033">
        <ele>293.374</ele>
        <time>1970-01-01T01:00:00Z</time>
      </trkpt>
      <trkpt lat="63.393335" lon="10.49587483">
        <ele>294.136</ele>
        <time>1970-01-01T01:00:00Z</time>
      </trkpt>
      <trkpt lat="63.393323" lon="10.49587917">
        <ele>294.136</ele>
        <time>1970-01-01T01:00:00Z</time>
      </trkpt>
      <trkpt lat="63.3933095" lon="10.49588033">
        <ele>294.898</ele>
        <time>1970-01-01T01:00:00Z</time>
      </trkpt>
      <trkpt lat="63.39329617" lon="10.49587783">
        <ele>294.898</ele>
        <time>1970-01-01T01:00:00Z</time>
      </trkpt>
      <trkpt lat="63.39328317" lon="10.4958785">
        <ele>295.66</ele>
        <time>1970-01-01T01:00:00Z</time>
      </trkpt>
      <trkpt lat="63.39327133" lon="10.4958815">
        <ele>295.66</ele>
        <time>1970-01-01T01:00:00Z</time>
      </trkpt>
      <trkpt lat="63.39325983" lon="10.49588767">
        <ele>296.574</ele>
        <time>1970-01-01T01:00:00Z</time>
      </trkpt>
      <trkpt lat="63.39324783" lon="10.49589317">
        <ele>296.574</ele>
        <time>1970-01-01T01:00:00Z</time>
      </trkpt>
      <trkpt lat="63.39323433" lon="10.495899">
        <ele>297.488</ele>
        <time>1970-01-01T01:00:00Z</time>
      </trkpt>
      <trkpt lat="63.39321967" lon="10.49590667">
        <ele>297.488</ele>
        <time>1970-01-01T01:00:00Z</time>
      </trkpt>
      <trkpt lat="63.39320583" lon="10.49591117">
        <ele>298.403</ele>
        <time>1970-01-01T01:00:00Z</time>
      </trkpt>
      <trkpt lat="63.39319033" lon="10.49591467">
        <ele>298.403</ele>
        <time>1970-01-01T01:00:00Z</time>
      </trkpt>
      <trkpt lat="63.3931735" lon="10.49591833">
        <ele>299.317</ele>
        <time>1970-01-01T01:00:00Z</time>
      </trkpt>
      <trkpt lat="63.3931565" lon="10.49592767">
        <ele>299.317</ele>
        <time>1970-01-01T01:00:00Z</time>
      </trkpt>
      <trkpt lat="63.39314183" lon="10.49594133">
        <ele>300.232</ele>
        <time>1970-01-01T01:00:00Z</time>
      </trkpt>
      <trkpt lat="63.393127" lon="10.495958">
        <ele>300.232</ele>
        <time>1970-01-01T01:00:00Z</time>
      </trkpt>
      <trkpt lat="63.39311217" lon="10.4959765">
        <ele>301.298</ele>
        <time>1970-01-01T01:00:00Z</time>
      </trkpt>
      <trkpt lat="63.39310033" lon="10.49599717">
        <ele>301.298</ele>
        <time>1970-01-01T01:00:00Z</time>
      </trkpt>
      <trkpt lat="63.39309417" lon="10.49601883">
        <ele>302.213</ele>
        <time>1970-01-01T01:00:00Z</time>
      </trkpt>
      <trkpt lat="63.393088" lon="10.49604233">
        <ele>302.213</ele>
        <time>1970-01-01T01:00:00Z</time>
      </trkpt>
      <trkpt lat="63.39308033" lon="10.49606883">
        <ele>303.127</ele>
        <time>1970-01-01T01:00:00Z</time>
      </trkpt>
      <trkpt lat="63.39306683" lon="10.49611467">
        <ele>303.127</ele>
        <time>1970-01-01T01:00:00Z</time>
      </trkpt>
      <trkpt lat="63.39305083" lon="10.49616883">
        <ele>304.042</ele>
        <time>1970-01-01T01:00:00Z</time>
      </trkpt>
      <trkpt lat="63.39303317" lon="10.49621767">
        <ele>304.042</ele>
        <time>1970-01-01T01:00:00Z</time>
      </trkpt>
      <trkpt lat="63.39301667" lon="10.49625217">
        <ele>304.956</ele>
        <time>1970-01-01T01:00:00Z</time>
      </trkpt>
      <trkpt lat="63.39300217" lon="10.49627817">
        <ele>304.956</ele>
        <time>1970-01-01T01:00:00Z</time>
      </trkpt>
      <trkpt lat="63.39298667" lon="10.49630833">
        <ele>305.718</ele>
        <time>1970-01-01T01:00:00Z</time>
      </trkpt>
      <trkpt lat="63.39297133" lon="10.4963345">
        <ele>305.718</ele>
        <time>1970-01-01T01:00:00Z</time>
      </trkpt>
      <trkpt lat="63.39295517" lon="10.49635967">
        <ele>306.633</ele>
        <time>1970-01-01T01:00:00Z</time>
      </trkpt>
      <trkpt lat="63.39294317" lon="10.4963785">
        <ele>306.633</ele>
        <time>1970-01-01T01:00:00Z</time>
      </trkpt>
      <trkpt lat="63.39292817" lon="10.496391">
        <ele>307.395</ele>
        <time>1970-01-01T01:00:00Z</time>
      </trkpt>
      <trkpt lat="63.39291383" lon="10.49640217">
        <ele>307.395</ele>
        <time>1970-01-01T01:00:00Z</time>
      </trkpt>
      <trkpt lat="63.39289383" lon="10.49641483">
        <ele>308.309</ele>
        <time>1970-01-01T01:00:00Z</time>
      </trkpt>
      <trkpt lat="63.39287483" lon="10.49642617">
        <ele>308.309</ele>
        <time>1970-01-01T01:00:00Z</time>
      </trkpt>
      <trkpt lat="63.39285567" lon="10.49643383">
        <ele>309.071</ele>
        <time>1970-01-01T01:00:00Z</time>
      </trkpt>
      <trkpt lat="63.39283717" lon="10.49643817">
        <ele>309.071</ele>
        <time>1970-01-01T01:00:00Z</time>
      </trkpt>
      <trkpt lat="63.39281633" lon="10.49644217">
        <ele>309.833</ele>
        <time>1970-01-01T01:00:00Z</time>
      </trkpt>
      <trkpt lat="63.392787" lon="10.49643933">
        <ele>309.833</ele>
        <time>1970-01-01T01:00:00Z</time>
      </trkpt>
      <trkpt lat="63.39275133" lon="10.4964325">
        <ele>310.595</ele>
        <time>1970-01-01T01:00:00Z</time>
      </trkpt>
      <trkpt lat="63.39271367" lon="10.49642283">
        <ele>310.595</ele>
        <time>1970-01-01T01:00:00Z</time>
      </trkpt>
      <trkpt lat="63.39267583" lon="10.49641933">
        <ele>311.205</ele>
        <time>1970-01-01T01:00:00Z</time>
      </trkpt>
      <trkpt lat="63.3926345" lon="10.49641583">
        <ele>311.205</ele>
        <time>1970-01-01T01:00:00Z</time>
      </trkpt>
      <trkpt lat="63.39259317" lon="10.496415">
        <ele>311.814</ele>
        <time>1970-01-01T01:00:00Z</time>
      </trkpt>
      <trkpt lat="63.39255567" lon="10.49641067">
        <ele>311.814</ele>
        <time>1970-01-01T01:00:00Z</time>
      </trkpt>
      <trkpt lat="63.392525" lon="10.49641">
        <ele>312.271</ele>
        <time>1970-01-01T01:00:00Z</time>
      </trkpt>
      <trkpt lat="63.39249617" lon="10.49640933">
        <ele>312.271</ele>
        <time>1970-01-01T01:00:00Z</time>
      </trkpt>
      <trkpt lat="63.39246417" lon="10.49641583">
        <ele>312.729</ele>
        <time>1970-01-01T01:00:00Z</time>
      </trkpt>
      <trkpt lat="63.392431" lon="10.4964175">
        <ele>312.729</ele>
        <time>1970-01-01T01:00:00Z</time>
      </trkpt>
      <trkpt lat="63.3923995" lon="10.49641167">
        <ele>313.033</ele>
        <time>1970-01-01T01:00:00Z</time>
      </trkpt>
      <trkpt lat="63.39237217" lon="10.4963975">
        <ele>313.033</ele>
        <time>1970-01-01T01:00:00Z</time>
      </trkpt>
      <trkpt lat="63.39234283" lon="10.49638567">
        <ele>313.338</ele>
        <time>1970-01-01T01:00:00Z</time>
      </trkpt>
      <trkpt lat="63.392312" lon="10.49637233">
        <ele>313.338</ele>
        <time>1970-01-01T01:00:00Z</time>
      </trkpt>
      <trkpt lat="63.39228183" lon="10.49635867">
        <ele>313.491</ele>
        <time>1970-01-01T01:00:00Z</time>
      </trkpt>
      <trkpt lat="63.392253" lon="10.49634033">
        <ele>313.491</ele>
        <time>1970-01-01T01:00:00Z</time>
      </trkpt>
      <trkpt lat="63.3922235" lon="10.49632967">
        <ele>313.643</ele>
        <time>1970-01-01T01:00:00Z</time>
      </trkpt>
      <trkpt lat="63.39219333" lon="10.49631967">
        <ele>313.643</ele>
        <time>1970-01-01T01:00:00Z</time>
      </trkpt>
      <trkpt lat="63.39216567" lon="10.49631083">
        <ele>313.795</ele>
        <time>1970-01-01T01:00:00Z</time>
      </trkpt>
      <trkpt lat="63.39213933" lon="10.4962955">
        <ele>313.795</ele>
        <time>1970-01-01T01:00:00Z</time>
      </trkpt>
      <trkpt lat="63.39211433" lon="10.49627683">
        <ele>313.795</ele>
        <time>1970-01-01T01:00:00Z</time>
      </trkpt>
      <trkpt lat="63.39209" lon="10.49625867">
        <ele>313.795</ele>
        <time>1970-01-01T01:00:00Z</time>
      </trkpt>
      <trkpt lat="63.39206667" lon="10.49624017">
        <ele>313.948</ele>
        <time>1970-01-01T01:00:00Z</time>
      </trkpt>
      <trkpt lat="63.39204283" lon="10.4962205">
        <ele>313.948</ele>
        <time>1970-01-01T01:00:00Z</time>
      </trkpt>
      <trkpt lat="63.392021" lon="10.49619767">
        <ele>313.948</ele>
        <time>1970-01-01T01:00:00Z</time>
      </trkpt>
      <trkpt lat="63.39199667" lon="10.49617367">
        <ele>313.948</ele>
        <time>1970-01-01T01:00:00Z</time>
      </trkpt>
      <trkpt lat="63.39197117" lon="10.49615467">
        <ele>313.948</ele>
        <time>1970-01-01T01:00:00Z</time>
      </trkpt>
      <trkpt lat="63.391943" lon="10.4961365">
        <ele>313.948</ele>
        <time>1970-01-01T01:00:00Z</time>
      </trkpt>
      <trkpt lat="63.39191567" lon="10.4961205">
        <ele>313.948</ele>
        <time>1970-01-01T01:00:00Z</time>
      </trkpt>
      <trkpt lat="63.3918875" lon="10.49610367">
        <ele>313.948</ele>
        <time>1970-01-01T01:00:00Z</time>
      </trkpt>
      <trkpt lat="63.39186117" lon="10.49608667">
        <ele>313.948</ele>
        <time>1970-01-01T01:00:00Z</time>
      </trkpt>
      <trkpt lat="63.3918345" lon="10.49607133">
        <ele>313.948</ele>
        <time>1970-01-01T01:00:00Z</time>
      </trkpt>
      <trkpt lat="63.39181117" lon="10.49605083">
        <ele>313.948</ele>
        <time>1970-01-01T01:00:00Z</time>
      </trkpt>
      <trkpt lat="63.39178783" lon="10.49603167">
        <ele>313.948</ele>
        <time>1970-01-01T01:00:00Z</time>
      </trkpt>
      <trkpt lat="63.39176733" lon="10.49600933">
        <ele>313.795</ele>
        <time>1970-01-01T01:00:00Z</time>
      </trkpt>
      <trkpt lat="63.39174717" lon="10.49598867">
        <ele>313.795</ele>
        <time>1970-01-01T01:00:00Z</time>
      </trkpt>
      <trkpt lat="63.39172867" lon="10.49596817">
        <ele>313.795</ele>
        <time>1970-01-01T01:00:00Z</time>
      </trkpt>
      <trkpt lat="63.39170983" lon="10.49594633">
        <ele>313.795</ele>
        <time>1970-01-01T01:00:00Z</time>
      </trkpt>
      <trkpt lat="63.391692" lon="10.4959255">
        <ele>313.795</ele>
        <time>1970-01-01T01:00:00Z</time>
      </trkpt>
      <trkpt lat="63.39167517" lon="10.49590567">
        <ele>313.795</ele>
        <time>1970-01-01T01:00:00Z</time>
      </trkpt>
      <trkpt lat="63.3916595" lon="10.4958895">
        <ele>313.948</ele>
        <time>1970-01-01T01:00:00Z</time>
      </trkpt>
      <trkpt lat="63.39164417" lon="10.49587383">
        <ele>313.948</ele>
        <time>1970-01-01T01:00:00Z</time>
      </trkpt>
      <trkpt lat="63.39162833" lon="10.49585567">
        <ele>314.1</ele>
        <time>1970-01-01T01:00:00Z</time>
      </trkpt>
      <trkpt lat="63.39161417" lon="10.49583367">
        <ele>314.1</ele>
        <time>1970-01-01T01:00:00Z</time>
      </trkpt>
      <trkpt lat="63.39160033" lon="10.49580783">
        <ele>314.253</ele>
        <time>1970-01-01T01:00:00Z</time>
      </trkpt>
      <trkpt lat="63.3915865" lon="10.49578217">
        <ele>314.253</ele>
        <time>1970-01-01T01:00:00Z</time>
      </trkpt>
      <trkpt lat="63.39157217" lon="10.49575867">
        <ele>314.405</ele>
        <time>1970-01-01T01:00:00Z</time>
      </trkpt>
      <trkpt lat="63.39155617" lon="10.4957355">
        <ele>314.405</ele>
        <time>1970-01-01T01:00:00Z</time>
      </trkpt>
      <trkpt lat="63.39154183" lon="10.4957145">
        <ele>314.557</ele>
        <time>1970-01-01T01:00:00Z</time>
      </trkpt>
      <trkpt lat="63.39152483" lon="10.49569567">
        <ele>314.557</ele>
        <time>1970-01-01T01:00:00Z</time>
      </trkpt>
      <trkpt lat="63.39150483" lon="10.49568583">
        <ele>314.862</ele>
        <time>1970-01-01T01:00:00Z</time>
      </trkpt>
      <trkpt lat="63.3914835" lon="10.49567933">
        <ele>314.862</ele>
        <time>1970-01-01T01:00:00Z</time>
      </trkpt>
      <trkpt lat="63.3914645" lon="10.49567333">
        <ele>315.015</ele>
        <time>1970-01-01T01:00:00Z</time>
      </trkpt>
      <trkpt lat="63.3914475" lon="10.4956645">
        <ele>315.015</ele>
        <time>1970-01-01T01:00:00Z</time>
      </trkpt>
      <trkpt lat="63.39143083" lon="10.4956505">
        <ele>315.319</ele>
        <time>1970-01-01T01:00:00Z</time>
      </trkpt>
      <trkpt lat="63.39141367" lon="10.49563783">
        <ele>315.319</ele>
        <time>1970-01-01T01:00:00Z</time>
      </trkpt>
      <trkpt lat="63.39139667" lon="10.4956235">
        <ele>315.472</ele>
        <time>1970-01-01T01:00:00Z</time>
      </trkpt>
      <trkpt lat="63.39138133" lon="10.49561183">
        <ele>315.472</ele>
        <time>1970-01-01T01:00:00Z</time>
      </trkpt>
      <trkpt lat="63.3913665" lon="10.49559883">
        <ele>315.777</ele>
        <time>1970-01-01T01:00:00Z</time>
      </trkpt>
      <trkpt lat="63.3913515" lon="10.49558667">
        <ele>315.777</ele>
        <time>1970-01-01T01:00:00Z</time>
      </trkpt>
      <trkpt lat="63.39133417" lon="10.49557617">
        <ele>316.081</ele>
        <time>1970-01-01T01:00:00Z</time>
      </trkpt>
      <trkpt lat="63.391317" lon="10.49556833">
        <ele>316.081</ele>
        <time>1970-01-01T01:00:00Z</time>
      </trkpt>
      <trkpt lat="63.3913" lon="10.4955655">
        <ele>316.386</ele>
        <time>1970-01-01T01:00:00Z</time>
      </trkpt>
      <trkpt lat="63.39128267" lon="10.49556667">
        <ele>316.386</ele>
        <time>1970-01-01T01:00:00Z</time>
      </trkpt>
      <trkpt lat="63.3912635" lon="10.49557067">
        <ele>316.691</ele>
        <time>1970-01-01T01:00:00Z</time>
      </trkpt>
      <trkpt lat="63.39124567" lon="10.49557517">
        <ele>316.691</ele>
        <time>1970-01-01T01:00:00Z</time>
      </trkpt>
      <trkpt lat="63.39122733" lon="10.49558733">
        <ele>316.996</ele>
        <time>1970-01-01T01:00:00Z</time>
      </trkpt>
      <trkpt lat="63.39121333" lon="10.49560833">
        <ele>316.996</ele>
        <time>1970-01-01T01:00:00Z</time>
      </trkpt>
      <trkpt lat="63.3911995" lon="10.495638">
        <ele>317.301</ele>
        <time>1970-01-01T01:00:00Z</time>
      </trkpt>
      <trkpt lat="63.39118717" lon="10.49566717">
        <ele>317.301</ele>
        <time>1970-01-01T01:00:00Z</time>
      </trkpt>
      <trkpt lat="63.39117467" lon="10.49569617">
        <ele>317.605</ele>
        <time>1970-01-01T01:00:00Z</time>
      </trkpt>
      <trkpt lat="63.391162" lon="10.49572683">
        <ele>317.605</ele>
        <time>1970-01-01T01:00:00Z</time>
      </trkpt>
      <trkpt lat="63.3911495" lon="10.49576133">
        <ele>317.91</ele>
        <time>1970-01-01T01:00:00Z</time>
      </trkpt>
      <trkpt lat="63.39113533" lon="10.4957985">
        <ele>317.91</ele>
        <time>1970-01-01T01:00:00Z</time>
      </trkpt>
      <trkpt lat="63.39112217" lon="10.495827">
        <ele>318.215</ele>
        <time>1970-01-01T01:00:00Z</time>
      </trkpt>
      <trkpt lat="63.39110783" lon="10.49585517">
        <ele>318.215</ele>
        <time>1970-01-01T01:00:00Z</time>
      </trkpt>
      <trkpt lat="63.39109333" lon="10.49588083">
        <ele>318.367</ele>
        <time>1970-01-01T01:00:00Z</time>
      </trkpt>
      <trkpt lat="63.39107717" lon="10.495913">
        <ele>318.367</ele>
        <time>1970-01-01T01:00:00Z</time>
      </trkpt>
      <trkpt lat="63.39106117" lon="10.49594367">
        <ele>318.52</ele>
        <time>1970-01-01T01:00:00Z</time>
      </trkpt>
      <trkpt lat="63.3910455" lon="10.49597483">
        <ele>318.52</ele>
        <time>1970-01-01T01:00:00Z</time>
      </trkpt>
      <trkpt lat="63.39103183" lon="10.49600117">
        <ele>318.672</ele>
        <time>1970-01-01T01:00:00Z</time>
      </trkpt>
      <trkpt lat="63.39101683" lon="10.4960225">
        <ele>318.672</ele>
        <time>1970-01-01T01:00:00Z</time>
      </trkpt>
      <trkpt lat="63.39100217" lon="10.496039">
        <ele>318.825</ele>
        <time>1970-01-01T01:00:00Z</time>
      </trkpt>
      <trkpt lat="63.39098717" lon="10.4960575">
        <ele>318.825</ele>
        <time>1970-01-01T01:00:00Z</time>
      </trkpt>
      <trkpt lat="63.39097133" lon="10.49608033">
        <ele>319.129</ele>
        <time>1970-01-01T01:00:00Z</time>
      </trkpt>
      <trkpt lat="63.39095133" lon="10.4961">
        <ele>319.129</ele>
        <time>1970-01-01T01:00:00Z</time>
      </trkpt>
      <trkpt lat="63.39092717" lon="10.49611917">
        <ele>319.282</ele>
        <time>1970-01-01T01:00:00Z</time>
      </trkpt>
      <trkpt lat="63.39090317" lon="10.496137">
        <ele>319.282</ele>
        <time>1970-01-01T01:00:00Z</time>
      </trkpt>
      <trkpt lat="63.3908825" lon="10.4961595">
        <ele>319.434</ele>
        <time>1970-01-01T01:00:00Z</time>
      </trkpt>
      <trkpt lat="63.3908665" lon="10.49618217">
        <ele>319.434</ele>
        <time>1970-01-01T01:00:00Z</time>
      </trkpt>
      <trkpt lat="63.3908515" lon="10.4962">
        <ele>319.587</ele>
        <time>1970-01-01T01:00:00Z</time>
      </trkpt>
      <trkpt lat="63.39083467" lon="10.49621717">
        <ele>319.587</ele>
        <time>1970-01-01T01:00:00Z</time>
      </trkpt>
      <trkpt lat="63.390815" lon="10.49623117">
        <ele>319.739</ele>
        <time>1970-01-01T01:00:00Z</time>
      </trkpt>
      <trkpt lat="63.3907945" lon="10.49624283">
        <ele>319.739</ele>
        <time>1970-01-01T01:00:00Z</time>
      </trkpt>
      <trkpt lat="63.39077383" lon="10.496251">
        <ele>320.044</ele>
        <time>1970-01-01T01:00:00Z</time>
      </trkpt>
      <trkpt lat="63.3907525" lon="10.49625083">
        <ele>320.044</ele>
        <time>1970-01-01T01:00:00Z</time>
      </trkpt>
      <trkpt lat="63.39073133" lon="10.4962535">
        <ele>320.501</ele>
        <time>1970-01-01T01:00:00Z</time>
      </trkpt>
      <trkpt lat="63.3907105" lon="10.49625733">
        <ele>320.501</ele>
        <time>1970-01-01T01:00:00Z</time>
      </trkpt>
      <trkpt lat="63.39068917" lon="10.49626783">
        <ele>320.806</ele>
        <time>1970-01-01T01:00:00Z</time>
      </trkpt>
      <trkpt lat="63.3906645" lon="10.49627467">
        <ele>320.806</ele>
        <time>1970-01-01T01:00:00Z</time>
      </trkpt>
      <trkpt lat="63.39063667" lon="10.49627833">
        <ele>321.111</ele>
        <time>1970-01-01T01:00:00Z</time>
      </trkpt>
      <trkpt lat="63.39060833" lon="10.49628283">
        <ele>321.111</ele>
        <time>1970-01-01T01:00:00Z</time>
      </trkpt>
      <trkpt lat="63.39058083" lon="10.4962845">
        <ele>321.568</ele>
        <time>1970-01-01T01:00:00Z</time>
      </trkpt>
      <trkpt lat="63.390557" lon="10.496283">
        <ele>321.568</ele>
        <time>1970-01-01T01:00:00Z</time>
      </trkpt>
      <trkpt lat="63.3905345" lon="10.49628033">
        <ele>321.873</ele>
        <time>1970-01-01T01:00:00Z</time>
      </trkpt>
      <trkpt lat="63.39051283" lon="10.4962785">
        <ele>321.873</ele>
        <time>1970-01-01T01:00:00Z</time>
      </trkpt>
      <trkpt lat="63.39048983" lon="10.49627967">
        <ele>322.178</ele>
        <time>1970-01-01T01:00:00Z</time>
      </trkpt>
      <trkpt lat="63.39046767" lon="10.49628033">
        <ele>322.178</ele>
        <time>1970-01-01T01:00:00Z</time>
      </trkpt>
      <trkpt lat="63.39044717" lon="10.49628117">
        <ele>322.482</ele>
        <time>1970-01-01T01:00:00Z</time>
      </trkpt>
      <trkpt lat="63.39042583" lon="10.496275">
        <ele>322.482</ele>
        <time>1970-01-01T01:00:00Z</time>
      </trkpt>
      <trkpt lat="63.39040567" lon="10.49626533">
        <ele>322.787</ele>
        <time>1970-01-01T01:00:00Z</time>
      </trkpt>
      <trkpt lat="63.39038467" lon="10.496257">
        <ele>322.787</ele>
        <time>1970-01-01T01:00:00Z</time>
      </trkpt>
      <trkpt lat="63.390366" lon="10.49625133">
        <ele>323.092</ele>
        <time>1970-01-01T01:00:00Z</time>
      </trkpt>
      <trkpt lat="63.390347" lon="10.496243">
        <ele>323.092</ele>
        <time>1970-01-01T01:00:00Z</time>
      </trkpt>
      <trkpt lat="63.39032817" lon="10.49623167">
        <ele>323.397</ele>
        <time>1970-01-01T01:00:00Z</time>
      </trkpt>
      <trkpt lat="63.39030833" lon="10.4962205">
        <ele>323.397</ele>
        <time>1970-01-01T01:00:00Z</time>
      </trkpt>
      <trkpt lat="63.39028667" lon="10.49621317">
        <ele>323.702</ele>
        <time>1970-01-01T01:00:00Z</time>
      </trkpt>
      <trkpt lat="63.39026717" lon="10.49620867">
        <ele>323.702</ele>
        <time>1970-01-01T01:00:00Z</time>
      </trkpt>
      <trkpt lat="63.39024683" lon="10.496207">
        <ele>323.854</ele>
        <time>1970-01-01T01:00:00Z</time>
      </trkpt>
      <trkpt lat="63.39022433" lon="10.49620383">
        <ele>323.854</ele>
        <time>1970-01-01T01:00:00Z</time>
      </trkpt>
      <trkpt lat="63.3901985" lon="10.49619983">
        <ele>324.159</ele>
        <time>1970-01-01T01:00:00Z</time>
      </trkpt>
      <trkpt lat="63.39017167" lon="10.49619467">
        <ele>324.159</ele>
        <time>1970-01-01T01:00:00Z</time>
      </trkpt>
      <trkpt lat="63.39014533" lon="10.4961905">
        <ele>324.311</ele>
        <time>1970-01-01T01:00:00Z</time>
      </trkpt>
      <trkpt lat="63.39011917" lon="10.49618617">
        <ele>324.311</ele>
        <time>1970-01-01T01:00:00Z</time>
      </trkpt>
      <trkpt lat="63.3900915" lon="10.4961865">
        <ele>324.464</ele>
        <time>1970-01-01T01:00:00Z</time>
      </trkpt>
      <trkpt lat="63.39006317" lon="10.4961885">
        <ele>324.464</ele>
        <time>1970-01-01T01:00:00Z</time>
      </trkpt>
      <trkpt lat="63.39003517" lon="10.49619517">
        <ele>324.616</ele>
        <time>1970-01-01T01:00:00Z</time>
      </trkpt>
      <trkpt lat="63.39000883" lon="10.49619917">
        <ele>324.616</ele>
        <time>1970-01-01T01:00:00Z</time>
      </trkpt>
      <trkpt lat="63.38998767" lon="10.49620767">
        <ele>324.768</ele>
        <time>1970-01-01T01:00:00Z</time>
      </trkpt>
      <trkpt lat="63.389965" lon="10.49621767">
        <ele>324.768</ele>
        <time>1970-01-01T01:00:00Z</time>
      </trkpt>
      <trkpt lat="63.3899415" lon="10.49623117">
        <ele>324.921</ele>
        <time>1970-01-01T01:00:00Z</time>
      </trkpt>
      <trkpt lat="63.38991483" lon="10.49623917">
        <ele>324.921</ele>
        <time>1970-01-01T01:00:00Z</time>
      </trkpt>
      <trkpt lat="63.389892" lon="10.4962425">
        <ele>324.921</ele>
        <time>1970-01-01T01:00:00Z</time>
      </trkpt>
      <trkpt lat="63.38986883" lon="10.49624367">
        <ele>324.921</ele>
        <time>1970-01-01T01:00:00Z</time>
      </trkpt>
      <trkpt lat="63.3898445" lon="10.496243">
        <ele>325.073</ele>
        <time>1970-01-01T01:00:00Z</time>
      </trkpt>
      <trkpt lat="63.38981433" lon="10.4962415">
        <ele>325.073</ele>
        <time>1970-01-01T01:00:00Z</time>
      </trkpt>
      <trkpt lat="63.38978683" lon="10.49623717">
        <ele>325.073</ele>
        <time>1970-01-01T01:00:00Z</time>
      </trkpt>
      <trkpt lat="63.38975967" lon="10.49623517">
        <ele>325.073</ele>
        <time>1970-01-01T01:00:00Z</time>
      </trkpt>
      <trkpt lat="63.38973533" lon="10.49622783">
        <ele>325.073</ele>
        <time>1970-01-01T01:00:00Z</time>
      </trkpt>
      <trkpt lat="63.389711" lon="10.496223">
        <ele>325.073</ele>
        <time>1970-01-01T01:00:00Z</time>
      </trkpt>
      <trkpt lat="63.38968767" lon="10.49621883">
        <ele>325.073</ele>
        <time>1970-01-01T01:00:00Z</time>
      </trkpt>
      <trkpt lat="63.3896625" lon="10.49622317">
        <ele>325.073</ele>
        <time>1970-01-01T01:00:00Z</time>
      </trkpt>
      <trkpt lat="63.3896375" lon="10.49623183">
        <ele>325.073</ele>
        <time>1970-01-01T01:00:00Z</time>
      </trkpt>
      <trkpt lat="63.38961167" lon="10.49623783">
        <ele>325.073</ele>
        <time>1970-01-01T01:00:00Z</time>
      </trkpt>
      <trkpt lat="63.38958933" lon="10.49623883">
        <ele>325.073</ele>
        <time>1970-01-01T01:00:00Z</time>
      </trkpt>
      <trkpt lat="63.38956417" lon="10.496238">
        <ele>325.073</ele>
        <time>1970-01-01T01:00:00Z</time>
      </trkpt>
      <trkpt lat="63.389541" lon="10.4962415">
        <ele>325.073</ele>
        <time>1970-01-01T01:00:00Z</time>
      </trkpt>
      <trkpt lat="63.389518" lon="10.49625067">
        <ele>325.073</ele>
        <time>1970-01-01T01:00:00Z</time>
      </trkpt>
      <trkpt lat="63.38949717" lon="10.49626033">
        <ele>325.226</ele>
        <time>1970-01-01T01:00:00Z</time>
      </trkpt>
      <trkpt lat="63.38948117" lon="10.49627533">
        <ele>325.226</ele>
        <time>1970-01-01T01:00:00Z</time>
      </trkpt>
      <trkpt lat="63.38946567" lon="10.4962905">
        <ele>325.226</ele>
        <time>1970-01-01T01:00:00Z</time>
      </trkpt>
      <trkpt lat="63.3894515" lon="10.49631033">
        <ele>325.226</ele>
        <time>1970-01-01T01:00:00Z</time>
      </trkpt>
      <trkpt lat="63.38943333" lon="10.49633167">
        <ele>325.378</ele>
        <time>1970-01-01T01:00:00Z</time>
      </trkpt>
      <trkpt lat="63.38941767" lon="10.49636033">
        <ele>325.378</ele>
        <time>1970-01-01T01:00:00Z</time>
      </trkpt>
      <trkpt lat="63.38940333" lon="10.49639767">
        <ele>325.53</ele>
        <time>1970-01-01T01:00:00Z</time>
      </trkpt>
      <trkpt lat="63.38938967" lon="10.49643333">
        <ele>325.53</ele>
        <time>1970-01-01T01:00:00Z</time>
      </trkpt>
      <trkpt lat="63.389372" lon="10.49648133">
        <ele>325.835</ele>
        <time>1970-01-01T01:00:00Z</time>
      </trkpt>
      <trkpt lat="63.389351" lon="10.4965265">
        <ele>325.835</ele>
        <time>1970-01-01T01:00:00Z</time>
      </trkpt>
      <trkpt lat="63.38932567" lon="10.496581">
        <ele>325.988</ele>
        <time>1970-01-01T01:00:00Z</time>
      </trkpt>
      <trkpt lat="63.38929783" lon="10.49663367">
        <ele>325.988</ele>
        <time>1970-01-01T01:00:00Z</time>
      </trkpt>
      <trkpt lat="63.38926333" lon="10.49668833">
        <ele>326.292</ele>
        <time>1970-01-01T01:00:00Z</time>
      </trkpt>
      <trkpt lat="63.389226" lon="10.4967375">
        <ele>326.292</ele>
        <time>1970-01-01T01:00:00Z</time>
      </trkpt>
      <trkpt lat="63.38918217" lon="10.496772">
        <ele>326.445</ele>
        <time>1970-01-01T01:00:00Z</time>
      </trkpt>
      <trkpt lat="63.38913617" lon="10.49679067">
        <ele>326.445</ele>
        <time>1970-01-01T01:00:00Z</time>
      </trkpt>
      <trkpt lat="63.38909083" lon="10.4967975">
        <ele>326.597</ele>
        <time>1970-01-01T01:00:00Z</time>
      </trkpt>
      <trkpt lat="63.38905233" lon="10.49679517">
        <ele>326.597</ele>
        <time>1970-01-01T01:00:00Z</time>
      </trkpt>
      <trkpt lat="63.38902017" lon="10.49678967">
        <ele>326.597</ele>
        <time>1970-01-01T01:00:00Z</time>
      </trkpt>
      <trkpt lat="63.38898983" lon="10.496787">
        <ele>326.597</ele>
        <time>1970-01-01T01:00:00Z</time>
      </trkpt>
      <trkpt lat="63.38895967" lon="10.496787">
        <ele>326.597</ele>
        <time>1970-01-01T01:00:00Z</time>
      </trkpt>
      <trkpt lat="63.38893233" lon="10.4967885">
        <ele>326.597</ele>
        <time>1970-01-01T01:00:00Z</time>
      </trkpt>
      <trkpt lat="63.38890433" lon="10.496789">
        <ele>326.445</ele>
        <time>1970-01-01T01:00:00Z</time>
      </trkpt>
      <trkpt lat="63.3888795" lon="10.49678517">
        <ele>326.445</ele>
        <time>1970-01-01T01:00:00Z</time>
      </trkpt>
      <trkpt lat="63.3888535" lon="10.496782">
        <ele>326.14</ele>
        <time>1970-01-01T01:00:00Z</time>
      </trkpt>
      <trkpt lat="63.38883083" lon="10.49677767">
        <ele>326.14</ele>
        <time>1970-01-01T01:00:00Z</time>
      </trkpt>
      <trkpt lat="63.3888085" lon="10.4967775">
        <ele>325.835</ele>
        <time>1970-01-01T01:00:00Z</time>
      </trkpt>
      <trkpt lat="63.38878667" lon="10.49677783">
        <ele>325.835</ele>
        <time>1970-01-01T01:00:00Z</time>
      </trkpt>
      <trkpt lat="63.38876417" lon="10.49677483">
        <ele>325.53</ele>
        <time>1970-01-01T01:00:00Z</time>
      </trkpt>
      <trkpt lat="63.38873983" lon="10.4967695">
        <ele>325.53</ele>
        <time>1970-01-01T01:00:00Z</time>
      </trkpt>
      <trkpt lat="63.38871667" lon="10.49675833">
        <ele>325.073</ele>
        <time>1970-01-01T01:00:00Z</time>
      </trkpt>
      <trkpt lat="63.38869617" lon="10.49674433">
        <ele>325.073</ele>
        <time>1970-01-01T01:00:00Z</time>
      </trkpt>
      <trkpt lat="63.388678" lon="10.4967265">
        <ele>324.616</ele>
        <time>1970-01-01T01:00:00Z</time>
      </trkpt>
      <trkpt lat="63.38866067" lon="10.49670683">
        <ele>324.616</ele>
        <time>1970-01-01T01:00:00Z</time>
      </trkpt>
      <trkpt lat="63.38864283" lon="10.49668967">
        <ele>324.159</ele>
        <time>1970-01-01T01:00:00Z</time>
      </trkpt>
      <trkpt lat="63.388625" lon="10.496675">
        <ele>324.159</ele>
        <time>1970-01-01T01:00:00Z</time>
      </trkpt>
      <trkpt lat="63.38860717" lon="10.4966605">
        <ele>323.549</ele>
        <time>1970-01-01T01:00:00Z</time>
      </trkpt>
      <trkpt lat="63.3885925" lon="10.49664233">
        <ele>323.549</ele>
        <time>1970-01-01T01:00:00Z</time>
      </trkpt>
      <trkpt lat="63.38857933" lon="10.49662233">
        <ele>322.94</ele>
        <time>1970-01-01T01:00:00Z</time>
      </trkpt>
      <trkpt lat="63.38856583" lon="10.49659767">
        <ele>322.94</ele>
        <time>1970-01-01T01:00:00Z</time>
      </trkpt>
      <trkpt lat="63.388552" lon="10.49656733">
        <ele>322.33</ele>
        <time>1970-01-01T01:00:00Z</time>
      </trkpt>
      <trkpt lat="63.388539" lon="10.49652383">
        <ele>322.33</ele>
        <time>1970-01-01T01:00:00Z</time>
      </trkpt>
      <trkpt lat="63.388525" lon="10.496481">
        <ele>321.72</ele>
        <time>1970-01-01T01:00:00Z</time>
      </trkpt>
      <trkpt lat="63.3885085" lon="10.49644567">
        <ele>321.72</ele>
        <time>1970-01-01T01:00:00Z</time>
      </trkpt>
      <trkpt lat="63.38848933" lon="10.4964215">
        <ele>321.111</ele>
        <time>1970-01-01T01:00:00Z</time>
      </trkpt>
      <trkpt lat="63.38847267" lon="10.49639667">
        <ele>321.111</ele>
        <time>1970-01-01T01:00:00Z</time>
      </trkpt>
      <trkpt lat="63.388456" lon="10.49637133">
        <ele>320.349</ele>
        <time>1970-01-01T01:00:00Z</time>
      </trkpt>
      <trkpt lat="63.38843883" lon="10.49634733">
        <ele>320.349</ele>
        <time>1970-01-01T01:00:00Z</time>
      </trkpt>
      <trkpt lat="63.38842083" lon="10.49632583">
        <ele>319.739</ele>
        <time>1970-01-01T01:00:00Z</time>
      </trkpt>
      <trkpt lat="63.38840567" lon="10.49629683">
        <ele>319.739</ele>
        <time>1970-01-01T01:00:00Z</time>
      </trkpt>
      <trkpt lat="63.38839383" lon="10.49625917">
        <ele>318.977</ele>
        <time>1970-01-01T01:00:00Z</time>
      </trkpt>
      <trkpt lat="63.388382" lon="10.496211">
        <ele>318.977</ele>
        <time>1970-01-01T01:00:00Z</time>
      </trkpt>
      <trkpt lat="63.3883685" lon="10.4961605">
        <ele>318.367</ele>
        <time>1970-01-01T01:00:00Z</time>
      </trkpt>
      <trkpt lat="63.38835433" lon="10.496108">
        <ele>318.367</ele>
        <time>1970-01-01T01:00:00Z</time>
      </trkpt>
      <trkpt lat="63.38833933" lon="10.49606883">
        <ele>317.605</ele>
        <time>1970-01-01T01:00:00Z</time>
      </trkpt>
      <trkpt lat="63.38831783" lon="10.49604583">
        <ele>317.605</ele>
        <time>1970-01-01T01:00:00Z</time>
      </trkpt>
      <trkpt lat="63.38828667" lon="10.496045">
        <ele>316.843</ele>
        <time>1970-01-01T01:00:00Z</time>
      </trkpt>
      <trkpt lat="63.38825433" lon="10.49603833">
        <ele>316.843</ele>
        <time>1970-01-01T01:00:00Z</time>
      </trkpt>
      <trkpt lat="63.38823033" lon="10.4960075">
        <ele>316.081</ele>
        <time>1970-01-01T01:00:00Z</time>
      </trkpt>
      <trkpt lat="63.38821233" lon="10.49594667">
        <ele>316.081</ele>
        <time>1970-01-01T01:00:00Z</time>
      </trkpt>
      <trkpt lat="63.38819933" lon="10.495882">
        <ele>315.472</ele>
        <time>1970-01-01T01:00:00Z</time>
      </trkpt>
      <trkpt lat="63.38818767" lon="10.49581783">
        <ele>315.472</ele>
        <time>1970-01-01T01:00:00Z</time>
      </trkpt>
      <trkpt lat="63.3881795" lon="10.49576383">
        <ele>314.71</ele>
        <time>1970-01-01T01:00:00Z</time>
      </trkpt>
      <trkpt lat="63.38817217" lon="10.49570367">
        <ele>314.71</ele>
        <time>1970-01-01T01:00:00Z</time>
      </trkpt>
      <trkpt lat="63.38816333" lon="10.49565283">
        <ele>313.948</ele>
        <time>1970-01-01T01:00:00Z</time>
      </trkpt>
      <trkpt lat="63.38815233" lon="10.49559833">
        <ele>313.948</ele>
        <time>1970-01-01T01:00:00Z</time>
      </trkpt>
      <trkpt lat="63.388141" lon="10.495546">
        <ele>313.338</ele>
        <time>1970-01-01T01:00:00Z</time>
      </trkpt>
      <trkpt lat="63.38812233" lon="10.49550317">
        <ele>313.338</ele>
        <time>1970-01-01T01:00:00Z</time>
      </trkpt>
      <trkpt lat="63.38809867" lon="10.49547067">
        <ele>312.576</ele>
        <time>1970-01-01T01:00:00Z</time>
      </trkpt>
      <trkpt lat="63.38806783" lon="10.4954475">
        <ele>312.576</ele>
        <time>1970-01-01T01:00:00Z</time>
      </trkpt>
      <trkpt lat="63.38803417" lon="10.495425">
        <ele>311.814</ele>
        <time>1970-01-01T01:00:00Z</time>
      </trkpt>
      <trkpt lat="63.387999" lon="10.4954075">
        <ele>311.814</ele>
        <time>1970-01-01T01:00:00Z</time>
      </trkpt>
      <trkpt lat="63.387964" lon="10.49539617">
        <ele>311.357</ele>
        <time>1970-01-01T01:00:00Z</time>
      </trkpt>
      <trkpt lat="63.3879335" lon="10.495388">
        <ele>311.357</ele>
        <time>1970-01-01T01:00:00Z</time>
      </trkpt>
      <trkpt lat="63.38790833" lon="10.49537733">
        <ele>310.9</ele>
        <time>1970-01-01T01:00:00Z</time>
      </trkpt>
      <trkpt lat="63.38788733" lon="10.495362">
        <ele>310.9</ele>
        <time>1970-01-01T01:00:00Z</time>
      </trkpt>
      <trkpt lat="63.38787067" lon="10.495334">
        <ele>310.443</ele>
        <time>1970-01-01T01:00:00Z</time>
      </trkpt>
      <trkpt lat="63.3878545" lon="10.49530567">
        <ele>310.443</ele>
        <time>1970-01-01T01:00:00Z</time>
      </trkpt>
      <trkpt lat="63.38783883" lon="10.4952755">
        <ele>310.138</ele>
        <time>1970-01-01T01:00:00Z</time>
      </trkpt>
      <trkpt lat="63.3878235" lon="10.49524783">
        <ele>310.138</ele>
        <time>1970-01-01T01:00:00Z</time>
      </trkpt>
      <trkpt lat="63.38781333" lon="10.49521533">
        <ele>309.833</ele>
        <time>1970-01-01T01:00:00Z</time>
      </trkpt>
      <trkpt lat="63.3878085" lon="10.49517867">
        <ele>309.833</ele>
        <time>1970-01-01T01:00:00Z</time>
      </trkpt>
      <trkpt lat="63.387802" lon="10.49514333">
        <ele>309.681</ele>
        <time>1970-01-01T01:00:00Z</time>
      </trkpt>
      <trkpt lat="63.38779067" lon="10.4951125">
        <ele>309.681</ele>
        <time>1970-01-01T01:00:00Z</time>
      </trkpt>
      <trkpt lat="63.38777567" lon="10.4950845">
        <ele>309.528</ele>
        <time>1970-01-01T01:00:00Z</time>
      </trkpt>
      <trkpt lat="63.3877615" lon="10.4950525">
        <ele>309.528</ele>
        <time>1970-01-01T01:00:00Z</time>
      </trkpt>
      <trkpt lat="63.38774867" lon="10.495013">
        <ele>309.528</ele>
        <time>1970-01-01T01:00:00Z</time>
      </trkpt>
      <trkpt lat="63.38773467" lon="10.49497417">
        <ele>309.528</ele>
        <time>1970-01-01T01:00:00Z</time>
      </trkpt>
      <trkpt lat="63.3877205" lon="10.49493517">
        <ele>309.528</ele>
        <time>1970-01-01T01:00:00Z</time>
      </trkpt>
      <trkpt lat="63.38770867" lon="10.49489117">
        <ele>309.528</ele>
        <time>1970-01-01T01:00:00Z</time>
      </trkpt>
      <trkpt lat="63.3877" lon="10.49483467">
        <ele>309.528</ele>
        <time>1970-01-01T01:00:00Z</time>
      </trkpt>
      <trkpt lat="63.38769833" lon="10.49476067">
        <ele>309.528</ele>
        <time>1970-01-01T01:00:00Z</time>
      </trkpt>
      <trkpt lat="63.38770433" lon="10.49467217">
        <ele>309.681</ele>
        <time>1970-01-01T01:00:00Z</time>
      </trkpt>
      <trkpt lat="63.38771283" lon="10.49458667">
        <ele>309.681</ele>
        <time>1970-01-01T01:00:00Z</time>
      </trkpt>
      <trkpt lat="63.3877215" lon="10.49450917">
        <ele>309.528</ele>
        <time>1970-01-01T01:00:00Z</time>
      </trkpt>
      <trkpt lat="63.38772867" lon="10.4944375">
        <ele>309.528</ele>
        <time>1970-01-01T01:00:00Z</time>
      </trkpt>
      <trkpt lat="63.38773267" lon="10.49436317">
        <ele>309.376</ele>
        <time>1970-01-01T01:00:00Z</time>
      </trkpt>
      <trkpt lat="63.387736" lon="10.49428717">
        <ele>309.376</ele>
        <time>1970-01-01T01:00:00Z</time>
      </trkpt>
      <trkpt lat="63.3877405" lon="10.49420983">
        <ele>309.071</ele>
        <time>1970-01-01T01:00:00Z</time>
      </trkpt>
      <trkpt lat="63.3877465" lon="10.49413383">
        <ele>309.071</ele>
        <time>1970-01-01T01:00:00Z</time>
      </trkpt>
      <trkpt lat="63.38775183" lon="10.49405817">
        <ele>308.766</ele>
        <time>1970-01-01T01:00:00Z</time>
      </trkpt>
      <trkpt lat="63.38775367" lon="10.49398883">
        <ele>308.766</ele>
        <time>1970-01-01T01:00:00Z</time>
      </trkpt>
      <trkpt lat="63.38775583" lon="10.49391883">
        <ele>308.157</ele>
        <time>1970-01-01T01:00:00Z</time>
      </trkpt>
      <trkpt lat="63.38775883" lon="10.49383867">
        <ele>308.157</ele>
        <time>1970-01-01T01:00:00Z</time>
      </trkpt>
      <trkpt lat="63.38776467" lon="10.4937565">
        <ele>307.547</ele>
        <time>1970-01-01T01:00:00Z</time>
      </trkpt>
      <trkpt lat="63.387771" lon="10.49367717">
        <ele>307.547</ele>
        <time>1970-01-01T01:00:00Z</time>
      </trkpt>
      <trkpt lat="63.38777883" lon="10.49360767">
        <ele>306.937</ele>
        <time>1970-01-01T01:00:00Z</time>
      </trkpt>
      <trkpt lat="63.387786" lon="10.4935425">
        <ele>306.937</ele>
        <time>1970-01-01T01:00:00Z</time>
      </trkpt>
      <trkpt lat="63.387794" lon="10.493483">
        <ele>306.175</ele>
        <time>1970-01-01T01:00:00Z</time>
      </trkpt>
      <trkpt lat="63.387802" lon="10.493432">
        <ele>306.175</ele>
        <time>1970-01-01T01:00:00Z</time>
      </trkpt>
      <trkpt lat="63.38780617" lon="10.49337867">
        <ele>305.261</ele>
        <time>1970-01-01T01:00:00Z</time>
      </trkpt>
      <trkpt lat="63.387811" lon="10.4933175">
        <ele>305.261</ele>
        <time>1970-01-01T01:00:00Z</time>
      </trkpt>
      <trkpt lat="63.38781417" lon="10.49325217">
        <ele>304.194</ele>
        <time>1970-01-01T01:00:00Z</time>
      </trkpt>
      <trkpt lat="63.387817" lon="10.493193">
        <ele>304.194</ele>
        <time>1970-01-01T01:00:00Z</time>
      </trkpt>
      <trkpt lat="63.38781467" lon="10.49313917">
        <ele>303.127</ele>
        <time>1970-01-01T01:00:00Z</time>
      </trkpt>
      <trkpt lat="63.387806" lon="10.49309383">
        <ele>303.127</ele>
        <time>1970-01-01T01:00:00Z</time>
      </trkpt>
      <trkpt lat="63.38779533" lon="10.49305083">
        <ele>302.06</ele>
        <time>1970-01-01T01:00:00Z</time>
      </trkpt>
      <trkpt lat="63.38778517" lon="10.4930095">
        <ele>302.06</ele>
        <time>1970-01-01T01:00:00Z</time>
      </trkpt>
      <trkpt lat="63.3877745" lon="10.49296133">
        <ele>300.689</ele>
        <time>1970-01-01T01:00:00Z</time>
      </trkpt>
      <trkpt lat="63.387763" lon="10.49291233">
        <ele>300.689</ele>
        <time>1970-01-01T01:00:00Z</time>
      </trkpt>
      <trkpt lat="63.387751" lon="10.492862">
        <ele>299.317</ele>
        <time>1970-01-01T01:00:00Z</time>
      </trkpt>
      <trkpt lat="63.38774383" lon="10.4928145">
        <ele>299.317</ele>
        <time>1970-01-01T01:00:00Z</time>
      </trkpt>
      <trkpt lat="63.3877405" lon="10.49276633">
        <ele>297.946</ele>
        <time>1970-01-01T01:00:00Z</time>
      </trkpt>
      <trkpt lat="63.38773783" lon="10.492722">
        <ele>297.946</ele>
        <time>1970-01-01T01:00:00Z</time>
      </trkpt>
      <trkpt lat="63.38773117" lon="10.492674">
        <ele>296.574</ele>
        <time>1970-01-01T01:00:00Z</time>
      </trkpt>
      <trkpt lat="63.38773117" lon="10.492674">
        <ele>0</ele>
        <time>1970-01-01T01:00:00Z</time>
      </trkpt>
      <trkpt lat="63.38773117" lon="10.492674">
        <ele>0</ele>
        <time>1970-01-01T01:00:00Z</time>
      </trkpt>
      <trkpt lat="63.38773117" lon="10.492674">
        <ele>0</ele>
        <time>1970-01-01T01:00:00Z</time>
      </trkpt>
      <trkpt lat="63.38777383" lon="10.49256">
        <ele>0</ele>
        <time>1970-01-01T01:00:00Z</time>
      </trkpt>
      <trkpt lat="63.38777383" lon="10.49256">
        <ele>0</ele>
        <time>1970-01-01T01:00:00Z</time>
      </trkpt>
      <trkpt lat="63.38777383" lon="10.49256">
        <ele>0</ele>
        <time>1970-01-01T01:00:00Z</time>
      </trkpt>
      <trkpt lat="63.38783917" lon="10.4923095">
        <ele>0</ele>
        <time>1970-01-01T01:00:00Z</time>
      </trkpt>
      <trkpt lat="63.38783917" lon="10.4923095">
        <ele>0</ele>
        <time>1970-01-01T01:00:00Z</time>
      </trkpt>
      <trkpt lat="63.38783917" lon="10.4923095">
        <ele>0</ele>
        <time>1970-01-01T01:00:00Z</time>
      </trkpt>
      <trkpt lat="63.38791733" lon="10.49196583">
        <ele>0</ele>
        <time>1970-01-01T01:00:00Z</time>
      </trkpt>
      <trkpt lat="63.38794917" lon="10.49167817">
        <ele>0</ele>
        <time>1970-01-01T01:00:00Z</time>
      </trkpt>
      <trkpt lat="63.38796317" lon="10.49151333">
        <ele>0</ele>
        <time>1970-01-01T01:00:00Z</time>
      </trkpt>
      <trkpt lat="63.3879635" lon="10.4914405">
        <ele>0</ele>
        <time>1970-01-01T01:00:00Z</time>
      </trkpt>
      <trkpt lat="63.38795233" lon="10.49137617">
        <ele>0</ele>
        <time>1970-01-01T01:00:00Z</time>
      </trkpt>
      <trkpt lat="63.38792367" lon="10.49133117">
        <ele>0</ele>
        <time>1970-01-01T01:00:00Z</time>
      </trkpt>
      <trkpt lat="63.38789817" lon="10.49129633">
        <ele>0</ele>
        <time>1970-01-01T01:00:00Z</time>
      </trkpt>
      <trkpt lat="63.38788183" lon="10.49126067">
        <ele>0</ele>
        <time>1970-01-01T01:00:00Z</time>
      </trkpt>
      <trkpt lat="63.3878795" lon="10.49121567">
        <ele>0</ele>
        <time>1970-01-01T01:00:00Z</time>
      </trkpt>
      <trkpt lat="63.387876" lon="10.49116117">
        <ele>0</ele>
        <time>1970-01-01T01:00:00Z</time>
      </trkpt>
      <trkpt lat="63.38787083" lon="10.49110717">
        <ele>0</ele>
        <time>1970-01-01T01:00:00Z</time>
      </trkpt>
      <trkpt lat="63.38786717" lon="10.491049">
        <ele>0</ele>
        <time>1970-01-01T01:00:00Z</time>
      </trkpt>
      <trkpt lat="63.3878665" lon="10.49098317">
        <ele>0</ele>
        <time>1970-01-01T01:00:00Z</time>
      </trkpt>
      <trkpt lat="63.3878645" lon="10.490915">
        <ele>0</ele>
        <time>1970-01-01T01:00:00Z</time>
      </trkpt>
      <trkpt lat="63.38785867" lon="10.49084767">
        <ele>0</ele>
        <time>1970-01-01T01:00:00Z</time>
      </trkpt>
      <trkpt lat="63.387853" lon="10.490796">
        <ele>0</ele>
        <time>1970-01-01T01:00:00Z</time>
      </trkpt>
      <trkpt lat="63.38784633" lon="10.49074467">
        <ele>0</ele>
        <time>1970-01-01T01:00:00Z</time>
      </trkpt>
      <trkpt lat="63.3878395" lon="10.49069733">
        <ele>0</ele>
        <time>1970-01-01T01:00:00Z</time>
      </trkpt>
      <trkpt lat="63.38783483" lon="10.4906435">
        <ele>0</ele>
        <time>1970-01-01T01:00:00Z</time>
      </trkpt>
      <trkpt lat="63.38783633" lon="10.49058483">
        <ele>0</ele>
        <time>1970-01-01T01:00:00Z</time>
      </trkpt>
      <trkpt lat="63.38784583" lon="10.49052533">
        <ele>0</ele>
        <time>1970-01-01T01:00:00Z</time>
      </trkpt>
      <trkpt lat="63.387854" lon="10.4904605">
        <ele>0</ele>
        <time>1970-01-01T01:00:00Z</time>
      </trkpt>
      <trkpt lat="63.387866" lon="10.49039267">
        <ele>0</ele>
        <time>1970-01-01T01:00:00Z</time>
      </trkpt>
      <trkpt lat="63.38787267" lon="10.49031783">
        <ele>0</ele>
        <time>1970-01-01T01:00:00Z</time>
      </trkpt>
      <trkpt lat="63.387881" lon="10.490246">
        <ele>0</ele>
        <time>1970-01-01T01:00:00Z</time>
      </trkpt>
      <trkpt lat="63.38788517" lon="10.49017317">
        <ele>0</ele>
        <time>1970-01-01T01:00:00Z</time>
      </trkpt>
      <trkpt lat="63.387886" lon="10.49010417">
        <ele>0</ele>
        <time>1970-01-01T01:00:00Z</time>
      </trkpt>
      <trkpt lat="63.38788333" lon="10.49002933">
        <ele>0</ele>
        <time>1970-01-01T01:00:00Z</time>
      </trkpt>
      <trkpt lat="63.38787883" lon="10.48996017">
        <ele>0</ele>
        <time>1970-01-01T01:00:00Z</time>
      </trkpt>
      <trkpt lat="63.38787467" lon="10.48989383">
        <ele>0</ele>
        <time>1970-01-01T01:00:00Z</time>
      </trkpt>
      <trkpt lat="63.38787233" lon="10.489832">
        <ele>0</ele>
        <time>1970-01-01T01:00:00Z</time>
      </trkpt>
      <trkpt lat="63.38786933" lon="10.48976867">
        <ele>0</ele>
        <time>1970-01-01T01:00:00Z</time>
      </trkpt>
      <trkpt lat="63.3878685" lon="10.48969617">
        <ele>0</ele>
        <time>1970-01-01T01:00:00Z</time>
      </trkpt>
      <trkpt lat="63.38787833" lon="10.4896235">
        <ele>0</ele>
        <time>1970-01-01T01:00:00Z</time>
      </trkpt>
      <trkpt lat="63.387894" lon="10.489554">
        <ele>0</ele>
        <time>1970-01-01T01:00:00Z</time>
      </trkpt>
      <trkpt lat="63.38791117" lon="10.4894935">
        <ele>0</ele>
        <time>1970-01-01T01:00:00Z</time>
      </trkpt>
      <trkpt lat="63.38791633" lon="10.4894365">
        <ele>0</ele>
        <time>1970-01-01T01:00:00Z</time>
      </trkpt>
      <trkpt lat="63.38791367" lon="10.48937583">
        <ele>296.574</ele>
        <time>1970-01-01T01:00:00Z</time>
      </trkpt>
      <trkpt lat="63.387908" lon="10.48930767">
        <ele>296.574</ele>
        <time>1970-01-01T01:00:00Z</time>
      </trkpt>
      <trkpt lat="63.38790317" lon="10.48924017">
        <ele>296.574</ele>
        <time>1970-01-01T01:00:00Z</time>
      </trkpt>
      <trkpt lat="63.38789967" lon="10.48917067">
        <ele>296.574</ele>
        <time>1970-01-01T01:00:00Z</time>
      </trkpt>
      <trkpt lat="63.3878975" lon="10.48910483">
        <ele>296.574</ele>
        <time>1970-01-01T01:00:00Z</time>
      </trkpt>
      <trkpt lat="63.38789367" lon="10.48903417">
        <ele>296.574</ele>
        <time>1970-01-01T01:00:00Z</time>
      </trkpt>
      <trkpt lat="63.38789117" lon="10.4889705">
        <ele>296.574</ele>
        <time>1970-01-01T01:00:00Z</time>
      </trkpt>
      <trkpt lat="63.38789" lon="10.48891017">
        <ele>296.574</ele>
        <time>1970-01-01T01:00:00Z</time>
      </trkpt>
      <trkpt lat="63.38788883" lon="10.48884417">
        <ele>296.574</ele>
        <time>1970-01-01T01:00:00Z</time>
      </trkpt>
      <trkpt lat="63.38788833" lon="10.48877517">
        <ele>296.574</ele>
        <time>1970-01-01T01:00:00Z</time>
      </trkpt>
      <trkpt lat="63.3878855" lon="10.4887025">
        <ele>296.574</ele>
        <time>1970-01-01T01:00:00Z</time>
      </trkpt>
      <trkpt lat="63.3878835" lon="10.48863267">
        <ele>296.574</ele>
        <time>1970-01-01T01:00:00Z</time>
      </trkpt>
      <trkpt lat="63.3878825" lon="10.48856633">
        <ele>296.574</ele>
        <time>1970-01-01T01:00:00Z</time>
      </trkpt>
      <trkpt lat="63.38788283" lon="10.4885045">
        <ele>296.574</ele>
        <time>1970-01-01T01:00:00Z</time>
      </trkpt>
      <trkpt lat="63.38788517" lon="10.48845">
        <ele>296.574</ele>
        <time>1970-01-01T01:00:00Z</time>
      </trkpt>
      <trkpt lat="63.387889" lon="10.48839767">
        <ele>296.574</ele>
        <time>1970-01-01T01:00:00Z</time>
      </trkpt>
      <trkpt lat="63.38789083" lon="10.488347">
        <ele>296.574</ele>
        <time>1970-01-01T01:00:00Z</time>
      </trkpt>
      <trkpt lat="63.38789367" lon="10.48829833">
        <ele>296.574</ele>
        <time>1970-01-01T01:00:00Z</time>
      </trkpt>
      <trkpt lat="63.38789483" lon="10.48825433">
        <ele>296.574</ele>
        <time>1970-01-01T01:00:00Z</time>
      </trkpt>
      <trkpt lat="63.387895" lon="10.4882075">
        <ele>296.574</ele>
        <time>1970-01-01T01:00:00Z</time>
      </trkpt>
      <trkpt lat="63.38789367" lon="10.4881595">
        <ele>295.05</ele>
        <time>1970-01-01T01:00:00Z</time>
      </trkpt>
      <trkpt lat="63.3878915" lon="10.48810583">
        <ele>295.05</ele>
        <time>1970-01-01T01:00:00Z</time>
      </trkpt>
      <trkpt lat="63.38789167" lon="10.48805483">
        <ele>293.374</ele>
        <time>1970-01-01T01:00:00Z</time>
      </trkpt>
      <trkpt lat="63.38789017" lon="10.488006">
        <ele>293.374</ele>
        <time>1970-01-01T01:00:00Z</time>
      </trkpt>
      <trkpt lat="63.38788983" lon="10.48795633">
        <ele>291.697</ele>
        <time>1970-01-01T01:00:00Z</time>
      </trkpt>
      <trkpt lat="63.38788917" lon="10.4879045">
        <ele>291.697</ele>
        <time>1970-01-01T01:00:00Z</time>
      </trkpt>
      <trkpt lat="63.38788767" lon="10.48785017">
        <ele>290.173</ele>
        <time>1970-01-01T01:00:00Z</time>
      </trkpt>
      <trkpt lat="63.38788567" lon="10.48779367">
        <ele>290.173</ele>
        <time>1970-01-01T01:00:00Z</time>
      </trkpt>
      <trkpt lat="63.38788667" lon="10.48773783">
        <ele>288.497</ele>
        <time>1970-01-01T01:00:00Z</time>
      </trkpt>
      <trkpt lat="63.38788583" lon="10.48766367">
        <ele>288.497</ele>
        <time>1970-01-01T01:00:00Z</time>
      </trkpt>
      <trkpt lat="63.38788133" lon="10.48759467">
        <ele>286.973</ele>
        <time>1970-01-01T01:00:00Z</time>
      </trkpt>
      <trkpt lat="63.38787617" lon="10.48752583">
        <ele>286.973</ele>
        <time>1970-01-01T01:00:00Z</time>
      </trkpt>
      <trkpt lat="63.3878725" lon="10.48746117">
        <ele>285.296</ele>
        <time>1970-01-01T01:00:00Z</time>
      </trkpt>
      <trkpt lat="63.3878725" lon="10.48739533">
        <ele>285.296</ele>
        <time>1970-01-01T01:00:00Z</time>
      </trkpt>
      <trkpt lat="63.38787283" lon="10.487331">
        <ele>283.62</ele>
        <time>1970-01-01T01:00:00Z</time>
      </trkpt>
      <trkpt lat="63.38787717" lon="10.4872775">
        <ele>283.62</ele>
        <time>1970-01-01T01:00:00Z</time>
      </trkpt>
      <trkpt lat="63.38788367" lon="10.48721783">
        <ele>281.943</ele>
        <time>1970-01-01T01:00:00Z</time>
      </trkpt>
      <trkpt lat="63.38789667" lon="10.48715433">
        <ele>281.943</ele>
        <time>1970-01-01T01:00:00Z</time>
      </trkpt>
      <trkpt lat="63.38791483" lon="10.48709083">
        <ele>280.419</ele>
        <time>1970-01-01T01:00:00Z</time>
      </trkpt>
      <trkpt lat="63.38794383" lon="10.4870265">
        <ele>280.419</ele>
        <time>1970-01-01T01:00:00Z</time>
      </trkpt>
      <trkpt lat="63.38797183" lon="10.486965">
        <ele>278.743</ele>
        <time>1970-01-01T01:00:00Z</time>
      </trkpt>
      <trkpt lat="63.38799517" lon="10.48690517">
        <ele>278.743</ele>
        <time>1970-01-01T01:00:00Z</time>
      </trkpt>
      <trkpt lat="63.38801217" lon="10.48685517">
        <ele>277.371</ele>
        <time>1970-01-01T01:00:00Z</time>
      </trkpt>
      <trkpt lat="63.38802983" lon="10.48679933">
        <ele>277.371</ele>
        <time>1970-01-01T01:00:00Z</time>
      </trkpt>
      <trkpt lat="63.388049" lon="10.48674133">
        <ele>275.847</ele>
        <time>1970-01-01T01:00:00Z</time>
      </trkpt>
      <trkpt lat="63.38806333" lon="10.48667817">
        <ele>275.847</ele>
        <time>1970-01-01T01:00:00Z</time>
      </trkpt>
      <trkpt lat="63.38807083" lon="10.48662183">
        <ele>274.476</ele>
        <time>1970-01-01T01:00:00Z</time>
      </trkpt>
      <trkpt lat="63.388077" lon="10.48656867">
        <ele>274.476</ele>
        <time>1970-01-01T01:00:00Z</time>
      </trkpt>
      <trkpt lat="63.38807917" lon="10.48651383">
        <ele>273.257</ele>
        <time>1970-01-01T01:00:00Z</time>
      </trkpt>
      <trkpt lat="63.38807983" lon="10.48645517">
        <ele>273.257</ele>
        <time>1970-01-01T01:00:00Z</time>
      </trkpt>
      <trkpt lat="63.38807783" lon="10.48639567">
        <ele>272.037</ele>
        <time>1970-01-01T01:00:00Z</time>
      </trkpt>
      <trkpt lat="63.38807767" lon="10.486336">
        <ele>272.037</ele>
        <time>1970-01-01T01:00:00Z</time>
      </trkpt>
      <trkpt lat="63.3880765" lon="10.48628083">
        <ele>270.818</ele>
        <time>1970-01-01T01:00:00Z</time>
      </trkpt>
      <trkpt lat="63.388073" lon="10.4862265">
        <ele>270.818</ele>
        <time>1970-01-01T01:00:00Z</time>
      </trkpt>
      <trkpt lat="63.3880655" lon="10.4861665">
        <ele>269.599</ele>
        <time>1970-01-01T01:00:00Z</time>
      </trkpt>
      <trkpt lat="63.38805617" lon="10.48609967">
        <ele>269.599</ele>
        <time>1970-01-01T01:00:00Z</time>
      </trkpt>
      <trkpt lat="63.38804667" lon="10.48603283">
        <ele>268.38</ele>
        <time>1970-01-01T01:00:00Z</time>
      </trkpt>
      <trkpt lat="63.3880395" lon="10.48597833">
        <ele>268.38</ele>
        <time>1970-01-01T01:00:00Z</time>
      </trkpt>
      <trkpt lat="63.38803467" lon="10.48592783">
        <ele>267.16</ele>
        <time>1970-01-01T01:00:00Z</time>
      </trkpt>
      <trkpt lat="63.388032" lon="10.485876">
        <ele>267.16</ele>
        <time>1970-01-01T01:00:00Z</time>
      </trkpt>
      <trkpt lat="63.3880325" lon="10.48581633">
        <ele>265.941</ele>
        <time>1970-01-01T01:00:00Z</time>
      </trkpt>
      <trkpt lat="63.38803567" lon="10.48575283">
        <ele>265.941</ele>
        <time>1970-01-01T01:00:00Z</time>
      </trkpt>
      <trkpt lat="63.38804033" lon="10.48569233">
        <ele>264.722</ele>
        <time>1970-01-01T01:00:00Z</time>
      </trkpt>
      <trkpt lat="63.388042" lon="10.48563783">
        <ele>264.722</ele>
        <time>1970-01-01T01:00:00Z</time>
      </trkpt>
      <trkpt lat="63.38804367" lon="10.485587">
        <ele>263.655</ele>
        <time>1970-01-01T01:00:00Z</time>
      </trkpt>
      <trkpt lat="63.38804817" lon="10.485539">
        <ele>263.655</ele>
        <time>1970-01-01T01:00:00Z</time>
      </trkpt>
      <trkpt lat="63.38805333" lon="10.48549633">
        <ele>262.588</ele>
        <time>1970-01-01T01:00:00Z</time>
      </trkpt>
      <trkpt lat="63.388057" lon="10.4854545">
        <ele>262.588</ele>
        <time>1970-01-01T01:00:00Z</time>
      </trkpt>
      <trkpt lat="63.3880575" lon="10.485413">
        <ele>261.522</ele>
        <time>1970-01-01T01:00:00Z</time>
      </trkpt>
      <trkpt lat="63.38805883" lon="10.4853655">
        <ele>261.522</ele>
        <time>1970-01-01T01:00:00Z</time>
      </trkpt>
      <trkpt lat="63.38805733" lon="10.48532167">
        <ele>260.607</ele>
        <time>1970-01-01T01:00:00Z</time>
      </trkpt>
      <trkpt lat="63.38805433" lon="10.48527533">
        <ele>260.607</ele>
        <time>1970-01-01T01:00:00Z</time>
      </trkpt>
      <trkpt lat="63.38804933" lon="10.485229">
        <ele>259.693</ele>
        <time>1970-01-01T01:00:00Z</time>
      </trkpt>
      <trkpt lat="63.38804667" lon="10.48518383">
        <ele>259.693</ele>
        <time>1970-01-01T01:00:00Z</time>
      </trkpt>
      <trkpt lat="63.3880455" lon="10.48514333">
        <ele>258.778</ele>
        <time>1970-01-01T01:00:00Z</time>
      </trkpt>
      <trkpt lat="63.38805167" lon="10.48511017">
        <ele>258.778</ele>
        <time>1970-01-01T01:00:00Z</time>
      </trkpt>
      <trkpt lat="63.38805783" lon="10.48507417">
        <ele>258.016</ele>
        <time>1970-01-01T01:00:00Z</time>
      </trkpt>
      <trkpt lat="63.38806283" lon="10.4850305">
        <ele>258.016</ele>
        <time>1970-01-01T01:00:00Z</time>
      </trkpt>
      <trkpt lat="63.38806367" lon="10.48498233">
        <ele>257.254</ele>
        <time>1970-01-01T01:00:00Z</time>
      </trkpt>
      <trkpt lat="63.388064" lon="10.4849325">
        <ele>257.254</ele>
        <time>1970-01-01T01:00:00Z</time>
      </trkpt>
      <trkpt lat="63.3880635" lon="10.484887">
        <ele>256.645</ele>
        <time>1970-01-01T01:00:00Z</time>
      </trkpt>
      <trkpt lat="63.38806233" lon="10.48484517">
        <ele>256.645</ele>
        <time>1970-01-01T01:00:00Z</time>
      </trkpt>
      <trkpt lat="63.38806283" lon="10.484807">
        <ele>256.035</ele>
        <time>1970-01-01T01:00:00Z</time>
      </trkpt>
      <trkpt lat="63.38806333" lon="10.484768">
        <ele>256.035</ele>
        <time>1970-01-01T01:00:00Z</time>
      </trkpt>
      <trkpt lat="63.38806133" lon="10.48472033">
        <ele>255.425</ele>
        <time>1970-01-01T01:00:00Z</time>
      </trkpt>
      <trkpt lat="63.388058" lon="10.48466683">
        <ele>255.425</ele>
        <time>1970-01-01T01:00:00Z</time>
      </trkpt>
      <trkpt lat="63.3880555" lon="10.48460983">
        <ele>254.968</ele>
        <time>1970-01-01T01:00:00Z</time>
      </trkpt>
      <trkpt lat="63.38805333" lon="10.4845565">
        <ele>254.968</ele>
        <time>1970-01-01T01:00:00Z</time>
      </trkpt>
      <trkpt lat="63.38804933" lon="10.48451533">
        <ele>254.511</ele>
        <time>1970-01-01T01:00:00Z</time>
      </trkpt>
      <trkpt lat="63.38804433" lon="10.4844785">
        <ele>254.511</ele>
        <time>1970-01-01T01:00:00Z</time>
      </trkpt>
      <trkpt lat="63.38803917" lon="10.48444533">
        <ele>254.054</ele>
        <time>1970-01-01T01:00:00Z</time>
      </trkpt>
      <trkpt lat="63.3880355" lon="10.48440583">
        <ele>254.054</ele>
        <time>1970-01-01T01:00:00Z</time>
      </trkpt>
      <trkpt lat="63.38803183" lon="10.48436417">
        <ele>253.749</ele>
        <time>1970-01-01T01:00:00Z</time>
      </trkpt>
      <trkpt lat="63.38802667" lon="10.4843165">
        <ele>253.749</ele>
        <time>1970-01-01T01:00:00Z</time>
      </trkpt>
      <trkpt lat="63.38801967" lon="10.48426317">
        <ele>253.444</ele>
        <time>1970-01-01T01:00:00Z</time>
      </trkpt>
      <trkpt lat="63.388011" lon="10.48420867">
        <ele>253.444</ele>
        <time>1970-01-01T01:00:00Z</time>
      </trkpt>
      <trkpt lat="63.38800383" lon="10.484158">
        <ele>253.292</ele>
        <time>1970-01-01T01:00:00Z</time>
      </trkpt>
      <trkpt lat="63.38799833" lon="10.48410917">
        <ele>253.292</ele>
        <time>1970-01-01T01:00:00Z</time>
      </trkpt>
      <trkpt lat="63.38799317" lon="10.48405917">
        <ele>252.987</ele>
        <time>1970-01-01T01:00:00Z</time>
      </trkpt>
      <trkpt lat="63.38798933" lon="10.48400483">
        <ele>252.987</ele>
        <time>1970-01-01T01:00:00Z</time>
      </trkpt>
      <trkpt lat="63.38798533" lon="10.48394983">
        <ele>252.835</ele>
        <time>1970-01-01T01:00:00Z</time>
      </trkpt>
      <trkpt lat="63.38798333" lon="10.483899">
        <ele>252.835</ele>
        <time>1970-01-01T01:00:00Z</time>
      </trkpt>
      <trkpt lat="63.38797783" lon="10.48385333">
        <ele>252.682</ele>
        <time>1970-01-01T01:00:00Z</time>
      </trkpt>
      <trkpt lat="63.387973" lon="10.48380833">
        <ele>252.682</ele>
        <time>1970-01-01T01:00:00Z</time>
      </trkpt>
      <trkpt lat="63.38796167" lon="10.48375883">
        <ele>252.682</ele>
        <time>1970-01-01T01:00:00Z</time>
      </trkpt>
      <trkpt lat="63.38795317" lon="10.48370867">
        <ele>252.682</ele>
        <time>1970-01-01T01:00:00Z</time>
      </trkpt>
      <trkpt lat="63.38794617" lon="10.4836585">
        <ele>252.53</ele>
        <time>1970-01-01T01:00:00Z</time>
      </trkpt>
      <trkpt lat="63.38794417" lon="10.483606">
        <ele>252.53</ele>
        <time>1970-01-01T01:00:00Z</time>
      </trkpt>
      <trkpt lat="63.387939" lon="10.48355217">
        <ele>252.377</ele>
        <time>1970-01-01T01:00:00Z</time>
      </trkpt>
      <trkpt lat="63.38793083" lon="10.483499">
        <ele>252.377</ele>
        <time>1970-01-01T01:00:00Z</time>
      </trkpt>
      <trkpt lat="63.3879255" lon="10.48344983">
        <ele>252.377</ele>
        <time>1970-01-01T01:00:00Z</time>
      </trkpt>
      <trkpt lat="63.38792283" lon="10.483399">
        <ele>252.377</ele>
        <time>1970-01-01T01:00:00Z</time>
      </trkpt>
      <trkpt lat="63.38792283" lon="10.4833445">
        <ele>252.225</ele>
        <time>1970-01-01T01:00:00Z</time>
      </trkpt>
      <trkpt lat="63.38792233" lon="10.4832915">
        <ele>252.225</ele>
        <time>1970-01-01T01:00:00Z</time>
      </trkpt>
      <trkpt lat="63.3879245" lon="10.48323933">
        <ele>252.073</ele>
        <time>1970-01-01T01:00:00Z</time>
      </trkpt>
      <trkpt lat="63.38792433" lon="10.48318783">
        <ele>252.073</ele>
        <time>1970-01-01T01:00:00Z</time>
      </trkpt>
      <trkpt lat="63.38792417" lon="10.48313583">
        <ele>252.073</ele>
        <time>1970-01-01T01:00:00Z</time>
      </trkpt>
      <trkpt lat="63.38792333" lon="10.48307733">
        <ele>252.073</ele>
        <time>1970-01-01T01:00:00Z</time>
      </trkpt>
      <trkpt lat="63.38791983" lon="10.48302067">
        <ele>251.92</ele>
        <time>1970-01-01T01:00:00Z</time>
      </trkpt>
      <trkpt lat="63.3879105" lon="10.482957">
        <ele>251.92</ele>
        <time>1970-01-01T01:00:00Z</time>
      </trkpt>
      <trkpt lat="63.38789683" lon="10.48289717">
        <ele>251.92</ele>
        <time>1970-01-01T01:00:00Z</time>
      </trkpt>
      <trkpt lat="63.38788733" lon="10.4828415">
        <ele>251.92</ele>
        <time>1970-01-01T01:00:00Z</time>
      </trkpt>
      <trkpt lat="63.38788283" lon="10.4827855">
        <ele>251.768</ele>
        <time>1970-01-01T01:00:00Z</time>
      </trkpt>
      <trkpt lat="63.38788033" lon="10.48272167">
        <ele>251.768</ele>
        <time>1970-01-01T01:00:00Z</time>
      </trkpt>
      <trkpt lat="63.3878775" lon="10.48264533">
        <ele>251.463</ele>
        <time>1970-01-01T01:00:00Z</time>
      </trkpt>
      <trkpt lat="63.38788033" lon="10.48256067">
        <ele>251.463</ele>
        <time>1970-01-01T01:00:00Z</time>
      </trkpt>
      <trkpt lat="63.387893" lon="10.482474">
        <ele>251.311</ele>
        <time>1970-01-01T01:00:00Z</time>
      </trkpt>
      <trkpt lat="63.38790317" lon="10.48239567">
        <ele>251.311</ele>
        <time>1970-01-01T01:00:00Z</time>
      </trkpt>
      <trkpt lat="63.387912" lon="10.48232317">
        <ele>250.853</ele>
        <time>1970-01-01T01:00:00Z</time>
      </trkpt>
      <trkpt lat="63.38792117" lon="10.48225633">
        <ele>250.853</ele>
        <time>1970-01-01T01:00:00Z</time>
      </trkpt>
      <trkpt lat="63.38792783" lon="10.48218933">
        <ele>250.549</ele>
        <time>1970-01-01T01:00:00Z</time>
      </trkpt>
      <trkpt lat="63.38792583" lon="10.48212967">
        <ele>250.549</ele>
        <time>1970-01-01T01:00:00Z</time>
      </trkpt>
      <trkpt lat="63.3879095" lon="10.4820775">
        <ele>250.244</ele>
        <time>1970-01-01T01:00:00Z</time>
      </trkpt>
      <trkpt lat="63.38789517" lon="10.48202833">
        <ele>250.244</ele>
        <time>1970-01-01T01:00:00Z</time>
      </trkpt>
      <trkpt lat="63.38788167" lon="10.48198417">
        <ele>249.939</ele>
        <time>1970-01-01T01:00:00Z</time>
      </trkpt>
      <trkpt lat="63.3878695" lon="10.48194183">
        <ele>249.939</ele>
        <time>1970-01-01T01:00:00Z</time>
      </trkpt>
      <trkpt lat="63.38785883" lon="10.48190083">
        <ele>249.634</ele>
        <time>1970-01-01T01:00:00Z</time>
      </trkpt>
      <trkpt lat="63.38784917" lon="10.48185683">
        <ele>249.634</ele>
        <time>1970-01-01T01:00:00Z</time>
      </trkpt>
      <trkpt lat="63.38784217" lon="10.4818125">
        <ele>249.177</ele>
        <time>1970-01-01T01:00:00Z</time>
      </trkpt>
      <trkpt lat="63.3878315" lon="10.481769">
        <ele>249.177</ele>
        <time>1970-01-01T01:00:00Z</time>
      </trkpt>
      <trkpt lat="63.38782017" lon="10.48172833">
        <ele>248.872</ele>
        <time>1970-01-01T01:00:00Z</time>
      </trkpt>
      <trkpt lat="63.38780817" lon="10.4816925">
        <ele>248.872</ele>
        <time>1970-01-01T01:00:00Z</time>
      </trkpt>
      <trkpt lat="63.38779833" lon="10.4816575">
        <ele>248.567</ele>
        <time>1970-01-01T01:00:00Z</time>
      </trkpt>
      <trkpt lat="63.3877895" lon="10.481622">
        <ele>248.567</ele>
        <time>1970-01-01T01:00:00Z</time>
      </trkpt>
      <trkpt lat="63.38777767" lon="10.4815755">
        <ele>248.11</ele>
        <time>1970-01-01T01:00:00Z</time>
      </trkpt>
      <trkpt lat="63.38776317" lon="10.4815225">
        <ele>248.11</ele>
        <time>1970-01-01T01:00:00Z</time>
      </trkpt>
      <trkpt lat="63.3877455" lon="10.48146333">
        <ele>247.805</ele>
        <time>1970-01-01T01:00:00Z</time>
      </trkpt>
      <trkpt lat="63.38772767" lon="10.48140183">
        <ele>247.805</ele>
        <time>1970-01-01T01:00:00Z</time>
      </trkpt>
      <trkpt lat="63.387711" lon="10.4813435">
        <ele>247.348</ele>
        <time>1970-01-01T01:00:00Z</time>
      </trkpt>
      <trkpt lat="63.387696" lon="10.4812925">
        <ele>247.348</ele>
        <time>1970-01-01T01:00:00Z</time>
      </trkpt>
      <trkpt lat="63.387685" lon="10.48124733">
        <ele>246.739</ele>
        <time>1970-01-01T01:00:00Z</time>
      </trkpt>
      <trkpt lat="63.38767733" lon="10.48120217">
        <ele>246.739</ele>
        <time>1970-01-01T01:00:00Z</time>
      </trkpt>
      <trkpt lat="63.3876725" lon="10.481156">
        <ele>246.129</ele>
        <time>1970-01-01T01:00:00Z</time>
      </trkpt>
      <trkpt lat="63.38766867" lon="10.48110967">
        <ele>246.129</ele>
        <time>1970-01-01T01:00:00Z</time>
      </trkpt>
      <trkpt lat="63.38766767" lon="10.481061">
        <ele>245.519</ele>
        <time>1970-01-01T01:00:00Z</time>
      </trkpt>
      <trkpt lat="63.38766733" lon="10.48100633">
        <ele>245.519</ele>
        <time>1970-01-01T01:00:00Z</time>
      </trkpt>
      <trkpt lat="63.38767017" lon="10.48094417">
        <ele>244.91</ele>
        <time>1970-01-01T01:00:00Z</time>
      </trkpt>
      <trkpt lat="63.38767733" lon="10.48087217">
        <ele>244.91</ele>
        <time>1970-01-01T01:00:00Z</time>
      </trkpt>
      <trkpt lat="63.387685" lon="10.48080083">
        <ele>244.148</ele>
        <time>1970-01-01T01:00:00Z</time>
      </trkpt>
      <trkpt lat="63.38769767" lon="10.48073083">
        <ele>244.148</ele>
        <time>1970-01-01T01:00:00Z</time>
      </trkpt>
      <trkpt lat="63.38770817" lon="10.480667">
        <ele>243.386</ele>
        <time>1970-01-01T01:00:00Z</time>
      </trkpt>
      <trkpt lat="63.38771817" lon="10.4806045">
        <ele>243.386</ele>
        <time>1970-01-01T01:00:00Z</time>
      </trkpt>
      <trkpt lat="63.3877215" lon="10.48054883">
        <ele>242.624</ele>
        <time>1970-01-01T01:00:00Z</time>
      </trkpt>
      <trkpt lat="63.387724" lon="10.48049333">
        <ele>242.624</ele>
        <time>1970-01-01T01:00:00Z</time>
      </trkpt>
      <trkpt lat="63.38772633" lon="10.480435">
        <ele>242.014</ele>
        <time>1970-01-01T01:00:00Z</time>
      </trkpt>
      <trkpt lat="63.38772683" lon="10.48037517">
        <ele>242.014</ele>
        <time>1970-01-01T01:00:00Z</time>
      </trkpt>
      <trkpt lat="63.38771967" lon="10.48031283">
        <ele>241.252</ele>
        <time>1970-01-01T01:00:00Z</time>
      </trkpt>
      <trkpt lat="63.38771133" lon="10.48025617">
        <ele>241.252</ele>
        <time>1970-01-01T01:00:00Z</time>
      </trkpt>
      <trkpt lat="63.3877065" lon="10.480198">
        <ele>240.643</ele>
        <time>1970-01-01T01:00:00Z</time>
      </trkpt>
      <trkpt lat="63.38770767" lon="10.48014683">
        <ele>240.643</ele>
        <time>1970-01-01T01:00:00Z</time>
      </trkpt>
      <trkpt lat="63.38770733" lon="10.48009317">
        <ele>240.033</ele>
        <time>1970-01-01T01:00:00Z</time>
      </trkpt>
      <trkpt lat="63.387705" lon="10.480043">
        <ele>240.033</ele>
        <time>1970-01-01T01:00:00Z</time>
      </trkpt>
      <trkpt lat="63.38769933" lon="10.4799925">
        <ele>239.423</ele>
        <time>1970-01-01T01:00:00Z</time>
      </trkpt>
      <trkpt lat="63.3876975" lon="10.47994183">
        <ele>239.423</ele>
        <time>1970-01-01T01:00:00Z</time>
      </trkpt>
      <trkpt lat="63.387693" lon="10.47989233">
        <ele>238.966</ele>
        <time>1970-01-01T01:00:00Z</time>
      </trkpt>
      <trkpt lat="63.38768983" lon="10.47984083">
        <ele>238.966</ele>
        <time>1970-01-01T01:00:00Z</time>
      </trkpt>
      <trkpt lat="63.38768467" lon="10.47979167">
        <ele>238.356</ele>
        <time>1970-01-01T01:00:00Z</time>
      </trkpt>
      <trkpt lat="63.38768083" lon="10.47974033">
        <ele>238.356</ele>
        <time>1970-01-01T01:00:00Z</time>
      </trkpt>
      <trkpt lat="63.387675" lon="10.47968733">
        <ele>237.899</ele>
        <time>1970-01-01T01:00:00Z</time>
      </trkpt>
      <trkpt lat="63.387667" lon="10.479635">
        <ele>237.899</ele>
        <time>1970-01-01T01:00:00Z</time>
      </trkpt>
      <trkpt lat="63.38765567" lon="10.4795815">
        <ele>237.29</ele>
        <time>1970-01-01T01:00:00Z</time>
      </trkpt>
      <trkpt lat="63.38765483" lon="10.4795235">
        <ele>237.29</ele>
        <time>1970-01-01T01:00:00Z</time>
      </trkpt>
      <trkpt lat="63.38765933" lon="10.47946367">
        <ele>236.68</ele>
        <time>1970-01-01T01:00:00Z</time>
      </trkpt>
      <trkpt lat="63.38767333" lon="10.47940433">
        <ele>236.68</ele>
        <time>1970-01-01T01:00:00Z</time>
      </trkpt>
      <trkpt lat="63.3876905" lon="10.47934517">
        <ele>236.223</ele>
        <time>1970-01-01T01:00:00Z</time>
      </trkpt>
      <trkpt lat="63.38770967" lon="10.47928867">
        <ele>236.223</ele>
        <time>1970-01-01T01:00:00Z</time>
      </trkpt>
      <trkpt lat="63.38772783" lon="10.47923167">
        <ele>235.766</ele>
        <time>1970-01-01T01:00:00Z</time>
      </trkpt>
      <trkpt lat="63.3877435" lon="10.479185">
        <ele>235.766</ele>
        <time>1970-01-01T01:00:00Z</time>
      </trkpt>
      <trkpt lat="63.3877595" lon="10.47913833">
        <ele>235.308</ele>
        <time>1970-01-01T01:00:00Z</time>
      </trkpt>
      <trkpt lat="63.38777" lon="10.47909433">
        <ele>235.308</ele>
        <time>1970-01-01T01:00:00Z</time>
      </trkpt>
      <trkpt lat="63.38777817" lon="10.47904483">
        <ele>235.156</ele>
        <time>1970-01-01T01:00:00Z</time>
      </trkpt>
      <trkpt lat="63.3877825" lon="10.47898967">
        <ele>235.156</ele>
        <time>1970-01-01T01:00:00Z</time>
      </trkpt>
      <trkpt lat="63.38778733" lon="10.478933">
        <ele>234.851</ele>
        <time>1970-01-01T01:00:00Z</time>
      </trkpt>
      <trkpt lat="63.38778867" lon="10.4788805">
        <ele>234.851</ele>
        <time>1970-01-01T01:00:00Z</time>
      </trkpt>
      <trkpt lat="63.38779" lon="10.478831">
        <ele>234.699</ele>
        <time>1970-01-01T01:00:00Z</time>
      </trkpt>
      <trkpt lat="63.38779367" lon="10.47878383">
        <ele>234.699</ele>
        <time>1970-01-01T01:00:00Z</time>
      </trkpt>
      <trkpt lat="63.387798" lon="10.47873917">
        <ele>234.699</ele>
        <time>1970-01-01T01:00:00Z</time>
      </trkpt>
      <trkpt lat="63.38780133" lon="10.47869683">
        <ele>234.699</ele>
        <time>1970-01-01T01:00:00Z</time>
      </trkpt>
      <trkpt lat="63.387805" lon="10.478658">
        <ele>234.546</ele>
        <time>1970-01-01T01:00:00Z</time>
      </trkpt>
      <trkpt lat="63.38781083" lon="10.47861283">
        <ele>234.546</ele>
        <time>1970-01-01T01:00:00Z</time>
      </trkpt>
      <trkpt lat="63.38781583" lon="10.47857117">
        <ele>234.546</ele>
        <time>1970-01-01T01:00:00Z</time>
      </trkpt>
      <trkpt lat="63.38781817" lon="10.47852333">
        <ele>234.546</ele>
        <time>1970-01-01T01:00:00Z</time>
      </trkpt>
      <trkpt lat="63.38781933" lon="10.47847783">
        <ele>234.394</ele>
        <time>1970-01-01T01:00:00Z</time>
      </trkpt>
      <trkpt lat="63.3878225" lon="10.47842967">
        <ele>234.394</ele>
        <time>1970-01-01T01:00:00Z</time>
      </trkpt>
      <trkpt lat="63.38782567" lon="10.4783815">
        <ele>234.394</ele>
        <time>1970-01-01T01:00:00Z</time>
      </trkpt>
      <trkpt lat="63.387826" lon="10.47833333">
        <ele>234.394</ele>
        <time>1970-01-01T01:00:00Z</time>
      </trkpt>
      <trkpt lat="63.387825" lon="10.47828267">
        <ele>234.394</ele>
        <time>1970-01-01T01:00:00Z</time>
      </trkpt>
      <trkpt lat="63.387825" lon="10.47823417">
        <ele>234.394</ele>
        <time>1970-01-01T01:00:00Z</time>
      </trkpt>
      <trkpt lat="63.387826" lon="10.47818967">
        <ele>234.394</ele>
        <time>1970-01-01T01:00:00Z</time>
      </trkpt>
      <trkpt lat="63.38782583" lon="10.4781445">
        <ele>234.394</ele>
        <time>1970-01-01T01:00:00Z</time>
      </trkpt>
      <trkpt lat="63.38782467" lon="10.4780985">
        <ele>234.546</ele>
        <time>1970-01-01T01:00:00Z</time>
      </trkpt>
      <trkpt lat="63.387823" lon="10.47804883">
        <ele>234.546</ele>
        <time>1970-01-01T01:00:00Z</time>
      </trkpt>
      <trkpt lat="63.3878225" lon="10.47799967">
        <ele>234.546</ele>
        <time>1970-01-01T01:00:00Z</time>
      </trkpt>
      <trkpt lat="63.38782483" lon="10.47795017">
        <ele>234.546</ele>
        <time>1970-01-01T01:00:00Z</time>
      </trkpt>
      <trkpt lat="63.38782617" lon="10.4779015">
        <ele>234.699</ele>
        <time>1970-01-01T01:00:00Z</time>
      </trkpt>
      <trkpt lat="63.38782333" lon="10.47785283">
        <ele>234.699</ele>
        <time>1970-01-01T01:00:00Z</time>
      </trkpt>
      <trkpt lat="63.38781733" lon="10.47780067">
        <ele>234.851</ele>
        <time>1970-01-01T01:00:00Z</time>
      </trkpt>
      <trkpt lat="63.38781033" lon="10.47774383">
        <ele>234.851</ele>
        <time>1970-01-01T01:00:00Z</time>
      </trkpt>
      <trkpt lat="63.3878035" lon="10.47767967">
        <ele>234.851</ele>
        <time>1970-01-01T01:00:00Z</time>
      </trkpt>
      <trkpt lat="63.387792" lon="10.4776135">
        <ele>234.851</ele>
        <time>1970-01-01T01:00:00Z</time>
      </trkpt>
      <trkpt lat="63.38777367" lon="10.4775375">
        <ele>234.851</ele>
        <time>1970-01-01T01:00:00Z</time>
      </trkpt>
      <trkpt lat="63.38775633" lon="10.47746683">
        <ele>234.851</ele>
        <time>1970-01-01T01:00:00Z</time>
      </trkpt>
      <trkpt lat="63.38774283" lon="10.47740067">
        <ele>234.699</ele>
        <time>1970-01-01T01:00:00Z</time>
      </trkpt>
      <trkpt lat="63.38773333" lon="10.4773495">
        <ele>234.699</ele>
        <time>1970-01-01T01:00:00Z</time>
      </trkpt>
      <trkpt lat="63.387723" lon="10.4773005">
        <ele>234.394</ele>
        <time>1970-01-01T01:00:00Z</time>
      </trkpt>
      <trkpt lat="63.3877145" lon="10.47725283">
        <ele>234.394</ele>
        <time>1970-01-01T01:00:00Z</time>
      </trkpt>
      <trkpt lat="63.38771033" lon="10.477206">
        <ele>233.937</ele>
        <time>1970-01-01T01:00:00Z</time>
      </trkpt>
      <trkpt lat="63.3877095" lon="10.47715833">
        <ele>233.937</ele>
        <time>1970-01-01T01:00:00Z</time>
      </trkpt>
      <trkpt lat="63.3877165" lon="10.47710933">
        <ele>233.48</ele>
        <time>1970-01-01T01:00:00Z</time>
      </trkpt>
      <trkpt lat="63.38772483" lon="10.47706117">
        <ele>233.48</ele>
        <time>1970-01-01T01:00:00Z</time>
      </trkpt>
      <trkpt lat="63.387735" lon="10.47701467">
        <ele>233.022</ele>
        <time>1970-01-01T01:00:00Z</time>
      </trkpt>
      <trkpt lat="63.387739" lon="10.47697383">
        <ele>233.022</ele>
        <time>1970-01-01T01:00:00Z</time>
      </trkpt>
      <trkpt lat="63.38774467" lon="10.4769345">
        <ele>232.718</ele>
        <time>1970-01-01T01:00:00Z</time>
      </trkpt>
      <trkpt lat="63.38775567" lon="10.47689583">
        <ele>232.718</ele>
        <time>1970-01-01T01:00:00Z</time>
      </trkpt>
      <trkpt lat="63.387769" lon="10.47685783">
        <ele>232.26</ele>
        <time>1970-01-01T01:00:00Z</time>
      </trkpt>
      <trkpt lat="63.38778217" lon="10.4768235">
        <ele>232.26</ele>
        <time>1970-01-01T01:00:00Z</time>
      </trkpt>
      <trkpt lat="63.38779383" lon="10.47679267">
        <ele>232.108</ele>
        <time>1970-01-01T01:00:00Z</time>
      </trkpt>
      <trkpt lat="63.38780633" lon="10.4767605">
        <ele>232.108</ele>
        <time>1970-01-01T01:00:00Z</time>
      </trkpt>
      <trkpt lat="63.38782117" lon="10.47672883">
        <ele>231.956</ele>
        <time>1970-01-01T01:00:00Z</time>
      </trkpt>
      <trkpt lat="63.38783683" lon="10.47669517">
        <ele>231.956</ele>
        <time>1970-01-01T01:00:00Z</time>
      </trkpt>
      <trkpt lat="63.38785333" lon="10.47666517">
        <ele>232.108</ele>
        <time>1970-01-01T01:00:00Z</time>
      </trkpt>
      <trkpt lat="63.387868" lon="10.47662733">
        <ele>232.108</ele>
        <time>1970-01-01T01:00:00Z</time>
      </trkpt>
      <trkpt lat="63.3878795" lon="10.47658833">
        <ele>232.26</ele>
        <time>1970-01-01T01:00:00Z</time>
      </trkpt>
      <trkpt lat="63.38788667" lon="10.4765425">
        <ele>232.26</ele>
        <time>1970-01-01T01:00:00Z</time>
      </trkpt>
      <trkpt lat="63.38789517" lon="10.4765055">
        <ele>232.718</ele>
        <time>1970-01-01T01:00:00Z</time>
      </trkpt>
      <trkpt lat="63.3879015" lon="10.47646983">
        <ele>232.718</ele>
        <time>1970-01-01T01:00:00Z</time>
      </trkpt>
      <trkpt lat="63.38790917" lon="10.4764395">
        <ele>233.175</ele>
        <time>1970-01-01T01:00:00Z</time>
      </trkpt>
      <trkpt lat="63.387914" lon="10.476407">
        <ele>233.175</ele>
        <time>1970-01-01T01:00:00Z</time>
      </trkpt>
      <trkpt lat="63.387922" lon="10.476371">
        <ele>233.632</ele>
        <time>1970-01-01T01:00:00Z</time>
      </trkpt>
      <trkpt lat="63.38792917" lon="10.47633433">
        <ele>233.632</ele>
        <time>1970-01-01T01:00:00Z</time>
      </trkpt>
      <trkpt lat="63.38793667" lon="10.4762945">
        <ele>234.242</ele>
        <time>1970-01-01T01:00:00Z</time>
      </trkpt>
      <trkpt lat="63.38794317" lon="10.47625383">
        <ele>234.242</ele>
        <time>1970-01-01T01:00:00Z</time>
      </trkpt>
      <trkpt lat="63.38795167" lon="10.476214">
        <ele>235.004</ele>
        <time>1970-01-01T01:00:00Z</time>
      </trkpt>
      <trkpt lat="63.3879645" lon="10.47617383">
        <ele>235.004</ele>
        <time>1970-01-01T01:00:00Z</time>
      </trkpt>
      <trkpt lat="63.387979" lon="10.476131">
        <ele>235.766</ele>
        <time>1970-01-01T01:00:00Z</time>
      </trkpt>
      <trkpt lat="63.387993" lon="10.476091">
        <ele>235.766</ele>
        <time>1970-01-01T01:00:00Z</time>
      </trkpt>
      <trkpt lat="63.3880025" lon="10.47604717">
        <ele>236.68</ele>
        <time>1970-01-01T01:00:00Z</time>
      </trkpt>
      <trkpt lat="63.38800833" lon="10.47600667">
        <ele>236.68</ele>
        <time>1970-01-01T01:00:00Z</time>
      </trkpt>
      <trkpt lat="63.38800983" lon="10.47595833">
        <ele>237.594</ele>
        <time>1970-01-01T01:00:00Z</time>
      </trkpt>
      <trkpt lat="63.38801033" lon="10.47591083">
        <ele>237.594</ele>
        <time>1970-01-01T01:00:00Z</time>
      </trkpt>
      <trkpt lat="63.38801017" lon="10.47585767">
        <ele>238.356</ele>
        <time>1970-01-01T01:00:00Z</time>
      </trkpt>
      <trkpt lat="63.38800867" lon="10.4758015">
        <ele>238.356</ele>
        <time>1970-01-01T01:00:00Z</time>
      </trkpt>
      <trkpt lat="63.388007" lon="10.47574567">
        <ele>239.271</ele>
        <time>1970-01-01T01:00:00Z</time>
      </trkpt>
      <trkpt lat="63.38800533" lon="10.47569217">
        <ele>239.271</ele>
        <time>1970-01-01T01:00:00Z</time>
      </trkpt>
      <trkpt lat="63.38801117" lon="10.47563983">
        <ele>240.033</ele>
        <time>1970-01-01T01:00:00Z</time>
      </trkpt>
      <trkpt lat="63.3880195" lon="10.47558683">
        <ele>240.033</ele>
        <time>1970-01-01T01:00:00Z</time>
      </trkpt>
      <trkpt lat="63.38803267" lon="10.47553567">
        <ele>240.643</ele>
        <time>1970-01-01T01:00:00Z</time>
      </trkpt>
      <trkpt lat="63.38804117" lon="10.475489">
        <ele>240.643</ele>
        <time>1970-01-01T01:00:00Z</time>
      </trkpt>
      <trkpt lat="63.388048" lon="10.475442">
        <ele>241.405</ele>
        <time>1970-01-01T01:00:00Z</time>
      </trkpt>
      <trkpt lat="63.38805267" lon="10.47538783">
        <ele>241.405</ele>
        <time>1970-01-01T01:00:00Z</time>
      </trkpt>
      <trkpt lat="63.38805633" lon="10.47532317">
        <ele>242.167</ele>
        <time>1970-01-01T01:00:00Z</time>
      </trkpt>
      <trkpt lat="63.3880575" lon="10.47525">
        <ele>242.167</ele>
        <time>1970-01-01T01:00:00Z</time>
      </trkpt>
      <trkpt lat="63.38805483" lon="10.47517083">
        <ele>242.776</ele>
        <time>1970-01-01T01:00:00Z</time>
      </trkpt>
      <trkpt lat="63.38804917" lon="10.47510133">
        <ele>242.776</ele>
        <time>1970-01-01T01:00:00Z</time>
      </trkpt>
      <trkpt lat="63.38804083" lon="10.4750385">
        <ele>243.233</ele>
        <time>1970-01-01T01:00:00Z</time>
      </trkpt>
      <trkpt lat="63.3880275" lon="10.47497917">
        <ele>243.233</ele>
        <time>1970-01-01T01:00:00Z</time>
      </trkpt>
      <trkpt lat="63.38801233" lon="10.47491233">
        <ele>243.691</ele>
        <time>1970-01-01T01:00:00Z</time>
      </trkpt>
      <trkpt lat="63.38799317" lon="10.47484133">
        <ele>243.691</ele>
        <time>1970-01-01T01:00:00Z</time>
      </trkpt>
      <trkpt lat="63.38797733" lon="10.47477833">
        <ele>243.843</ele>
        <time>1970-01-01T01:00:00Z</time>
      </trkpt>
      <trkpt lat="63.38795783" lon="10.47470667">
        <ele>243.843</ele>
        <time>1970-01-01T01:00:00Z</time>
      </trkpt>
      <trkpt lat="63.3879405" lon="10.47464067">
        <ele>243.843</ele>
        <time>1970-01-01T01:00:00Z</time>
      </trkpt>
      <trkpt lat="63.3879285" lon="10.47457133">
        <ele>243.843</ele>
        <time>1970-01-01T01:00:00Z</time>
      </trkpt>
      <trkpt lat="63.387926" lon="10.47450433">
        <ele>243.843</ele>
        <time>1970-01-01T01:00:00Z</time>
      </trkpt>
      <trkpt lat="63.38792933" lon="10.47443967">
        <ele>243.843</ele>
        <time>1970-01-01T01:00:00Z</time>
      </trkpt>
      <trkpt lat="63.38793283" lon="10.47438183">
        <ele>243.691</ele>
        <time>1970-01-01T01:00:00Z</time>
      </trkpt>
      <trkpt lat="63.3879305" lon="10.47432917">
        <ele>243.691</ele>
        <time>1970-01-01T01:00:00Z</time>
      </trkpt>
      <trkpt lat="63.3879205" lon="10.47427483">
        <ele>243.386</ele>
        <time>1970-01-01T01:00:00Z</time>
      </trkpt>
      <trkpt lat="63.38790417" lon="10.4742145">
        <ele>243.386</ele>
        <time>1970-01-01T01:00:00Z</time>
      </trkpt>
      <trkpt lat="63.387893" lon="10.47415817">
        <ele>242.929</ele>
        <time>1970-01-01T01:00:00Z</time>
      </trkpt>
      <trkpt lat="63.3878865" lon="10.47410383">
        <ele>242.929</ele>
        <time>1970-01-01T01:00:00Z</time>
      </trkpt>
      <trkpt lat="63.38788367" lon="10.474051">
        <ele>242.319</ele>
        <time>1970-01-01T01:00:00Z</time>
      </trkpt>
      <trkpt lat="63.387877" lon="10.47399567">
        <ele>242.319</ele>
        <time>1970-01-01T01:00:00Z</time>
      </trkpt>
      <trkpt lat="63.38786633" lon="10.47393867">
        <ele>241.557</ele>
        <time>1970-01-01T01:00:00Z</time>
      </trkpt>
      <trkpt lat="63.38785367" lon="10.473882">
        <ele>241.557</ele>
        <time>1970-01-01T01:00:00Z</time>
      </trkpt>
      <trkpt lat="63.3878455" lon="10.473825">
        <ele>240.643</ele>
        <time>1970-01-01T01:00:00Z</time>
      </trkpt>
      <trkpt lat="63.38783867" lon="10.47376817">
        <ele>240.643</ele>
        <time>1970-01-01T01:00:00Z</time>
      </trkpt>
      <trkpt lat="63.3878285" lon="10.47371333">
        <ele>239.728</ele>
        <time>1970-01-01T01:00:00Z</time>
      </trkpt>
      <trkpt lat="63.38781133" lon="10.4736585">
        <ele>239.728</ele>
        <time>1970-01-01T01:00:00Z</time>
      </trkpt>
      <trkpt lat="63.3877965" lon="10.47360817">
        <ele>238.661</ele>
        <time>1970-01-01T01:00:00Z</time>
      </trkpt>
      <trkpt lat="63.3877865" lon="10.47355967">
        <ele>238.661</ele>
        <time>1970-01-01T01:00:00Z</time>
      </trkpt>
      <trkpt lat="63.3877905" lon="10.4735105">
        <ele>237.442</ele>
        <time>1970-01-01T01:00:00Z</time>
      </trkpt>
      <trkpt lat="63.38780233" lon="10.47346033">
        <ele>237.442</ele>
        <time>1970-01-01T01:00:00Z</time>
      </trkpt>
      <trkpt lat="63.38782267" lon="10.47340733">
        <ele>236.223</ele>
        <time>1970-01-01T01:00:00Z</time>
      </trkpt>
      <trkpt lat="63.38784217" lon="10.47335517">
        <ele>236.223</ele>
        <time>1970-01-01T01:00:00Z</time>
      </trkpt>
      <trkpt lat="63.3878665" lon="10.47329717">
        <ele>235.156</ele>
        <time>1970-01-01T01:00:00Z</time>
      </trkpt>
      <trkpt lat="63.3878955" lon="10.47323983">
        <ele>235.156</ele>
        <time>1970-01-01T01:00:00Z</time>
      </trkpt>
      <trkpt lat="63.38792767" lon="10.47318167">
        <ele>234.089</ele>
        <time>1970-01-01T01:00:00Z</time>
      </trkpt>
      <trkpt lat="63.3879555" lon="10.47312917">
        <ele>234.089</ele>
        <time>1970-01-01T01:00:00Z</time>
      </trkpt>
      <trkpt lat="63.38798" lon="10.47308233">
        <ele>233.327</ele>
        <time>1970-01-01T01:00:00Z</time>
      </trkpt>
      <trkpt lat="63.38800467" lon="10.473037">
        <ele>233.327</ele>
        <time>1970-01-01T01:00:00Z</time>
      </trkpt>
      <trkpt lat="63.3880305" lon="10.47299">
        <ele>232.565</ele>
        <time>1970-01-01T01:00:00Z</time>
      </trkpt>
      <trkpt lat="63.38805483" lon="10.47294183">
        <ele>232.565</ele>
        <time>1970-01-01T01:00:00Z</time>
      </trkpt>
      <trkpt lat="63.38807967" lon="10.47289283">
        <ele>231.956</ele>
        <time>1970-01-01T01:00:00Z</time>
      </trkpt>
      <trkpt lat="63.38810383" lon="10.4728465">
        <ele>231.956</ele>
        <time>1970-01-01T01:00:00Z</time>
      </trkpt>
      <trkpt lat="63.38813017" lon="10.47279333">
        <ele>231.498</ele>
        <time>1970-01-01T01:00:00Z</time>
      </trkpt>
      <trkpt lat="63.3881545" lon="10.472744">
        <ele>231.498</ele>
        <time>1970-01-01T01:00:00Z</time>
      </trkpt>
      <trkpt lat="63.38817817" lon="10.47269433">
        <ele>231.041</ele>
        <time>1970-01-01T01:00:00Z</time>
      </trkpt>
      <trkpt lat="63.38820283" lon="10.47264817">
        <ele>231.041</ele>
        <time>1970-01-01T01:00:00Z</time>
      </trkpt>
      <trkpt lat="63.38823267" lon="10.4726045">
        <ele>230.736</ele>
        <time>1970-01-01T01:00:00Z</time>
      </trkpt>
      <trkpt lat="63.38826567" lon="10.47255767">
        <ele>230.736</ele>
        <time>1970-01-01T01:00:00Z</time>
      </trkpt>
      <trkpt lat="63.38829617" lon="10.4725115">
        <ele>230.432</ele>
        <time>1970-01-01T01:00:00Z</time>
      </trkpt>
      <trkpt lat="63.3883215" lon="10.47246">
        <ele>230.432</ele>
        <time>1970-01-01T01:00:00Z</time>
      </trkpt>
      <trkpt lat="63.388349" lon="10.472411">
        <ele>230.279</ele>
        <time>1970-01-01T01:00:00Z</time>
      </trkpt>
      <trkpt lat="63.3883775" lon="10.47236767">
        <ele>230.279</ele>
        <time>1970-01-01T01:00:00Z</time>
      </trkpt>
      <trkpt lat="63.38840583" lon="10.472329">
        <ele>230.279</ele>
        <time>1970-01-01T01:00:00Z</time>
      </trkpt>
      <trkpt lat="63.38843" lon="10.47229033">
        <ele>230.279</ele>
        <time>1970-01-01T01:00:00Z</time>
      </trkpt>
      <trkpt lat="63.38845433" lon="10.4722505">
        <ele>230.127</ele>
        <time>1970-01-01T01:00:00Z</time>
      </trkpt>
      <trkpt lat="63.38847867" lon="10.47221183">
        <ele>230.127</ele>
        <time>1970-01-01T01:00:00Z</time>
      </trkpt>
      <trkpt lat="63.388505" lon="10.47217467">
        <ele>229.974</ele>
        <time>1970-01-01T01:00:00Z</time>
      </trkpt>
      <trkpt lat="63.38853067" lon="10.47213883">
        <ele>229.974</ele>
        <time>1970-01-01T01:00:00Z</time>
      </trkpt>
      <trkpt lat="63.3885605" lon="10.47209933">
        <ele>229.974</ele>
        <time>1970-01-01T01:00:00Z</time>
      </trkpt>
      <trkpt lat="63.38859" lon="10.47206867">
        <ele>229.974</ele>
        <time>1970-01-01T01:00:00Z</time>
      </trkpt>
      <trkpt lat="63.38861983" lon="10.47203817">
        <ele>229.974</ele>
        <time>1970-01-01T01:00:00Z</time>
      </trkpt>
      <trkpt lat="63.38864317" lon="10.47201033">
        <ele>229.974</ele>
        <time>1970-01-01T01:00:00Z</time>
      </trkpt>
      <trkpt lat="63.388665" lon="10.47197433">
        <ele>229.822</ele>
        <time>1970-01-01T01:00:00Z</time>
      </trkpt>
      <trkpt lat="63.38868433" lon="10.47193817">
        <ele>229.822</ele>
        <time>1970-01-01T01:00:00Z</time>
      </trkpt>
      <trkpt lat="63.3887055" lon="10.47190117">
        <ele>229.822</ele>
        <time>1970-01-01T01:00:00Z</time>
      </trkpt>
      <trkpt lat="63.38872583" lon="10.47186767">
        <ele>229.822</ele>
        <time>1970-01-01T01:00:00Z</time>
      </trkpt>
      <trkpt lat="63.388749" lon="10.47182667">
        <ele>229.822</ele>
        <time>1970-01-01T01:00:00Z</time>
      </trkpt>
      <trkpt lat="63.38877067" lon="10.47178533">
        <ele>229.822</ele>
        <time>1970-01-01T01:00:00Z</time>
      </trkpt>
      <trkpt lat="63.38879133" lon="10.47174017">
        <ele>229.67</ele>
        <time>1970-01-01T01:00:00Z</time>
      </trkpt>
      <trkpt lat="63.38881033" lon="10.47170067">
        <ele>229.67</ele>
        <time>1970-01-01T01:00:00Z</time>
      </trkpt>
      <trkpt lat="63.388832" lon="10.47166283">
        <ele>229.67</ele>
        <time>1970-01-01T01:00:00Z</time>
      </trkpt>
      <trkpt lat="63.3888595" lon="10.47162183">
        <ele>229.67</ele>
        <time>1970-01-01T01:00:00Z</time>
      </trkpt>
      <trkpt lat="63.3888885" lon="10.47158633">
        <ele>229.67</ele>
        <time>1970-01-01T01:00:00Z</time>
      </trkpt>
      <trkpt lat="63.3889195" lon="10.47155167">
        <ele>229.67</ele>
        <time>1970-01-01T01:00:00Z</time>
      </trkpt>
      <trkpt lat="63.38894917" lon="10.47152083">
        <ele>229.67</ele>
        <time>1970-01-01T01:00:00Z</time>
      </trkpt>
      <trkpt lat="63.38898033" lon="10.47149083">
        <ele>229.67</ele>
        <time>1970-01-01T01:00:00Z</time>
      </trkpt>
      <trkpt lat="63.389012" lon="10.47146667">
        <ele>229.822</ele>
        <time>1970-01-01T01:00:00Z</time>
      </trkpt>
      <trkpt lat="63.38904617" lon="10.471448">
        <ele>229.822</ele>
        <time>1970-01-01T01:00:00Z</time>
      </trkpt>
      <trkpt lat="63.38908033" lon="10.47143617">
        <ele>229.822</ele>
        <time>1970-01-01T01:00:00Z</time>
      </trkpt>
      <trkpt lat="63.389113" lon="10.4714315">
        <ele>229.822</ele>
        <time>1970-01-01T01:00:00Z</time>
      </trkpt>
      <trkpt lat="63.38914433" lon="10.47144417">
        <ele>229.974</ele>
        <time>1970-01-01T01:00:00Z</time>
      </trkpt>
      <trkpt lat="63.3891735" lon="10.47146017">
        <ele>229.974</ele>
        <time>1970-01-01T01:00:00Z</time>
      </trkpt>
      <trkpt lat="63.38920117" lon="10.47148383">
        <ele>229.974</ele>
        <time>1970-01-01T01:00:00Z</time>
      </trkpt>
      <trkpt lat="63.38922817" lon="10.47150517">
        <ele>229.974</ele>
        <time>1970-01-01T01:00:00Z</time>
      </trkpt>
      <trkpt lat="63.389256" lon="10.47153017">
        <ele>230.127</ele>
        <time>1970-01-01T01:00:00Z</time>
      </trkpt>
      <trkpt lat="63.38928367" lon="10.47155117">
        <ele>230.127</ele>
        <time>1970-01-01T01:00:00Z</time>
      </trkpt>
      <trkpt lat="63.38931033" lon="10.4715705">
        <ele>230.127</ele>
        <time>1970-01-01T01:00:00Z</time>
      </trkpt>
      <trkpt lat="63.38933733" lon="10.47158917">
        <ele>230.127</ele>
        <time>1970-01-01T01:00:00Z</time>
      </trkpt>
      <trkpt lat="63.3893625" lon="10.47160667">
        <ele>230.279</ele>
        <time>1970-01-01T01:00:00Z</time>
      </trkpt>
      <trkpt lat="63.38938783" lon="10.4716215">
        <ele>230.279</ele>
        <time>1970-01-01T01:00:00Z</time>
      </trkpt>
      <trkpt lat="63.38941033" lon="10.47163533">
        <ele>230.279</ele>
        <time>1970-01-01T01:00:00Z</time>
      </trkpt>
      <trkpt lat="63.389432" lon="10.471649">
        <ele>230.279</ele>
        <time>1970-01-01T01:00:00Z</time>
      </trkpt>
      <trkpt lat="63.38944983" lon="10.4716595">
        <ele>230.279</ele>
        <time>1970-01-01T01:00:00Z</time>
      </trkpt>
      <trkpt lat="63.38946883" lon="10.471664">
        <ele>230.279</ele>
        <time>1970-01-01T01:00:00Z</time>
      </trkpt>
      <trkpt lat="63.38948633" lon="10.47166517">
        <ele>230.279</ele>
        <time>1970-01-01T01:00:00Z</time>
      </trkpt>
      <trkpt lat="63.38950583" lon="10.47166533">
        <ele>230.279</ele>
        <time>1970-01-01T01:00:00Z</time>
      </trkpt>
      <trkpt lat="63.3895275" lon="10.4716605">
        <ele>230.279</ele>
        <time>1970-01-01T01:00:00Z</time>
      </trkpt>
      <trkpt lat="63.3895505" lon="10.47164917">
        <ele>230.279</ele>
        <time>1970-01-01T01:00:00Z</time>
      </trkpt>
      <trkpt lat="63.38957383" lon="10.47163467">
        <ele>230.432</ele>
        <time>1970-01-01T01:00:00Z</time>
      </trkpt>
      <trkpt lat="63.38959367" lon="10.4716215">
        <ele>230.432</ele>
        <time>1970-01-01T01:00:00Z</time>
      </trkpt>
      <trkpt lat="63.38961133" lon="10.4716085">
        <ele>230.432</ele>
        <time>1970-01-01T01:00:00Z</time>
      </trkpt>
      <trkpt lat="63.38962333" lon="10.47158817">
        <ele>230.432</ele>
        <time>1970-01-01T01:00:00Z</time>
      </trkpt>
      <trkpt lat="63.3896295" lon="10.47156433">
        <ele>230.432</ele>
        <time>1970-01-01T01:00:00Z</time>
      </trkpt>
      <trkpt lat="63.3896315" lon="10.47153983">
        <ele>230.432</ele>
        <time>1970-01-01T01:00:00Z</time>
      </trkpt>
      <trkpt lat="63.38963067" lon="10.47151717">
        <ele>230.432</ele>
        <time>1970-01-01T01:00:00Z</time>
      </trkpt>
      <trkpt lat="63.38962483" lon="10.47149517">
        <ele>230.432</ele>
        <time>1970-01-01T01:00:00Z</time>
      </trkpt>
      <trkpt lat="63.38961317" lon="10.47148267">
        <ele>230.432</ele>
        <time>1970-01-01T01:00:00Z</time>
      </trkpt>
      <trkpt lat="63.38959517" lon="10.47147817">
        <ele>230.432</ele>
        <time>1970-01-01T01:00:00Z</time>
      </trkpt>
      <trkpt lat="63.38957333" lon="10.47147967">
        <ele>230.432</ele>
        <time>1970-01-01T01:00:00Z</time>
      </trkpt>
      <trkpt lat="63.38955033" lon="10.47147483">
        <ele>230.432</ele>
        <time>1970-01-01T01:00:00Z</time>
      </trkpt>
      <trkpt lat="63.38952917" lon="10.471472">
        <ele>230.279</ele>
        <time>1970-01-01T01:00:00Z</time>
      </trkpt>
      <trkpt lat="63.38951033" lon="10.47147">
        <ele>230.279</ele>
        <time>1970-01-01T01:00:00Z</time>
      </trkpt>
      <trkpt lat="63.38949417" lon="10.47146983">
        <ele>230.279</ele>
        <time>1970-01-01T01:00:00Z</time>
      </trkpt>
      <trkpt lat="63.3894765" lon="10.47145533">
        <ele>230.279</ele>
        <time>1970-01-01T01:00:00Z</time>
      </trkpt>
      <trkpt lat="63.38945917" lon="10.4714295">
        <ele>230.127</ele>
        <time>1970-01-01T01:00:00Z</time>
      </trkpt>
      <trkpt lat="63.389438" lon="10.47139483">
        <ele>230.127</ele>
        <time>1970-01-01T01:00:00Z</time>
      </trkpt>
      <trkpt lat="63.3894185" lon="10.47135817">
        <ele>229.974</ele>
        <time>1970-01-01T01:00:00Z</time>
      </trkpt>
      <trkpt lat="63.38939933" lon="10.471321">
        <ele>229.974</ele>
        <time>1970-01-01T01:00:00Z</time>
      </trkpt>
      <trkpt lat="63.389384" lon="10.47128317">
        <ele>229.822</ele>
        <time>1970-01-01T01:00:00Z</time>
      </trkpt>
      <trkpt lat="63.3893695" lon="10.471244">
        <ele>229.822</ele>
        <time>1970-01-01T01:00:00Z</time>
      </trkpt>
      <trkpt lat="63.38935767" lon="10.4711995">
        <ele>229.67</ele>
        <time>1970-01-01T01:00:00Z</time>
      </trkpt>
      <trkpt lat="63.389348" lon="10.47115483">
        <ele>229.67</ele>
        <time>1970-01-01T01:00:00Z</time>
      </trkpt>
      <trkpt lat="63.389342" lon="10.47111417">
        <ele>229.517</ele>
        <time>1970-01-01T01:00:00Z</time>
      </trkpt>
      <trkpt lat="63.38933617" lon="10.47107833">
        <ele>229.517</ele>
        <time>1970-01-01T01:00:00Z</time>
      </trkpt>
      <trkpt lat="63.38933167" lon="10.47103583">
        <ele>229.365</ele>
        <time>1970-01-01T01:00:00Z</time>
      </trkpt>
      <trkpt lat="63.389327" lon="10.47098783">
        <ele>229.365</ele>
        <time>1970-01-01T01:00:00Z</time>
      </trkpt>
      <trkpt lat="63.38932217" lon="10.47095117">
        <ele>229.212</ele>
        <time>1970-01-01T01:00:00Z</time>
      </trkpt>
      <trkpt lat="63.38932133" lon="10.47091983">
        <ele>229.212</ele>
        <time>1970-01-01T01:00:00Z</time>
      </trkpt>
      <trkpt lat="63.38933267" lon="10.4708665">
        <ele>229.06</ele>
        <time>1970-01-01T01:00:00Z</time>
      </trkpt>
      <trkpt lat="63.389364" lon="10.4707645">
        <ele>229.06</ele>
        <time>1970-01-01T01:00:00Z</time>
      </trkpt>
      <trkpt lat="63.38940417" lon="10.4706455">
        <ele>228.755</ele>
        <time>1970-01-01T01:00:00Z</time>
      </trkpt>
      <trkpt lat="63.38944" lon="10.47054883">
        <ele>228.755</ele>
        <time>1970-01-01T01:00:00Z</time>
      </trkpt>
      <trkpt lat="63.38946333" lon="10.47048517">
        <ele>228.45</ele>
        <time>1970-01-01T01:00:00Z</time>
      </trkpt>
      <trkpt lat="63.38947933" lon="10.47042917">
        <ele>228.45</ele>
        <time>1970-01-01T01:00:00Z</time>
      </trkpt>
      <trkpt lat="63.38949283" lon="10.47038167">
        <ele>228.146</ele>
        <time>1970-01-01T01:00:00Z</time>
      </trkpt>
      <trkpt lat="63.38950533" lon="10.47033983">
        <ele>228.146</ele>
        <time>1970-01-01T01:00:00Z</time>
      </trkpt>
      <trkpt lat="63.38951867" lon="10.47030667">
        <ele>227.841</ele>
        <time>1970-01-01T01:00:00Z</time>
      </trkpt>
      <trkpt lat="63.3895315" lon="10.47026983">
        <ele>227.841</ele>
        <time>1970-01-01T01:00:00Z</time>
      </trkpt>
      <trkpt lat="63.38954617" lon="10.47023133">
        <ele>227.536</ele>
        <time>1970-01-01T01:00:00Z</time>
      </trkpt>
      <trkpt lat="63.38955867" lon="10.4701915">
        <ele>227.536</ele>
        <time>1970-01-01T01:00:00Z</time>
      </trkpt>
      <trkpt lat="63.389572" lon="10.47015367">
        <ele>227.079</ele>
        <time>1970-01-01T01:00:00Z</time>
      </trkpt>
      <trkpt lat="63.38958217" lon="10.47012">
        <ele>227.079</ele>
        <time>1970-01-01T01:00:00Z</time>
      </trkpt>
      <trkpt lat="63.38959483" lon="10.47009017">
        <ele>226.774</ele>
        <time>1970-01-01T01:00:00Z</time>
      </trkpt>
      <trkpt lat="63.38960983" lon="10.47006433">
        <ele>226.774</ele>
        <time>1970-01-01T01:00:00Z</time>
      </trkpt>
      <trkpt lat="63.38962633" lon="10.47003683">
        <ele>226.317</ele>
        <time>1970-01-01T01:00:00Z</time>
      </trkpt>
      <trkpt lat="63.38964367" lon="10.47001417">
        <ele>226.317</ele>
        <time>1970-01-01T01:00:00Z</time>
      </trkpt>
      <trkpt lat="63.38966017" lon="10.46999267">
        <ele>226.012</ele>
        <time>1970-01-01T01:00:00Z</time>
      </trkpt>
      <trkpt lat="63.38967733" lon="10.4699825">
        <ele>226.012</ele>
        <time>1970-01-01T01:00:00Z</time>
      </trkpt>
      <trkpt lat="63.389694" lon="10.46997233">
        <ele>225.707</ele>
        <time>1970-01-01T01:00:00Z</time>
      </trkpt>
      <trkpt lat="63.38971367" lon="10.4699575">
        <ele>225.707</ele>
        <time>1970-01-01T01:00:00Z</time>
      </trkpt>
      <trkpt lat="63.3897375" lon="10.46992717">
        <ele>225.25</ele>
        <time>1970-01-01T01:00:00Z</time>
      </trkpt>
      <trkpt lat="63.3897625" lon="10.4698975">
        <ele>225.25</ele>
        <time>1970-01-01T01:00:00Z</time>
      </trkpt>
      <trkpt lat="63.389784" lon="10.46986817">
        <ele>224.945</ele>
        <time>1970-01-01T01:00:00Z</time>
      </trkpt>
      <trkpt lat="63.38980133" lon="10.46984467">
        <ele>224.945</ele>
        <time>1970-01-01T01:00:00Z</time>
      </trkpt>
      <trkpt lat="63.38981783" lon="10.46981933">
        <ele>224.64</ele>
        <time>1970-01-01T01:00:00Z</time>
      </trkpt>
      <trkpt lat="63.38983533" lon="10.46978967">
        <ele>224.64</ele>
        <time>1970-01-01T01:00:00Z</time>
      </trkpt>
      <trkpt lat="63.3898535" lon="10.46975817">
        <ele>224.336</ele>
        <time>1970-01-01T01:00:00Z</time>
      </trkpt>
      <trkpt lat="63.38987183" lon="10.46972483">
        <ele>224.336</ele>
        <time>1970-01-01T01:00:00Z</time>
      </trkpt>
      <trkpt lat="63.38988933" lon="10.46969083">
        <ele>224.031</ele>
        <time>1970-01-01T01:00:00Z</time>
      </trkpt>
      <trkpt lat="63.38990767" lon="10.46965383">
        <ele>224.031</ele>
        <time>1970-01-01T01:00:00Z</time>
      </trkpt>
      <trkpt lat="63.38993" lon="10.46961833">
        <ele>223.726</ele>
        <time>1970-01-01T01:00:00Z</time>
      </trkpt>
      <trkpt lat="63.38995533" lon="10.46958283">
        <ele>223.726</ele>
        <time>1970-01-01T01:00:00Z</time>
      </trkpt>
      <trkpt lat="63.38998283" lon="10.46954367">
        <ele>223.421</ele>
        <time>1970-01-01T01:00:00Z</time>
      </trkpt>
      <trkpt lat="63.39000833" lon="10.46949867">
        <ele>223.421</ele>
        <time>1970-01-01T01:00:00Z</time>
      </trkpt>
      <trkpt lat="63.390032" lon="10.46945783">
        <ele>223.116</ele>
        <time>1970-01-01T01:00:00Z</time>
      </trkpt>
      <trkpt lat="63.39005333" lon="10.46942217">
        <ele>223.116</ele>
        <time>1970-01-01T01:00:00Z</time>
      </trkpt>
      <trkpt lat="63.3900725" lon="10.46939217">
        <ele>222.812</ele>
        <time>1970-01-01T01:00:00Z</time>
      </trkpt>
      <trkpt lat="63.39008967" lon="10.46936">
        <ele>222.812</ele>
        <time>1970-01-01T01:00:00Z</time>
      </trkpt>
      <trkpt lat="63.39010683" lon="10.469332">
        <ele>222.507</ele>
        <time>1970-01-01T01:00:00Z</time>
      </trkpt>
      <trkpt lat="63.3901255" lon="10.4693055">
        <ele>222.507</ele>
        <time>1970-01-01T01:00:00Z</time>
      </trkpt>
      <trkpt lat="63.39015167" lon="10.46928667">
        <ele>222.202</ele>
        <time>1970-01-01T01:00:00Z</time>
      </trkpt>
      <trkpt lat="63.3901875" lon="10.46926167">
        <ele>222.202</ele>
        <time>1970-01-01T01:00:00Z</time>
      </trkpt>
      <trkpt lat="63.39023117" lon="10.46923617">
        <ele>221.897</ele>
        <time>1970-01-01T01:00:00Z</time>
      </trkpt>
      <trkpt lat="63.39027533" lon="10.46920917">
        <ele>221.897</ele>
        <time>1970-01-01T01:00:00Z</time>
      </trkpt>
      <trkpt lat="63.39031267" lon="10.46919367">
        <ele>221.745</ele>
        <time>1970-01-01T01:00:00Z</time>
      </trkpt>
      <trkpt lat="63.39034467" lon="10.4691845">
        <ele>221.745</ele>
        <time>1970-01-01T01:00:00Z</time>
      </trkpt>
      <trkpt lat="63.39037233" lon="10.46918117">
        <ele>221.592</ele>
        <time>1970-01-01T01:00:00Z</time>
      </trkpt>
      <trkpt lat="63.39040083" lon="10.4691975">
        <ele>221.592</ele>
        <time>1970-01-01T01:00:00Z</time>
      </trkpt>
      <trkpt lat="63.39042833" lon="10.46921817">
        <ele>221.44</ele>
        <time>1970-01-01T01:00:00Z</time>
      </trkpt>
      <trkpt lat="63.39045483" lon="10.4692415">
        <ele>221.44</ele>
        <time>1970-01-01T01:00:00Z</time>
      </trkpt>
      <trkpt lat="63.39047933" lon="10.46925017">
        <ele>221.135</ele>
        <time>1970-01-01T01:00:00Z</time>
      </trkpt>
      <trkpt lat="63.39050383" lon="10.46925717">
        <ele>221.135</ele>
        <time>1970-01-01T01:00:00Z</time>
      </trkpt>
      <trkpt lat="63.39052967" lon="10.4692625">
        <ele>220.983</ele>
        <time>1970-01-01T01:00:00Z</time>
      </trkpt>
      <trkpt lat="63.390555" lon="10.4692675">
        <ele>220.983</ele>
        <time>1970-01-01T01:00:00Z</time>
      </trkpt>
      <trkpt lat="63.39057833" lon="10.46927533">
        <ele>220.83</ele>
        <time>1970-01-01T01:00:00Z</time>
      </trkpt>
      <trkpt lat="63.39060133" lon="10.46928767">
        <ele>220.83</ele>
        <time>1970-01-01T01:00:00Z</time>
      </trkpt>
      <trkpt lat="63.39062317" lon="10.469298">
        <ele>220.678</ele>
        <time>1970-01-01T01:00:00Z</time>
      </trkpt>
      <trkpt lat="63.39064633" lon="10.46930533">
        <ele>220.678</ele>
        <time>1970-01-01T01:00:00Z</time>
      </trkpt>
      <trkpt lat="63.39066883" lon="10.46931067">
        <ele>220.525</ele>
        <time>1970-01-01T01:00:00Z</time>
      </trkpt>
      <trkpt lat="63.3906945" lon="10.46932183">
        <ele>220.525</ele>
        <time>1970-01-01T01:00:00Z</time>
      </trkpt>
      <trkpt lat="63.39072117" lon="10.46933817">
        <ele>220.373</ele>
        <time>1970-01-01T01:00:00Z</time>
      </trkpt>
      <trkpt lat="63.39074867" lon="10.46935517">
        <ele>220.373</ele>
        <time>1970-01-01T01:00:00Z</time>
      </trkpt>
      <trkpt lat="63.39077733" lon="10.4693775">
        <ele>220.068</ele>
        <time>1970-01-01T01:00:00Z</time>
      </trkpt>
      <trkpt lat="63.3908065" lon="10.46940283">
        <ele>220.068</ele>
        <time>1970-01-01T01:00:00Z</time>
      </trkpt>
      <trkpt lat="63.39083583" lon="10.46943017">
        <ele>219.916</ele>
        <time>1970-01-01T01:00:00Z</time>
      </trkpt>
      <trkpt lat="63.39086583" lon="10.46948033">
        <ele>219.916</ele>
        <time>1970-01-01T01:00:00Z</time>
      </trkpt>
      <trkpt lat="63.39089733" lon="10.46952633">
        <ele>219.611</ele>
        <time>1970-01-01T01:00:00Z</time>
      </trkpt>
      <trkpt lat="63.39093233" lon="10.46956933">
        <ele>219.611</ele>
        <time>1970-01-01T01:00:00Z</time>
      </trkpt>
      <trkpt lat="63.39096217" lon="10.46958267">
        <ele>219.306</ele>
        <time>1970-01-01T01:00:00Z</time>
      </trkpt>
      <trkpt lat="63.39098983" lon="10.4695955">
        <ele>219.306</ele>
        <time>1970-01-01T01:00:00Z</time>
      </trkpt>
      <trkpt lat="63.391013" lon="10.46961083">
        <ele>219.001</ele>
        <time>1970-01-01T01:00:00Z</time>
      </trkpt>
      <trkpt lat="63.391038" lon="10.46962367">
        <ele>219.001</ele>
        <time>1970-01-01T01:00:00Z</time>
      </trkpt>
      <trkpt lat="63.3910635" lon="10.4696245">
        <ele>218.697</ele>
        <time>1970-01-01T01:00:00Z</time>
      </trkpt>
      <trkpt lat="63.39108967" lon="10.469629">
        <ele>218.697</ele>
        <time>1970-01-01T01:00:00Z</time>
      </trkpt>
      <trkpt lat="63.39111633" lon="10.46963467">
        <ele>218.392</ele>
        <time>1970-01-01T01:00:00Z</time>
      </trkpt>
      <trkpt lat="63.39114033" lon="10.46964333">
        <ele>218.392</ele>
        <time>1970-01-01T01:00:00Z</time>
      </trkpt>
      <trkpt lat="63.39116433" lon="10.46963883">
        <ele>218.087</ele>
        <time>1970-01-01T01:00:00Z</time>
      </trkpt>
      <trkpt lat="63.39118683" lon="10.469629">
        <ele>218.087</ele>
        <time>1970-01-01T01:00:00Z</time>
      </trkpt>
      <trkpt lat="63.3912095" lon="10.46961533">
        <ele>217.782</ele>
        <time>1970-01-01T01:00:00Z</time>
      </trkpt>
      <trkpt lat="63.3912285" lon="10.46959383">
        <ele>217.782</ele>
        <time>1970-01-01T01:00:00Z</time>
      </trkpt>
      <trkpt lat="63.39124533" lon="10.4695645">
        <ele>217.477</ele>
        <time>1970-01-01T01:00:00Z</time>
      </trkpt>
      <trkpt lat="63.391261" lon="10.46953267">
        <ele>217.477</ele>
        <time>1970-01-01T01:00:00Z</time>
      </trkpt>
      <trkpt lat="63.391276" lon="10.46950167">
        <ele>217.173</ele>
        <time>1970-01-01T01:00:00Z</time>
      </trkpt>
      <trkpt lat="63.39129" lon="10.46946767">
        <ele>217.173</ele>
        <time>1970-01-01T01:00:00Z</time>
      </trkpt>
      <trkpt lat="63.39130333" lon="10.46942717">
        <ele>216.868</ele>
        <time>1970-01-01T01:00:00Z</time>
      </trkpt>
      <trkpt lat="63.3913175" lon="10.46938717">
        <ele>216.868</ele>
        <time>1970-01-01T01:00:00Z</time>
      </trkpt>
      <trkpt lat="63.39133" lon="10.4693495">
        <ele>216.563</ele>
        <time>1970-01-01T01:00:00Z</time>
      </trkpt>
      <trkpt lat="63.39134033" lon="10.46931333">
        <ele>216.563</ele>
        <time>1970-01-01T01:00:00Z</time>
      </trkpt>
      <trkpt lat="63.39134767" lon="10.46927733">
        <ele>216.106</ele>
        <time>1970-01-01T01:00:00Z</time>
      </trkpt>
      <trkpt lat="63.39135283" lon="10.46924667">
        <ele>216.106</ele>
        <time>1970-01-01T01:00:00Z</time>
      </trkpt>
      <trkpt lat="63.39135733" lon="10.46921483">
        <ele>215.649</ele>
        <time>1970-01-01T01:00:00Z</time>
      </trkpt>
      <trkpt lat="63.39136217" lon="10.4691775">
        <ele>215.649</ele>
        <time>1970-01-01T01:00:00Z</time>
      </trkpt>
      <trkpt lat="63.39136833" lon="10.46913167">
        <ele>215.039</ele>
        <time>1970-01-01T01:00:00Z</time>
      </trkpt>
      <trkpt lat="63.39137533" lon="10.46908233">
        <ele>215.039</ele>
        <time>1970-01-01T01:00:00Z</time>
      </trkpt>
      <trkpt lat="63.39138217" lon="10.46903267">
        <ele>214.277</ele>
        <time>1970-01-01T01:00:00Z</time>
      </trkpt>
      <trkpt lat="63.3913875" lon="10.468979">
        <ele>214.277</ele>
        <time>1970-01-01T01:00:00Z</time>
      </trkpt>
      <trkpt lat="63.3913935" lon="10.4689315">
        <ele>213.667</ele>
        <time>1970-01-01T01:00:00Z</time>
      </trkpt>
      <trkpt lat="63.39140067" lon="10.46888533">
        <ele>213.667</ele>
        <time>1970-01-01T01:00:00Z</time>
      </trkpt>
      <trkpt lat="63.39141217" lon="10.468844">
        <ele>212.905</ele>
        <time>1970-01-01T01:00:00Z</time>
      </trkpt>
      <trkpt lat="63.3914255" lon="10.468798">
        <ele>212.905</ele>
        <time>1970-01-01T01:00:00Z</time>
      </trkpt>
      <trkpt lat="63.39144" lon="10.46875067">
        <ele>212.296</ele>
        <time>1970-01-01T01:00:00Z</time>
      </trkpt>
      <trkpt lat="63.3914555" lon="10.46870567">
        <ele>212.296</ele>
        <time>1970-01-01T01:00:00Z</time>
      </trkpt>
      <trkpt lat="63.39147017" lon="10.46866467">
        <ele>211.534</ele>
        <time>1970-01-01T01:00:00Z</time>
      </trkpt>
      <trkpt lat="63.39148433" lon="10.4686245">
        <ele>211.534</ele>
        <time>1970-01-01T01:00:00Z</time>
      </trkpt>
      <trkpt lat="63.39149583" lon="10.46857967">
        <ele>210.772</ele>
        <time>1970-01-01T01:00:00Z</time>
      </trkpt>
      <trkpt lat="63.391507" lon="10.46852633">
        <ele>210.772</ele>
        <time>1970-01-01T01:00:00Z</time>
      </trkpt>
      <trkpt lat="63.39151933" lon="10.4684685">
        <ele>210.162</ele>
        <time>1970-01-01T01:00:00Z</time>
      </trkpt>
      <trkpt lat="63.39153367" lon="10.46841217">
        <ele>210.162</ele>
        <time>1970-01-01T01:00:00Z</time>
      </trkpt>
      <trkpt lat="63.39155233" lon="10.46835867">
        <ele>209.4</ele>
        <time>1970-01-01T01:00:00Z</time>
      </trkpt>
      <trkpt lat="63.39156967" lon="10.46830717">
        <ele>209.4</ele>
        <time>1970-01-01T01:00:00Z</time>
      </trkpt>
      <trkpt lat="63.39158467" lon="10.4682515">
        <ele>208.638</ele>
        <time>1970-01-01T01:00:00Z</time>
      </trkpt>
      <trkpt lat="63.39159483" lon="10.468198">
        <ele>208.638</ele>
        <time>1970-01-01T01:00:00Z</time>
      </trkpt>
      <trkpt lat="63.39160367" lon="10.468145">
        <ele>207.876</ele>
        <time>1970-01-01T01:00:00Z</time>
      </trkpt>
      <trkpt lat="63.39161383" lon="10.46809767">
        <ele>207.876</ele>
        <time>1970-01-01T01:00:00Z</time>
      </trkpt>
      <trkpt lat="63.39162533" lon="10.468056">
        <ele>207.267</ele>
        <time>1970-01-01T01:00:00Z</time>
      </trkpt>
      <trkpt lat="63.391639" lon="10.46801467">
        <ele>207.267</ele>
        <time>1970-01-01T01:00:00Z</time>
      </trkpt>
      <trkpt lat="63.39165283" lon="10.4679735">
        <ele>206.505</ele>
        <time>1970-01-01T01:00:00Z</time>
      </trkpt>
      <trkpt lat="63.391666" lon="10.467928">
        <ele>206.505</ele>
        <time>1970-01-01T01:00:00Z</time>
      </trkpt>
      <trkpt lat="63.39168" lon="10.46788567">
        <ele>205.895</ele>
        <time>1970-01-01T01:00:00Z</time>
      </trkpt>
      <trkpt lat="63.39169333" lon="10.46784433">
        <ele>205.895</ele>
        <time>1970-01-01T01:00:00Z</time>
      </trkpt>
      <trkpt lat="63.39170733" lon="10.467804">
        <ele>205.133</ele>
        <time>1970-01-01T01:00:00Z</time>
      </trkpt>
      <trkpt lat="63.391718" lon="10.46775817">
        <ele>205.133</ele>
        <time>1970-01-01T01:00:00Z</time>
      </trkpt>
      <trkpt lat="63.3917295" lon="10.46770467">
        <ele>204.523</ele>
        <time>1970-01-01T01:00:00Z</time>
      </trkpt>
      <trkpt lat="63.39174" lon="10.46764833">
        <ele>204.523</ele>
        <time>1970-01-01T01:00:00Z</time>
      </trkpt>
      <trkpt lat="63.39175133" lon="10.46759733">
        <ele>203.914</ele>
        <time>1970-01-01T01:00:00Z</time>
      </trkpt>
      <trkpt lat="63.391764" lon="10.46755067">
        <ele>203.914</ele>
        <time>1970-01-01T01:00:00Z</time>
      </trkpt>
      <trkpt lat="63.391778" lon="10.46751267">
        <ele>203.304</ele>
        <time>1970-01-01T01:00:00Z</time>
      </trkpt>
      <trkpt lat="63.391795" lon="10.46747183">
        <ele>203.304</ele>
        <time>1970-01-01T01:00:00Z</time>
      </trkpt>
      <trkpt lat="63.3918115" lon="10.4674295">
        <ele>202.694</ele>
        <time>1970-01-01T01:00:00Z</time>
      </trkpt>
      <trkpt lat="63.39182783" lon="10.46737883">
        <ele>202.694</ele>
        <time>1970-01-01T01:00:00Z</time>
      </trkpt>
      <trkpt lat="63.391842" lon="10.46732917">
        <ele>202.085</ele>
        <time>1970-01-01T01:00:00Z</time>
      </trkpt>
      <trkpt lat="63.39185883" lon="10.46727383">
        <ele>202.085</ele>
        <time>1970-01-01T01:00:00Z</time>
      </trkpt>
      <trkpt lat="63.39187683" lon="10.4672225">
        <ele>201.628</ele>
        <time>1970-01-01T01:00:00Z</time>
      </trkpt>
      <trkpt lat="63.39189583" lon="10.46717367">
        <ele>201.628</ele>
        <time>1970-01-01T01:00:00Z</time>
      </trkpt>
      <trkpt lat="63.39191383" lon="10.46713417">
        <ele>201.018</ele>
        <time>1970-01-01T01:00:00Z</time>
      </trkpt>
      <trkpt lat="63.39193067" lon="10.46709533">
        <ele>201.018</ele>
        <time>1970-01-01T01:00:00Z</time>
      </trkpt>
      <trkpt lat="63.391947" lon="10.4670525">
        <ele>200.561</ele>
        <time>1970-01-01T01:00:00Z</time>
      </trkpt>
      <trkpt lat="63.39196183" lon="10.46700967">
        <ele>200.561</ele>
        <time>1970-01-01T01:00:00Z</time>
      </trkpt>
      <trkpt lat="63.391978" lon="10.46697017">
        <ele>199.951</ele>
        <time>1970-01-01T01:00:00Z</time>
      </trkpt>
      <trkpt lat="63.391994" lon="10.46693117">
        <ele>199.951</ele>
        <time>1970-01-01T01:00:00Z</time>
      </trkpt>
      <trkpt lat="63.39201067" lon="10.466889">
        <ele>199.494</ele>
        <time>1970-01-01T01:00:00Z</time>
      </trkpt>
      <trkpt lat="63.39202667" lon="10.46684483">
        <ele>199.494</ele>
        <time>1970-01-01T01:00:00Z</time>
      </trkpt>
      <trkpt lat="63.39204267" lon="10.466804">
        <ele>198.884</ele>
        <time>1970-01-01T01:00:00Z</time>
      </trkpt>
      <trkpt lat="63.3920585" lon="10.466764">
        <ele>198.884</ele>
        <time>1970-01-01T01:00:00Z</time>
      </trkpt>
      <trkpt lat="63.39207417" lon="10.4667255">
        <ele>198.275</ele>
        <time>1970-01-01T01:00:00Z</time>
      </trkpt>
      <trkpt lat="63.39208867" lon="10.466696">
        <ele>198.275</ele>
        <time>1970-01-01T01:00:00Z</time>
      </trkpt>
      <trkpt lat="63.39210617" lon="10.46666333">
        <ele>197.818</ele>
        <time>1970-01-01T01:00:00Z</time>
      </trkpt>
      <trkpt lat="63.39212233" lon="10.46662567">
        <ele>197.818</ele>
        <time>1970-01-01T01:00:00Z</time>
      </trkpt>
      <trkpt lat="63.3921395" lon="10.4665745">
        <ele>197.208</ele>
        <time>1970-01-01T01:00:00Z</time>
      </trkpt>
      <trkpt lat="63.39215283" lon="10.46652633">
        <ele>197.208</ele>
        <time>1970-01-01T01:00:00Z</time>
      </trkpt>
      <trkpt lat="63.39216583" lon="10.46647467">
        <ele>196.598</ele>
        <time>1970-01-01T01:00:00Z</time>
      </trkpt>
      <trkpt lat="63.39217917" lon="10.4664315">
        <ele>196.598</ele>
        <time>1970-01-01T01:00:00Z</time>
      </trkpt>
      <trkpt lat="63.39219483" lon="10.46639067">
        <ele>196.141</ele>
        <time>1970-01-01T01:00:00Z</time>
      </trkpt>
      <trkpt lat="63.39221417" lon="10.46635433">
        <ele>196.141</ele>
        <time>1970-01-01T01:00:00Z</time>
      </trkpt>
      <trkpt lat="63.39223517" lon="10.46631717">
        <ele>195.532</ele>
        <time>1970-01-01T01:00:00Z</time>
      </trkpt>
      <trkpt lat="63.3922575" lon="10.46628433">
        <ele>195.532</ele>
        <time>1970-01-01T01:00:00Z</time>
      </trkpt>
      <trkpt lat="63.39227633" lon="10.466251">
        <ele>194.922</ele>
        <time>1970-01-01T01:00:00Z</time>
      </trkpt>
      <trkpt lat="63.39229167" lon="10.46621383">
        <ele>194.922</ele>
        <time>1970-01-01T01:00:00Z</time>
      </trkpt>
      <trkpt lat="63.3923015" lon="10.466171">
        <ele>194.312</ele>
        <time>1970-01-01T01:00:00Z</time>
      </trkpt>
      <trkpt lat="63.39231383" lon="10.46612233">
        <ele>194.312</ele>
        <time>1970-01-01T01:00:00Z</time>
      </trkpt>
      <trkpt lat="63.39232667" lon="10.46607017">
        <ele>193.703</ele>
        <time>1970-01-01T01:00:00Z</time>
      </trkpt>
      <trkpt lat="63.39233867" lon="10.46602183">
        <ele>193.703</ele>
        <time>1970-01-01T01:00:00Z</time>
      </trkpt>
      <trkpt lat="63.39235133" lon="10.465979">
        <ele>193.093</ele>
        <time>1970-01-01T01:00:00Z</time>
      </trkpt>
      <trkpt lat="63.39236667" lon="10.465936">
        <ele>193.093</ele>
        <time>1970-01-01T01:00:00Z</time>
      </trkpt>
      <trkpt lat="63.39238717" lon="10.46589017">
        <ele>192.484</ele>
        <time>1970-01-01T01:00:00Z</time>
      </trkpt>
      <trkpt lat="63.392409" lon="10.46584583">
        <ele>192.484</ele>
        <time>1970-01-01T01:00:00Z</time>
      </trkpt>
      <trkpt lat="63.39243233" lon="10.46580517">
        <ele>192.026</ele>
        <time>1970-01-01T01:00:00Z</time>
      </trkpt>
      <trkpt lat="63.39245867" lon="10.46576383">
        <ele>192.026</ele>
        <time>1970-01-01T01:00:00Z</time>
      </trkpt>
      <trkpt lat="63.39248367" lon="10.46572367">
        <ele>191.569</ele>
        <time>1970-01-01T01:00:00Z</time>
      </trkpt>
      <trkpt lat="63.392506" lon="10.46568433">
        <ele>191.569</ele>
        <time>1970-01-01T01:00:00Z</time>
      </trkpt>
      <trkpt lat="63.39252383" lon="10.4656435">
        <ele>190.96</ele>
        <time>1970-01-01T01:00:00Z</time>
      </trkpt>
      <trkpt lat="63.39253967" lon="10.46559733">
        <ele>190.96</ele>
        <time>1970-01-01T01:00:00Z</time>
      </trkpt>
      <trkpt lat="63.39255517" lon="10.4655505">
        <ele>190.502</ele>
        <time>1970-01-01T01:00:00Z</time>
      </trkpt>
      <trkpt lat="63.392569" lon="10.46550367">
        <ele>190.502</ele>
        <time>1970-01-01T01:00:00Z</time>
      </trkpt>
      <trkpt lat="63.39258167" lon="10.46545917">
        <ele>190.045</ele>
        <time>1970-01-01T01:00:00Z</time>
      </trkpt>
      <trkpt lat="63.39259733" lon="10.4654115">
        <ele>190.045</ele>
        <time>1970-01-01T01:00:00Z</time>
      </trkpt>
      <trkpt lat="63.39261633" lon="10.4653635">
        <ele>189.588</ele>
        <time>1970-01-01T01:00:00Z</time>
      </trkpt>
      <trkpt lat="63.39263817" lon="10.46532083">
        <ele>189.588</ele>
        <time>1970-01-01T01:00:00Z</time>
      </trkpt>
      <trkpt lat="63.392658" lon="10.46528383">
        <ele>189.131</ele>
        <time>1970-01-01T01:00:00Z</time>
      </trkpt>
      <trkpt lat="63.39267583" lon="10.46524383">
        <ele>189.131</ele>
        <time>1970-01-01T01:00:00Z</time>
      </trkpt>
      <trkpt lat="63.39269217" lon="10.46520567">
        <ele>188.826</ele>
        <time>1970-01-01T01:00:00Z</time>
      </trkpt>
      <trkpt lat="63.39270833" lon="10.465167">
        <ele>188.826</ele>
        <time>1970-01-01T01:00:00Z</time>
      </trkpt>
      <trkpt lat="63.39272367" lon="10.46513133">
        <ele>188.369</ele>
        <time>1970-01-01T01:00:00Z</time>
      </trkpt>
      <trkpt lat="63.39273783" lon="10.46509483">
        <ele>188.369</ele>
        <time>1970-01-01T01:00:00Z</time>
      </trkpt>
      <trkpt lat="63.39275033" lon="10.46505933">
        <ele>187.911</ele>
        <time>1970-01-01T01:00:00Z</time>
      </trkpt>
      <trkpt lat="63.39276567" lon="10.46501817">
        <ele>187.911</ele>
        <time>1970-01-01T01:00:00Z</time>
      </trkpt>
      <trkpt lat="63.39278217" lon="10.46497467">
        <ele>187.607</ele>
        <time>1970-01-01T01:00:00Z</time>
      </trkpt>
      <trkpt lat="63.39279967" lon="10.46492817">
        <ele>187.607</ele>
        <time>1970-01-01T01:00:00Z</time>
      </trkpt>
      <trkpt lat="63.39281667" lon="10.46489233">
        <ele>187.149</ele>
        <time>1970-01-01T01:00:00Z</time>
      </trkpt>
      <trkpt lat="63.39283333" lon="10.46485883">
        <ele>187.149</ele>
        <time>1970-01-01T01:00:00Z</time>
      </trkpt>
      <trkpt lat="63.39285083" lon="10.46482617">
        <ele>186.845</ele>
        <time>1970-01-01T01:00:00Z</time>
      </trkpt>
      <trkpt lat="63.39286717" lon="10.46478717">
        <ele>186.845</ele>
        <time>1970-01-01T01:00:00Z</time>
      </trkpt>
      <trkpt lat="63.39288567" lon="10.4647505">
        <ele>186.54</ele>
        <time>1970-01-01T01:00:00Z</time>
      </trkpt>
      <trkpt lat="63.392904" lon="10.464716">
        <ele>186.54</ele>
        <time>1970-01-01T01:00:00Z</time>
      </trkpt>
      <trkpt lat="63.39292283" lon="10.46468617">
        <ele>186.235</ele>
        <time>1970-01-01T01:00:00Z</time>
      </trkpt>
      <trkpt lat="63.39294133" lon="10.4646485">
        <ele>186.235</ele>
        <time>1970-01-01T01:00:00Z</time>
      </trkpt>
      <trkpt lat="63.39296183" lon="10.464615">
        <ele>185.778</ele>
        <time>1970-01-01T01:00:00Z</time>
      </trkpt>
      <trkpt lat="63.39298267" lon="10.46458033">
        <ele>185.778</ele>
        <time>1970-01-01T01:00:00Z</time>
      </trkpt>
      <trkpt lat="63.3930035" lon="10.46455117">
        <ele>185.473</ele>
        <time>1970-01-01T01:00:00Z</time>
      </trkpt>
      <trkpt lat="63.39302167" lon="10.46451883">
        <ele>185.473</ele>
        <time>1970-01-01T01:00:00Z</time>
      </trkpt>
      <trkpt lat="63.39303833" lon="10.46448767">
        <ele>185.168</ele>
        <time>1970-01-01T01:00:00Z</time>
      </trkpt>
      <trkpt lat="63.39305333" lon="10.4644515">
        <ele>185.168</ele>
        <time>1970-01-01T01:00:00Z</time>
      </trkpt>
      <trkpt lat="63.39306983" lon="10.4644155">
        <ele>185.016</ele>
        <time>1970-01-01T01:00:00Z</time>
      </trkpt>
      <trkpt lat="63.3930855" lon="10.46437817">
        <ele>185.016</ele>
        <time>1970-01-01T01:00:00Z</time>
      </trkpt>
      <trkpt lat="63.39309967" lon="10.464343">
        <ele>184.711</ele>
        <time>1970-01-01T01:00:00Z</time>
      </trkpt>
      <trkpt lat="63.39311133" lon="10.4643105">
        <ele>184.711</ele>
        <time>1970-01-01T01:00:00Z</time>
      </trkpt>
      <trkpt lat="63.3931215" lon="10.464281">
        <ele>184.406</ele>
        <time>1970-01-01T01:00:00Z</time>
      </trkpt>
      <trkpt lat="63.39313183" lon="10.4642545">
        <ele>184.406</ele>
        <time>1970-01-01T01:00:00Z</time>
      </trkpt>
      <trkpt lat="63.393142" lon="10.46422617">
        <ele>184.101</ele>
        <time>1970-01-01T01:00:00Z</time>
      </trkpt>
      <trkpt lat="63.393154" lon="10.46419317">
        <ele>184.101</ele>
        <time>1970-01-01T01:00:00Z</time>
      </trkpt>
      <trkpt lat="63.39316633" lon="10.46416067">
        <ele>183.949</ele>
        <time>1970-01-01T01:00:00Z</time>
      </trkpt>
      <trkpt lat="63.39317867" lon="10.4641305">
        <ele>183.949</ele>
        <time>1970-01-01T01:00:00Z</time>
      </trkpt>
      <trkpt lat="63.3931885" lon="10.46411017">
        <ele>183.644</ele>
        <time>1970-01-01T01:00:00Z</time>
      </trkpt>
      <trkpt lat="63.39319667" lon="10.46408817">
        <ele>183.644</ele>
        <time>1970-01-01T01:00:00Z</time>
      </trkpt>
      <trkpt lat="63.39320267" lon="10.46406633">
        <ele>183.339</ele>
        <time>1970-01-01T01:00:00Z</time>
      </trkpt>
      <trkpt lat="63.393209" lon="10.46404">
        <ele>183.339</ele>
        <time>1970-01-01T01:00:00Z</time>
      </trkpt>
      <trkpt lat="63.39321733" lon="10.46401067">
        <ele>183.187</ele>
        <time>1970-01-01T01:00:00Z</time>
      </trkpt>
      <trkpt lat="63.39322533" lon="10.46398417">
        <ele>183.187</ele>
        <time>1970-01-01T01:00:00Z</time>
      </trkpt>
      <trkpt lat="63.39323517" lon="10.46395467">
        <ele>182.882</ele>
        <time>1970-01-01T01:00:00Z</time>
      </trkpt>
      <trkpt lat="63.39324833" lon="10.46392567">
        <ele>182.882</ele>
        <time>1970-01-01T01:00:00Z</time>
      </trkpt>
      <trkpt lat="63.39326333" lon="10.46389217">
        <ele>182.73</ele>
        <time>1970-01-01T01:00:00Z</time>
      </trkpt>
      <trkpt lat="63.3932795" lon="10.463858">
        <ele>182.73</ele>
        <time>1970-01-01T01:00:00Z</time>
      </trkpt>
      <trkpt lat="63.39329333" lon="10.46381717">
        <ele>182.425</ele>
        <time>1970-01-01T01:00:00Z</time>
      </trkpt>
      <trkpt lat="63.39330967" lon="10.4637705">
        <ele>182.425</ele>
        <time>1970-01-01T01:00:00Z</time>
      </trkpt>
      <trkpt lat="63.393324" lon="10.46372167">
        <ele>182.273</ele>
        <time>1970-01-01T01:00:00Z</time>
      </trkpt>
      <trkpt lat="63.39333717" lon="10.463676">
        <ele>182.273</ele>
        <time>1970-01-01T01:00:00Z</time>
      </trkpt>
      <trkpt lat="63.39334767" lon="10.46363633">
        <ele>181.968</ele>
        <time>1970-01-01T01:00:00Z</time>
      </trkpt>
      <trkpt lat="63.39335783" lon="10.463603">
        <ele>181.968</ele>
        <time>1970-01-01T01:00:00Z</time>
      </trkpt>
      <trkpt lat="63.3933655" lon="10.46357567">
        <ele>181.815</ele>
        <time>1970-01-01T01:00:00Z</time>
      </trkpt>
      <trkpt lat="63.3933705" lon="10.46354533">
        <ele>181.815</ele>
        <time>1970-01-01T01:00:00Z</time>
      </trkpt>
      <trkpt lat="63.39337133" lon="10.463519">
        <ele>181.511</ele>
        <time>1970-01-01T01:00:00Z</time>
      </trkpt>
      <trkpt lat="63.39337083" lon="10.46349467">
        <ele>181.511</ele>
        <time>1970-01-01T01:00:00Z</time>
      </trkpt>
      <trkpt lat="63.3933705" lon="10.4634775">
        <ele>181.206</ele>
        <time>1970-01-01T01:00:00Z</time>
      </trkpt>
      <trkpt lat="63.39337117" lon="10.46345933">
        <ele>181.206</ele>
        <time>1970-01-01T01:00:00Z</time>
      </trkpt>
      <trkpt lat="63.393372" lon="10.46344217">
        <ele>180.901</ele>
        <time>1970-01-01T01:00:00Z</time>
      </trkpt>
      <trkpt lat="63.3933755" lon="10.46341933">
        <ele>180.901</ele>
        <time>1970-01-01T01:00:00Z</time>
      </trkpt>
      <trkpt lat="63.393382" lon="10.4633975">
        <ele>180.596</ele>
        <time>1970-01-01T01:00:00Z</time>
      </trkpt>
      <trkpt lat="63.39338783" lon="10.46337717">
        <ele>180.596</ele>
        <time>1970-01-01T01:00:00Z</time>
      </trkpt>
      <trkpt lat="63.393392" lon="10.4633525">
        <ele>180.291</ele>
        <time>1970-01-01T01:00:00Z</time>
      </trkpt>
      <trkpt lat="63.39339183" lon="10.463324">
        <ele>180.291</ele>
        <time>1970-01-01T01:00:00Z</time>
      </trkpt>
      <trkpt lat="63.3933895" lon="10.46329267">
        <ele>179.987</ele>
        <time>1970-01-01T01:00:00Z</time>
      </trkpt>
      <trkpt lat="63.39338583" lon="10.4632665">
        <ele>179.987</ele>
        <time>1970-01-01T01:00:00Z</time>
      </trkpt>
      <trkpt lat="63.3933845" lon="10.46324033">
        <ele>179.529</ele>
        <time>1970-01-01T01:00:00Z</time>
      </trkpt>
      <trkpt lat="63.39338433" lon="10.46321517">
        <ele>179.529</ele>
        <time>1970-01-01T01:00:00Z</time>
      </trkpt>
      <trkpt lat="63.39338383" lon="10.46319233">
        <ele>179.072</ele>
        <time>1970-01-01T01:00:00Z</time>
      </trkpt>
      <trkpt lat="63.39338283" lon="10.46316333">
        <ele>179.072</ele>
        <time>1970-01-01T01:00:00Z</time>
      </trkpt>
      <trkpt lat="63.393381" lon="10.46313333">
        <ele>178.615</ele>
        <time>1970-01-01T01:00:00Z</time>
      </trkpt>
      <trkpt lat="63.39338533" lon="10.4631065">
        <ele>178.615</ele>
        <time>1970-01-01T01:00:00Z</time>
      </trkpt>
      <trkpt lat="63.39339267" lon="10.46308933">
        <ele>178.158</ele>
        <time>1970-01-01T01:00:00Z</time>
      </trkpt>
      <trkpt lat="63.39340167" lon="10.4630725">
        <ele>178.158</ele>
        <time>1970-01-01T01:00:00Z</time>
      </trkpt>
      <trkpt lat="63.39340617" lon="10.46305167">
        <ele>177.548</ele>
        <time>1970-01-01T01:00:00Z</time>
      </trkpt>
      <trkpt lat="63.39340883" lon="10.46302817">
        <ele>177.548</ele>
        <time>1970-01-01T01:00:00Z</time>
      </trkpt>
      <trkpt lat="63.3934105" lon="10.46300533">
        <ele>177.091</ele>
        <time>1970-01-01T01:00:00Z</time>
      </trkpt>
      <trkpt lat="63.393408" lon="10.4629805">
        <ele>177.091</ele>
        <time>1970-01-01T01:00:00Z</time>
      </trkpt>
      <trkpt lat="63.39340383" lon="10.4629545">
        <ele>176.481</ele>
        <time>1970-01-01T01:00:00Z</time>
      </trkpt>
      <trkpt lat="63.39340117" lon="10.46293083">
        <ele>176.481</ele>
        <time>1970-01-01T01:00:00Z</time>
      </trkpt>
      <trkpt lat="63.3933995" lon="10.462902">
        <ele>176.024</ele>
        <time>1970-01-01T01:00:00Z</time>
      </trkpt>
      <trkpt lat="63.39340017" lon="10.462872">
        <ele>176.024</ele>
        <time>1970-01-01T01:00:00Z</time>
      </trkpt>
      <trkpt lat="63.39339833" lon="10.46284367">
        <ele>175.415</ele>
        <time>1970-01-01T01:00:00Z</time>
      </trkpt>
      <trkpt lat="63.39340117" lon="10.46281933">
        <ele>175.415</ele>
        <time>1970-01-01T01:00:00Z</time>
      </trkpt>
      <trkpt lat="63.3934015" lon="10.46280117">
        <ele>174.805</ele>
        <time>1970-01-01T01:00:00Z</time>
      </trkpt>
      <trkpt lat="63.393402" lon="10.46278117">
        <ele>174.805</ele>
        <time>1970-01-01T01:00:00Z</time>
      </trkpt>
      <trkpt lat="63.39340183" lon="10.462765">
        <ele>174.195</ele>
        <time>1970-01-01T01:00:00Z</time>
      </trkpt>
      <trkpt lat="63.39340483" lon="10.46274417">
        <ele>174.195</ele>
        <time>1970-01-01T01:00:00Z</time>
      </trkpt>
      <trkpt lat="63.393408" lon="10.4627225">
        <ele>173.586</ele>
        <time>1970-01-01T01:00:00Z</time>
      </trkpt>
      <trkpt lat="63.39340967" lon="10.46269533">
        <ele>173.586</ele>
        <time>1970-01-01T01:00:00Z</time>
      </trkpt>
      <trkpt lat="63.39340917" lon="10.46266367">
        <ele>172.824</ele>
        <time>1970-01-01T01:00:00Z</time>
      </trkpt>
      <trkpt lat="63.3934085" lon="10.46263167">
        <ele>172.824</ele>
        <time>1970-01-01T01:00:00Z</time>
      </trkpt>
      <trkpt lat="63.393411" lon="10.462593">
        <ele>172.214</ele>
        <time>1970-01-01T01:00:00Z</time>
      </trkpt>
      <trkpt lat="63.39341667" lon="10.46255633">
        <ele>172.214</ele>
        <time>1970-01-01T01:00:00Z</time>
      </trkpt>
      <trkpt lat="63.393422" lon="10.46251767">
        <ele>171.452</ele>
        <time>1970-01-01T01:00:00Z</time>
      </trkpt>
      <trkpt lat="63.39342333" lon="10.46248833">
        <ele>171.452</ele>
        <time>1970-01-01T01:00:00Z</time>
      </trkpt>
      <trkpt lat="63.39342567" lon="10.46244683">
        <ele>170.69</ele>
        <time>1970-01-01T01:00:00Z</time>
      </trkpt>
      <trkpt lat="63.3934285" lon="10.46240383">
        <ele>170.69</ele>
        <time>1970-01-01T01:00:00Z</time>
      </trkpt>
      <trkpt lat="63.39343233" lon="10.462361">
        <ele>169.928</ele>
        <time>1970-01-01T01:00:00Z</time>
      </trkpt>
      <trkpt lat="63.39343317" lon="10.462332">
        <ele>169.928</ele>
        <time>1970-01-01T01:00:00Z</time>
      </trkpt>
      <trkpt lat="63.3934375" lon="10.46230717">
        <ele>169.014</ele>
        <time>1970-01-01T01:00:00Z</time>
      </trkpt>
      <trkpt lat="63.39344233" lon="10.462276">
        <ele>169.014</ele>
        <time>1970-01-01T01:00:00Z</time>
      </trkpt>
      <trkpt lat="63.39344717" lon="10.46225017">
        <ele>168.252</ele>
        <time>1970-01-01T01:00:00Z</time>
      </trkpt>
      <trkpt lat="63.39344933" lon="10.4622215">
        <ele>168.252</ele>
        <time>1970-01-01T01:00:00Z</time>
      </trkpt>
      <trkpt lat="63.39345267" lon="10.46219617">
        <ele>167.337</ele>
        <time>1970-01-01T01:00:00Z</time>
      </trkpt>
      <trkpt lat="63.39345383" lon="10.46216583">
        <ele>167.337</ele>
        <time>1970-01-01T01:00:00Z</time>
      </trkpt>
      <trkpt lat="63.39345717" lon="10.46213117">
        <ele>166.423</ele>
        <time>1970-01-01T01:00:00Z</time>
      </trkpt>
      <trkpt lat="63.39346133" lon="10.46210283">
        <ele>166.423</ele>
        <time>1970-01-01T01:00:00Z</time>
      </trkpt>
      <trkpt lat="63.39347417" lon="10.46207283">
        <ele>165.508</ele>
        <time>1970-01-01T01:00:00Z</time>
      </trkpt>
      <trkpt lat="63.3934865" lon="10.46204833">
        <ele>165.508</ele>
        <time>1970-01-01T01:00:00Z</time>
      </trkpt>
      <trkpt lat="63.39349967" lon="10.46202017">
        <ele>164.594</ele>
        <time>1970-01-01T01:00:00Z</time>
      </trkpt>
      <trkpt lat="63.39350667" lon="10.4619905">
        <ele>164.594</ele>
        <time>1970-01-01T01:00:00Z</time>
      </trkpt>
      <trkpt lat="63.39351383" lon="10.46195783">
        <ele>163.68</ele>
        <time>1970-01-01T01:00:00Z</time>
      </trkpt>
      <trkpt lat="63.393518" lon="10.46192617">
        <ele>163.68</ele>
        <time>1970-01-01T01:00:00Z</time>
      </trkpt>
      <trkpt lat="63.3935175" lon="10.46189617">
        <ele>162.765</ele>
        <time>1970-01-01T01:00:00Z</time>
      </trkpt>
      <trkpt lat="63.393514" lon="10.46186867">
        <ele>162.765</ele>
        <time>1970-01-01T01:00:00Z</time>
      </trkpt>
      <trkpt lat="63.39350967" lon="10.46184383">
        <ele>161.698</ele>
        <time>1970-01-01T01:00:00Z</time>
      </trkpt>
      <trkpt lat="63.39350767" lon="10.461822">
        <ele>161.698</ele>
        <time>1970-01-01T01:00:00Z</time>
      </trkpt>
      <trkpt lat="63.39351" lon="10.46180467">
        <ele>160.784</ele>
        <time>1970-01-01T01:00:00Z</time>
      </trkpt>
      <trkpt lat="63.393514" lon="10.46178533">
        <ele>160.784</ele>
        <time>1970-01-01T01:00:00Z</time>
      </trkpt>
      <trkpt lat="63.39352033" lon="10.46176467">
        <ele>159.717</ele>
        <time>1970-01-01T01:00:00Z</time>
      </trkpt>
      <trkpt lat="63.39352233" lon="10.46174167">
        <ele>159.717</ele>
        <time>1970-01-01T01:00:00Z</time>
      </trkpt>
      <trkpt lat="63.39352333" lon="10.46171583">
        <ele>158.803</ele>
        <time>1970-01-01T01:00:00Z</time>
      </trkpt>
      <trkpt lat="63.39352167" lon="10.4616885">
        <ele>158.803</ele>
        <time>1970-01-01T01:00:00Z</time>
      </trkpt>
      <trkpt lat="63.39351967" lon="10.46165883">
        <ele>157.736</ele>
        <time>1970-01-01T01:00:00Z</time>
      </trkpt>
      <trkpt lat="63.393517" lon="10.46163133">
        <ele>157.736</ele>
        <time>1970-01-01T01:00:00Z</time>
      </trkpt>
      <trkpt lat="63.39351383" lon="10.46159967">
        <ele>156.669</ele>
        <time>1970-01-01T01:00:00Z</time>
      </trkpt>
      <trkpt lat="63.39351133" lon="10.46156667">
        <ele>156.669</ele>
        <time>1970-01-01T01:00:00Z</time>
      </trkpt>
      <trkpt lat="63.39350817" lon="10.46153417">
        <ele>155.602</ele>
        <time>1970-01-01T01:00:00Z</time>
      </trkpt>
      <trkpt lat="63.3935105" lon="10.46150817">
        <ele>155.602</ele>
        <time>1970-01-01T01:00:00Z</time>
      </trkpt>
      <trkpt lat="63.393527" lon="10.46148667">
        <ele>154.535</ele>
        <time>1970-01-01T01:00:00Z</time>
      </trkpt>
      <trkpt lat="63.39355767" lon="10.46146983">
        <ele>154.535</ele>
        <time>1970-01-01T01:00:00Z</time>
      </trkpt>
      <trkpt lat="63.39359567" lon="10.46144917">
        <ele>153.773</ele>
        <time>1970-01-01T01:00:00Z</time>
      </trkpt>
      <trkpt lat="63.39363033" lon="10.46142083">
        <ele>153.773</ele>
        <time>1970-01-01T01:00:00Z</time>
      </trkpt>
      <trkpt lat="63.39365917" lon="10.46138683">
        <ele>153.164</ele>
        <time>1970-01-01T01:00:00Z</time>
      </trkpt>
      <trkpt lat="63.39368317" lon="10.46135617">
        <ele>153.164</ele>
        <time>1970-01-01T01:00:00Z</time>
      </trkpt>
      <trkpt lat="63.3937045" lon="10.46132683">
        <ele>152.859</ele>
        <time>1970-01-01T01:00:00Z</time>
      </trkpt>
      <trkpt lat="63.39372383" lon="10.46129817">
        <ele>152.859</ele>
        <time>1970-01-01T01:00:00Z</time>
      </trkpt>
      <trkpt lat="63.3937385" lon="10.46127033">
        <ele>152.554</ele>
        <time>1970-01-01T01:00:00Z</time>
      </trkpt>
      <trkpt lat="63.39375183" lon="10.46124817">
        <ele>152.554</ele>
        <time>1970-01-01T01:00:00Z</time>
      </trkpt>
      <trkpt lat="63.39376767" lon="10.46122267">
        <ele>152.402</ele>
        <time>1970-01-01T01:00:00Z</time>
      </trkpt>
      <trkpt lat="63.39379" lon="10.461197">
        <ele>152.402</ele>
        <time>1970-01-01T01:00:00Z</time>
      </trkpt>
      <trkpt lat="63.393815" lon="10.46116617">
        <ele>152.402</ele>
        <time>1970-01-01T01:00:00Z</time>
      </trkpt>
      <trkpt lat="63.393843" lon="10.4611335">
        <ele>152.402</ele>
        <time>1970-01-01T01:00:00Z</time>
      </trkpt>
      <trkpt lat="63.39387733" lon="10.46109817">
        <ele>152.554</ele>
        <time>1970-01-01T01:00:00Z</time>
      </trkpt>
      <trkpt lat="63.3939115" lon="10.46106133">
        <ele>152.554</ele>
        <time>1970-01-01T01:00:00Z</time>
      </trkpt>
      <trkpt lat="63.39394517" lon="10.46102667">
        <ele>153.011</ele>
        <time>1970-01-01T01:00:00Z</time>
      </trkpt>
      <trkpt lat="63.39397817" lon="10.46099167">
        <ele>153.011</ele>
        <time>1970-01-01T01:00:00Z</time>
      </trkpt>
      <trkpt lat="63.3940145" lon="10.46096033">
        <ele>153.621</ele>
        <time>1970-01-01T01:00:00Z</time>
      </trkpt>
      <trkpt lat="63.39404983" lon="10.46092783">
        <ele>153.621</ele>
        <time>1970-01-01T01:00:00Z</time>
      </trkpt>
      <trkpt lat="63.3940795" lon="10.46089667">
        <ele>154.383</ele>
        <time>1970-01-01T01:00:00Z</time>
      </trkpt>
      <trkpt lat="63.39410617" lon="10.46086383">
        <ele>154.383</ele>
        <time>1970-01-01T01:00:00Z</time>
      </trkpt>
      <trkpt lat="63.39413817" lon="10.46083367">
        <ele>155.297</ele>
        <time>1970-01-01T01:00:00Z</time>
      </trkpt>
      <trkpt lat="63.39417167" lon="10.4608035">
        <ele>155.297</ele>
        <time>1970-01-01T01:00:00Z</time>
      </trkpt>
      <trkpt lat="63.39420583" lon="10.4607735">
        <ele>156.364</ele>
        <time>1970-01-01T01:00:00Z</time>
      </trkpt>
      <trkpt lat="63.39423367" lon="10.460741">
        <ele>156.364</ele>
        <time>1970-01-01T01:00:00Z</time>
      </trkpt>
      <trkpt lat="63.39425633" lon="10.46070683">
        <ele>157.584</ele>
        <time>1970-01-01T01:00:00Z</time>
      </trkpt>
      <trkpt lat="63.39427433" lon="10.46067383">
        <ele>157.584</ele>
        <time>1970-01-01T01:00:00Z</time>
      </trkpt>
      <trkpt lat="63.3942905" lon="10.46063917">
        <ele>158.803</ele>
        <time>1970-01-01T01:00:00Z</time>
      </trkpt>
      <trkpt lat="63.39430817" lon="10.46060683">
        <ele>158.803</ele>
        <time>1970-01-01T01:00:00Z</time>
      </trkpt>
      <trkpt lat="63.394326" lon="10.46057383">
        <ele>160.174</ele>
        <time>1970-01-01T01:00:00Z</time>
      </trkpt>
      <trkpt lat="63.394343" lon="10.46054183">
        <ele>160.174</ele>
        <time>1970-01-01T01:00:00Z</time>
      </trkpt>
      <trkpt lat="63.39435967" lon="10.46050783">
        <ele>161.394</ele>
        <time>1970-01-01T01:00:00Z</time>
      </trkpt>
      <trkpt lat="63.39437617" lon="10.46047317">
        <ele>161.394</ele>
        <time>1970-01-01T01:00:00Z</time>
      </trkpt>
      <trkpt lat="63.39439267" lon="10.460443">
        <ele>162.765</ele>
        <time>1970-01-01T01:00:00Z</time>
      </trkpt>
      <trkpt lat="63.39440983" lon="10.46041167">
        <ele>162.765</ele>
        <time>1970-01-01T01:00:00Z</time>
      </trkpt>
      <trkpt lat="63.39442617" lon="10.46038133">
        <ele>163.984</ele>
        <time>1970-01-01T01:00:00Z</time>
      </trkpt>
      <trkpt lat="63.39444133" lon="10.46034867">
        <ele>163.984</ele>
        <time>1970-01-01T01:00:00Z</time>
      </trkpt>
      <trkpt lat="63.39445633" lon="10.46031433">
        <ele>165.356</ele>
        <time>1970-01-01T01:00:00Z</time>
      </trkpt>
      <trkpt lat="63.39447" lon="10.46027767">
        <ele>165.356</ele>
        <time>1970-01-01T01:00:00Z</time>
      </trkpt>
      <trkpt lat="63.39448783" lon="10.46024133">
        <ele>166.575</ele>
        <time>1970-01-01T01:00:00Z</time>
      </trkpt>
      <trkpt lat="63.39450583" lon="10.46020617">
        <ele>166.575</ele>
        <time>1970-01-01T01:00:00Z</time>
      </trkpt>
      <trkpt lat="63.394526" lon="10.46016917">
        <ele>167.794</ele>
        <time>1970-01-01T01:00:00Z</time>
      </trkpt>
      <trkpt lat="63.39454417" lon="10.460134">
        <ele>167.794</ele>
        <time>1970-01-01T01:00:00Z</time>
      </trkpt>
      <trkpt lat="63.39456233" lon="10.46010083">
        <ele>169.014</ele>
        <time>1970-01-01T01:00:00Z</time>
      </trkpt>
      <trkpt lat="63.39457967" lon="10.4600745">
        <ele>169.014</ele>
        <time>1970-01-01T01:00:00Z</time>
      </trkpt>
      <trkpt lat="63.39459583" lon="10.46004467">
        <ele>170.08</ele>
        <time>1970-01-01T01:00:00Z</time>
      </trkpt>
      <trkpt lat="63.39461183" lon="10.46001533">
        <ele>170.08</ele>
        <time>1970-01-01T01:00:00Z</time>
      </trkpt>
      <trkpt lat="63.39462783" lon="10.45998383">
        <ele>171.3</ele>
        <time>1970-01-01T01:00:00Z</time>
      </trkpt>
      <trkpt lat="63.39464317" lon="10.45995467">
        <ele>171.3</ele>
        <time>1970-01-01T01:00:00Z</time>
      </trkpt>
      <trkpt lat="63.39465733" lon="10.45992183">
        <ele>172.366</ele>
        <time>1970-01-01T01:00:00Z</time>
      </trkpt>
      <trkpt lat="63.39466833" lon="10.45988933">
        <ele>172.366</ele>
        <time>1970-01-01T01:00:00Z</time>
      </trkpt>
      <trkpt lat="63.39467967" lon="10.4598555">
        <ele>173.433</ele>
        <time>1970-01-01T01:00:00Z</time>
      </trkpt>
      <trkpt lat="63.3946885" lon="10.45982083">
        <ele>173.433</ele>
        <time>1970-01-01T01:00:00Z</time>
      </trkpt>
      <trkpt lat="63.394701" lon="10.45978483">
        <ele>174.5</ele>
        <time>1970-01-01T01:00:00Z</time>
      </trkpt>
      <trkpt lat="63.39471317" lon="10.45974883">
        <ele>174.5</ele>
        <time>1970-01-01T01:00:00Z</time>
      </trkpt>
      <trkpt lat="63.39472883" lon="10.459716">
        <ele>175.567</ele>
        <time>1970-01-01T01:00:00Z</time>
      </trkpt>
      <trkpt lat="63.39474333" lon="10.45968217">
        <ele>175.567</ele>
        <time>1970-01-01T01:00:00Z</time>
      </trkpt>
      <trkpt lat="63.39475583" lon="10.45964717">
        <ele>176.634</ele>
        <time>1970-01-01T01:00:00Z</time>
      </trkpt>
      <trkpt lat="63.39476583" lon="10.45960917">
        <ele>176.634</ele>
        <time>1970-01-01T01:00:00Z</time>
      </trkpt>
      <trkpt lat="63.3947765" lon="10.45957183">
        <ele>177.548</ele>
        <time>1970-01-01T01:00:00Z</time>
      </trkpt>
      <trkpt lat="63.39478717" lon="10.4595335">
        <ele>177.548</ele>
        <time>1970-01-01T01:00:00Z</time>
      </trkpt>
      <trkpt lat="63.394796" lon="10.45949333">
        <ele>178.463</ele>
        <time>1970-01-01T01:00:00Z</time>
      </trkpt>
      <trkpt lat="63.39480317" lon="10.45945433">
        <ele>178.463</ele>
        <time>1970-01-01T01:00:00Z</time>
      </trkpt>
      <trkpt lat="63.394813" lon="10.45941733">
        <ele>179.377</ele>
        <time>1970-01-01T01:00:00Z</time>
      </trkpt>
      <trkpt lat="63.394825" lon="10.45938683">
        <ele>179.377</ele>
        <time>1970-01-01T01:00:00Z</time>
      </trkpt>
      <trkpt lat="63.3948405" lon="10.459362">
        <ele>180.291</ele>
        <time>1970-01-01T01:00:00Z</time>
      </trkpt>
      <trkpt lat="63.39485483" lon="10.45933883">
        <ele>180.291</ele>
        <time>1970-01-01T01:00:00Z</time>
      </trkpt>
      <trkpt lat="63.39486867" lon="10.45931467">
        <ele>181.053</ele>
        <time>1970-01-01T01:00:00Z</time>
      </trkpt>
      <trkpt lat="63.394879" lon="10.4592845">
        <ele>181.053</ele>
        <time>1970-01-01T01:00:00Z</time>
      </trkpt>
      <trkpt lat="63.39488783" lon="10.45925467">
        <ele>181.968</ele>
        <time>1970-01-01T01:00:00Z</time>
      </trkpt>
      <trkpt lat="63.3948975" lon="10.45922533">
        <ele>181.968</ele>
        <time>1970-01-01T01:00:00Z</time>
      </trkpt>
      <trkpt lat="63.39491033" lon="10.45920067">
        <ele>182.73</ele>
        <time>1970-01-01T01:00:00Z</time>
      </trkpt>
      <trkpt lat="63.39492467" lon="10.459176">
        <ele>182.73</ele>
        <time>1970-01-01T01:00:00Z</time>
      </trkpt>
      <trkpt lat="63.39494" lon="10.45914833">
        <ele>183.492</ele>
        <time>1970-01-01T01:00:00Z</time>
      </trkpt>
      <trkpt lat="63.3949555" lon="10.4591215">
        <ele>183.492</ele>
        <time>1970-01-01T01:00:00Z</time>
      </trkpt>
      <trkpt lat="63.39497183" lon="10.45910083">
        <ele>184.101</ele>
        <time>1970-01-01T01:00:00Z</time>
      </trkpt>
      <trkpt lat="63.394988" lon="10.4590875">
        <ele>184.101</ele>
        <time>1970-01-01T01:00:00Z</time>
      </trkpt>
      <trkpt lat="63.3950025" lon="10.4590745">
        <ele>184.863</ele>
        <time>1970-01-01T01:00:00Z</time>
      </trkpt>
      <trkpt lat="63.39501683" lon="10.45905717">
        <ele>184.863</ele>
        <time>1970-01-01T01:00:00Z</time>
      </trkpt>
      <trkpt lat="63.3950315" lon="10.4590325">
        <ele>185.625</ele>
        <time>1970-01-01T01:00:00Z</time>
      </trkpt>
      <trkpt lat="63.39504917" lon="10.45900433">
        <ele>185.625</ele>
        <time>1970-01-01T01:00:00Z</time>
      </trkpt>
      <trkpt lat="63.395069" lon="10.45897217">
        <ele>186.235</ele>
        <time>1970-01-01T01:00:00Z</time>
      </trkpt>
      <trkpt lat="63.39508983" lon="10.45894517">
        <ele>186.235</ele>
        <time>1970-01-01T01:00:00Z</time>
      </trkpt>
      <trkpt lat="63.39510917" lon="10.45892317">
        <ele>186.997</ele>
        <time>1970-01-01T01:00:00Z</time>
      </trkpt>
      <trkpt lat="63.39512533" lon="10.45890567">
        <ele>186.997</ele>
        <time>1970-01-01T01:00:00Z</time>
      </trkpt>
      <trkpt lat="63.39514283" lon="10.45888983">
        <ele>187.607</ele>
        <time>1970-01-01T01:00:00Z</time>
      </trkpt>
      <trkpt lat="63.395161" lon="10.45887183">
        <ele>187.607</ele>
        <time>1970-01-01T01:00:00Z</time>
      </trkpt>
      <trkpt lat="63.39518267" lon="10.45884833">
        <ele>188.216</ele>
        <time>1970-01-01T01:00:00Z</time>
      </trkpt>
      <trkpt lat="63.39520367" lon="10.4588235">
        <ele>188.216</ele>
        <time>1970-01-01T01:00:00Z</time>
      </trkpt>
      <trkpt lat="63.39522583" lon="10.458796">
        <ele>188.826</ele>
        <time>1970-01-01T01:00:00Z</time>
      </trkpt>
      <trkpt lat="63.395247" lon="10.45877167">
        <ele>188.826</ele>
        <time>1970-01-01T01:00:00Z</time>
      </trkpt>
      <trkpt lat="63.39526667" lon="10.4587425">
        <ele>189.436</ele>
        <time>1970-01-01T01:00:00Z</time>
      </trkpt>
      <trkpt lat="63.39528217" lon="10.45871483">
        <ele>189.436</ele>
        <time>1970-01-01T01:00:00Z</time>
      </trkpt>
      <trkpt lat="63.395297" lon="10.45868867">
        <ele>189.893</ele>
        <time>1970-01-01T01:00:00Z</time>
      </trkpt>
      <trkpt lat="63.39531167" lon="10.45866967">
        <ele>189.893</ele>
        <time>1970-01-01T01:00:00Z</time>
      </trkpt>
      <trkpt lat="63.39532833" lon="10.45865083">
        <ele>190.35</ele>
        <time>1970-01-01T01:00:00Z</time>
      </trkpt>
      <trkpt lat="63.395345" lon="10.45863233">
        <ele>190.35</ele>
        <time>1970-01-01T01:00:00Z</time>
      </trkpt>
      <trkpt lat="63.395363" lon="10.45860767">
        <ele>190.807</ele>
        <time>1970-01-01T01:00:00Z</time>
      </trkpt>
      <trkpt lat="63.39538233" lon="10.45857883">
        <ele>190.807</ele>
        <time>1970-01-01T01:00:00Z</time>
      </trkpt>
      <trkpt lat="63.395401" lon="10.45855117">
        <ele>191.264</ele>
        <time>1970-01-01T01:00:00Z</time>
      </trkpt>
      <trkpt lat="63.39542017" lon="10.45852267">
        <ele>191.264</ele>
        <time>1970-01-01T01:00:00Z</time>
      </trkpt>
      <trkpt lat="63.39543867" lon="10.4584955">
        <ele>191.569</ele>
        <time>1970-01-01T01:00:00Z</time>
      </trkpt>
      <trkpt lat="63.39545567" lon="10.458467">
        <ele>191.569</ele>
        <time>1970-01-01T01:00:00Z</time>
      </trkpt>
      <trkpt lat="63.3954695" lon="10.45844933">
        <ele>191.874</ele>
        <time>1970-01-01T01:00:00Z</time>
      </trkpt>
      <trkpt lat="63.3954835" lon="10.45843183">
        <ele>191.874</ele>
        <time>1970-01-01T01:00:00Z</time>
      </trkpt>
      <trkpt lat="63.3954995" lon="10.45840817">
        <ele>192.179</ele>
        <time>1970-01-01T01:00:00Z</time>
      </trkpt>
      <trkpt lat="63.39551683" lon="10.4583765">
        <ele>192.179</ele>
        <time>1970-01-01T01:00:00Z</time>
      </trkpt>
      <trkpt lat="63.39553417" lon="10.45834283">
        <ele>192.484</ele>
        <time>1970-01-01T01:00:00Z</time>
      </trkpt>
      <trkpt lat="63.39555017" lon="10.45831633">
        <ele>192.484</ele>
        <time>1970-01-01T01:00:00Z</time>
      </trkpt>
      <trkpt lat="63.3955655" lon="10.45828867">
        <ele>192.788</ele>
        <time>1970-01-01T01:00:00Z</time>
      </trkpt>
      <trkpt lat="63.39558433" lon="10.45826267">
        <ele>192.788</ele>
        <time>1970-01-01T01:00:00Z</time>
      </trkpt>
      <trkpt lat="63.395606" lon="10.45823333">
        <ele>193.093</ele>
        <time>1970-01-01T01:00:00Z</time>
      </trkpt>
      <trkpt lat="63.39563033" lon="10.45820967">
        <ele>193.093</ele>
        <time>1970-01-01T01:00:00Z</time>
      </trkpt>
      <trkpt lat="63.395655" lon="10.45819017">
        <ele>193.398</ele>
        <time>1970-01-01T01:00:00Z</time>
      </trkpt>
      <trkpt lat="63.39568167" lon="10.45818133">
        <ele>193.398</ele>
        <time>1970-01-01T01:00:00Z</time>
      </trkpt>
      <trkpt lat="63.395709" lon="10.45817733">
        <ele>193.703</ele>
        <time>1970-01-01T01:00:00Z</time>
      </trkpt>
      <trkpt lat="63.39573467" lon="10.45817583">
        <ele>193.703</ele>
        <time>1970-01-01T01:00:00Z</time>
      </trkpt>
      <trkpt lat="63.395758" lon="10.458174">
        <ele>194.008</ele>
        <time>1970-01-01T01:00:00Z</time>
      </trkpt>
      <trkpt lat="63.39577933" lon="10.45817517">
        <ele>194.008</ele>
        <time>1970-01-01T01:00:00Z</time>
      </trkpt>
      <trkpt lat="63.39580117" lon="10.45818017">
        <ele>194.312</ele>
        <time>1970-01-01T01:00:00Z</time>
      </trkpt>
      <trkpt lat="63.39582383" lon="10.45818933">
        <ele>194.312</ele>
        <time>1970-01-01T01:00:00Z</time>
      </trkpt>
      <trkpt lat="63.39584667" lon="10.45819633">
        <ele>194.617</ele>
        <time>1970-01-01T01:00:00Z</time>
      </trkpt>
      <trkpt lat="63.39587067" lon="10.45820333">
        <ele>194.617</ele>
        <time>1970-01-01T01:00:00Z</time>
      </trkpt>
      <trkpt lat="63.39589467" lon="10.45821533">
        <ele>194.922</ele>
        <time>1970-01-01T01:00:00Z</time>
      </trkpt>
      <trkpt lat="63.39591883" lon="10.45822983">
        <ele>194.922</ele>
        <time>1970-01-01T01:00:00Z</time>
      </trkpt>
      <trkpt lat="63.3959425" lon="10.45824967">
        <ele>195.074</ele>
        <time>1970-01-01T01:00:00Z</time>
      </trkpt>
      <trkpt lat="63.39596433" lon="10.45826583">
        <ele>195.074</ele>
        <time>1970-01-01T01:00:00Z</time>
      </trkpt>
      <trkpt lat="63.395985" lon="10.45828183">
        <ele>195.379</ele>
        <time>1970-01-01T01:00:00Z</time>
      </trkpt>
      <trkpt lat="63.396006" lon="10.458298">
        <ele>195.379</ele>
        <time>1970-01-01T01:00:00Z</time>
      </trkpt>
      <trkpt lat="63.39602917" lon="10.45831483">
        <ele>195.532</ele>
        <time>1970-01-01T01:00:00Z</time>
      </trkpt>
      <trkpt lat="63.39605267" lon="10.45833483">
        <ele>195.532</ele>
        <time>1970-01-01T01:00:00Z</time>
      </trkpt>
      <trkpt lat="63.39607517" lon="10.45835917">
        <ele>195.836</ele>
        <time>1970-01-01T01:00:00Z</time>
      </trkpt>
      <trkpt lat="63.39609667" lon="10.45839">
        <ele>195.836</ele>
        <time>1970-01-01T01:00:00Z</time>
      </trkpt>
      <trkpt lat="63.39611717" lon="10.45841883">
        <ele>195.989</ele>
        <time>1970-01-01T01:00:00Z</time>
      </trkpt>
      <trkpt lat="63.39613617" lon="10.45844267">
        <ele>195.989</ele>
        <time>1970-01-01T01:00:00Z</time>
      </trkpt>
      <trkpt lat="63.39615517" lon="10.45846033">
        <ele>196.141</ele>
        <time>1970-01-01T01:00:00Z</time>
      </trkpt>
      <trkpt lat="63.39617367" lon="10.45848">
        <ele>196.141</ele>
        <time>1970-01-01T01:00:00Z</time>
      </trkpt>
      <trkpt lat="63.396191" lon="10.45849833">
        <ele>196.294</ele>
        <time>1970-01-01T01:00:00Z</time>
      </trkpt>
      <trkpt lat="63.3962075" lon="10.4585185">
        <ele>196.294</ele>
        <time>1970-01-01T01:00:00Z</time>
      </trkpt>
      <trkpt lat="63.39622483" lon="10.45853933">
        <ele>196.446</ele>
        <time>1970-01-01T01:00:00Z</time>
      </trkpt>
      <trkpt lat="63.39624283" lon="10.45856783">
        <ele>196.446</ele>
        <time>1970-01-01T01:00:00Z</time>
      </trkpt>
      <trkpt lat="63.3962585" lon="10.45859183">
        <ele>196.446</ele>
        <time>1970-01-01T01:00:00Z</time>
      </trkpt>
      <trkpt lat="63.3962745" lon="10.45861617">
        <ele>196.446</ele>
        <time>1970-01-01T01:00:00Z</time>
      </trkpt>
      <trkpt lat="63.39629017" lon="10.45862833">
        <ele>196.598</ele>
        <time>1970-01-01T01:00:00Z</time>
      </trkpt>
      <trkpt lat="63.396308" lon="10.45864283">
        <ele>196.598</ele>
        <time>1970-01-01T01:00:00Z</time>
      </trkpt>
      <trkpt lat="63.39632667" lon="10.4586525">
        <ele>196.598</ele>
        <time>1970-01-01T01:00:00Z</time>
      </trkpt>
      <trkpt lat="63.39634733" lon="10.4586605">
        <ele>196.598</ele>
        <time>1970-01-01T01:00:00Z</time>
      </trkpt>
      <trkpt lat="63.39637017" lon="10.458663">
        <ele>196.751</ele>
        <time>1970-01-01T01:00:00Z</time>
      </trkpt>
      <trkpt lat="63.3963935" lon="10.458664">
        <ele>196.751</ele>
        <time>1970-01-01T01:00:00Z</time>
      </trkpt>
      <trkpt lat="63.39641617" lon="10.45866917">
        <ele>196.751</ele>
        <time>1970-01-01T01:00:00Z</time>
      </trkpt>
      <trkpt lat="63.39643683" lon="10.45867617">
        <ele>196.751</ele>
        <time>1970-01-01T01:00:00Z</time>
      </trkpt>
      <trkpt lat="63.3964595" lon="10.4586845">
        <ele>196.751</ele>
        <time>1970-01-01T01:00:00Z</time>
      </trkpt>
      <trkpt lat="63.39648333" lon="10.45869467">
        <ele>196.751</ele>
        <time>1970-01-01T01:00:00Z</time>
      </trkpt>
      <trkpt lat="63.396511" lon="10.458713">
        <ele>196.751</ele>
        <time>1970-01-01T01:00:00Z</time>
      </trkpt>
      <trkpt lat="63.39653967" lon="10.458744">
        <ele>196.751</ele>
        <time>1970-01-01T01:00:00Z</time>
      </trkpt>
      <trkpt lat="63.39656817" lon="10.458779">
        <ele>196.751</ele>
        <time>1970-01-01T01:00:00Z</time>
      </trkpt>
      <trkpt lat="63.39659367" lon="10.45881567">
        <ele>196.751</ele>
        <time>1970-01-01T01:00:00Z</time>
      </trkpt>
      <trkpt lat="63.396619" lon="10.45884667">
        <ele>196.751</ele>
        <time>1970-01-01T01:00:00Z</time>
      </trkpt>
      <trkpt lat="63.39664567" lon="10.45887567">
        <ele>196.751</ele>
        <time>1970-01-01T01:00:00Z</time>
      </trkpt>
      <trkpt lat="63.39667067" lon="10.4589005">
        <ele>196.751</ele>
        <time>1970-01-01T01:00:00Z</time>
      </trkpt>
      <trkpt lat="63.39669133" lon="10.4589295">
        <ele>196.751</ele>
        <time>1970-01-01T01:00:00Z</time>
      </trkpt>
      <trkpt lat="63.396712" lon="10.45896333">
        <ele>196.751</ele>
        <time>1970-01-01T01:00:00Z</time>
      </trkpt>
      <trkpt lat="63.39673483" lon="10.4589985">
        <ele>196.751</ele>
        <time>1970-01-01T01:00:00Z</time>
      </trkpt>
      <trkpt lat="63.39675983" lon="10.45903133">
        <ele>196.751</ele>
        <time>1970-01-01T01:00:00Z</time>
      </trkpt>
      <trkpt lat="63.3967815" lon="10.45906633">
        <ele>196.751</ele>
        <time>1970-01-01T01:00:00Z</time>
      </trkpt>
      <trkpt lat="63.396802" lon="10.45910317">
        <ele>196.751</ele>
        <time>1970-01-01T01:00:00Z</time>
      </trkpt>
      <trkpt lat="63.39682233" lon="10.45914083">
        <ele>196.751</ele>
        <time>1970-01-01T01:00:00Z</time>
      </trkpt>
      <trkpt lat="63.396844" lon="10.45918133">
        <ele>196.598</ele>
        <time>1970-01-01T01:00:00Z</time>
      </trkpt>
      <trkpt lat="63.39686633" lon="10.459219">
        <ele>196.598</ele>
        <time>1970-01-01T01:00:00Z</time>
      </trkpt>
      <trkpt lat="63.396887" lon="10.459247">
        <ele>196.598</ele>
        <time>1970-01-01T01:00:00Z</time>
      </trkpt>
      <trkpt lat="63.39690683" lon="10.4592695">
        <ele>196.598</ele>
        <time>1970-01-01T01:00:00Z</time>
      </trkpt>
      <trkpt lat="63.3969255" lon="10.45928683">
        <ele>196.598</ele>
        <time>1970-01-01T01:00:00Z</time>
      </trkpt>
      <trkpt lat="63.39694333" lon="10.459307">
        <ele>196.598</ele>
        <time>1970-01-01T01:00:00Z</time>
      </trkpt>
      <trkpt lat="63.39696" lon="10.4593275">
        <ele>196.598</ele>
        <time>1970-01-01T01:00:00Z</time>
      </trkpt>
      <trkpt lat="63.396976" lon="10.459348">
        <ele>196.598</ele>
        <time>1970-01-01T01:00:00Z</time>
      </trkpt>
      <trkpt lat="63.3969935" lon="10.45937117">
        <ele>196.598</ele>
        <time>1970-01-01T01:00:00Z</time>
      </trkpt>
      <trkpt lat="63.39701267" lon="10.45938567">
        <ele>196.598</ele>
        <time>1970-01-01T01:00:00Z</time>
      </trkpt>
      <trkpt lat="63.39703317" lon="10.45939467">
        <ele>196.751</ele>
        <time>1970-01-01T01:00:00Z</time>
      </trkpt>
      <trkpt lat="63.397052" lon="10.45940817">
        <ele>196.751</ele>
        <time>1970-01-01T01:00:00Z</time>
      </trkpt>
      <trkpt lat="63.39706933" lon="10.45942733">
        <ele>196.751</ele>
        <time>1970-01-01T01:00:00Z</time>
      </trkpt>
      <trkpt lat="63.3970845" lon="10.4594515">
        <ele>196.751</ele>
        <time>1970-01-01T01:00:00Z</time>
      </trkpt>
      <trkpt lat="63.39709917" lon="10.459472">
        <ele>196.903</ele>
        <time>1970-01-01T01:00:00Z</time>
      </trkpt>
      <trkpt lat="63.397114" lon="10.45948783">
        <ele>196.903</ele>
        <time>1970-01-01T01:00:00Z</time>
      </trkpt>
      <trkpt lat="63.39712717" lon="10.459506">
        <ele>197.056</ele>
        <time>1970-01-01T01:00:00Z</time>
      </trkpt>
      <trkpt lat="63.397141" lon="10.45952167">
        <ele>197.056</ele>
        <time>1970-01-01T01:00:00Z</time>
      </trkpt>
      <trkpt lat="63.39715417" lon="10.45953933">
        <ele>197.208</ele>
        <time>1970-01-01T01:00:00Z</time>
      </trkpt>
      <trkpt lat="63.39717033" lon="10.45955067">
        <ele>197.208</ele>
        <time>1970-01-01T01:00:00Z</time>
      </trkpt>
      <trkpt lat="63.39718467" lon="10.45955817">
        <ele>197.36</ele>
        <time>1970-01-01T01:00:00Z</time>
      </trkpt>
      <trkpt lat="63.39720283" lon="10.45956133">
        <ele>197.36</ele>
        <time>1970-01-01T01:00:00Z</time>
      </trkpt>
      <trkpt lat="63.39721867" lon="10.45957033">
        <ele>197.665</ele>
        <time>1970-01-01T01:00:00Z</time>
      </trkpt>
      <trkpt lat="63.39723267" lon="10.45958467">
        <ele>197.665</ele>
        <time>1970-01-01T01:00:00Z</time>
      </trkpt>
      <trkpt lat="63.39724567" lon="10.45959433">
        <ele>197.97</ele>
        <time>1970-01-01T01:00:00Z</time>
      </trkpt>
      <trkpt lat="63.39726133" lon="10.459593">
        <ele>197.97</ele>
        <time>1970-01-01T01:00:00Z</time>
      </trkpt>
      <trkpt lat="63.39728183" lon="10.45957817">
        <ele>198.122</ele>
        <time>1970-01-01T01:00:00Z</time>
      </trkpt>
      <trkpt lat="63.39730317" lon="10.45956033">
        <ele>198.122</ele>
        <time>1970-01-01T01:00:00Z</time>
      </trkpt>
      <trkpt lat="63.39732883" lon="10.45953917">
        <ele>198.427</ele>
        <time>1970-01-01T01:00:00Z</time>
      </trkpt>
      <trkpt lat="63.3973555" lon="10.45951917">
        <ele>198.427</ele>
        <time>1970-01-01T01:00:00Z</time>
      </trkpt>
      <trkpt lat="63.397382" lon="10.45949933">
        <ele>198.732</ele>
        <time>1970-01-01T01:00:00Z</time>
      </trkpt>
      <trkpt lat="63.3974015" lon="10.45948517">
        <ele>198.732</ele>
        <time>1970-01-01T01:00:00Z</time>
      </trkpt>
      <trkpt lat="63.39742317" lon="10.45945217">
        <ele>199.189</ele>
        <time>1970-01-01T01:00:00Z</time>
      </trkpt>
      <trkpt lat="63.3974535" lon="10.4593815">
        <ele>199.189</ele>
        <time>1970-01-01T01:00:00Z</time>
      </trkpt>
      <trkpt lat="63.39748833" lon="10.45929867">
        <ele>199.494</ele>
        <time>1970-01-01T01:00:00Z</time>
      </trkpt>
      <trkpt lat="63.39751983" lon="10.45922867">
        <ele>199.494</ele>
        <time>1970-01-01T01:00:00Z</time>
      </trkpt>
      <trkpt lat="63.39754167" lon="10.4591935">
        <ele>199.646</ele>
        <time>1970-01-01T01:00:00Z</time>
      </trkpt>
      <trkpt lat="63.39756167" lon="10.4591645">
        <ele>199.646</ele>
        <time>1970-01-01T01:00:00Z</time>
      </trkpt>
      <trkpt lat="63.3975805" lon="10.45913817">
        <ele>199.951</ele>
        <time>1970-01-01T01:00:00Z</time>
      </trkpt>
      <trkpt lat="63.39760033" lon="10.4591055">
        <ele>199.951</ele>
        <time>1970-01-01T01:00:00Z</time>
      </trkpt>
      <trkpt lat="63.39761883" lon="10.45906617">
        <ele>200.256</ele>
        <time>1970-01-01T01:00:00Z</time>
      </trkpt>
      <trkpt lat="63.39763667" lon="10.45901817">
        <ele>200.256</ele>
        <time>1970-01-01T01:00:00Z</time>
      </trkpt>
      <trkpt lat="63.39765167" lon="10.45897683">
        <ele>200.408</ele>
        <time>1970-01-01T01:00:00Z</time>
      </trkpt>
      <trkpt lat="63.39766517" lon="10.45894017">
        <ele>200.408</ele>
        <time>1970-01-01T01:00:00Z</time>
      </trkpt>
      <trkpt lat="63.39767567" lon="10.45890983">
        <ele>200.713</ele>
        <time>1970-01-01T01:00:00Z</time>
      </trkpt>
      <trkpt lat="63.397685" lon="10.458876">
        <ele>200.713</ele>
        <time>1970-01-01T01:00:00Z</time>
      </trkpt>
      <trkpt lat="63.39769367" lon="10.45884">
        <ele>200.866</ele>
        <time>1970-01-01T01:00:00Z</time>
      </trkpt>
      <trkpt lat="63.39770283" lon="10.45880133">
        <ele>200.866</ele>
        <time>1970-01-01T01:00:00Z</time>
      </trkpt>
      <trkpt lat="63.39771333" lon="10.45875933">
        <ele>201.018</ele>
        <time>1970-01-01T01:00:00Z</time>
      </trkpt>
      <trkpt lat="63.39772483" lon="10.45871917">
        <ele>201.018</ele>
        <time>1970-01-01T01:00:00Z</time>
      </trkpt>
      <trkpt lat="63.3977385" lon="10.4586805">
        <ele>201.018</ele>
        <time>1970-01-01T01:00:00Z</time>
      </trkpt>
      <trkpt lat="63.39774917" lon="10.45864583">
        <ele>201.018</ele>
        <time>1970-01-01T01:00:00Z</time>
      </trkpt>
      <trkpt lat="63.39775833" lon="10.45861317">
        <ele>201.17</ele>
        <time>1970-01-01T01:00:00Z</time>
      </trkpt>
      <trkpt lat="63.397765" lon="10.45858133">
        <ele>201.17</ele>
        <time>1970-01-01T01:00:00Z</time>
      </trkpt>
      <trkpt lat="63.39777483" lon="10.45854217">
        <ele>201.17</ele>
        <time>1970-01-01T01:00:00Z</time>
      </trkpt>
      <trkpt lat="63.39778283" lon="10.4584995">
        <ele>201.17</ele>
        <time>1970-01-01T01:00:00Z</time>
      </trkpt>
      <trkpt lat="63.397788" lon="10.4584485">
        <ele>201.018</ele>
        <time>1970-01-01T01:00:00Z</time>
      </trkpt>
      <trkpt lat="63.3977905" lon="10.45840017">
        <ele>201.018</ele>
        <time>1970-01-01T01:00:00Z</time>
      </trkpt>
      <trkpt lat="63.39779317" lon="10.45835233">
        <ele>201.018</ele>
        <time>1970-01-01T01:00:00Z</time>
      </trkpt>
      <trkpt lat="63.39780033" lon="10.45830833">
        <ele>201.018</ele>
        <time>1970-01-01T01:00:00Z</time>
      </trkpt>
      <trkpt lat="63.39780817" lon="10.4582615">
        <ele>200.866</ele>
        <time>1970-01-01T01:00:00Z</time>
      </trkpt>
      <trkpt lat="63.397815" lon="10.45821383">
        <ele>200.866</ele>
        <time>1970-01-01T01:00:00Z</time>
      </trkpt>
      <trkpt lat="63.397818" lon="10.4581625">
        <ele>200.713</ele>
        <time>1970-01-01T01:00:00Z</time>
      </trkpt>
      <trkpt lat="63.39782133" lon="10.45811883">
        <ele>200.713</ele>
        <time>1970-01-01T01:00:00Z</time>
      </trkpt>
      <trkpt lat="63.39782483" lon="10.45807483">
        <ele>200.561</ele>
        <time>1970-01-01T01:00:00Z</time>
      </trkpt>
      <trkpt lat="63.397831" lon="10.4580365">
        <ele>200.561</ele>
        <time>1970-01-01T01:00:00Z</time>
      </trkpt>
      <trkpt lat="63.3978365" lon="10.45799567">
        <ele>200.408</ele>
        <time>1970-01-01T01:00:00Z</time>
      </trkpt>
      <trkpt lat="63.39784383" lon="10.45796217">
        <ele>200.408</ele>
        <time>1970-01-01T01:00:00Z</time>
      </trkpt>
      <trkpt lat="63.39784967" lon="10.45792683">
        <ele>200.256</ele>
        <time>1970-01-01T01:00:00Z</time>
      </trkpt>
      <trkpt lat="63.397852" lon="10.45789417">
        <ele>200.256</ele>
        <time>1970-01-01T01:00:00Z</time>
      </trkpt>
      <trkpt lat="63.39785267" lon="10.457857">
        <ele>200.104</ele>
        <time>1970-01-01T01:00:00Z</time>
      </trkpt>
      <trkpt lat="63.39785283" lon="10.45782083">
        <ele>200.104</ele>
        <time>1970-01-01T01:00:00Z</time>
      </trkpt>
      <trkpt lat="63.39785367" lon="10.45778667">
        <ele>199.951</ele>
        <time>1970-01-01T01:00:00Z</time>
      </trkpt>
      <trkpt lat="63.39785433" lon="10.457754">
        <ele>199.951</ele>
        <time>1970-01-01T01:00:00Z</time>
      </trkpt>
      <trkpt lat="63.39785683" lon="10.457723">
        <ele>199.799</ele>
        <time>1970-01-01T01:00:00Z</time>
      </trkpt>
      <trkpt lat="63.397861" lon="10.4576895">
        <ele>199.799</ele>
        <time>1970-01-01T01:00:00Z</time>
      </trkpt>
      <trkpt lat="63.39786567" lon="10.457661">
        <ele>199.799</ele>
        <time>1970-01-01T01:00:00Z</time>
      </trkpt>
      <trkpt lat="63.39786583" lon="10.45762767">
        <ele>199.799</ele>
        <time>1970-01-01T01:00:00Z</time>
      </trkpt>
      <trkpt lat="63.39786367" lon="10.45760117">
        <ele>199.799</ele>
        <time>1970-01-01T01:00:00Z</time>
      </trkpt>
      <trkpt lat="63.3978615" lon="10.4575705">
        <ele>199.799</ele>
        <time>1970-01-01T01:00:00Z</time>
      </trkpt>
      <trkpt lat="63.39785983" lon="10.45754967">
        <ele>199.646</ele>
        <time>1970-01-01T01:00:00Z</time>
      </trkpt>
      <trkpt lat="63.39785833" lon="10.4575245">
        <ele>199.646</ele>
        <time>1970-01-01T01:00:00Z</time>
      </trkpt>
      <trkpt lat="63.397855" lon="10.45749333">
        <ele>199.646</ele>
        <time>1970-01-01T01:00:00Z</time>
      </trkpt>
      <trkpt lat="63.39785267" lon="10.4574585">
        <ele>199.646</ele>
        <time>1970-01-01T01:00:00Z</time>
      </trkpt>
      <trkpt lat="63.39785083" lon="10.457424">
        <ele>199.646</ele>
        <time>1970-01-01T01:00:00Z</time>
      </trkpt>
      <trkpt lat="63.39784833" lon="10.45738983">
        <ele>199.646</ele>
        <time>1970-01-01T01:00:00Z</time>
      </trkpt>
      <trkpt lat="63.39784483" lon="10.45735233">
        <ele>199.646</ele>
        <time>1970-01-01T01:00:00Z</time>
      </trkpt>
      <trkpt lat="63.39783833" lon="10.45731533">
        <ele>199.646</ele>
        <time>1970-01-01T01:00:00Z</time>
      </trkpt>
      <trkpt lat="63.39783367" lon="10.45727583">
        <ele>199.646</ele>
        <time>1970-01-01T01:00:00Z</time>
      </trkpt>
      <trkpt lat="63.39782867" lon="10.457239">
        <ele>199.646</ele>
        <time>1970-01-01T01:00:00Z</time>
      </trkpt>
      <trkpt lat="63.39782483" lon="10.45719983">
        <ele>199.799</ele>
        <time>1970-01-01T01:00:00Z</time>
      </trkpt>
      <trkpt lat="63.3978175" lon="10.45715883">
        <ele>199.799</ele>
        <time>1970-01-01T01:00:00Z</time>
      </trkpt>
      <trkpt lat="63.39780717" lon="10.45711383">
        <ele>199.951</ele>
        <time>1970-01-01T01:00:00Z</time>
      </trkpt>
      <trkpt lat="63.39779783" lon="10.45706083">
        <ele>199.951</ele>
        <time>1970-01-01T01:00:00Z</time>
      </trkpt>
      <trkpt lat="63.39779083" lon="10.45701233">
        <ele>200.104</ele>
        <time>1970-01-01T01:00:00Z</time>
      </trkpt>
      <trkpt lat="63.39778517" lon="10.45696417">
        <ele>200.104</ele>
        <time>1970-01-01T01:00:00Z</time>
      </trkpt>
      <trkpt lat="63.39777817" lon="10.456918">
        <ele>200.104</ele>
        <time>1970-01-01T01:00:00Z</time>
      </trkpt>
      <trkpt lat="63.39776833" lon="10.456871">
        <ele>200.104</ele>
        <time>1970-01-01T01:00:00Z</time>
      </trkpt>
      <trkpt lat="63.39776067" lon="10.4568225">
        <ele>200.256</ele>
        <time>1970-01-01T01:00:00Z</time>
      </trkpt>
      <trkpt lat="63.39775517" lon="10.45677567">
        <ele>200.256</ele>
        <time>1970-01-01T01:00:00Z</time>
      </trkpt>
      <trkpt lat="63.39775233" lon="10.45672817">
        <ele>200.408</ele>
        <time>1970-01-01T01:00:00Z</time>
      </trkpt>
      <trkpt lat="63.3977475" lon="10.45667967">
        <ele>200.408</ele>
        <time>1970-01-01T01:00:00Z</time>
      </trkpt>
      <trkpt lat="63.3977425" lon="10.456628">
        <ele>200.408</ele>
        <time>1970-01-01T01:00:00Z</time>
      </trkpt>
      <trkpt lat="63.3977385" lon="10.45657917">
        <ele>200.408</ele>
        <time>1970-01-01T01:00:00Z</time>
      </trkpt>
      <trkpt lat="63.39773717" lon="10.45652833">
        <ele>200.561</ele>
        <time>1970-01-01T01:00:00Z</time>
      </trkpt>
      <trkpt lat="63.397735" lon="10.45648133">
        <ele>200.561</ele>
        <time>1970-01-01T01:00:00Z</time>
      </trkpt>
      <trkpt lat="63.39773117" lon="10.45643167">
        <ele>200.713</ele>
        <time>1970-01-01T01:00:00Z</time>
      </trkpt>
      <trkpt lat="63.397727" lon="10.456383">
        <ele>200.713</ele>
        <time>1970-01-01T01:00:00Z</time>
      </trkpt>
      <trkpt lat="63.39772317" lon="10.456328">
        <ele>200.866</ele>
        <time>1970-01-01T01:00:00Z</time>
      </trkpt>
      <trkpt lat="63.39772067" lon="10.456272">
        <ele>200.866</ele>
        <time>1970-01-01T01:00:00Z</time>
      </trkpt>
      <trkpt lat="63.39771483" lon="10.45621267">
        <ele>201.018</ele>
        <time>1970-01-01T01:00:00Z</time>
      </trkpt>
      <trkpt lat="63.39770417" lon="10.45615483">
        <ele>201.018</ele>
        <time>1970-01-01T01:00:00Z</time>
      </trkpt>
      <trkpt lat="63.39769367" lon="10.45610233">
        <ele>201.018</ele>
        <time>1970-01-01T01:00:00Z</time>
      </trkpt>
      <trkpt lat="63.397684" lon="10.4560475">
        <ele>201.018</ele>
        <time>1970-01-01T01:00:00Z</time>
      </trkpt>
      <trkpt lat="63.39767983" lon="10.45599033">
        <ele>201.17</ele>
        <time>1970-01-01T01:00:00Z</time>
      </trkpt>
      <trkpt lat="63.39767667" lon="10.45592117">
        <ele>201.17</ele>
        <time>1970-01-01T01:00:00Z</time>
      </trkpt>
      <trkpt lat="63.39767833" lon="10.45585183">
        <ele>201.323</ele>
        <time>1970-01-01T01:00:00Z</time>
      </trkpt>
      <trkpt lat="63.3976835" lon="10.45578433">
        <ele>201.323</ele>
        <time>1970-01-01T01:00:00Z</time>
      </trkpt>
      <trkpt lat="63.3976945" lon="10.45571433">
        <ele>201.475</ele>
        <time>1970-01-01T01:00:00Z</time>
      </trkpt>
      <trkpt lat="63.397715" lon="10.45562917">
        <ele>201.475</ele>
        <time>1970-01-01T01:00:00Z</time>
      </trkpt>
      <trkpt lat="63.397745" lon="10.45553417">
        <ele>201.475</ele>
        <time>1970-01-01T01:00:00Z</time>
      </trkpt>
      <trkpt lat="63.39777517" lon="10.45545333">
        <ele>201.475</ele>
        <time>1970-01-01T01:00:00Z</time>
      </trkpt>
      <trkpt lat="63.39779917" lon="10.45539667">
        <ele>201.628</ele>
        <time>1970-01-01T01:00:00Z</time>
      </trkpt>
      <trkpt lat="63.3978165" lon="10.455359">
        <ele>201.628</ele>
        <time>1970-01-01T01:00:00Z</time>
      </trkpt>
      <trkpt lat="63.397834" lon="10.45532183">
        <ele>201.628</ele>
        <time>1970-01-01T01:00:00Z</time>
      </trkpt>
      <trkpt lat="63.39785217" lon="10.4552845">
        <ele>201.628</ele>
        <time>1970-01-01T01:00:00Z</time>
      </trkpt>
      <trkpt lat="63.39786967" lon="10.4552455">
        <ele>201.78</ele>
        <time>1970-01-01T01:00:00Z</time>
      </trkpt>
      <trkpt lat="63.3978875" lon="10.45520467">
        <ele>201.78</ele>
        <time>1970-01-01T01:00:00Z</time>
      </trkpt>
      <trkpt lat="63.39790767" lon="10.45516783">
        <ele>201.78</ele>
        <time>1970-01-01T01:00:00Z</time>
      </trkpt>
      <trkpt lat="63.397931" lon="10.455133">
        <ele>201.78</ele>
        <time>1970-01-01T01:00:00Z</time>
      </trkpt>
      <trkpt lat="63.39795467" lon="10.45510133">
        <ele>201.932</ele>
        <time>1970-01-01T01:00:00Z</time>
      </trkpt>
      <trkpt lat="63.3979775" lon="10.455075">
        <ele>201.932</ele>
        <time>1970-01-01T01:00:00Z</time>
      </trkpt>
      <trkpt lat="63.3979995" lon="10.4550475">
        <ele>202.085</ele>
        <time>1970-01-01T01:00:00Z</time>
      </trkpt>
      <trkpt lat="63.39802133" lon="10.45502067">
        <ele>202.085</ele>
        <time>1970-01-01T01:00:00Z</time>
      </trkpt>
      <trkpt lat="63.39804333" lon="10.45498583">
        <ele>202.085</ele>
        <time>1970-01-01T01:00:00Z</time>
      </trkpt>
      <trkpt lat="63.39806583" lon="10.45495117">
        <ele>202.085</ele>
        <time>1970-01-01T01:00:00Z</time>
      </trkpt>
      <trkpt lat="63.3980885" lon="10.45491867">
        <ele>202.085</ele>
        <time>1970-01-01T01:00:00Z</time>
      </trkpt>
      <trkpt lat="63.3981115" lon="10.45488533">
        <ele>202.085</ele>
        <time>1970-01-01T01:00:00Z</time>
      </trkpt>
      <trkpt lat="63.39813167" lon="10.454852">
        <ele>202.237</ele>
        <time>1970-01-01T01:00:00Z</time>
      </trkpt>
      <trkpt lat="63.39815083" lon="10.45481383">
        <ele>202.237</ele>
        <time>1970-01-01T01:00:00Z</time>
      </trkpt>
      <trkpt lat="63.398168" lon="10.45477767">
        <ele>202.237</ele>
        <time>1970-01-01T01:00:00Z</time>
      </trkpt>
      <trkpt lat="63.39818683" lon="10.45474067">
        <ele>202.237</ele>
        <time>1970-01-01T01:00:00Z</time>
      </trkpt>
      <trkpt lat="63.398205" lon="10.45470233">
        <ele>202.39</ele>
        <time>1970-01-01T01:00:00Z</time>
      </trkpt>
      <trkpt lat="63.39822367" lon="10.45466583">
        <ele>202.39</ele>
        <time>1970-01-01T01:00:00Z</time>
      </trkpt>
      <trkpt lat="63.39824083" lon="10.4546305">
        <ele>202.39</ele>
        <time>1970-01-01T01:00:00Z</time>
      </trkpt>
      <trkpt lat="63.398259" lon="10.4545945">
        <ele>202.39</ele>
        <time>1970-01-01T01:00:00Z</time>
      </trkpt>
      <trkpt lat="63.398277" lon="10.45455917">
        <ele>202.542</ele>
        <time>1970-01-01T01:00:00Z</time>
      </trkpt>
      <trkpt lat="63.398295" lon="10.454528">
        <ele>202.542</ele>
        <time>1970-01-01T01:00:00Z</time>
      </trkpt>
      <trkpt lat="63.39831333" lon="10.454503">
        <ele>202.694</ele>
        <time>1970-01-01T01:00:00Z</time>
      </trkpt>
      <trkpt lat="63.398332" lon="10.45447717">
        <ele>202.694</ele>
        <time>1970-01-01T01:00:00Z</time>
      </trkpt>
      <trkpt lat="63.39835267" lon="10.45444983">
        <ele>202.694</ele>
        <time>1970-01-01T01:00:00Z</time>
      </trkpt>
      <trkpt lat="63.39837433" lon="10.454423">
        <ele>202.694</ele>
        <time>1970-01-01T01:00:00Z</time>
      </trkpt>
      <trkpt lat="63.398397" lon="10.45440217">
        <ele>202.847</ele>
        <time>1970-01-01T01:00:00Z</time>
      </trkpt>
      <trkpt lat="63.398421" lon="10.4543775">
        <ele>202.847</ele>
        <time>1970-01-01T01:00:00Z</time>
      </trkpt>
      <trkpt lat="63.39844667" lon="10.45434817">
        <ele>202.999</ele>
        <time>1970-01-01T01:00:00Z</time>
      </trkpt>
      <trkpt lat="63.39847233" lon="10.45431367">
        <ele>202.999</ele>
        <time>1970-01-01T01:00:00Z</time>
      </trkpt>
      <trkpt lat="63.398497" lon="10.45428533">
        <ele>203.152</ele>
        <time>1970-01-01T01:00:00Z</time>
      </trkpt>
      <trkpt lat="63.39851817" lon="10.45426833">
        <ele>203.152</ele>
        <time>1970-01-01T01:00:00Z</time>
      </trkpt>
      <trkpt lat="63.39853817" lon="10.45425517">
        <ele>203.304</ele>
        <time>1970-01-01T01:00:00Z</time>
      </trkpt>
      <trkpt lat="63.3985575" lon="10.45423967">
        <ele>203.304</ele>
        <time>1970-01-01T01:00:00Z</time>
      </trkpt>
      <trkpt lat="63.398578" lon="10.454212">
        <ele>203.456</ele>
        <time>1970-01-01T01:00:00Z</time>
      </trkpt>
      <trkpt lat="63.39860033" lon="10.454176">
        <ele>203.456</ele>
        <time>1970-01-01T01:00:00Z</time>
      </trkpt>
      <trkpt lat="63.3986225" lon="10.45413883">
        <ele>203.609</ele>
        <time>1970-01-01T01:00:00Z</time>
      </trkpt>
      <trkpt lat="63.39864517" lon="10.4541085">
        <ele>203.609</ele>
        <time>1970-01-01T01:00:00Z</time>
      </trkpt>
      <trkpt lat="63.398665" lon="10.45408717">
        <ele>203.761</ele>
        <time>1970-01-01T01:00:00Z</time>
      </trkpt>
      <trkpt lat="63.39868483" lon="10.454062">
        <ele>203.761</ele>
        <time>1970-01-01T01:00:00Z</time>
      </trkpt>
      <trkpt lat="63.39870317" lon="10.454032">
        <ele>203.914</ele>
        <time>1970-01-01T01:00:00Z</time>
      </trkpt>
      <trkpt lat="63.39872183" lon="10.45399783">
        <ele>203.914</ele>
        <time>1970-01-01T01:00:00Z</time>
      </trkpt>
      <trkpt lat="63.39874033" lon="10.45396883">
        <ele>203.914</ele>
        <time>1970-01-01T01:00:00Z</time>
      </trkpt>
      <trkpt lat="63.39875867" lon="10.45394333">
        <ele>203.914</ele>
        <time>1970-01-01T01:00:00Z</time>
      </trkpt>
      <trkpt lat="63.39877633" lon="10.45391933">
        <ele>204.066</ele>
        <time>1970-01-01T01:00:00Z</time>
      </trkpt>
      <trkpt lat="63.39879267" lon="10.45390417">
        <ele>204.066</ele>
        <time>1970-01-01T01:00:00Z</time>
      </trkpt>
      <trkpt lat="63.39880817" lon="10.45389233">
        <ele>204.066</ele>
        <time>1970-01-01T01:00:00Z</time>
      </trkpt>
      <trkpt lat="63.39882283" lon="10.453883">
        <ele>204.066</ele>
        <time>1970-01-01T01:00:00Z</time>
      </trkpt>
      <trkpt lat="63.39883833" lon="10.453875">
        <ele>204.066</ele>
        <time>1970-01-01T01:00:00Z</time>
      </trkpt>
      <trkpt lat="63.39885433" lon="10.45386783">
        <ele>204.066</ele>
        <time>1970-01-01T01:00:00Z</time>
      </trkpt>
      <trkpt lat="63.39887083" lon="10.45386283">
        <ele>204.066</ele>
        <time>1970-01-01T01:00:00Z</time>
      </trkpt>
      <trkpt lat="63.39889167" lon="10.45386083">
        <ele>204.066</ele>
        <time>1970-01-01T01:00:00Z</time>
      </trkpt>
      <trkpt lat="63.39892383" lon="10.45387717">
        <ele>203.914</ele>
        <time>1970-01-01T01:00:00Z</time>
      </trkpt>
      <trkpt lat="63.398961" lon="10.45390633">
        <ele>203.914</ele>
        <time>1970-01-01T01:00:00Z</time>
      </trkpt>
      <trkpt lat="63.39899617" lon="10.45393383">
        <ele>203.761</ele>
        <time>1970-01-01T01:00:00Z</time>
      </trkpt>
      <trkpt lat="63.39902417" lon="10.45394767">
        <ele>203.761</ele>
        <time>1970-01-01T01:00:00Z</time>
      </trkpt>
      <trkpt lat="63.39904933" lon="10.453953">
        <ele>203.609</ele>
        <time>1970-01-01T01:00:00Z</time>
      </trkpt>
      <trkpt lat="63.39907333" lon="10.45395717">
        <ele>203.609</ele>
        <time>1970-01-01T01:00:00Z</time>
      </trkpt>
      <trkpt lat="63.3990985" lon="10.45397083">
        <ele>203.456</ele>
        <time>1970-01-01T01:00:00Z</time>
      </trkpt>
      <trkpt lat="63.399126" lon="10.45399483">
        <ele>203.456</ele>
        <time>1970-01-01T01:00:00Z</time>
      </trkpt>
      <trkpt lat="63.39915433" lon="10.45402733">
        <ele>203.152</ele>
        <time>1970-01-01T01:00:00Z</time>
      </trkpt>
      <trkpt lat="63.399182" lon="10.45405583">
        <ele>203.152</ele>
        <time>1970-01-01T01:00:00Z</time>
      </trkpt>
      <trkpt lat="63.399211" lon="10.45408467">
        <ele>202.999</ele>
        <time>1970-01-01T01:00:00Z</time>
      </trkpt>
      <trkpt lat="63.399241" lon="10.45410917">
        <ele>202.999</ele>
        <time>1970-01-01T01:00:00Z</time>
      </trkpt>
      <trkpt lat="63.39927133" lon="10.45413433">
        <ele>202.847</ele>
        <time>1970-01-01T01:00:00Z</time>
      </trkpt>
      <trkpt lat="63.399299" lon="10.45415233">
        <ele>202.847</ele>
        <time>1970-01-01T01:00:00Z</time>
      </trkpt>
      <trkpt lat="63.39932483" lon="10.45416833">
        <ele>202.847</ele>
        <time>1970-01-01T01:00:00Z</time>
      </trkpt>
      <trkpt lat="63.39934833" lon="10.45417683">
        <ele>202.847</ele>
        <time>1970-01-01T01:00:00Z</time>
      </trkpt>
      <trkpt lat="63.39937267" lon="10.45418233">
        <ele>202.847</ele>
        <time>1970-01-01T01:00:00Z</time>
      </trkpt>
      <trkpt lat="63.39939617" lon="10.4541865">
        <ele>202.847</ele>
        <time>1970-01-01T01:00:00Z</time>
      </trkpt>
      <trkpt lat="63.39941883" lon="10.4541915">
        <ele>202.847</ele>
        <time>1970-01-01T01:00:00Z</time>
      </trkpt>
      <trkpt lat="63.39944117" lon="10.45419717">
        <ele>202.847</ele>
        <time>1970-01-01T01:00:00Z</time>
      </trkpt>
      <trkpt lat="63.399465" lon="10.45420233">
        <ele>202.847</ele>
        <time>1970-01-01T01:00:00Z</time>
      </trkpt>
      <trkpt lat="63.39949133" lon="10.454214">
        <ele>202.847</ele>
        <time>1970-01-01T01:00:00Z</time>
      </trkpt>
      <trkpt lat="63.39951583" lon="10.45422417">
        <ele>202.999</ele>
        <time>1970-01-01T01:00:00Z</time>
      </trkpt>
      <trkpt lat="63.3995365" lon="10.4542355">
        <ele>202.999</ele>
        <time>1970-01-01T01:00:00Z</time>
      </trkpt>
      <trkpt lat="63.39955917" lon="10.45424317">
        <ele>203.152</ele>
        <time>1970-01-01T01:00:00Z</time>
      </trkpt>
      <trkpt lat="63.3995855" lon="10.45425733">
        <ele>203.152</ele>
        <time>1970-01-01T01:00:00Z</time>
      </trkpt>
      <trkpt lat="63.39961533" lon="10.45427033">
        <ele>203.304</ele>
        <time>1970-01-01T01:00:00Z</time>
      </trkpt>
      <trkpt lat="63.3996405" lon="10.454286">
        <ele>203.304</ele>
        <time>1970-01-01T01:00:00Z</time>
      </trkpt>
      <trkpt lat="63.399663" lon="10.45429717">
        <ele>203.456</ele>
        <time>1970-01-01T01:00:00Z</time>
      </trkpt>
      <trkpt lat="63.39968417" lon="10.45431133">
        <ele>203.456</ele>
        <time>1970-01-01T01:00:00Z</time>
      </trkpt>
      <trkpt lat="63.39969767" lon="10.45432017">
        <ele>203.456</ele>
        <time>1970-01-01T01:00:00Z</time>
      </trkpt>
      <trkpt lat="63.39970217" lon="10.45433067">
        <ele>203.456</ele>
        <time>1970-01-01T01:00:00Z</time>
      </trkpt>
      <trkpt lat="63.39970267" lon="10.45434717">
        <ele>203.456</ele>
        <time>1970-01-01T01:00:00Z</time>
      </trkpt>
      <trkpt lat="63.3997105" lon="10.45437167">
        <ele>203.456</ele>
        <time>1970-01-01T01:00:00Z</time>
      </trkpt>
      <trkpt lat="63.39972333" lon="10.45439267">
        <ele>203.304</ele>
        <time>1970-01-01T01:00:00Z</time>
      </trkpt>
      <trkpt lat="63.39973917" lon="10.454406">
        <ele>203.304</ele>
        <time>1970-01-01T01:00:00Z</time>
      </trkpt>
      <trkpt lat="63.3997555" lon="10.454419">
        <ele>203.152</ele>
        <time>1970-01-01T01:00:00Z</time>
      </trkpt>
      <trkpt lat="63.399775" lon="10.45443833">
        <ele>203.152</ele>
        <time>1970-01-01T01:00:00Z</time>
      </trkpt>
      <trkpt lat="63.3997955" lon="10.45446567">
        <ele>202.847</ele>
        <time>1970-01-01T01:00:00Z</time>
      </trkpt>
      <trkpt lat="63.39981733" lon="10.4544965">
        <ele>202.847</ele>
        <time>1970-01-01T01:00:00Z</time>
      </trkpt>
      <trkpt lat="63.39983883" lon="10.45452567">
        <ele>202.542</ele>
        <time>1970-01-01T01:00:00Z</time>
      </trkpt>
      <trkpt lat="63.399861" lon="10.454551">
        <ele>202.542</ele>
        <time>1970-01-01T01:00:00Z</time>
      </trkpt>
      <trkpt lat="63.3998835" lon="10.45457">
        <ele>202.237</ele>
        <time>1970-01-01T01:00:00Z</time>
      </trkpt>
      <trkpt lat="63.39990517" lon="10.45459117">
        <ele>202.237</ele>
        <time>1970-01-01T01:00:00Z</time>
      </trkpt>
      <trkpt lat="63.39992867" lon="10.45461667">
        <ele>201.932</ele>
        <time>1970-01-01T01:00:00Z</time>
      </trkpt>
      <trkpt lat="63.39995333" lon="10.454652">
        <ele>201.932</ele>
        <time>1970-01-01T01:00:00Z</time>
      </trkpt>
      <trkpt lat="63.39997867" lon="10.45468883">
        <ele>201.475</ele>
        <time>1970-01-01T01:00:00Z</time>
      </trkpt>
      <trkpt lat="63.40000183" lon="10.45472417">
        <ele>201.475</ele>
        <time>1970-01-01T01:00:00Z</time>
      </trkpt>
      <trkpt lat="63.40002267" lon="10.45474917">
        <ele>201.018</ele>
        <time>1970-01-01T01:00:00Z</time>
      </trkpt>
      <trkpt lat="63.40004517" lon="10.45477467">
        <ele>201.018</ele>
        <time>1970-01-01T01:00:00Z</time>
      </trkpt>
      <trkpt lat="63.40006883" lon="10.454799">
        <ele>200.713</ele>
        <time>1970-01-01T01:00:00Z</time>
      </trkpt>
      <trkpt lat="63.4000915" lon="10.4548295">
        <ele>200.713</ele>
        <time>1970-01-01T01:00:00Z</time>
      </trkpt>
      <trkpt lat="63.4001105" lon="10.45485617">
        <ele>200.256</ele>
        <time>1970-01-01T01:00:00Z</time>
      </trkpt>
      <trkpt lat="63.40012967" lon="10.454881">
        <ele>200.256</ele>
        <time>1970-01-01T01:00:00Z</time>
      </trkpt>
      <trkpt lat="63.400151" lon="10.45490317">
        <ele>199.799</ele>
        <time>1970-01-01T01:00:00Z</time>
      </trkpt>
      <trkpt lat="63.40017483" lon="10.45493217">
        <ele>199.799</ele>
        <time>1970-01-01T01:00:00Z</time>
      </trkpt>
      <trkpt lat="63.40019733" lon="10.45496867">
        <ele>199.189</ele>
        <time>1970-01-01T01:00:00Z</time>
      </trkpt>
      <trkpt lat="63.40022083" lon="10.4550055">
        <ele>199.189</ele>
        <time>1970-01-01T01:00:00Z</time>
      </trkpt>
      <trkpt lat="63.40024417" lon="10.45503817">
        <ele>198.732</ele>
        <time>1970-01-01T01:00:00Z</time>
      </trkpt>
      <trkpt lat="63.40026683" lon="10.45506583">
        <ele>198.732</ele>
        <time>1970-01-01T01:00:00Z</time>
      </trkpt>
      <trkpt lat="63.400288" lon="10.4550985">
        <ele>198.122</ele>
        <time>1970-01-01T01:00:00Z</time>
      </trkpt>
      <trkpt lat="63.4003075" lon="10.4551395">
        <ele>198.122</ele>
        <time>1970-01-01T01:00:00Z</time>
      </trkpt>
      <trkpt lat="63.40032217" lon="10.45518733">
        <ele>197.36</ele>
        <time>1970-01-01T01:00:00Z</time>
      </trkpt>
      <trkpt lat="63.40033333" lon="10.45523167">
        <ele>197.36</ele>
        <time>1970-01-01T01:00:00Z</time>
      </trkpt>
      <trkpt lat="63.4003445" lon="10.45527333">
        <ele>196.598</ele>
        <time>1970-01-01T01:00:00Z</time>
      </trkpt>
      <trkpt lat="63.4003545" lon="10.45531667">
        <ele>196.598</ele>
        <time>1970-01-01T01:00:00Z</time>
      </trkpt>
      <trkpt lat="63.40036417" lon="10.45536">
        <ele>195.836</ele>
        <time>1970-01-01T01:00:00Z</time>
      </trkpt>
      <trkpt lat="63.400375" lon="10.455398">
        <ele>195.836</ele>
        <time>1970-01-01T01:00:00Z</time>
      </trkpt>
      <trkpt lat="63.400393" lon="10.45542833">
        <ele>194.922</ele>
        <time>1970-01-01T01:00:00Z</time>
      </trkpt>
      <trkpt lat="63.40041417" lon="10.4554585">
        <ele>194.922</ele>
        <time>1970-01-01T01:00:00Z</time>
      </trkpt>
      <trkpt lat="63.40043567" lon="10.45548533">
        <ele>194.008</ele>
        <time>1970-01-01T01:00:00Z</time>
      </trkpt>
      <trkpt lat="63.40045433" lon="10.45551267">
        <ele>194.008</ele>
        <time>1970-01-01T01:00:00Z</time>
      </trkpt>
      <trkpt lat="63.40047167" lon="10.45554017">
        <ele>192.941</ele>
        <time>1970-01-01T01:00:00Z</time>
      </trkpt>
      <trkpt lat="63.40049033" lon="10.45557583">
        <ele>192.941</ele>
        <time>1970-01-01T01:00:00Z</time>
      </trkpt>
      <trkpt lat="63.40050767" lon="10.45561133">
        <ele>192.026</ele>
        <time>1970-01-01T01:00:00Z</time>
      </trkpt>
      <trkpt lat="63.40052467" lon="10.4556485">
        <ele>192.026</ele>
        <time>1970-01-01T01:00:00Z</time>
      </trkpt>
      <trkpt lat="63.400537" lon="10.45568333">
        <ele>191.112</ele>
        <time>1970-01-01T01:00:00Z</time>
      </trkpt>
      <trkpt lat="63.40055283" lon="10.4557295">
        <ele>191.112</ele>
        <time>1970-01-01T01:00:00Z</time>
      </trkpt>
      <trkpt lat="63.40056867" lon="10.45577833">
        <ele>190.045</ele>
        <time>1970-01-01T01:00:00Z</time>
      </trkpt>
      <trkpt lat="63.40058667" lon="10.4558285">
        <ele>190.045</ele>
        <time>1970-01-01T01:00:00Z</time>
      </trkpt>
      <trkpt lat="63.40060183" lon="10.4558695">
        <ele>189.131</ele>
        <time>1970-01-01T01:00:00Z</time>
      </trkpt>
      <trkpt lat="63.40061867" lon="10.45591033">
        <ele>189.131</ele>
        <time>1970-01-01T01:00:00Z</time>
      </trkpt>
      <trkpt lat="63.40063583" lon="10.45595067">
        <ele>188.216</ele>
        <time>1970-01-01T01:00:00Z</time>
      </trkpt>
      <trkpt lat="63.4006535" lon="10.455993">
        <ele>188.216</ele>
        <time>1970-01-01T01:00:00Z</time>
      </trkpt>
      <trkpt lat="63.4006715" lon="10.45603783">
        <ele>187.302</ele>
        <time>1970-01-01T01:00:00Z</time>
      </trkpt>
      <trkpt lat="63.400691" lon="10.45608383">
        <ele>187.302</ele>
        <time>1970-01-01T01:00:00Z</time>
      </trkpt>
      <trkpt lat="63.4007095" lon="10.45613017">
        <ele>186.54</ele>
        <time>1970-01-01T01:00:00Z</time>
      </trkpt>
      <trkpt lat="63.40072967" lon="10.45617583">
        <ele>186.54</ele>
        <time>1970-01-01T01:00:00Z</time>
      </trkpt>
      <trkpt lat="63.40074883" lon="10.456225">
        <ele>185.778</ele>
        <time>1970-01-01T01:00:00Z</time>
      </trkpt>
      <trkpt lat="63.4007705" lon="10.45627517">
        <ele>185.778</ele>
        <time>1970-01-01T01:00:00Z</time>
      </trkpt>
      <trkpt lat="63.40079033" lon="10.45632817">
        <ele>185.016</ele>
        <time>1970-01-01T01:00:00Z</time>
      </trkpt>
      <trkpt lat="63.40081" lon="10.45638117">
        <ele>185.016</ele>
        <time>1970-01-01T01:00:00Z</time>
      </trkpt>
      <trkpt lat="63.40082583" lon="10.456436">
        <ele>184.254</ele>
        <time>1970-01-01T01:00:00Z</time>
      </trkpt>
      <trkpt lat="63.40083717" lon="10.4564865">
        <ele>184.254</ele>
        <time>1970-01-01T01:00:00Z</time>
      </trkpt>
      <trkpt lat="63.40084633" lon="10.45653683">
        <ele>183.492</ele>
        <time>1970-01-01T01:00:00Z</time>
      </trkpt>
      <trkpt lat="63.40085633" lon="10.45658217">
        <ele>183.492</ele>
        <time>1970-01-01T01:00:00Z</time>
      </trkpt>
      <trkpt lat="63.40086733" lon="10.4566225">
        <ele>182.882</ele>
        <time>1970-01-01T01:00:00Z</time>
      </trkpt>
      <trkpt lat="63.400878" lon="10.45665883">
        <ele>182.882</ele>
        <time>1970-01-01T01:00:00Z</time>
      </trkpt>
      <trkpt lat="63.40088883" lon="10.4566945">
        <ele>182.273</ele>
        <time>1970-01-01T01:00:00Z</time>
      </trkpt>
      <trkpt lat="63.40089883" lon="10.45673">
        <ele>182.273</ele>
        <time>1970-01-01T01:00:00Z</time>
      </trkpt>
      <trkpt lat="63.40091067" lon="10.456768">
        <ele>181.663</ele>
        <time>1970-01-01T01:00:00Z</time>
      </trkpt>
      <trkpt lat="63.40092267" lon="10.4568065">
        <ele>181.663</ele>
        <time>1970-01-01T01:00:00Z</time>
      </trkpt>
      <trkpt lat="63.40093833" lon="10.45684683">
        <ele>181.053</ele>
        <time>1970-01-01T01:00:00Z</time>
      </trkpt>
      <trkpt lat="63.4009545" lon="10.45688533">
        <ele>181.053</ele>
        <time>1970-01-01T01:00:00Z</time>
      </trkpt>
      <trkpt lat="63.40097267" lon="10.45692883">
        <ele>180.596</ele>
        <time>1970-01-01T01:00:00Z</time>
      </trkpt>
      <trkpt lat="63.40098867" lon="10.45697267">
        <ele>180.596</ele>
        <time>1970-01-01T01:00:00Z</time>
      </trkpt>
      <trkpt lat="63.40100483" lon="10.45701867">
        <ele>179.987</ele>
        <time>1970-01-01T01:00:00Z</time>
      </trkpt>
      <trkpt lat="63.40102067" lon="10.457062">
        <ele>179.987</ele>
        <time>1970-01-01T01:00:00Z</time>
      </trkpt>
      <trkpt lat="63.40103633" lon="10.4571065">
        <ele>179.529</ele>
        <time>1970-01-01T01:00:00Z</time>
      </trkpt>
      <trkpt lat="63.40105333" lon="10.45714933">
        <ele>179.529</ele>
        <time>1970-01-01T01:00:00Z</time>
      </trkpt>
      <trkpt lat="63.4010755" lon="10.45719767">
        <ele>179.072</ele>
        <time>1970-01-01T01:00:00Z</time>
      </trkpt>
      <trkpt lat="63.40109733" lon="10.45724567">
        <ele>179.072</ele>
        <time>1970-01-01T01:00:00Z</time>
      </trkpt>
      <trkpt lat="63.40111867" lon="10.45729133">
        <ele>178.615</ele>
        <time>1970-01-01T01:00:00Z</time>
      </trkpt>
      <trkpt lat="63.401135" lon="10.457333">
        <ele>178.615</ele>
        <time>1970-01-01T01:00:00Z</time>
      </trkpt>
      <trkpt lat="63.4011505" lon="10.45737083">
        <ele>178.158</ele>
        <time>1970-01-01T01:00:00Z</time>
      </trkpt>
      <trkpt lat="63.4011645" lon="10.45740633">
        <ele>178.158</ele>
        <time>1970-01-01T01:00:00Z</time>
      </trkpt>
      <trkpt lat="63.40117533" lon="10.4574395">
        <ele>177.701</ele>
        <time>1970-01-01T01:00:00Z</time>
      </trkpt>
      <trkpt lat="63.40118833" lon="10.45747433">
        <ele>177.701</ele>
        <time>1970-01-01T01:00:00Z</time>
      </trkpt>
      <trkpt lat="63.40120117" lon="10.45751117">
        <ele>177.243</ele>
        <time>1970-01-01T01:00:00Z</time>
      </trkpt>
      <trkpt lat="63.4012175" lon="10.457539">
        <ele>177.243</ele>
        <time>1970-01-01T01:00:00Z</time>
      </trkpt>
      <trkpt lat="63.40123467" lon="10.45756367">
        <ele>176.786</ele>
        <time>1970-01-01T01:00:00Z</time>
      </trkpt>
      <trkpt lat="63.40125383" lon="10.45758217">
        <ele>176.786</ele>
        <time>1970-01-01T01:00:00Z</time>
      </trkpt>
      <trkpt lat="63.40127817" lon="10.45760567">
        <ele>176.329</ele>
        <time>1970-01-01T01:00:00Z</time>
      </trkpt>
      <trkpt lat="63.4013045" lon="10.45762883">
        <ele>176.329</ele>
        <time>1970-01-01T01:00:00Z</time>
      </trkpt>
      <trkpt lat="63.40132983" lon="10.45765083">
        <ele>175.872</ele>
        <time>1970-01-01T01:00:00Z</time>
      </trkpt>
      <trkpt lat="63.4013535" lon="10.45767117">
        <ele>175.872</ele>
        <time>1970-01-01T01:00:00Z</time>
      </trkpt>
      <trkpt lat="63.401381" lon="10.45768767">
        <ele>175.415</ele>
        <time>1970-01-01T01:00:00Z</time>
      </trkpt>
      <trkpt lat="63.4014135" lon="10.45770283">
        <ele>175.415</ele>
        <time>1970-01-01T01:00:00Z</time>
      </trkpt>
      <trkpt lat="63.4014485" lon="10.45770983">
        <ele>175.11</ele>
        <time>1970-01-01T01:00:00Z</time>
      </trkpt>
      <trkpt lat="63.40148233" lon="10.4577175">
        <ele>175.11</ele>
        <time>1970-01-01T01:00:00Z</time>
      </trkpt>
      <trkpt lat="63.40151483" lon="10.4577275">
        <ele>174.653</ele>
        <time>1970-01-01T01:00:00Z</time>
      </trkpt>
      <trkpt lat="63.40154183" lon="10.45774383">
        <ele>174.653</ele>
        <time>1970-01-01T01:00:00Z</time>
      </trkpt>
      <trkpt lat="63.40156817" lon="10.457757">
        <ele>174.348</ele>
        <time>1970-01-01T01:00:00Z</time>
      </trkpt>
      <trkpt lat="63.40159433" lon="10.4577655">
        <ele>174.348</ele>
        <time>1970-01-01T01:00:00Z</time>
      </trkpt>
      <trkpt lat="63.40162233" lon="10.45777033">
        <ele>174.195</ele>
        <time>1970-01-01T01:00:00Z</time>
      </trkpt>
      <trkpt lat="63.40164683" lon="10.45777533">
        <ele>174.195</ele>
        <time>1970-01-01T01:00:00Z</time>
      </trkpt>
      <trkpt lat="63.401671" lon="10.45778767">
        <ele>173.891</ele>
        <time>1970-01-01T01:00:00Z</time>
      </trkpt>
      <trkpt lat="63.40169483" lon="10.45780583">
        <ele>173.891</ele>
        <time>1970-01-01T01:00:00Z</time>
      </trkpt>
      <trkpt lat="63.40172017" lon="10.457828">
        <ele>173.738</ele>
        <time>1970-01-01T01:00:00Z</time>
      </trkpt>
      <trkpt lat="63.40174383" lon="10.457848">
        <ele>173.738</ele>
        <time>1970-01-01T01:00:00Z</time>
      </trkpt>
      <trkpt lat="63.40176633" lon="10.45786">
        <ele>173.586</ele>
        <time>1970-01-01T01:00:00Z</time>
      </trkpt>
      <trkpt lat="63.4017895" lon="10.45786817">
        <ele>173.586</ele>
        <time>1970-01-01T01:00:00Z</time>
      </trkpt>
      <trkpt lat="63.40181383" lon="10.457869">
        <ele>173.586</ele>
        <time>1970-01-01T01:00:00Z</time>
      </trkpt>
      <trkpt lat="63.4018385" lon="10.45786917">
        <ele>173.586</ele>
        <time>1970-01-01T01:00:00Z</time>
      </trkpt>
      <trkpt lat="63.401863" lon="10.45786567">
        <ele>173.433</ele>
        <time>1970-01-01T01:00:00Z</time>
      </trkpt>
      <trkpt lat="63.40188383" lon="10.45786717">
        <ele>173.433</ele>
        <time>1970-01-01T01:00:00Z</time>
      </trkpt>
      <trkpt lat="63.40190533" lon="10.4578715">
        <ele>173.433</ele>
        <time>1970-01-01T01:00:00Z</time>
      </trkpt>
      <trkpt lat="63.401929" lon="10.457877">
        <ele>173.433</ele>
        <time>1970-01-01T01:00:00Z</time>
      </trkpt>
      <trkpt lat="63.40195833" lon="10.45787933">
        <ele>173.433</ele>
        <time>1970-01-01T01:00:00Z</time>
      </trkpt>
      <trkpt lat="63.40198967" lon="10.45787883">
        <ele>173.433</ele>
        <time>1970-01-01T01:00:00Z</time>
      </trkpt>
      <trkpt lat="63.40201833" lon="10.45788233">
        <ele>173.433</ele>
        <time>1970-01-01T01:00:00Z</time>
      </trkpt>
      <trkpt lat="63.402045" lon="10.4578875">
        <ele>173.433</ele>
        <time>1970-01-01T01:00:00Z</time>
      </trkpt>
      <trkpt lat="63.40206933" lon="10.45789217">
        <ele>173.433</ele>
        <time>1970-01-01T01:00:00Z</time>
      </trkpt>
      <trkpt lat="63.4020955" lon="10.45789333">
        <ele>173.433</ele>
        <time>1970-01-01T01:00:00Z</time>
      </trkpt>
      <trkpt lat="63.40212067" lon="10.45789367">
        <ele>173.586</ele>
        <time>1970-01-01T01:00:00Z</time>
      </trkpt>
      <trkpt lat="63.40214517" lon="10.45789633">
        <ele>173.586</ele>
        <time>1970-01-01T01:00:00Z</time>
      </trkpt>
      <trkpt lat="63.40216767" lon="10.4579015">
        <ele>173.586</ele>
        <time>1970-01-01T01:00:00Z</time>
      </trkpt>
      <trkpt lat="63.40219083" lon="10.45790817">
        <ele>173.586</ele>
        <time>1970-01-01T01:00:00Z</time>
      </trkpt>
      <trkpt lat="63.40221517" lon="10.45791617">
        <ele>173.738</ele>
        <time>1970-01-01T01:00:00Z</time>
      </trkpt>
      <trkpt lat="63.4022405" lon="10.4579215">
        <ele>173.738</ele>
        <time>1970-01-01T01:00:00Z</time>
      </trkpt>
      <trkpt lat="63.40226517" lon="10.457926">
        <ele>173.738</ele>
        <time>1970-01-01T01:00:00Z</time>
      </trkpt>
      <trkpt lat="63.40228917" lon="10.45792583">
        <ele>173.738</ele>
        <time>1970-01-01T01:00:00Z</time>
      </trkpt>
      <trkpt lat="63.40231367" lon="10.45792517">
        <ele>173.891</ele>
        <time>1970-01-01T01:00:00Z</time>
      </trkpt>
      <trkpt lat="63.40233733" lon="10.45791817">
        <ele>173.891</ele>
        <time>1970-01-01T01:00:00Z</time>
      </trkpt>
      <trkpt lat="63.40236033" lon="10.4579105">
        <ele>174.043</ele>
        <time>1970-01-01T01:00:00Z</time>
      </trkpt>
      <trkpt lat="63.40238283" lon="10.45790133">
        <ele>174.043</ele>
        <time>1970-01-01T01:00:00Z</time>
      </trkpt>
      <trkpt lat="63.40240633" lon="10.45789717">
        <ele>174.195</ele>
        <time>1970-01-01T01:00:00Z</time>
      </trkpt>
      <trkpt lat="63.40242983" lon="10.4578935">
        <ele>174.195</ele>
        <time>1970-01-01T01:00:00Z</time>
      </trkpt>
      <trkpt lat="63.40245233" lon="10.45788867">
        <ele>174.5</ele>
        <time>1970-01-01T01:00:00Z</time>
      </trkpt>
      <trkpt lat="63.40247417" lon="10.45788133">
        <ele>174.5</ele>
        <time>1970-01-01T01:00:00Z</time>
      </trkpt>
      <trkpt lat="63.40249467" lon="10.45787717">
        <ele>174.653</ele>
        <time>1970-01-01T01:00:00Z</time>
      </trkpt>
      <trkpt lat="63.4025145" lon="10.4578775">
        <ele>174.653</ele>
        <time>1970-01-01T01:00:00Z</time>
      </trkpt>
      <trkpt lat="63.40253633" lon="10.45788017">
        <ele>174.957</ele>
        <time>1970-01-01T01:00:00Z</time>
      </trkpt>
      <trkpt lat="63.40256133" lon="10.457884">
        <ele>174.957</ele>
        <time>1970-01-01T01:00:00Z</time>
      </trkpt>
      <trkpt lat="63.40258917" lon="10.45789483">
        <ele>175.262</ele>
        <time>1970-01-01T01:00:00Z</time>
      </trkpt>
      <trkpt lat="63.40261733" lon="10.45791317">
        <ele>175.262</ele>
        <time>1970-01-01T01:00:00Z</time>
      </trkpt>
      <trkpt lat="63.40264383" lon="10.45793783">
        <ele>175.415</ele>
        <time>1970-01-01T01:00:00Z</time>
      </trkpt>
      <trkpt lat="63.40266933" lon="10.45796733">
        <ele>175.415</ele>
        <time>1970-01-01T01:00:00Z</time>
      </trkpt>
      <trkpt lat="63.40269283" lon="10.457996">
        <ele>175.719</ele>
        <time>1970-01-01T01:00:00Z</time>
      </trkpt>
      <trkpt lat="63.40271433" lon="10.45802333">
        <ele>175.719</ele>
        <time>1970-01-01T01:00:00Z</time>
      </trkpt>
      <trkpt lat="63.40273333" lon="10.45804983">
        <ele>175.872</ele>
        <time>1970-01-01T01:00:00Z</time>
      </trkpt>
      <trkpt lat="63.4027515" lon="10.45807867">
        <ele>175.872</ele>
        <time>1970-01-01T01:00:00Z</time>
      </trkpt>
      <trkpt lat="63.40277333" lon="10.45811533">
        <ele>176.177</ele>
        <time>1970-01-01T01:00:00Z</time>
      </trkpt>
      <trkpt lat="63.40279683" lon="10.458146">
        <ele>176.177</ele>
        <time>1970-01-01T01:00:00Z</time>
      </trkpt>
      <trkpt lat="63.40282067" lon="10.4581705">
        <ele>176.329</ele>
        <time>1970-01-01T01:00:00Z</time>
      </trkpt>
      <trkpt lat="63.40284233" lon="10.458184">
        <ele>176.329</ele>
        <time>1970-01-01T01:00:00Z</time>
      </trkpt>
      <trkpt lat="63.402866" lon="10.4582065">
        <ele>176.481</ele>
        <time>1970-01-01T01:00:00Z</time>
      </trkpt>
      <trkpt lat="63.40289117" lon="10.458237">
        <ele>176.481</ele>
        <time>1970-01-01T01:00:00Z</time>
      </trkpt>
      <trkpt lat="63.40291733" lon="10.45827283">
        <ele>176.634</ele>
        <time>1970-01-01T01:00:00Z</time>
      </trkpt>
      <trkpt lat="63.40294117" lon="10.4582975">
        <ele>176.634</ele>
        <time>1970-01-01T01:00:00Z</time>
      </trkpt>
      <trkpt lat="63.40296167" lon="10.45832033">
        <ele>176.939</ele>
        <time>1970-01-01T01:00:00Z</time>
      </trkpt>
      <trkpt lat="63.40297983" lon="10.45834283">
        <ele>176.939</ele>
        <time>1970-01-01T01:00:00Z</time>
      </trkpt>
      <trkpt lat="63.4029975" lon="10.45836467">
        <ele>177.091</ele>
        <time>1970-01-01T01:00:00Z</time>
      </trkpt>
      <trkpt lat="63.40301617" lon="10.4583815">
        <ele>177.091</ele>
        <time>1970-01-01T01:00:00Z</time>
      </trkpt>
      <trkpt lat="63.40303667" lon="10.45839867">
        <ele>177.396</ele>
        <time>1970-01-01T01:00:00Z</time>
      </trkpt>
      <trkpt lat="63.40305617" lon="10.45842617">
        <ele>177.396</ele>
        <time>1970-01-01T01:00:00Z</time>
      </trkpt>
      <trkpt lat="63.4030765" lon="10.45846583">
        <ele>177.548</ele>
        <time>1970-01-01T01:00:00Z</time>
      </trkpt>
      <trkpt lat="63.40309533" lon="10.458506">
        <ele>177.548</ele>
        <time>1970-01-01T01:00:00Z</time>
      </trkpt>
      <trkpt lat="63.40311283" lon="10.45853767">
        <ele>177.853</ele>
        <time>1970-01-01T01:00:00Z</time>
      </trkpt>
      <trkpt lat="63.403128" lon="10.45856133">
        <ele>177.853</ele>
        <time>1970-01-01T01:00:00Z</time>
      </trkpt>
      <trkpt lat="63.40314167" lon="10.45858367">
        <ele>178.005</ele>
        <time>1970-01-01T01:00:00Z</time>
      </trkpt>
      <trkpt lat="63.40315533" lon="10.458606">
        <ele>178.005</ele>
        <time>1970-01-01T01:00:00Z</time>
      </trkpt>
      <trkpt lat="63.40316867" lon="10.458622">
        <ele>178.158</ele>
        <time>1970-01-01T01:00:00Z</time>
      </trkpt>
      <trkpt lat="63.40318283" lon="10.45863517">
        <ele>178.158</ele>
        <time>1970-01-01T01:00:00Z</time>
      </trkpt>
      <trkpt lat="63.403197" lon="10.4586475">
        <ele>178.31</ele>
        <time>1970-01-01T01:00:00Z</time>
      </trkpt>
      <trkpt lat="63.40321083" lon="10.45866233">
        <ele>178.31</ele>
        <time>1970-01-01T01:00:00Z</time>
      </trkpt>
      <trkpt lat="63.403222" lon="10.4586755">
        <ele>178.463</ele>
        <time>1970-01-01T01:00:00Z</time>
      </trkpt>
      <trkpt lat="63.40323283" lon="10.4586895">
        <ele>178.463</ele>
        <time>1970-01-01T01:00:00Z</time>
      </trkpt>
      <trkpt lat="63.40324367" lon="10.45870383">
        <ele>178.615</ele>
        <time>1970-01-01T01:00:00Z</time>
      </trkpt>
      <trkpt lat="63.4032555" lon="10.45871933">
        <ele>178.615</ele>
        <time>1970-01-01T01:00:00Z</time>
      </trkpt>
      <trkpt lat="63.4032675" lon="10.45873333">
        <ele>178.767</ele>
        <time>1970-01-01T01:00:00Z</time>
      </trkpt>
      <trkpt lat="63.40328017" lon="10.4587445">
        <ele>178.767</ele>
        <time>1970-01-01T01:00:00Z</time>
      </trkpt>
      <trkpt lat="63.40329667" lon="10.45876033">
        <ele>179.072</ele>
        <time>1970-01-01T01:00:00Z</time>
      </trkpt>
      <trkpt lat="63.40331417" lon="10.45878033">
        <ele>179.072</ele>
        <time>1970-01-01T01:00:00Z</time>
      </trkpt>
      <trkpt lat="63.4033315" lon="10.45880333">
        <ele>179.225</ele>
        <time>1970-01-01T01:00:00Z</time>
      </trkpt>
      <trkpt lat="63.40334583" lon="10.45882667">
        <ele>179.225</ele>
        <time>1970-01-01T01:00:00Z</time>
      </trkpt>
      <trkpt lat="63.40336233" lon="10.4588545">
        <ele>179.377</ele>
        <time>1970-01-01T01:00:00Z</time>
      </trkpt>
      <trkpt lat="63.4033795" lon="10.4588845">
        <ele>179.377</ele>
        <time>1970-01-01T01:00:00Z</time>
      </trkpt>
      <trkpt lat="63.40339817" lon="10.458914">
        <ele>179.529</ele>
        <time>1970-01-01T01:00:00Z</time>
      </trkpt>
      <trkpt lat="63.40341517" lon="10.45894017">
        <ele>179.529</ele>
        <time>1970-01-01T01:00:00Z</time>
      </trkpt>
      <trkpt lat="63.40343533" lon="10.45897067">
        <ele>179.529</ele>
        <time>1970-01-01T01:00:00Z</time>
      </trkpt>
      <trkpt lat="63.40345717" lon="10.45900567">
        <ele>179.529</ele>
        <time>1970-01-01T01:00:00Z</time>
      </trkpt>
      <trkpt lat="63.403483" lon="10.4590395">
        <ele>179.529</ele>
        <time>1970-01-01T01:00:00Z</time>
      </trkpt>
      <trkpt lat="63.40350717" lon="10.45907033">
        <ele>179.529</ele>
        <time>1970-01-01T01:00:00Z</time>
      </trkpt>
      <trkpt lat="63.403531" lon="10.459101">
        <ele>179.529</ele>
        <time>1970-01-01T01:00:00Z</time>
      </trkpt>
      <trkpt lat="63.4035495" lon="10.459129">
        <ele>179.529</ele>
        <time>1970-01-01T01:00:00Z</time>
      </trkpt>
      <trkpt lat="63.40356917" lon="10.459157">
        <ele>179.377</ele>
        <time>1970-01-01T01:00:00Z</time>
      </trkpt>
      <trkpt lat="63.40358983" lon="10.45918217">
        <ele>179.377</ele>
        <time>1970-01-01T01:00:00Z</time>
      </trkpt>
      <trkpt lat="63.403617" lon="10.45921467">
        <ele>179.377</ele>
        <time>1970-01-01T01:00:00Z</time>
      </trkpt>
      <trkpt lat="63.40364333" lon="10.459249">
        <ele>179.377</ele>
        <time>1970-01-01T01:00:00Z</time>
      </trkpt>
      <trkpt lat="63.40367267" lon="10.45928583">
        <ele>179.225</ele>
        <time>1970-01-01T01:00:00Z</time>
      </trkpt>
      <trkpt lat="63.40369767" lon="10.45932467">
        <ele>179.225</ele>
        <time>1970-01-01T01:00:00Z</time>
      </trkpt>
      <trkpt lat="63.40372117" lon="10.45936367">
        <ele>178.92</ele>
        <time>1970-01-01T01:00:00Z</time>
      </trkpt>
      <trkpt lat="63.40374417" lon="10.45939917">
        <ele>178.92</ele>
        <time>1970-01-01T01:00:00Z</time>
      </trkpt>
      <trkpt lat="63.40376833" lon="10.4594305">
        <ele>178.767</ele>
        <time>1970-01-01T01:00:00Z</time>
      </trkpt>
      <trkpt lat="63.403795" lon="10.45945533">
        <ele>178.767</ele>
        <time>1970-01-01T01:00:00Z</time>
      </trkpt>
      <trkpt lat="63.40382217" lon="10.45947867">
        <ele>178.615</ele>
        <time>1970-01-01T01:00:00Z</time>
      </trkpt>
      <trkpt lat="63.4038535" lon="10.45949517">
        <ele>178.615</ele>
        <time>1970-01-01T01:00:00Z</time>
      </trkpt>
      <trkpt lat="63.4038865" lon="10.459516">
        <ele>178.31</ele>
        <time>1970-01-01T01:00:00Z</time>
      </trkpt>
      <trkpt lat="63.40391617" lon="10.45953967">
        <ele>178.31</ele>
        <time>1970-01-01T01:00:00Z</time>
      </trkpt>
      <trkpt lat="63.4039415" lon="10.45957767">
        <ele>178.158</ele>
        <time>1970-01-01T01:00:00Z</time>
      </trkpt>
      <trkpt lat="63.40396067" lon="10.45962183">
        <ele>178.158</ele>
        <time>1970-01-01T01:00:00Z</time>
      </trkpt>
      <trkpt lat="63.40397983" lon="10.45966383">
        <ele>177.853</ele>
        <time>1970-01-01T01:00:00Z</time>
      </trkpt>
      <trkpt lat="63.40399833" lon="10.45969683">
        <ele>177.853</ele>
        <time>1970-01-01T01:00:00Z</time>
      </trkpt>
      <trkpt lat="63.40401967" lon="10.45972167">
        <ele>177.548</ele>
        <time>1970-01-01T01:00:00Z</time>
      </trkpt>
      <trkpt lat="63.40404067" lon="10.459743">
        <ele>177.548</ele>
        <time>1970-01-01T01:00:00Z</time>
      </trkpt>
      <trkpt lat="63.40406183" lon="10.45976367">
        <ele>177.243</ele>
        <time>1970-01-01T01:00:00Z</time>
      </trkpt>
      <trkpt lat="63.4040855" lon="10.45978433">
        <ele>177.243</ele>
        <time>1970-01-01T01:00:00Z</time>
      </trkpt>
      <trkpt lat="63.40411017" lon="10.45981217">
        <ele>177.091</ele>
        <time>1970-01-01T01:00:00Z</time>
      </trkpt>
      <trkpt lat="63.40413617" lon="10.4598405">
        <ele>177.091</ele>
        <time>1970-01-01T01:00:00Z</time>
      </trkpt>
      <trkpt lat="63.40416133" lon="10.4598715">
        <ele>176.786</ele>
        <time>1970-01-01T01:00:00Z</time>
      </trkpt>
      <trkpt lat="63.40418533" lon="10.45989833">
        <ele>176.786</ele>
        <time>1970-01-01T01:00:00Z</time>
      </trkpt>
      <trkpt lat="63.40420717" lon="10.45992467">
        <ele>176.634</ele>
        <time>1970-01-01T01:00:00Z</time>
      </trkpt>
      <trkpt lat="63.40422817" lon="10.4599545">
        <ele>176.634</ele>
        <time>1970-01-01T01:00:00Z</time>
      </trkpt>
      <trkpt lat="63.40425283" lon="10.459986">
        <ele>176.481</ele>
        <time>1970-01-01T01:00:00Z</time>
      </trkpt>
      <trkpt lat="63.40427983" lon="10.46002017">
        <ele>176.481</ele>
        <time>1970-01-01T01:00:00Z</time>
      </trkpt>
      <trkpt lat="63.40430733" lon="10.46005733">
        <ele>176.329</ele>
        <time>1970-01-01T01:00:00Z</time>
      </trkpt>
      <trkpt lat="63.404331" lon="10.460098">
        <ele>176.329</ele>
        <time>1970-01-01T01:00:00Z</time>
      </trkpt>
      <trkpt lat="63.4043535" lon="10.4601415">
        <ele>176.329</ele>
        <time>1970-01-01T01:00:00Z</time>
      </trkpt>
      <trkpt lat="63.40437517" lon="10.46017533">
        <ele>176.329</ele>
        <time>1970-01-01T01:00:00Z</time>
      </trkpt>
      <trkpt lat="63.40439617" lon="10.46020983">
        <ele>176.329</ele>
        <time>1970-01-01T01:00:00Z</time>
      </trkpt>
      <trkpt lat="63.4044165" lon="10.46023983">
        <ele>176.329</ele>
        <time>1970-01-01T01:00:00Z</time>
      </trkpt>
      <trkpt lat="63.404437" lon="10.46027367">
        <ele>176.329</ele>
        <time>1970-01-01T01:00:00Z</time>
      </trkpt>
      <trkpt lat="63.40445467" lon="10.46031217">
        <ele>176.329</ele>
        <time>1970-01-01T01:00:00Z</time>
      </trkpt>
      <trkpt lat="63.40447133" lon="10.4603605">
        <ele>176.329</ele>
        <time>1970-01-01T01:00:00Z</time>
      </trkpt>
      <trkpt lat="63.4044845" lon="10.4604195">
        <ele>176.329</ele>
        <time>1970-01-01T01:00:00Z</time>
      </trkpt>
      <trkpt lat="63.40449783" lon="10.46047783">
        <ele>176.329</ele>
        <time>1970-01-01T01:00:00Z</time>
      </trkpt>
      <trkpt lat="63.40451133" lon="10.46053433">
        <ele>176.329</ele>
        <time>1970-01-01T01:00:00Z</time>
      </trkpt>
      <trkpt lat="63.4045275" lon="10.4605805">
        <ele>176.177</ele>
        <time>1970-01-01T01:00:00Z</time>
      </trkpt>
      <trkpt lat="63.40454133" lon="10.46063067">
        <ele>176.177</ele>
        <time>1970-01-01T01:00:00Z</time>
      </trkpt>
      <trkpt lat="63.4045545" lon="10.46067833">
        <ele>176.024</ele>
        <time>1970-01-01T01:00:00Z</time>
      </trkpt>
      <trkpt lat="63.40456433" lon="10.46073383">
        <ele>176.024</ele>
        <time>1970-01-01T01:00:00Z</time>
      </trkpt>
      <trkpt lat="63.40456983" lon="10.46079517">
        <ele>175.719</ele>
        <time>1970-01-01T01:00:00Z</time>
      </trkpt>
      <trkpt lat="63.40457217" lon="10.4608585">
        <ele>175.719</ele>
        <time>1970-01-01T01:00:00Z</time>
      </trkpt>
      <trkpt lat="63.4045745" lon="10.4609205">
        <ele>175.415</ele>
        <time>1970-01-01T01:00:00Z</time>
      </trkpt>
      <trkpt lat="63.40458467" lon="10.46097017">
        <ele>175.415</ele>
        <time>1970-01-01T01:00:00Z</time>
      </trkpt>
      <trkpt lat="63.40459733" lon="10.4610155">
        <ele>174.957</ele>
        <time>1970-01-01T01:00:00Z</time>
      </trkpt>
      <trkpt lat="63.40461033" lon="10.461054">
        <ele>174.957</ele>
        <time>1970-01-01T01:00:00Z</time>
      </trkpt>
      <trkpt lat="63.40462233" lon="10.4610855">
        <ele>174.653</ele>
        <time>1970-01-01T01:00:00Z</time>
      </trkpt>
      <trkpt lat="63.40463767" lon="10.461111">
        <ele>174.653</ele>
        <time>1970-01-01T01:00:00Z</time>
      </trkpt>
      <trkpt lat="63.4046585" lon="10.46113017">
        <ele>174.348</ele>
        <time>1970-01-01T01:00:00Z</time>
      </trkpt>
      <trkpt lat="63.40468167" lon="10.46114933">
        <ele>174.348</ele>
        <time>1970-01-01T01:00:00Z</time>
      </trkpt>
      <trkpt lat="63.40470183" lon="10.46116167">
        <ele>173.891</ele>
        <time>1970-01-01T01:00:00Z</time>
      </trkpt>
      <trkpt lat="63.40471833" lon="10.46117367">
        <ele>173.891</ele>
        <time>1970-01-01T01:00:00Z</time>
      </trkpt>
      <trkpt lat="63.40473567" lon="10.46118217">
        <ele>173.586</ele>
        <time>1970-01-01T01:00:00Z</time>
      </trkpt>
      <trkpt lat="63.4047555" lon="10.4611945">
        <ele>173.586</ele>
        <time>1970-01-01T01:00:00Z</time>
      </trkpt>
      <trkpt lat="63.4047775" lon="10.46121317">
        <ele>173.128</ele>
        <time>1970-01-01T01:00:00Z</time>
      </trkpt>
      <trkpt lat="63.40479733" lon="10.46123417">
        <ele>173.128</ele>
        <time>1970-01-01T01:00:00Z</time>
      </trkpt>
      <trkpt lat="63.4048145" lon="10.46125917">
        <ele>172.824</ele>
        <time>1970-01-01T01:00:00Z</time>
      </trkpt>
      <trkpt lat="63.404832" lon="10.46128333">
        <ele>172.824</ele>
        <time>1970-01-01T01:00:00Z</time>
      </trkpt>
      <trkpt lat="63.4048505" lon="10.46130783">
        <ele>172.519</ele>
        <time>1970-01-01T01:00:00Z</time>
      </trkpt>
      <trkpt lat="63.4048715" lon="10.46133017">
        <ele>172.519</ele>
        <time>1970-01-01T01:00:00Z</time>
      </trkpt>
      <trkpt lat="63.40489283" lon="10.46134983">
        <ele>172.214</ele>
        <time>1970-01-01T01:00:00Z</time>
      </trkpt>
      <trkpt lat="63.40491483" lon="10.46136733">
        <ele>172.214</ele>
        <time>1970-01-01T01:00:00Z</time>
      </trkpt>
      <trkpt lat="63.40493933" lon="10.46138083">
        <ele>172.062</ele>
        <time>1970-01-01T01:00:00Z</time>
      </trkpt>
      <trkpt lat="63.40496283" lon="10.46139383">
        <ele>172.062</ele>
        <time>1970-01-01T01:00:00Z</time>
      </trkpt>
      <trkpt lat="63.40498667" lon="10.46140883">
        <ele>171.909</ele>
        <time>1970-01-01T01:00:00Z</time>
      </trkpt>
      <trkpt lat="63.40500583" lon="10.46142617">
        <ele>171.909</ele>
        <time>1970-01-01T01:00:00Z</time>
      </trkpt>
      <trkpt lat="63.40502583" lon="10.46144083">
        <ele>171.757</ele>
        <time>1970-01-01T01:00:00Z</time>
      </trkpt>
      <trkpt lat="63.4050465" lon="10.461453">
        <ele>171.757</ele>
        <time>1970-01-01T01:00:00Z</time>
      </trkpt>
      <trkpt lat="63.4050705" lon="10.46146567">
        <ele>171.604</ele>
        <time>1970-01-01T01:00:00Z</time>
      </trkpt>
      <trkpt lat="63.40509483" lon="10.46148333">
        <ele>171.604</ele>
        <time>1970-01-01T01:00:00Z</time>
      </trkpt>
      <trkpt lat="63.405115" lon="10.46150283">
        <ele>171.604</ele>
        <time>1970-01-01T01:00:00Z</time>
      </trkpt>
      <trkpt lat="63.40513183" lon="10.4615305">
        <ele>171.604</ele>
        <time>1970-01-01T01:00:00Z</time>
      </trkpt>
      <trkpt lat="63.40514783" lon="10.46156867">
        <ele>171.452</ele>
        <time>1970-01-01T01:00:00Z</time>
      </trkpt>
      <trkpt lat="63.405163" lon="10.46161633">
        <ele>171.452</ele>
        <time>1970-01-01T01:00:00Z</time>
      </trkpt>
      <trkpt lat="63.4051785" lon="10.46165933">
        <ele>171.452</ele>
        <time>1970-01-01T01:00:00Z</time>
      </trkpt>
      <trkpt lat="63.4051935" lon="10.46170033">
        <ele>171.452</ele>
        <time>1970-01-01T01:00:00Z</time>
      </trkpt>
      <trkpt lat="63.40520867" lon="10.4617415">
        <ele>171.3</ele>
        <time>1970-01-01T01:00:00Z</time>
      </trkpt>
      <trkpt lat="63.40522317" lon="10.4617875">
        <ele>171.3</ele>
        <time>1970-01-01T01:00:00Z</time>
      </trkpt>
      <trkpt lat="63.40523567" lon="10.46182967">
        <ele>171.3</ele>
        <time>1970-01-01T01:00:00Z</time>
      </trkpt>
      <trkpt lat="63.4052475" lon="10.46187233">
        <ele>171.3</ele>
        <time>1970-01-01T01:00:00Z</time>
      </trkpt>
      <trkpt lat="63.40525733" lon="10.461916">
        <ele>171.147</ele>
        <time>1970-01-01T01:00:00Z</time>
      </trkpt>
      <trkpt lat="63.4052655" lon="10.461972">
        <ele>171.147</ele>
        <time>1970-01-01T01:00:00Z</time>
      </trkpt>
      <trkpt lat="63.40526767" lon="10.4620365">
        <ele>170.995</ele>
        <time>1970-01-01T01:00:00Z</time>
      </trkpt>
      <trkpt lat="63.40527033" lon="10.4621015">
        <ele>170.995</ele>
        <time>1970-01-01T01:00:00Z</time>
      </trkpt>
      <trkpt lat="63.4052735" lon="10.4621595">
        <ele>170.842</ele>
        <time>1970-01-01T01:00:00Z</time>
      </trkpt>
      <trkpt lat="63.405283" lon="10.46220817">
        <ele>170.842</ele>
        <time>1970-01-01T01:00:00Z</time>
      </trkpt>
      <trkpt lat="63.4052915" lon="10.462255">
        <ele>170.538</ele>
        <time>1970-01-01T01:00:00Z</time>
      </trkpt>
      <trkpt lat="63.40530167" lon="10.4623">
        <ele>170.538</ele>
        <time>1970-01-01T01:00:00Z</time>
      </trkpt>
      <trkpt lat="63.4053155" lon="10.4623445">
        <ele>170.233</ele>
        <time>1970-01-01T01:00:00Z</time>
      </trkpt>
      <trkpt lat="63.405333" lon="10.46239117">
        <ele>170.233</ele>
        <time>1970-01-01T01:00:00Z</time>
      </trkpt>
      <trkpt lat="63.40535033" lon="10.46243917">
        <ele>169.928</ele>
        <time>1970-01-01T01:00:00Z</time>
      </trkpt>
      <trkpt lat="63.405366" lon="10.46248733">
        <ele>169.928</ele>
        <time>1970-01-01T01:00:00Z</time>
      </trkpt>
      <trkpt lat="63.405381" lon="10.46253333">
        <ele>169.623</ele>
        <time>1970-01-01T01:00:00Z</time>
      </trkpt>
      <trkpt lat="63.4053975" lon="10.46257783">
        <ele>169.623</ele>
        <time>1970-01-01T01:00:00Z</time>
      </trkpt>
      <trkpt lat="63.40541517" lon="10.46262467">
        <ele>169.471</ele>
        <time>1970-01-01T01:00:00Z</time>
      </trkpt>
      <trkpt lat="63.40543217" lon="10.4626715">
        <ele>169.471</ele>
        <time>1970-01-01T01:00:00Z</time>
      </trkpt>
      <trkpt lat="63.4054495" lon="10.4627175">
        <ele>169.318</ele>
        <time>1970-01-01T01:00:00Z</time>
      </trkpt>
      <trkpt lat="63.40546583" lon="10.462762">
        <ele>169.318</ele>
        <time>1970-01-01T01:00:00Z</time>
      </trkpt>
      <trkpt lat="63.40548133" lon="10.4628035">
        <ele>169.166</ele>
        <time>1970-01-01T01:00:00Z</time>
      </trkpt>
      <trkpt lat="63.40549683" lon="10.46284667">
        <ele>169.166</ele>
        <time>1970-01-01T01:00:00Z</time>
      </trkpt>
      <trkpt lat="63.40551083" lon="10.46289">
        <ele>169.014</ele>
        <time>1970-01-01T01:00:00Z</time>
      </trkpt>
      <trkpt lat="63.40552417" lon="10.46293467">
        <ele>169.014</ele>
        <time>1970-01-01T01:00:00Z</time>
      </trkpt>
      <trkpt lat="63.405536" lon="10.46298367">
        <ele>168.861</ele>
        <time>1970-01-01T01:00:00Z</time>
      </trkpt>
      <trkpt lat="63.40554767" lon="10.46303333">
        <ele>168.861</ele>
        <time>1970-01-01T01:00:00Z</time>
      </trkpt>
      <trkpt lat="63.40556267" lon="10.46308783">
        <ele>168.556</ele>
        <time>1970-01-01T01:00:00Z</time>
      </trkpt>
      <trkpt lat="63.405579" lon="10.46313833">
        <ele>168.556</ele>
        <time>1970-01-01T01:00:00Z</time>
      </trkpt>
      <trkpt lat="63.40560217" lon="10.4631795">
        <ele>168.404</ele>
        <time>1970-01-01T01:00:00Z</time>
      </trkpt>
      <trkpt lat="63.40562583" lon="10.463216">
        <ele>168.404</ele>
        <time>1970-01-01T01:00:00Z</time>
      </trkpt>
      <trkpt lat="63.40565217" lon="10.46324283">
        <ele>168.099</ele>
        <time>1970-01-01T01:00:00Z</time>
      </trkpt>
      <trkpt lat="63.40567333" lon="10.46327733">
        <ele>168.099</ele>
        <time>1970-01-01T01:00:00Z</time>
      </trkpt>
      <trkpt lat="63.4056945" lon="10.463314">
        <ele>167.947</ele>
        <time>1970-01-01T01:00:00Z</time>
      </trkpt>
      <trkpt lat="63.40571417" lon="10.4633615">
        <ele>167.947</ele>
        <time>1970-01-01T01:00:00Z</time>
      </trkpt>
      <trkpt lat="63.40573367" lon="10.46341167">
        <ele>167.794</ele>
        <time>1970-01-01T01:00:00Z</time>
      </trkpt>
      <trkpt lat="63.40575083" lon="10.46346883">
        <ele>167.794</ele>
        <time>1970-01-01T01:00:00Z</time>
      </trkpt>
      <trkpt lat="63.4057655" lon="10.4635295">
        <ele>167.642</ele>
        <time>1970-01-01T01:00:00Z</time>
      </trkpt>
      <trkpt lat="63.40578183" lon="10.46358933">
        <ele>167.642</ele>
        <time>1970-01-01T01:00:00Z</time>
      </trkpt>
      <trkpt lat="63.40579917" lon="10.46364417">
        <ele>167.49</ele>
        <time>1970-01-01T01:00:00Z</time>
      </trkpt>
      <trkpt lat="63.40581883" lon="10.46369033">
        <ele>167.49</ele>
        <time>1970-01-01T01:00:00Z</time>
      </trkpt>
      <trkpt lat="63.4058365" lon="10.46374267">
        <ele>167.337</ele>
        <time>1970-01-01T01:00:00Z</time>
      </trkpt>
      <trkpt lat="63.40585233" lon="10.4637925">
        <ele>167.337</ele>
        <time>1970-01-01T01:00:00Z</time>
      </trkpt>
      <trkpt lat="63.40586717" lon="10.46384033">
        <ele>167.337</ele>
        <time>1970-01-01T01:00:00Z</time>
      </trkpt>
      <trkpt lat="63.4058825" lon="10.46388083">
        <ele>167.337</ele>
        <time>1970-01-01T01:00:00Z</time>
      </trkpt>
      <trkpt lat="63.40590083" lon="10.46391883">
        <ele>167.185</ele>
        <time>1970-01-01T01:00:00Z</time>
      </trkpt>
      <trkpt lat="63.40592017" lon="10.46395167">
        <ele>167.185</ele>
        <time>1970-01-01T01:00:00Z</time>
      </trkpt>
      <trkpt lat="63.40594167" lon="10.46397567">
        <ele>167.185</ele>
        <time>1970-01-01T01:00:00Z</time>
      </trkpt>
      <trkpt lat="63.40596233" lon="10.4639935">
        <ele>167.185</ele>
        <time>1970-01-01T01:00:00Z</time>
      </trkpt>
      <trkpt lat="63.40598033" lon="10.46401667">
        <ele>167.185</ele>
        <time>1970-01-01T01:00:00Z</time>
      </trkpt>
      <trkpt lat="63.40599683" lon="10.4640445">
        <ele>167.185</ele>
        <time>1970-01-01T01:00:00Z</time>
      </trkpt>
      <trkpt lat="63.40601267" lon="10.4640745">
        <ele>167.032</ele>
        <time>1970-01-01T01:00:00Z</time>
      </trkpt>
      <trkpt lat="63.40603" lon="10.46410983">
        <ele>167.032</ele>
        <time>1970-01-01T01:00:00Z</time>
      </trkpt>
      <trkpt lat="63.40604683" lon="10.4641485">
        <ele>167.032</ele>
        <time>1970-01-01T01:00:00Z</time>
      </trkpt>
      <trkpt lat="63.40606467" lon="10.464186">
        <ele>167.032</ele>
        <time>1970-01-01T01:00:00Z</time>
      </trkpt>
      <trkpt lat="63.40608333" lon="10.46422217">
        <ele>167.032</ele>
        <time>1970-01-01T01:00:00Z</time>
      </trkpt>
      <trkpt lat="63.4061065" lon="10.46424633">
        <ele>167.032</ele>
        <time>1970-01-01T01:00:00Z</time>
      </trkpt>
      <trkpt lat="63.40613033" lon="10.46426667">
        <ele>167.032</ele>
        <time>1970-01-01T01:00:00Z</time>
      </trkpt>
      <trkpt lat="63.40615417" lon="10.4642755">
        <ele>167.032</ele>
        <time>1970-01-01T01:00:00Z</time>
      </trkpt>
      <trkpt lat="63.40617383" lon="10.4642875">
        <ele>167.185</ele>
        <time>1970-01-01T01:00:00Z</time>
      </trkpt>
      <trkpt lat="63.4061935" lon="10.464308">
        <ele>167.185</ele>
        <time>1970-01-01T01:00:00Z</time>
      </trkpt>
      <trkpt lat="63.40621567" lon="10.46433283">
        <ele>167.185</ele>
        <time>1970-01-01T01:00:00Z</time>
      </trkpt>
      <trkpt lat="63.40624283" lon="10.46434">
        <ele>167.185</ele>
        <time>1970-01-01T01:00:00Z</time>
      </trkpt>
      <trkpt lat="63.40627083" lon="10.46433567">
        <ele>167.185</ele>
        <time>1970-01-01T01:00:00Z</time>
      </trkpt>
      <trkpt lat="63.40629717" lon="10.46432467">
        <ele>167.185</ele>
        <time>1970-01-01T01:00:00Z</time>
      </trkpt>
      <trkpt lat="63.40632033" lon="10.46432817">
        <ele>167.185</ele>
        <time>1970-01-01T01:00:00Z</time>
      </trkpt>
      <trkpt lat="63.40634417" lon="10.46433183">
        <ele>167.185</ele>
        <time>1970-01-01T01:00:00Z</time>
      </trkpt>
      <trkpt lat="63.40636683" lon="10.46433767">
        <ele>167.337</ele>
        <time>1970-01-01T01:00:00Z</time>
      </trkpt>
      <trkpt lat="63.40638883" lon="10.464348">
        <ele>167.337</ele>
        <time>1970-01-01T01:00:00Z</time>
      </trkpt>
      <trkpt lat="63.4064085" lon="10.46436283">
        <ele>167.337</ele>
        <time>1970-01-01T01:00:00Z</time>
      </trkpt>
      <trkpt lat="63.406428" lon="10.46437567">
        <ele>167.337</ele>
        <time>1970-01-01T01:00:00Z</time>
      </trkpt>
      <trkpt lat="63.4064475" lon="10.46438917">
        <ele>167.49</ele>
        <time>1970-01-01T01:00:00Z</time>
      </trkpt>
      <trkpt lat="63.4064685" lon="10.46440317">
        <ele>167.49</ele>
        <time>1970-01-01T01:00:00Z</time>
      </trkpt>
      <trkpt lat="63.40649017" lon="10.4644175">
        <ele>167.49</ele>
        <time>1970-01-01T01:00:00Z</time>
      </trkpt>
      <trkpt lat="63.4065125" lon="10.46443117">
        <ele>167.49</ele>
        <time>1970-01-01T01:00:00Z</time>
      </trkpt>
      <trkpt lat="63.4065345" lon="10.46444617">
        <ele>167.642</ele>
        <time>1970-01-01T01:00:00Z</time>
      </trkpt>
      <trkpt lat="63.40655967" lon="10.4644665">
        <ele>167.642</ele>
        <time>1970-01-01T01:00:00Z</time>
      </trkpt>
      <trkpt lat="63.40658367" lon="10.46448517">
        <ele>167.642</ele>
        <time>1970-01-01T01:00:00Z</time>
      </trkpt>
      <trkpt lat="63.406606" lon="10.46449633">
        <ele>167.642</ele>
        <time>1970-01-01T01:00:00Z</time>
      </trkpt>
      <trkpt lat="63.40662533" lon="10.46450817">
        <ele>167.794</ele>
        <time>1970-01-01T01:00:00Z</time>
      </trkpt>
      <trkpt lat="63.4066455" lon="10.46452717">
        <ele>167.794</ele>
        <time>1970-01-01T01:00:00Z</time>
      </trkpt>
      <trkpt lat="63.4066675" lon="10.46455017">
        <ele>167.947</ele>
        <time>1970-01-01T01:00:00Z</time>
      </trkpt>
      <trkpt lat="63.40669167" lon="10.46457633">
        <ele>167.947</ele>
        <time>1970-01-01T01:00:00Z</time>
      </trkpt>
      <trkpt lat="63.406715" lon="10.46459733">
        <ele>168.099</ele>
        <time>1970-01-01T01:00:00Z</time>
      </trkpt>
      <trkpt lat="63.40673667" lon="10.46462317">
        <ele>168.099</ele>
        <time>1970-01-01T01:00:00Z</time>
      </trkpt>
      <trkpt lat="63.40675767" lon="10.464643">
        <ele>168.252</ele>
        <time>1970-01-01T01:00:00Z</time>
      </trkpt>
      <trkpt lat="63.4067775" lon="10.46466033">
        <ele>168.252</ele>
        <time>1970-01-01T01:00:00Z</time>
      </trkpt>
      <trkpt lat="63.4068005" lon="10.46467267">
        <ele>168.404</ele>
        <time>1970-01-01T01:00:00Z</time>
      </trkpt>
      <trkpt lat="63.4068235" lon="10.46468483">
        <ele>168.404</ele>
        <time>1970-01-01T01:00:00Z</time>
      </trkpt>
      <trkpt lat="63.40684817" lon="10.464699">
        <ele>168.556</ele>
        <time>1970-01-01T01:00:00Z</time>
      </trkpt>
      <trkpt lat="63.406873" lon="10.46471433">
        <ele>168.556</ele>
        <time>1970-01-01T01:00:00Z</time>
      </trkpt>
      <trkpt lat="63.40689633" lon="10.46473133">
        <ele>168.556</ele>
        <time>1970-01-01T01:00:00Z</time>
      </trkpt>
      <trkpt lat="63.40691933" lon="10.46474367">
        <ele>168.556</ele>
        <time>1970-01-01T01:00:00Z</time>
      </trkpt>
      <trkpt lat="63.40694033" lon="10.46475383">
        <ele>168.709</ele>
        <time>1970-01-01T01:00:00Z</time>
      </trkpt>
      <trkpt lat="63.40696167" lon="10.46476533">
        <ele>168.709</ele>
        <time>1970-01-01T01:00:00Z</time>
      </trkpt>
      <trkpt lat="63.40698267" lon="10.46477867">
        <ele>168.861</ele>
        <time>1970-01-01T01:00:00Z</time>
      </trkpt>
      <trkpt lat="63.407002" lon="10.46479717">
        <ele>168.861</ele>
        <time>1970-01-01T01:00:00Z</time>
      </trkpt>
      <trkpt lat="63.4070195" lon="10.46481117">
        <ele>168.861</ele>
        <time>1970-01-01T01:00:00Z</time>
      </trkpt>
      <trkpt lat="63.40703617" lon="10.46482517">
        <ele>168.861</ele>
        <time>1970-01-01T01:00:00Z</time>
      </trkpt>
      <trkpt lat="63.40705617" lon="10.46483633">
        <ele>169.014</ele>
        <time>1970-01-01T01:00:00Z</time>
      </trkpt>
      <trkpt lat="63.40707667" lon="10.46485083">
        <ele>169.014</ele>
        <time>1970-01-01T01:00:00Z</time>
      </trkpt>
      <trkpt lat="63.40709733" lon="10.46486433">
        <ele>169.014</ele>
        <time>1970-01-01T01:00:00Z</time>
      </trkpt>
      <trkpt lat="63.40711633" lon="10.4648795">
        <ele>169.014</ele>
        <time>1970-01-01T01:00:00Z</time>
      </trkpt>
      <trkpt lat="63.40713983" lon="10.46489167">
        <ele>169.166</ele>
        <time>1970-01-01T01:00:00Z</time>
      </trkpt>
      <trkpt lat="63.407164" lon="10.46490383">
        <ele>169.166</ele>
        <time>1970-01-01T01:00:00Z</time>
      </trkpt>
      <trkpt lat="63.40718817" lon="10.46491583">
        <ele>169.318</ele>
        <time>1970-01-01T01:00:00Z</time>
      </trkpt>
      <trkpt lat="63.407209" lon="10.4649295">
        <ele>169.318</ele>
        <time>1970-01-01T01:00:00Z</time>
      </trkpt>
      <trkpt lat="63.40723017" lon="10.46494567">
        <ele>169.471</ele>
        <time>1970-01-01T01:00:00Z</time>
      </trkpt>
      <trkpt lat="63.407249" lon="10.464964">
        <ele>169.471</ele>
        <time>1970-01-01T01:00:00Z</time>
      </trkpt>
      <trkpt lat="63.40726767" lon="10.46498533">
        <ele>169.471</ele>
        <time>1970-01-01T01:00:00Z</time>
      </trkpt>
      <trkpt lat="63.40728717" lon="10.46500483">
        <ele>169.471</ele>
        <time>1970-01-01T01:00:00Z</time>
      </trkpt>
      <trkpt lat="63.40731183" lon="10.46502583">
        <ele>169.623</ele>
        <time>1970-01-01T01:00:00Z</time>
      </trkpt>
      <trkpt lat="63.407338" lon="10.46504433">
        <ele>169.623</ele>
        <time>1970-01-01T01:00:00Z</time>
      </trkpt>
      <trkpt lat="63.40736283" lon="10.46506433">
        <ele>169.776</ele>
        <time>1970-01-01T01:00:00Z</time>
      </trkpt>
      <trkpt lat="63.40738467" lon="10.46508717">
        <ele>169.776</ele>
        <time>1970-01-01T01:00:00Z</time>
      </trkpt>
      <trkpt lat="63.40740633" lon="10.465113">
        <ele>169.776</ele>
        <time>1970-01-01T01:00:00Z</time>
      </trkpt>
      <trkpt lat="63.40742783" lon="10.46513883">
        <ele>169.776</ele>
        <time>1970-01-01T01:00:00Z</time>
      </trkpt>
      <trkpt lat="63.40745" lon="10.46515933">
        <ele>169.928</ele>
        <time>1970-01-01T01:00:00Z</time>
      </trkpt>
      <trkpt lat="63.40747183" lon="10.46517967">
        <ele>169.928</ele>
        <time>1970-01-01T01:00:00Z</time>
      </trkpt>
      <trkpt lat="63.407491" lon="10.46520217">
        <ele>169.928</ele>
        <time>1970-01-01T01:00:00Z</time>
      </trkpt>
      <trkpt lat="63.40750917" lon="10.46522333">
        <ele>169.928</ele>
        <time>1970-01-01T01:00:00Z</time>
      </trkpt>
      <trkpt lat="63.40752583" lon="10.46524217">
        <ele>169.928</ele>
        <time>1970-01-01T01:00:00Z</time>
      </trkpt>
      <trkpt lat="63.40754317" lon="10.46525567">
        <ele>169.928</ele>
        <time>1970-01-01T01:00:00Z</time>
      </trkpt>
      <trkpt lat="63.40756117" lon="10.46527033">
        <ele>169.928</ele>
        <time>1970-01-01T01:00:00Z</time>
      </trkpt>
      <trkpt lat="63.40758233" lon="10.465286">
        <ele>169.928</ele>
        <time>1970-01-01T01:00:00Z</time>
      </trkpt>
      <trkpt lat="63.40760467" lon="10.46530483">
        <ele>169.776</ele>
        <time>1970-01-01T01:00:00Z</time>
      </trkpt>
      <trkpt lat="63.40762683" lon="10.46532133">
        <ele>169.776</ele>
        <time>1970-01-01T01:00:00Z</time>
      </trkpt>
      <trkpt lat="63.40764717" lon="10.46533467">
        <ele>169.776</ele>
        <time>1970-01-01T01:00:00Z</time>
      </trkpt>
      <trkpt lat="63.40766967" lon="10.465348">
        <ele>169.776</ele>
        <time>1970-01-01T01:00:00Z</time>
      </trkpt>
      <trkpt lat="63.40769" lon="10.46536617">
        <ele>169.776</ele>
        <time>1970-01-01T01:00:00Z</time>
      </trkpt>
      <trkpt lat="63.40770933" lon="10.465388">
        <ele>169.776</ele>
        <time>1970-01-01T01:00:00Z</time>
      </trkpt>
      <trkpt lat="63.40772717" lon="10.46540717">
        <ele>169.776</ele>
        <time>1970-01-01T01:00:00Z</time>
      </trkpt>
      <trkpt lat="63.40774667" lon="10.46542183">
        <ele>169.776</ele>
        <time>1970-01-01T01:00:00Z</time>
      </trkpt>
      <trkpt lat="63.40776567" lon="10.46543517">
        <ele>169.776</ele>
        <time>1970-01-01T01:00:00Z</time>
      </trkpt>
      <trkpt lat="63.40778283" lon="10.465453">
        <ele>169.776</ele>
        <time>1970-01-01T01:00:00Z</time>
      </trkpt>
      <trkpt lat="63.40779933" lon="10.46547667">
        <ele>169.776</ele>
        <time>1970-01-01T01:00:00Z</time>
      </trkpt>
      <trkpt lat="63.40781583" lon="10.46550517">
        <ele>169.776</ele>
        <time>1970-01-01T01:00:00Z</time>
      </trkpt>
      <trkpt lat="63.40783067" lon="10.46553217">
        <ele>169.776</ele>
        <time>1970-01-01T01:00:00Z</time>
      </trkpt>
      <trkpt lat="63.4078445" lon="10.46554967">
        <ele>169.776</ele>
        <time>1970-01-01T01:00:00Z</time>
      </trkpt>
      <trkpt lat="63.40786083" lon="10.46556333">
        <ele>169.623</ele>
        <time>1970-01-01T01:00:00Z</time>
      </trkpt>
      <trkpt lat="63.40788067" lon="10.46557733">
        <ele>169.623</ele>
        <time>1970-01-01T01:00:00Z</time>
      </trkpt>
      <trkpt lat="63.4079005" lon="10.46559917">
        <ele>169.471</ele>
        <time>1970-01-01T01:00:00Z</time>
      </trkpt>
      <trkpt lat="63.40791983" lon="10.46561867">
        <ele>169.471</ele>
        <time>1970-01-01T01:00:00Z</time>
      </trkpt>
      <trkpt lat="63.40793983" lon="10.465633">
        <ele>169.471</ele>
        <time>1970-01-01T01:00:00Z</time>
      </trkpt>
      <trkpt lat="63.40796383" lon="10.46563467">
        <ele>169.471</ele>
        <time>1970-01-01T01:00:00Z</time>
      </trkpt>
      <trkpt lat="63.40799067" lon="10.46563517">
        <ele>169.318</ele>
        <time>1970-01-01T01:00:00Z</time>
      </trkpt>
      <trkpt lat="63.40802" lon="10.46562717">
        <ele>169.318</ele>
        <time>1970-01-01T01:00:00Z</time>
      </trkpt>
      <trkpt lat="63.40804867" lon="10.465622">
        <ele>169.166</ele>
        <time>1970-01-01T01:00:00Z</time>
      </trkpt>
      <trkpt lat="63.40807433" lon="10.46560767">
        <ele>169.166</ele>
        <time>1970-01-01T01:00:00Z</time>
      </trkpt>
      <trkpt lat="63.40809683" lon="10.4655975">
        <ele>169.014</ele>
        <time>1970-01-01T01:00:00Z</time>
      </trkpt>
      <trkpt lat="63.40811933" lon="10.46558183">
        <ele>169.014</ele>
        <time>1970-01-01T01:00:00Z</time>
      </trkpt>
      <trkpt lat="63.408143" lon="10.46556567">
        <ele>169.014</ele>
        <time>1970-01-01T01:00:00Z</time>
      </trkpt>
      <trkpt lat="63.40816617" lon="10.46554">
        <ele>169.014</ele>
        <time>1970-01-01T01:00:00Z</time>
      </trkpt>
      <trkpt lat="63.40818683" lon="10.4655085">
        <ele>168.861</ele>
        <time>1970-01-01T01:00:00Z</time>
      </trkpt>
      <trkpt lat="63.40820417" lon="10.46546867">
        <ele>168.861</ele>
        <time>1970-01-01T01:00:00Z</time>
      </trkpt>
      <trkpt lat="63.40822117" lon="10.465429">
        <ele>169.014</ele>
        <time>1970-01-01T01:00:00Z</time>
      </trkpt>
      <trkpt lat="63.408237" lon="10.4653915">
        <ele>169.014</ele>
        <time>1970-01-01T01:00:00Z</time>
      </trkpt>
      <trkpt lat="63.40825633" lon="10.46535667">
        <ele>169.014</ele>
        <time>1970-01-01T01:00:00Z</time>
      </trkpt>
      <trkpt lat="63.40827733" lon="10.4653225">
        <ele>169.014</ele>
        <time>1970-01-01T01:00:00Z</time>
      </trkpt>
      <trkpt lat="63.40830033" lon="10.46528883">
        <ele>169.318</ele>
        <time>1970-01-01T01:00:00Z</time>
      </trkpt>
      <trkpt lat="63.40832183" lon="10.465255">
        <ele>169.318</ele>
        <time>1970-01-01T01:00:00Z</time>
      </trkpt>
      <trkpt lat="63.40834167" lon="10.46522367">
        <ele>169.471</ele>
        <time>1970-01-01T01:00:00Z</time>
      </trkpt>
      <trkpt lat="63.40836233" lon="10.465191">
        <ele>169.471</ele>
        <time>1970-01-01T01:00:00Z</time>
      </trkpt>
      <trkpt lat="63.40838283" lon="10.4651595">
        <ele>169.776</ele>
        <time>1970-01-01T01:00:00Z</time>
      </trkpt>
      <trkpt lat="63.408403" lon="10.465123">
        <ele>169.776</ele>
        <time>1970-01-01T01:00:00Z</time>
      </trkpt>
      <trkpt lat="63.40842117" lon="10.4650835">
        <ele>170.08</ele>
        <time>1970-01-01T01:00:00Z</time>
      </trkpt>
      <trkpt lat="63.408437" lon="10.46504167">
        <ele>170.08</ele>
        <time>1970-01-01T01:00:00Z</time>
      </trkpt>
      <trkpt lat="63.40845067" lon="10.46498117">
        <ele>170.538</ele>
        <time>1970-01-01T01:00:00Z</time>
      </trkpt>
      <trkpt lat="63.40846383" lon="10.46491783">
        <ele>170.538</ele>
        <time>1970-01-01T01:00:00Z</time>
      </trkpt>
      <trkpt lat="63.4084755" lon="10.46484017">
        <ele>170.842</ele>
        <time>1970-01-01T01:00:00Z</time>
      </trkpt>
      <trkpt lat="63.40848917" lon="10.464776">
        <ele>170.842</ele>
        <time>1970-01-01T01:00:00Z</time>
      </trkpt>
      <trkpt lat="63.408503" lon="10.46471517">
        <ele>171.3</ele>
        <time>1970-01-01T01:00:00Z</time>
      </trkpt>
      <trkpt lat="63.40851967" lon="10.46466433">
        <ele>171.3</ele>
        <time>1970-01-01T01:00:00Z</time>
      </trkpt>
      <trkpt lat="63.40853633" lon="10.46461783">
        <ele>171.604</ele>
        <time>1970-01-01T01:00:00Z</time>
      </trkpt>
      <trkpt lat="63.40855333" lon="10.464577">
        <ele>171.604</ele>
        <time>1970-01-01T01:00:00Z</time>
      </trkpt>
      <trkpt lat="63.40857" lon="10.46454333">
        <ele>172.062</ele>
        <time>1970-01-01T01:00:00Z</time>
      </trkpt>
      <trkpt lat="63.40858633" lon="10.464509">
        <ele>172.062</ele>
        <time>1970-01-01T01:00:00Z</time>
      </trkpt>
      <trkpt lat="63.40860583" lon="10.46446917">
        <ele>172.366</ele>
        <time>1970-01-01T01:00:00Z</time>
      </trkpt>
      <trkpt lat="63.408627" lon="10.46442983">
        <ele>172.366</ele>
        <time>1970-01-01T01:00:00Z</time>
      </trkpt>
      <trkpt lat="63.40864967" lon="10.46439217">
        <ele>172.671</ele>
        <time>1970-01-01T01:00:00Z</time>
      </trkpt>
      <trkpt lat="63.40867367" lon="10.46435667">
        <ele>172.671</ele>
        <time>1970-01-01T01:00:00Z</time>
      </trkpt>
      <trkpt lat="63.4086965" lon="10.46432183">
        <ele>172.976</ele>
        <time>1970-01-01T01:00:00Z</time>
      </trkpt>
      <trkpt lat="63.408721" lon="10.46428583">
        <ele>172.976</ele>
        <time>1970-01-01T01:00:00Z</time>
      </trkpt>
      <trkpt lat="63.40874567" lon="10.4642415">
        <ele>173.128</ele>
        <time>1970-01-01T01:00:00Z</time>
      </trkpt>
      <trkpt lat="63.4087695" lon="10.46419117">
        <ele>173.128</ele>
        <time>1970-01-01T01:00:00Z</time>
      </trkpt>
      <trkpt lat="63.408792" lon="10.46413583">
        <ele>173.433</ele>
        <time>1970-01-01T01:00:00Z</time>
      </trkpt>
      <trkpt lat="63.40881367" lon="10.4640855">
        <ele>173.433</ele>
        <time>1970-01-01T01:00:00Z</time>
      </trkpt>
      <trkpt lat="63.408837" lon="10.46403533">
        <ele>173.891</ele>
        <time>1970-01-01T01:00:00Z</time>
      </trkpt>
      <trkpt lat="63.40885783" lon="10.463993">
        <ele>173.891</ele>
        <time>1970-01-01T01:00:00Z</time>
      </trkpt>
      <trkpt lat="63.40887683" lon="10.46394467">
        <ele>174.195</ele>
        <time>1970-01-01T01:00:00Z</time>
      </trkpt>
      <trkpt lat="63.408895" lon="10.46389833">
        <ele>174.195</ele>
        <time>1970-01-01T01:00:00Z</time>
      </trkpt>
      <trkpt lat="63.4089135" lon="10.46385267">
        <ele>174.5</ele>
        <time>1970-01-01T01:00:00Z</time>
      </trkpt>
      <trkpt lat="63.40893083" lon="10.46381217">
        <ele>174.5</ele>
        <time>1970-01-01T01:00:00Z</time>
      </trkpt>
      <trkpt lat="63.40894917" lon="10.46376717">
        <ele>174.805</ele>
        <time>1970-01-01T01:00:00Z</time>
      </trkpt>
      <trkpt lat="63.40896817" lon="10.46371767">
        <ele>174.805</ele>
        <time>1970-01-01T01:00:00Z</time>
      </trkpt>
      <trkpt lat="63.408987" lon="10.46367017">
        <ele>175.11</ele>
        <time>1970-01-01T01:00:00Z</time>
      </trkpt>
      <trkpt lat="63.40900633" lon="10.4636245">
        <ele>175.11</ele>
        <time>1970-01-01T01:00:00Z</time>
      </trkpt>
      <trkpt lat="63.40902617" lon="10.463582">
        <ele>175.567</ele>
        <time>1970-01-01T01:00:00Z</time>
      </trkpt>
      <trkpt lat="63.40904733" lon="10.46354883">
        <ele>175.567</ele>
        <time>1970-01-01T01:00:00Z</time>
      </trkpt>
      <trkpt lat="63.409071" lon="10.46355167">
        <ele>175.872</ele>
        <time>1970-01-01T01:00:00Z</time>
      </trkpt>
      <trkpt lat="63.40909467" lon="10.46357167">
        <ele>175.872</ele>
        <time>1970-01-01T01:00:00Z</time>
      </trkpt>
      <trkpt lat="63.409119" lon="10.46360083">
        <ele>176.024</ele>
        <time>1970-01-01T01:00:00Z</time>
      </trkpt>
      <trkpt lat="63.4091425" lon="10.4636285">
        <ele>176.024</ele>
        <time>1970-01-01T01:00:00Z</time>
      </trkpt>
      <trkpt lat="63.40916633" lon="10.46366133">
        <ele>176.177</ele>
        <time>1970-01-01T01:00:00Z</time>
      </trkpt>
      <trkpt lat="63.40918933" lon="10.4636995">
        <ele>176.177</ele>
        <time>1970-01-01T01:00:00Z</time>
      </trkpt>
      <trkpt lat="63.40920933" lon="10.4637345">
        <ele>176.329</ele>
        <time>1970-01-01T01:00:00Z</time>
      </trkpt>
      <trkpt lat="63.40922917" lon="10.46377367">
        <ele>176.329</ele>
        <time>1970-01-01T01:00:00Z</time>
      </trkpt>
      <trkpt lat="63.4092485" lon="10.4638135">
        <ele>176.481</ele>
        <time>1970-01-01T01:00:00Z</time>
      </trkpt>
      <trkpt lat="63.40926533" lon="10.46384717">
        <ele>176.481</ele>
        <time>1970-01-01T01:00:00Z</time>
      </trkpt>
      <trkpt lat="63.40928067" lon="10.46387883">
        <ele>176.481</ele>
        <time>1970-01-01T01:00:00Z</time>
      </trkpt>
      <trkpt lat="63.40929483" lon="10.4639115">
        <ele>176.481</ele>
        <time>1970-01-01T01:00:00Z</time>
      </trkpt>
      <trkpt lat="63.40931167" lon="10.463949">
        <ele>176.634</ele>
        <time>1970-01-01T01:00:00Z</time>
      </trkpt>
      <trkpt lat="63.4093305" lon="10.463992">
        <ele>176.634</ele>
        <time>1970-01-01T01:00:00Z</time>
      </trkpt>
      <trkpt lat="63.409351" lon="10.464034">
        <ele>176.634</ele>
        <time>1970-01-01T01:00:00Z</time>
      </trkpt>
      <trkpt lat="63.4093695" lon="10.46407217">
        <ele>176.634</ele>
        <time>1970-01-01T01:00:00Z</time>
      </trkpt>
      <trkpt lat="63.409386" lon="10.4641035">
        <ele>176.634</ele>
        <time>1970-01-01T01:00:00Z</time>
      </trkpt>
      <trkpt lat="63.40940017" lon="10.46413617">
        <ele>176.634</ele>
        <time>1970-01-01T01:00:00Z</time>
      </trkpt>
      <trkpt lat="63.40941183" lon="10.4641705">
        <ele>176.634</ele>
        <time>1970-01-01T01:00:00Z</time>
      </trkpt>
      <trkpt lat="63.40942267" lon="10.46420567">
        <ele>176.634</ele>
        <time>1970-01-01T01:00:00Z</time>
      </trkpt>
      <trkpt lat="63.40943233" lon="10.46424517">
        <ele>176.634</ele>
        <time>1970-01-01T01:00:00Z</time>
      </trkpt>
      <trkpt lat="63.40944317" lon="10.4642865">
        <ele>176.634</ele>
        <time>1970-01-01T01:00:00Z</time>
      </trkpt>
      <trkpt lat="63.40944783" lon="10.46433383">
        <ele>176.634</ele>
        <time>1970-01-01T01:00:00Z</time>
      </trkpt>
      <trkpt lat="63.40945133" lon="10.46438833">
        <ele>176.634</ele>
        <time>1970-01-01T01:00:00Z</time>
      </trkpt>
      <trkpt lat="63.40945283" lon="10.46444567">
        <ele>176.634</ele>
        <time>1970-01-01T01:00:00Z</time>
      </trkpt>
      <trkpt lat="63.40945833" lon="10.46451367">
        <ele>176.634</ele>
        <time>1970-01-01T01:00:00Z</time>
      </trkpt>
      <trkpt lat="63.4094675" lon="10.46458517">
        <ele>176.329</ele>
        <time>1970-01-01T01:00:00Z</time>
      </trkpt>
      <trkpt lat="63.40947583" lon="10.46465667">
        <ele>176.329</ele>
        <time>1970-01-01T01:00:00Z</time>
      </trkpt>
      <trkpt lat="63.40948617" lon="10.46471367">
        <ele>176.024</ele>
        <time>1970-01-01T01:00:00Z</time>
      </trkpt>
      <trkpt lat="63.4095005" lon="10.46476717">
        <ele>176.024</ele>
        <time>1970-01-01T01:00:00Z</time>
      </trkpt>
      <trkpt lat="63.409518" lon="10.46481083">
        <ele>175.567</ele>
        <time>1970-01-01T01:00:00Z</time>
      </trkpt>
      <trkpt lat="63.40953817" lon="10.4648535">
        <ele>175.567</ele>
        <time>1970-01-01T01:00:00Z</time>
      </trkpt>
      <trkpt lat="63.4095575" lon="10.46488317">
        <ele>175.11</ele>
        <time>1970-01-01T01:00:00Z</time>
      </trkpt>
      <trkpt lat="63.40957883" lon="10.46491383">
        <ele>175.11</ele>
        <time>1970-01-01T01:00:00Z</time>
      </trkpt>
      <trkpt lat="63.40960317" lon="10.46493917">
        <ele>174.653</ele>
        <time>1970-01-01T01:00:00Z</time>
      </trkpt>
      <trkpt lat="63.40962517" lon="10.46496267">
        <ele>174.653</ele>
        <time>1970-01-01T01:00:00Z</time>
      </trkpt>
      <trkpt lat="63.4096465" lon="10.46498267">
        <ele>174.043</ele>
        <time>1970-01-01T01:00:00Z</time>
      </trkpt>
      <trkpt lat="63.409662" lon="10.465008">
        <ele>174.043</ele>
        <time>1970-01-01T01:00:00Z</time>
      </trkpt>
      <trkpt lat="63.40967417" lon="10.46503317">
        <ele>173.433</ele>
        <time>1970-01-01T01:00:00Z</time>
      </trkpt>
      <trkpt lat="63.409685" lon="10.46506167">
        <ele>173.433</ele>
        <time>1970-01-01T01:00:00Z</time>
      </trkpt>
      <trkpt lat="63.40969817" lon="10.4650885">
        <ele>172.824</ele>
        <time>1970-01-01T01:00:00Z</time>
      </trkpt>
      <trkpt lat="63.409712" lon="10.46511633">
        <ele>172.824</ele>
        <time>1970-01-01T01:00:00Z</time>
      </trkpt>
      <trkpt lat="63.40972533" lon="10.4651435">
        <ele>172.214</ele>
        <time>1970-01-01T01:00:00Z</time>
      </trkpt>
      <trkpt lat="63.409739" lon="10.46516783">
        <ele>172.214</ele>
        <time>1970-01-01T01:00:00Z</time>
      </trkpt>
      <trkpt lat="63.40975267" lon="10.465191">
        <ele>171.604</ele>
        <time>1970-01-01T01:00:00Z</time>
      </trkpt>
      <trkpt lat="63.40976567" lon="10.46521483">
        <ele>171.604</ele>
        <time>1970-01-01T01:00:00Z</time>
      </trkpt>
      <trkpt lat="63.409776" lon="10.465239">
        <ele>170.995</ele>
        <time>1970-01-01T01:00:00Z</time>
      </trkpt>
      <trkpt lat="63.40978767" lon="10.46526383">
        <ele>170.995</ele>
        <time>1970-01-01T01:00:00Z</time>
      </trkpt>
      <trkpt lat="63.40979917" lon="10.46529383">
        <ele>170.385</ele>
        <time>1970-01-01T01:00:00Z</time>
      </trkpt>
      <trkpt lat="63.40980933" lon="10.465323">
        <ele>170.385</ele>
        <time>1970-01-01T01:00:00Z</time>
      </trkpt>
      <trkpt lat="63.40982017" lon="10.46535517">
        <ele>169.928</ele>
        <time>1970-01-01T01:00:00Z</time>
      </trkpt>
      <trkpt lat="63.40983067" lon="10.46538483">
        <ele>169.928</ele>
        <time>1970-01-01T01:00:00Z</time>
      </trkpt>
      <trkpt lat="63.40984417" lon="10.4654185">
        <ele>169.318</ele>
        <time>1970-01-01T01:00:00Z</time>
      </trkpt>
      <trkpt lat="63.40985717" lon="10.4654625">
        <ele>169.318</ele>
        <time>1970-01-01T01:00:00Z</time>
      </trkpt>
      <trkpt lat="63.40987117" lon="10.465512">
        <ele>168.861</ele>
        <time>1970-01-01T01:00:00Z</time>
      </trkpt>
      <trkpt lat="63.40988817" lon="10.46556933">
        <ele>168.861</ele>
        <time>1970-01-01T01:00:00Z</time>
      </trkpt>
      <trkpt lat="63.4099055" lon="10.4656195">
        <ele>168.404</ele>
        <time>1970-01-01T01:00:00Z</time>
      </trkpt>
      <trkpt lat="63.40992417" lon="10.46566667">
        <ele>168.404</ele>
        <time>1970-01-01T01:00:00Z</time>
      </trkpt>
      <trkpt lat="63.40993917" lon="10.46570683">
        <ele>167.947</ele>
        <time>1970-01-01T01:00:00Z</time>
      </trkpt>
      <trkpt lat="63.40995033" lon="10.46575667">
        <ele>167.947</ele>
        <time>1970-01-01T01:00:00Z</time>
      </trkpt>
      <trkpt lat="63.40995833" lon="10.46580983">
        <ele>167.49</ele>
        <time>1970-01-01T01:00:00Z</time>
      </trkpt>
      <trkpt lat="63.40996483" lon="10.46587">
        <ele>167.49</ele>
        <time>1970-01-01T01:00:00Z</time>
      </trkpt>
      <trkpt lat="63.40997083" lon="10.46593683">
        <ele>166.88</ele>
        <time>1970-01-01T01:00:00Z</time>
      </trkpt>
      <trkpt lat="63.40997917" lon="10.46600483">
        <ele>166.88</ele>
        <time>1970-01-01T01:00:00Z</time>
      </trkpt>
      <trkpt lat="63.40998267" lon="10.466075">
        <ele>166.27</ele>
        <time>1970-01-01T01:00:00Z</time>
      </trkpt>
      <trkpt lat="63.4099815" lon="10.46614433">
        <ele>166.27</ele>
        <time>1970-01-01T01:00:00Z</time>
      </trkpt>
      <trkpt lat="63.40997633" lon="10.46621883">
        <ele>165.661</ele>
        <time>1970-01-01T01:00:00Z</time>
      </trkpt>
      <trkpt lat="63.40997083" lon="10.46630383">
        <ele>165.661</ele>
        <time>1970-01-01T01:00:00Z</time>
      </trkpt>
      <trkpt lat="63.40996783" lon="10.4663805">
        <ele>164.746</ele>
        <time>1970-01-01T01:00:00Z</time>
      </trkpt>
      <trkpt lat="63.40996467" lon="10.4664555">
        <ele>164.746</ele>
        <time>1970-01-01T01:00:00Z</time>
      </trkpt>
      <trkpt lat="63.40996367" lon="10.46652167">
        <ele>163.984</ele>
        <time>1970-01-01T01:00:00Z</time>
      </trkpt>
      <trkpt lat="63.409962" lon="10.466588">
        <ele>163.984</ele>
        <time>1970-01-01T01:00:00Z</time>
      </trkpt>
      <trkpt lat="63.40996283" lon="10.46665017">
        <ele>163.07</ele>
        <time>1970-01-01T01:00:00Z</time>
      </trkpt>
      <trkpt lat="63.40996567" lon="10.46671">
        <ele>163.07</ele>
        <time>1970-01-01T01:00:00Z</time>
      </trkpt>
      <trkpt lat="63.40997533" lon="10.466768">
        <ele>162.308</ele>
        <time>1970-01-01T01:00:00Z</time>
      </trkpt>
      <trkpt lat="63.40998783" lon="10.46682433">
        <ele>162.308</ele>
        <time>1970-01-01T01:00:00Z</time>
      </trkpt>
      <trkpt lat="63.410005" lon="10.466875">
        <ele>161.394</ele>
        <time>1970-01-01T01:00:00Z</time>
      </trkpt>
      <trkpt lat="63.41002333" lon="10.46692167">
        <ele>161.394</ele>
        <time>1970-01-01T01:00:00Z</time>
      </trkpt>
      <trkpt lat="63.41004" lon="10.46697033">
        <ele>160.632</ele>
        <time>1970-01-01T01:00:00Z</time>
      </trkpt>
      <trkpt lat="63.41005483" lon="10.46701917">
        <ele>160.632</ele>
        <time>1970-01-01T01:00:00Z</time>
      </trkpt>
      <trkpt lat="63.410067" lon="10.46706917">
        <ele>159.717</ele>
        <time>1970-01-01T01:00:00Z</time>
      </trkpt>
      <trkpt lat="63.41007767" lon="10.46711867">
        <ele>159.717</ele>
        <time>1970-01-01T01:00:00Z</time>
      </trkpt>
      <trkpt lat="63.41008833" lon="10.46716933">
        <ele>158.955</ele>
        <time>1970-01-01T01:00:00Z</time>
      </trkpt>
      <trkpt lat="63.41010067" lon="10.46722017">
        <ele>158.955</ele>
        <time>1970-01-01T01:00:00Z</time>
      </trkpt>
      <trkpt lat="63.41011517" lon="10.46726967">
        <ele>158.193</ele>
        <time>1970-01-01T01:00:00Z</time>
      </trkpt>
      <trkpt lat="63.4101305" lon="10.467319">
        <ele>158.193</ele>
        <time>1970-01-01T01:00:00Z</time>
      </trkpt>
      <trkpt lat="63.41014467" lon="10.4673655">
        <ele>157.584</ele>
        <time>1970-01-01T01:00:00Z</time>
      </trkpt>
      <trkpt lat="63.410161" lon="10.46741233">
        <ele>157.584</ele>
        <time>1970-01-01T01:00:00Z</time>
      </trkpt>
      <trkpt lat="63.41017683" lon="10.46746">
        <ele>156.822</ele>
        <time>1970-01-01T01:00:00Z</time>
      </trkpt>
      <trkpt lat="63.41019233" lon="10.46750817">
        <ele>156.822</ele>
        <time>1970-01-01T01:00:00Z</time>
      </trkpt>
      <trkpt lat="63.41020617" lon="10.46755583">
        <ele>156.212</ele>
        <time>1970-01-01T01:00:00Z</time>
      </trkpt>
      <trkpt lat="63.4102205" lon="10.46760067">
        <ele>156.212</ele>
        <time>1970-01-01T01:00:00Z</time>
      </trkpt>
      <trkpt lat="63.410237" lon="10.46764383">
        <ele>155.602</ele>
        <time>1970-01-01T01:00:00Z</time>
      </trkpt>
      <trkpt lat="63.410254" lon="10.46768617">
        <ele>155.602</ele>
        <time>1970-01-01T01:00:00Z</time>
      </trkpt>
      <trkpt lat="63.41027067" lon="10.46772667">
        <ele>154.993</ele>
        <time>1970-01-01T01:00:00Z</time>
      </trkpt>
      <trkpt lat="63.410287" lon="10.46776933">
        <ele>154.993</ele>
        <time>1970-01-01T01:00:00Z</time>
      </trkpt>
      <trkpt lat="63.4103035" lon="10.46781183">
        <ele>154.535</ele>
        <time>1970-01-01T01:00:00Z</time>
      </trkpt>
      <trkpt lat="63.41032017" lon="10.46785267">
        <ele>154.535</ele>
        <time>1970-01-01T01:00:00Z</time>
      </trkpt>
      <trkpt lat="63.4103375" lon="10.46789283">
        <ele>153.926</ele>
        <time>1970-01-01T01:00:00Z</time>
      </trkpt>
      <trkpt lat="63.41035433" lon="10.46792983">
        <ele>153.926</ele>
        <time>1970-01-01T01:00:00Z</time>
      </trkpt>
      <trkpt lat="63.4103705" lon="10.4679665">
        <ele>153.469</ele>
        <time>1970-01-01T01:00:00Z</time>
      </trkpt>
      <trkpt lat="63.41038717" lon="10.4680015">
        <ele>153.469</ele>
        <time>1970-01-01T01:00:00Z</time>
      </trkpt>
      <trkpt lat="63.41040333" lon="10.468038">
        <ele>153.011</ele>
        <time>1970-01-01T01:00:00Z</time>
      </trkpt>
      <trkpt lat="63.41042" lon="10.468077">
        <ele>153.011</ele>
        <time>1970-01-01T01:00:00Z</time>
      </trkpt>
      <trkpt lat="63.4104365" lon="10.4681175">
        <ele>152.554</ele>
        <time>1970-01-01T01:00:00Z</time>
      </trkpt>
      <trkpt lat="63.41045283" lon="10.46815867">
        <ele>152.554</ele>
        <time>1970-01-01T01:00:00Z</time>
      </trkpt>
      <trkpt lat="63.41047117" lon="10.46819917">
        <ele>152.249</ele>
        <time>1970-01-01T01:00:00Z</time>
      </trkpt>
      <trkpt lat="63.41048933" lon="10.46824183">
        <ele>152.249</ele>
        <time>1970-01-01T01:00:00Z</time>
      </trkpt>
      <trkpt lat="63.41050733" lon="10.46828533">
        <ele>151.792</ele>
        <time>1970-01-01T01:00:00Z</time>
      </trkpt>
      <trkpt lat="63.410522" lon="10.468331">
        <ele>151.792</ele>
        <time>1970-01-01T01:00:00Z</time>
      </trkpt>
      <trkpt lat="63.41053717" lon="10.46837567">
        <ele>151.487</ele>
        <time>1970-01-01T01:00:00Z</time>
      </trkpt>
      <trkpt lat="63.4105545" lon="10.4684195">
        <ele>151.487</ele>
        <time>1970-01-01T01:00:00Z</time>
      </trkpt>
      <trkpt lat="63.41057033" lon="10.46847067">
        <ele>151.183</ele>
        <time>1970-01-01T01:00:00Z</time>
      </trkpt>
      <trkpt lat="63.41058167" lon="10.46853017">
        <ele>151.183</ele>
        <time>1970-01-01T01:00:00Z</time>
      </trkpt>
      <trkpt lat="63.41058533" lon="10.4685955">
        <ele>150.878</ele>
        <time>1970-01-01T01:00:00Z</time>
      </trkpt>
      <trkpt lat="63.41058533" lon="10.46865733">
        <ele>150.878</ele>
        <time>1970-01-01T01:00:00Z</time>
      </trkpt>
      <trkpt lat="63.4105805" lon="10.46871783">
        <ele>150.573</ele>
        <time>1970-01-01T01:00:00Z</time>
      </trkpt>
      <trkpt lat="63.41057183" lon="10.46878067">
        <ele>150.573</ele>
        <time>1970-01-01T01:00:00Z</time>
      </trkpt>
      <trkpt lat="63.41055817" lon="10.4688495">
        <ele>150.268</ele>
        <time>1970-01-01T01:00:00Z</time>
      </trkpt>
      <trkpt lat="63.4105435" lon="10.468914">
        <ele>150.268</ele>
        <time>1970-01-01T01:00:00Z</time>
      </trkpt>
      <trkpt lat="63.41052983" lon="10.46897367">
        <ele>149.963</ele>
        <time>1970-01-01T01:00:00Z</time>
      </trkpt>
      <trkpt lat="63.41051567" lon="10.46902933">
        <ele>149.963</ele>
        <time>1970-01-01T01:00:00Z</time>
      </trkpt>
      <trkpt lat="63.41050067" lon="10.46908417">
        <ele>149.659</ele>
        <time>1970-01-01T01:00:00Z</time>
      </trkpt>
      <trkpt lat="63.41048717" lon="10.46913867">
        <ele>149.659</ele>
        <time>1970-01-01T01:00:00Z</time>
      </trkpt>
      <trkpt lat="63.41047733" lon="10.46918833">
        <ele>149.201</ele>
        <time>1970-01-01T01:00:00Z</time>
      </trkpt>
      <trkpt lat="63.41046883" lon="10.46923967">
        <ele>149.201</ele>
        <time>1970-01-01T01:00:00Z</time>
      </trkpt>
      <trkpt lat="63.41045983" lon="10.4692935">
        <ele>148.744</ele>
        <time>1970-01-01T01:00:00Z</time>
      </trkpt>
      <trkpt lat="63.41044817" lon="10.46935217">
        <ele>148.744</ele>
        <time>1970-01-01T01:00:00Z</time>
      </trkpt>
      <trkpt lat="63.41043783" lon="10.469411">
        <ele>148.287</ele>
        <time>1970-01-01T01:00:00Z</time>
      </trkpt>
      <trkpt lat="63.41042783" lon="10.46946917">
        <ele>148.287</ele>
        <time>1970-01-01T01:00:00Z</time>
      </trkpt>
      <trkpt lat="63.41042133" lon="10.46952367">
        <ele>147.83</ele>
        <time>1970-01-01T01:00:00Z</time>
      </trkpt>
      <trkpt lat="63.41041533" lon="10.46957583">
        <ele>147.83</ele>
        <time>1970-01-01T01:00:00Z</time>
      </trkpt>
      <trkpt lat="63.41040983" lon="10.4696265">
        <ele>147.373</ele>
        <time>1970-01-01T01:00:00Z</time>
      </trkpt>
      <trkpt lat="63.41040317" lon="10.4696775">
        <ele>147.373</ele>
        <time>1970-01-01T01:00:00Z</time>
      </trkpt>
      <trkpt lat="63.4103975" lon="10.4697275">
        <ele>146.915</ele>
        <time>1970-01-01T01:00:00Z</time>
      </trkpt>
      <trkpt lat="63.410392" lon="10.46977833">
        <ele>146.915</ele>
        <time>1970-01-01T01:00:00Z</time>
      </trkpt>
      <trkpt lat="63.41038817" lon="10.46982783">
        <ele>146.458</ele>
        <time>1970-01-01T01:00:00Z</time>
      </trkpt>
      <trkpt lat="63.41038417" lon="10.4698765">
        <ele>146.458</ele>
        <time>1970-01-01T01:00:00Z</time>
      </trkpt>
      <trkpt lat="63.4103805" lon="10.46992267">
        <ele>146.153</ele>
        <time>1970-01-01T01:00:00Z</time>
      </trkpt>
      <trkpt lat="63.41038217" lon="10.469959">
        <ele>146.153</ele>
        <time>1970-01-01T01:00:00Z</time>
      </trkpt>
      <trkpt lat="63.41038783" lon="10.46998483">
        <ele>145.696</ele>
        <time>1970-01-01T01:00:00Z</time>
      </trkpt>
      <trkpt lat="63.41039633" lon="10.47000317">
        <ele>145.696</ele>
        <time>1970-01-01T01:00:00Z</time>
      </trkpt>
      <trkpt lat="63.41040183" lon="10.47001767">
        <ele>145.391</ele>
        <time>1970-01-01T01:00:00Z</time>
      </trkpt>
      <trkpt lat="63.410407" lon="10.47002933">
        <ele>145.391</ele>
        <time>1970-01-01T01:00:00Z</time>
      </trkpt>
      <trkpt lat="63.4104095" lon="10.47004467">
        <ele>145.087</ele>
        <time>1970-01-01T01:00:00Z</time>
      </trkpt>
      <trkpt lat="63.41040917" lon="10.47006433">
        <ele>145.087</ele>
        <time>1970-01-01T01:00:00Z</time>
      </trkpt>
      <trkpt lat="63.41040717" lon="10.470085">
        <ele>144.782</ele>
        <time>1970-01-01T01:00:00Z</time>
      </trkpt>
      <trkpt lat="63.410406" lon="10.47010383">
        <ele>144.782</ele>
        <time>1970-01-01T01:00:00Z</time>
      </trkpt>
      <trkpt lat="63.41040783" lon="10.47012067">
        <ele>144.325</ele>
        <time>1970-01-01T01:00:00Z</time>
      </trkpt>
      <trkpt lat="63.41041117" lon="10.47014017">
        <ele>144.325</ele>
        <time>1970-01-01T01:00:00Z</time>
      </trkpt>
      <trkpt lat="63.41041833" lon="10.4701565">
        <ele>144.02</ele>
        <time>1970-01-01T01:00:00Z</time>
      </trkpt>
      <trkpt lat="63.41042983" lon="10.470175">
        <ele>144.02</ele>
        <time>1970-01-01T01:00:00Z</time>
      </trkpt>
      <trkpt lat="63.41044483" lon="10.47019467">
        <ele>143.715</ele>
        <time>1970-01-01T01:00:00Z</time>
      </trkpt>
      <trkpt lat="63.41046117" lon="10.470216">
        <ele>143.715</ele>
        <time>1970-01-01T01:00:00Z</time>
      </trkpt>
      <trkpt lat="63.41047483" lon="10.470231">
        <ele>143.41</ele>
        <time>1970-01-01T01:00:00Z</time>
      </trkpt>
      <trkpt lat="63.4104875" lon="10.47024383">
        <ele>143.41</ele>
        <time>1970-01-01T01:00:00Z</time>
      </trkpt>
      <trkpt lat="63.41050183" lon="10.470252">
        <ele>143.258</ele>
        <time>1970-01-01T01:00:00Z</time>
      </trkpt>
      <trkpt lat="63.41051833" lon="10.47025767">
        <ele>143.258</ele>
        <time>1970-01-01T01:00:00Z</time>
      </trkpt>
      <trkpt lat="63.41053883" lon="10.4702615">
        <ele>142.953</ele>
        <time>1970-01-01T01:00:00Z</time>
      </trkpt>
      <trkpt lat="63.41055867" lon="10.47026517">
        <ele>142.953</ele>
        <time>1970-01-01T01:00:00Z</time>
      </trkpt>
      <trkpt lat="63.410579" lon="10.47027233">
        <ele>142.801</ele>
        <time>1970-01-01T01:00:00Z</time>
      </trkpt>
      <trkpt lat="63.41059967" lon="10.47027817">
        <ele>142.801</ele>
        <time>1970-01-01T01:00:00Z</time>
      </trkpt>
      <trkpt lat="63.41062083" lon="10.47027967">
        <ele>142.801</ele>
        <time>1970-01-01T01:00:00Z</time>
      </trkpt>
      <trkpt lat="63.41064167" lon="10.4702815">
        <ele>142.801</ele>
        <time>1970-01-01T01:00:00Z</time>
      </trkpt>
      <trkpt lat="63.41066" lon="10.47028417">
        <ele>142.801</ele>
        <time>1970-01-01T01:00:00Z</time>
      </trkpt>
      <trkpt lat="63.4106785" lon="10.47028867">
        <ele>142.801</ele>
        <time>1970-01-01T01:00:00Z</time>
      </trkpt>
      <trkpt lat="63.410699" lon="10.47028817">
        <ele>142.801</ele>
        <time>1970-01-01T01:00:00Z</time>
      </trkpt>
      <trkpt lat="63.410723" lon="10.470281">
        <ele>142.801</ele>
        <time>1970-01-01T01:00:00Z</time>
      </trkpt>
      <trkpt lat="63.410751" lon="10.470274">
        <ele>142.953</ele>
        <time>1970-01-01T01:00:00Z</time>
      </trkpt>
      <trkpt lat="63.41078083" lon="10.47026017">
        <ele>142.953</ele>
        <time>1970-01-01T01:00:00Z</time>
      </trkpt>
      <trkpt lat="63.41081233" lon="10.470257">
        <ele>143.105</ele>
        <time>1970-01-01T01:00:00Z</time>
      </trkpt>
      <trkpt lat="63.41084283" lon="10.47025567">
        <ele>143.105</ele>
        <time>1970-01-01T01:00:00Z</time>
      </trkpt>
      <trkpt lat="63.410874" lon="10.470272">
        <ele>143.258</ele>
        <time>1970-01-01T01:00:00Z</time>
      </trkpt>
      <trkpt lat="63.41090617" lon="10.47028967">
        <ele>143.258</ele>
        <time>1970-01-01T01:00:00Z</time>
      </trkpt>
      <trkpt lat="63.41093433" lon="10.47031367">
        <ele>143.563</ele>
        <time>1970-01-01T01:00:00Z</time>
      </trkpt>
      <trkpt lat="63.41096133" lon="10.47034233">
        <ele>143.563</ele>
        <time>1970-01-01T01:00:00Z</time>
      </trkpt>
      <trkpt lat="63.41098533" lon="10.4703775">
        <ele>143.867</ele>
        <time>1970-01-01T01:00:00Z</time>
      </trkpt>
      <trkpt lat="63.41100967" lon="10.47041533">
        <ele>143.867</ele>
        <time>1970-01-01T01:00:00Z</time>
      </trkpt>
      <trkpt lat="63.411033" lon="10.47045233">
        <ele>144.172</ele>
        <time>1970-01-01T01:00:00Z</time>
      </trkpt>
      <trkpt lat="63.411055" lon="10.470492">
        <ele>144.172</ele>
        <time>1970-01-01T01:00:00Z</time>
      </trkpt>
      <trkpt lat="63.41107783" lon="10.47053467">
        <ele>144.477</ele>
        <time>1970-01-01T01:00:00Z</time>
      </trkpt>
      <trkpt lat="63.41110117" lon="10.4705715">
        <ele>144.477</ele>
        <time>1970-01-01T01:00:00Z</time>
      </trkpt>
      <trkpt lat="63.41112533" lon="10.4706005">
        <ele>144.629</ele>
        <time>1970-01-01T01:00:00Z</time>
      </trkpt>
      <trkpt lat="63.41114783" lon="10.47062667">
        <ele>144.629</ele>
        <time>1970-01-01T01:00:00Z</time>
      </trkpt>
      <trkpt lat="63.41116933" lon="10.4706555">
        <ele>144.934</ele>
        <time>1970-01-01T01:00:00Z</time>
      </trkpt>
      <trkpt lat="63.41119033" lon="10.47068717">
        <ele>144.934</ele>
        <time>1970-01-01T01:00:00Z</time>
      </trkpt>
      <trkpt lat="63.41121167" lon="10.4707135">
        <ele>145.239</ele>
        <time>1970-01-01T01:00:00Z</time>
      </trkpt>
      <trkpt lat="63.411233" lon="10.470739">
        <ele>145.239</ele>
        <time>1970-01-01T01:00:00Z</time>
      </trkpt>
      <trkpt lat="63.411254" lon="10.4707625">
        <ele>145.544</ele>
        <time>1970-01-01T01:00:00Z</time>
      </trkpt>
      <trkpt lat="63.41127717" lon="10.47079167">
        <ele>145.544</ele>
        <time>1970-01-01T01:00:00Z</time>
      </trkpt>
      <trkpt lat="63.41130017" lon="10.4708195">
        <ele>145.849</ele>
        <time>1970-01-01T01:00:00Z</time>
      </trkpt>
      <trkpt lat="63.41132483" lon="10.47085">
        <ele>145.849</ele>
        <time>1970-01-01T01:00:00Z</time>
      </trkpt>
      <trkpt lat="63.41134733" lon="10.4708775">
        <ele>146.153</ele>
        <time>1970-01-01T01:00:00Z</time>
      </trkpt>
      <trkpt lat="63.4113695" lon="10.470904">
        <ele>146.153</ele>
        <time>1970-01-01T01:00:00Z</time>
      </trkpt>
      <trkpt lat="63.41139183" lon="10.47092467">
        <ele>146.458</ele>
        <time>1970-01-01T01:00:00Z</time>
      </trkpt>
      <trkpt lat="63.41141583" lon="10.4709455">
        <ele>146.458</ele>
        <time>1970-01-01T01:00:00Z</time>
      </trkpt>
      <trkpt lat="63.4114405" lon="10.47096867">
        <ele>146.915</ele>
        <time>1970-01-01T01:00:00Z</time>
      </trkpt>
      <trkpt lat="63.4114625" lon="10.47099033">
        <ele>146.915</ele>
        <time>1970-01-01T01:00:00Z</time>
      </trkpt>
      <trkpt lat="63.41148417" lon="10.47101433">
        <ele>147.373</ele>
        <time>1970-01-01T01:00:00Z</time>
      </trkpt>
      <trkpt lat="63.411506" lon="10.47103433">
        <ele>147.373</ele>
        <time>1970-01-01T01:00:00Z</time>
      </trkpt>
      <trkpt lat="63.4115295" lon="10.47105583">
        <ele>147.83</ele>
        <time>1970-01-01T01:00:00Z</time>
      </trkpt>
      <trkpt lat="63.41155283" lon="10.47107733">
        <ele>147.83</ele>
        <time>1970-01-01T01:00:00Z</time>
      </trkpt>
      <trkpt lat="63.41157667" lon="10.47110533">
        <ele>148.287</ele>
        <time>1970-01-01T01:00:00Z</time>
      </trkpt>
      <trkpt lat="63.41159833" lon="10.4711315">
        <ele>148.287</ele>
        <time>1970-01-01T01:00:00Z</time>
      </trkpt>
      <trkpt lat="63.411619" lon="10.471157">
        <ele>148.897</ele>
        <time>1970-01-01T01:00:00Z</time>
      </trkpt>
      <trkpt lat="63.41163833" lon="10.4711795">
        <ele>148.897</ele>
        <time>1970-01-01T01:00:00Z</time>
      </trkpt>
      <trkpt lat="63.41165867" lon="10.47120917">
        <ele>149.354</ele>
        <time>1970-01-01T01:00:00Z</time>
      </trkpt>
      <trkpt lat="63.4116825" lon="10.47124917">
        <ele>149.354</ele>
        <time>1970-01-01T01:00:00Z</time>
      </trkpt>
      <trkpt lat="63.41170683" lon="10.471288">
        <ele>149.963</ele>
        <time>1970-01-01T01:00:00Z</time>
      </trkpt>
      <trkpt lat="63.41173217" lon="10.471324">
        <ele>149.963</ele>
        <time>1970-01-01T01:00:00Z</time>
      </trkpt>
      <trkpt lat="63.41175433" lon="10.47135267">
        <ele>150.421</ele>
        <time>1970-01-01T01:00:00Z</time>
      </trkpt>
      <trkpt lat="63.41177483" lon="10.4713815">
        <ele>150.421</ele>
        <time>1970-01-01T01:00:00Z</time>
      </trkpt>
      <trkpt lat="63.41179133" lon="10.4714135">
        <ele>150.878</ele>
        <time>1970-01-01T01:00:00Z</time>
      </trkpt>
      <trkpt lat="63.41180783" lon="10.471446">
        <ele>150.878</ele>
        <time>1970-01-01T01:00:00Z</time>
      </trkpt>
      <trkpt lat="63.41182533" lon="10.47148733">
        <ele>151.335</ele>
        <time>1970-01-01T01:00:00Z</time>
      </trkpt>
      <trkpt lat="63.411844" lon="10.4715265">
        <ele>151.335</ele>
        <time>1970-01-01T01:00:00Z</time>
      </trkpt>
      <trkpt lat="63.41186417" lon="10.47157483">
        <ele>151.792</ele>
        <time>1970-01-01T01:00:00Z</time>
      </trkpt>
      <trkpt lat="63.41188517" lon="10.4716175">
        <ele>151.792</ele>
        <time>1970-01-01T01:00:00Z</time>
      </trkpt>
      <trkpt lat="63.41190717" lon="10.4716615">
        <ele>152.097</ele>
        <time>1970-01-01T01:00:00Z</time>
      </trkpt>
      <trkpt lat="63.41192617" lon="10.471695">
        <ele>152.097</ele>
        <time>1970-01-01T01:00:00Z</time>
      </trkpt>
      <trkpt lat="63.41194317" lon="10.47172217">
        <ele>152.402</ele>
        <time>1970-01-01T01:00:00Z</time>
      </trkpt>
      <trkpt lat="63.41195183" lon="10.47174583">
        <ele>152.402</ele>
        <time>1970-01-01T01:00:00Z</time>
      </trkpt>
      <trkpt lat="63.41195567" lon="10.47176567">
        <ele>152.554</ele>
        <time>1970-01-01T01:00:00Z</time>
      </trkpt>
      <trkpt lat="63.41195533" lon="10.47178483">
        <ele>152.554</ele>
        <time>1970-01-01T01:00:00Z</time>
      </trkpt>
    </trkseg>
  </trk>
</gpx>